# Wetter Temperatur Luftdruck Luftfeuchtigkeit Sichtweite Windgeschwindigkeit Windrichtung Zeit
1 Snow 1 1007 91 10000 0.45 235 21:42 02.12.2021
2 Snow 1 1006 90 3850 0.45 267 20:57 02.12.2021
3 Snow 1 1006 90 3848 0.45 227 20:37 02.12.2021
4 Clouds 1 1004 89 10000 0.45 281 19:25 02.12.2021
5 Snow 1 1003 89 9977 0.45 260 17:43 02.12.2021
6 Clouds 4 1004 80 222 3.13 260 15:42 02.12.2021
7 Clouds 5 1000 76 1032 0.45 274 14:59 02.12.2021
8 Clouds 6 1000 73 10000 0.89 227 14:33 02.12.2021
9 Clouds 6 1000 73 10000 0.89 209 12:52 02.12.2021
10 Clouds 6 1001 74 10000 1.34 212 12:18 02.12.2021
11 Clouds 4 1002 83 10000 0.45 286 09:41 02.12.2021
12 Clouds 4 1002 83 10000 0.89 277 08:52 02.12.2021
13 Rain 4 1001 86 10000 0.89 223 04:54 02.12.2021
14 Clouds 6 1000 80 10000 0.89 283 00:53 02.12.2021
15 Clouds 7 1001 78 10000 2.24 211 23:28 01.12.2021
16 Clouds 7 1001 78 10000 1.79 249 22:24 01.12.2021
17 Clouds 7 1001 79 10000 2.24 263 21:21 01.12.2021
18 Rain 7 1001 76 10000 2.68 223 19:58 01.12.2021
19 Clouds 8 1000 76 10000 3.58 294 19:34 01.12.2021
20 Clouds 8 999 68 10000 1.79 211 17:50 01.12.2021
21 Rain 9 997 65 10000 2.24 260 16:58 01.12.2021
22 Clouds 9 1001 68 10000 0.89 215 15:20 01.12.2021
23 Clouds 9 1003 71 10000 1.79 198 13:49 01.12.2021
24 Clouds 9 1003 72 10000 1.34 224 13:30 01.12.2021
25 Clouds 7 1007 78 10000 2.24 219 10:43 01.12.2021
26 Clouds 6 1007 83 10000 1.34 188 09:56 01.12.2021
27 Clouds 5 1008 89 10000 0.45 234 08:40 01.12.2021
28 Clouds 5 1008 88 10000 0.45 207 07:54 01.12.2021
29 Rain 5 1009 88 10000 0.89 270 07:19 01.12.2021
30 Clouds 5 1011 83 10000 2.24 249 03:50 01.12.2021
31 Clouds 5 1012 86 10000 2.24 238 02:34 01.12.2021
32 Clouds 4 1014 88 4499 2.68 224 23:57 30.11.2021
33 Rain 4 1014 86 1677 2.68 221 23:28 30.11.2021
34 Clouds 4 1014 86 2965 2.68 238 22:22 30.11.2021
35 Clouds 3 1013 88 904 2.24 240 20:46 30.11.2021
36 Clouds 3 1013 87 10000 2.24 275 20:24 30.11.2021
37 Clouds 3 1013 86 10000 3.13 200 19:39 30.11.2021
38 Rain 3 1012 85 7099 3.13 295 18:52 30.11.2021
39 Clouds 2 1012 83 10000 2.68 203 17:23 30.11.2021
40 Snow 2 1012 85 10000 2.24 160 15:54 30.11.2021
41 Snow 1 1011 88 10000 2.68 295 14:33 30.11.2021
42 Snow 1 1012 86 10000 3.13 194 13:41 30.11.2021
43 Snow 0 1012 86 5426 3.13 259 12:54 30.11.2021
44 Snow 0 1013 87 1355 2.24 306 11:55 30.11.2021
45 Snow 0 1014 88 3488 3.13 227 11:25 30.11.2021
46 Snow 0 1014 86 3484 3.13 265 10:36 30.11.2021
47 Snow 0 1016 80 10000 2.24 210 08:56 30.11.2021
48 Snow 0 1016 80 10000 2.24 190 08:32 30.11.2021
49 Snow 0 1016 82 10000 1.79 227 07:56 30.11.2021
50 Clouds 0 1016 85 10000 2.24 225 06:37 30.11.2021
51 Snow 0 1016 88 9561 1.79 239 01:50 30.11.2021
52 Snow 0 1015 87 1173 1.34 208 01:27 30.11.2021
53 Snow 0 1015 88 9416 0.89 215 23:40 29.11.2021
54 Clouds -1 1015 89 289 0.89 180 23:18 29.11.2021
55 Snow -1 1014 88 289 1.34 254 22:38 29.11.2021
56 Snow -1 1014 88 352 0.45 261 21:56 29.11.2021
57 Snow -1 1013 88 404 0.89 232 21:20 29.11.2021
58 Snow -1 1013 87 405 0.89 229 20:48 29.11.2021
59 Clouds -1 1013 88 5309 0.89 194 19:59 29.11.2021
60 Clouds -1 1013 89 5092 0.45 210 19:41 29.11.2021
61 Clouds -1 1013 89 10000 0.45 270 18:59 29.11.2021
62 Clouds -1 1014 80 10000 5.5 261 18:41 29.11.2021
63 Clouds -1 1012 81 10000 4.57 263 17:22 29.11.2021
64 Clouds -1 1012 81 10000 4.58 263 16:50 29.11.2021
65 Clouds 0 1011 76 10000 4.7 274 16:24 29.11.2021
66 Clouds 1 1010 74 10000 4.82 287 14:47 29.11.2021
67 Snow 1 1009 80 10000 4.7 299 14:29 29.11.2021
68 Snow 1 1008 83 4215 4.63 296 13:23 29.11.2021
69 Snow 0 1008 82 4807 4.17 286 12:20 29.11.2021
70 Snow 0 1008 83 10000 3.77 295 11:30 29.11.2021
71 Snow -1 1007 89 4389 3.59 299 10:27 29.11.2021
72 Snow -1 1006 96 1025 2.76 293 07:48 29.11.2021
73 Clouds -1 1004 97 2721 2.28 294 05:52 29.11.2021
74 Snow -1 1001 97 1228 1.31 259 01:31 29.11.2021
75 Snow -1 1001 97 1105 1.57 258 00:35 29.11.2021
76 Snow -1 1001 97 5945 1.53 266 23:41 28.11.2021
77 Snow 0 1001 95 5275 1.48 269 22:29 28.11.2021
78 Clouds -1 1001 95 5270 1.48 269 21:41 28.11.2021
79 Clouds 0 1000 92 10000 1.42 262 20:51 28.11.2021
80 Clouds 0 1000 92 10000 1.43 248 19:54 28.11.2021
81 Clouds 0 999 96 10000 0.8 233 18:42 28.11.2021
82 Clouds 0 999 96 10000 0.57 211 18:23 28.11.2021
83 Clouds 0 999 96 10000 0.57 211 17:49 28.11.2021
84 Clouds 0 998 95 10000 0.32 131 17:27 28.11.2021
85 Clouds 0 998 93 10000 0.33 46 16:28 28.11.2021
86 Clouds 1 998 93 10000 0.33 48 15:52 28.11.2021
87 Clouds 0 998 85 10000 0.91 337 14:56 28.11.2021
88 Snow 0 998 84 10000 1.31 309 14:30 28.11.2021
89 Snow 1 997 92 2002 1.32 292 12:58 28.11.2021
90 Snow 1 998 95 165 0.86 241 11:57 28.11.2021
91 Rain 1 998 93 282 1.1 243 10:37 28.11.2021
92 Snow 0 998 88 3911 1.69 235 10:19 28.11.2021
93 Snow 0 998 84 10000 1.63 235 09:36 28.11.2021
94 Snow 0 998 87 10000 1.1 278 06:29 28.11.2021
95 Snow 0 998 88 10000 0.63 217 23:33 27.11.2021
96 Clouds 1 998 92 10000 2.05 230 20:33 27.11.2021
97 Rain 2 997 90 10000 2.76 234 18:49 27.11.2021
98 Rain 2 996 95 10000 2.81 179 16:52 27.11.2021
99 Rain 3 996 95 10000 2.88 180 15:55 27.11.2021
100 Rain 3 995 93 10000 2.41 176 13:47 27.11.2021
101 Rain 3 995 97 987 2.01 189 12:31 27.11.2021
102 Snow 2 995 97 99 1.88 181 10:42 27.11.2021
103 Rain 1 994 92 1469 1.31 192 09:51 27.11.2021
104 Clouds 1 994 76 10000 0.87 210 08:43 27.11.2021
105 Snow -1 993 76 10000 2.76 138 05:18 27.11.2021
106 Clouds -1 995 76 10000 2.41 156 01:55 27.11.2021
107 Clouds -1 996 85 10000 2.24 171 23:36 26.11.2021
108 Clouds 0 998 91 10000 2.24 198 22:25 26.11.2021
109 Clouds 0 998 91 10000 2.24 198 21:37 26.11.2021
110 Clouds 0 999 92 10000 2.18 205 20:59 26.11.2021
111 Clouds 0 999 91 10000 2.23 208 20:29 26.11.2021
112 Clouds 0 999 91 10000 2.23 208 19:49 26.11.2021
113 Clouds 0 999 91 10000 2.07 215 18:41 26.11.2021
114 Clouds 0 1000 91 10000 1.49 243 17:23 26.11.2021
115 Clouds 0 1000 84 10000 2.25 273 15:59 26.11.2021
116 Snow 0 1001 90 10000 0.45 278 13:36 26.11.2021
117 Clouds 0 1001 90 10000 0.45 278 12:54 26.11.2021
118 Snow -1 1003 91 10000 0.45 290 10:42 26.11.2021
119 Snow -1 1004 91 10000 2.44 274 09:29 26.11.2021
120 Snow -1 1004 92 10000 0.45 280 08:47 26.11.2021
121 Snow -1 1004 92 10000 0.45 303 08:19 26.11.2021
122 Clouds -1 1005 92 10000 1.34 317 06:29 26.11.2021
123 Clouds -1 1005 92 10000 0.45 282 04:52 26.11.2021
124 Clouds -1 1006 93 10000 0.45 291 03:32 26.11.2021
125 Clouds -1 1009 92 10000 0.89 323 23:29 25.11.2021
126 Clouds -1 1010 92 10000 0.89 323 22:19 25.11.2021
127 Clouds -1 1010 92 10000 0.45 287 20:41 25.11.2021
128 Clouds -1 1011 91 10000 0.45 288 19:21 25.11.2021
129 Clouds 0 1010 91 10000 0.45 328 18:25 25.11.2021
130 Clouds 0 1010 91 10000 0.45 336 17:27 25.11.2021
131 Clouds 0 1010 91 10000 0.89 301 16:44 25.11.2021
132 Clouds 0 1009 90 10000 0.89 277 15:59 25.11.2021
133 Clouds -1 1008 66 10000 1.59 9 14:30 25.11.2021
134 Clouds -1 1008 55 10000 1.5 19 12:57 25.11.2021
135 Clouds -1 1009 56 10000 1.15 43 11:56 25.11.2021
136 Clouds -2 1010 58 10000 0.45 67 10:43 25.11.2021
137 Clouds -1 1011 92 10000 0.67 117 08:28 25.11.2021
138 Clear -1 1013 94 10000 0.89 123 03:18 25.11.2021
139 Clear -1 1014 91 10000 0.45 121 01:26 25.11.2021
140 Clear 0 1016 91 10000 0.45 153 22:41 24.11.2021
141 Clear 0 1016 91 10000 2.24 121 21:57 24.11.2021
142 Clear 0 1016 91 10000 0.45 161 21:22 24.11.2021
143 Clear 0 1017 90 10000 1.06 126 20:28 24.11.2021
144 Clear 0 1018 90 10000 1.06 126 19:40 24.11.2021
145 Clear 0 1019 90 10000 0.89 119 18:29 24.11.2021
146 Clear 0 1019 93 10000 0.45 126 16:48 24.11.2021
147 Clear 1 1019 72 10000 2.74 83 15:22 24.11.2021
148 Clear 0 1019 61 10000 2.63 83 14:31 24.11.2021
149 Clear 0 1019 57 10000 3.08 80 13:51 24.11.2021
150 Clear 0 1021 93 10000 2.83 80 11:49 24.11.2021
151 Clear 1 1022 86 10000 2.64 83 11:19 24.11.2021
152 Clear 0 1023 94 10000 0.45 192 10:38 24.11.2021
153 Clear 0 1023 94 10000 0.45 103 09:40 24.11.2021
154 Clear -1 1024 94 10000 1.81 82 07:42 24.11.2021
155 Clouds -1 1024 94 10000 1.87 78 06:21 24.11.2021
156 Clouds -1 1025 93 10000 0.45 115 03:48 24.11.2021
157 Clouds 0 1025 92 10000 2.22 77 23:44 23.11.2021
158 Clouds 0 1025 91 10000 2.22 75 22:39 23.11.2021
159 Clouds 1 1026 91 10000 2.26 76 21:46 23.11.2021
160 Clouds 1 1029 91 10000 2.31 78 20:48 23.11.2021
161 Clouds 2 1027 87 10000 0.89 96 19:37 23.11.2021
162 Clear 2 1027 87 10000 0.45 97 18:39 23.11.2021
163 Clear 2 1028 87 10000 0.45 212 17:57 23.11.2021
164 Clouds 3 1027 86 10000 0.45 120 16:55 23.11.2021
165 Clouds 4 1027 85 10000 0.45 94 15:59 23.11.2021
166 Clouds 4 1027 81 10000 0.45 36 15:19 23.11.2021
167 Clouds 4 1027 86 10000 0.45 32 13:46 23.11.2021
168 Clouds 3 1028 91 10000 0.89 37 11:40 23.11.2021
169 Clouds 2 1028 90 10000 0.45 43 09:59 23.11.2021
170 Clouds 1 1027 90 10000 0.45 42 08:46 23.11.2021
171 Clouds 1 1026 91 10000 0.45 34 06:39 23.11.2021
172 Clouds 2 1026 91 10000 0.89 41 03:45 23.11.2021
173 Clouds 3 1025 94 10000 0.89 57 00:57 23.11.2021
174 Clouds 3 1025 92 10000 0.45 123 23:21 22.11.2021
175 Clouds 3 1025 91 10000 0.89 54 22:34 22.11.2021
176 Clouds 4 1024 92 10000 1.34 49 21:49 22.11.2021
177 Clouds 4 1024 92 10000 1.34 30 21:31 22.11.2021
178 Clouds 4 1024 92 8251 1.34 34 20:50 22.11.2021
179 Rain 4 1024 94 4989 2.65 60 19:55 22.11.2021
180 Rain 4 1023 92 320 2.29 66 19:19 22.11.2021
181 Rain 4 1023 92 329 2.29 66 18:39 22.11.2021
182 Clouds 4 1022 92 56 0.45 49 17:38 22.11.2021
183 Clouds 4 1021 91 65 0.45 91 16:18 22.11.2021
184 Rain 4 1020 92 4662 0.45 74 13:58 22.11.2021
185 Rain 4 1019 92 4542 0.89 32 11:59 22.11.2021
186 Rain 3 1019 93 5023 1.5 14 10:43 22.11.2021
187 Rain 3 1018 93 10000 0.45 346 09:43 22.11.2021
188 Rain 3 1018 93 10000 0.89 99 08:40 22.11.2021
189 Rain 3 1016 92 10000 0.45 31 06:22 22.11.2021
190 Clouds 2 1014 91 10000 0.83 328 23:30 21.11.2021
191 Clouds 2 1014 91 10000 0.45 304 22:50 21.11.2021
192 Clouds 2 1014 91 10000 0.87 329 21:57 21.11.2021
193 Clouds 2 1014 89 10000 0.78 330 20:42 21.11.2021
194 Clouds 2 1013 89 10000 0.45 107 19:58 21.11.2021
195 Clear 3 1013 88 10000 0.89 344 18:25 21.11.2021
196 Clear 3 1012 87 10000 0.45 314 17:39 21.11.2021
197 Clear 4 1012 86 10000 0.45 44 16:42 21.11.2021
198 Clear 6 1012 77 10000 0.45 238 14:46 21.11.2021
199 Clear 9 1012 75 10000 0.45 84 13:49 21.11.2021
200 Clear 7 1012 79 10000 0.45 171 12:38 21.11.2021
201 Clear 7 1012 81 10000 1.34 300 11:57 21.11.2021
202 Clear 6 1013 82 10000 1.34 285 11:35 21.11.2021
203 Clear 4 1014 83 10000 0.45 250 10:19 21.11.2021
204 Rain 1 1014 95 10000 2.21 242 09:20 21.11.2021
205 Clear 0 1014 95 10000 2.41 236 08:30 21.11.2021
206 Clear 0 1012 95 10000 2.41 236 07:50 21.11.2021
207 Clouds 0 1013 94 10000 1.81 235 06:20 21.11.2021
208 Clouds 0 1015 95 10000 0.45 181 05:30 21.11.2021
209 Clouds 1 1016 95 10000 0.45 119 03:20 21.11.2021
210 Clouds 1 1016 95 10000 0.45 128 02:53 21.11.2021
211 Clouds 2 1018 94 10000 1.46 228 01:23 21.11.2021
212 Clouds 2 1018 94 10000 1.34 272 00:23 21.11.2021
213 Clouds 3 1020 93 10000 1.42 188 21:51 20.11.2021
214 Clouds 4 1021 93 10000 0.89 270 21:30 20.11.2021
215 Clear 5 1022 91 10000 0.89 305 19:24 20.11.2021
216 Clear 5 1022 87 10000 1.5 165 18:45 20.11.2021
217 Clear 5 1023 87 10000 1.12 147 18:19 20.11.2021
218 Clear 6 1023 85 10000 0.89 129 17:21 20.11.2021
219 Clear 6 1024 86 10000 0.87 74 14:51 20.11.2021
220 Clouds 6 1025 86 10000 2.24 124 14:28 20.11.2021
221 Clouds 6 1025 87 10000 0.92 66 13:35 20.11.2021
222 Clouds 5 1028 93 10000 1.38 113 11:25 20.11.2021
223 Clouds 4 1028 95 10000 1.15 113 09:56 20.11.2021
224 Clouds 3 1029 92 10000 0.73 135 08:35 20.11.2021
225 Clouds 3 1029 93 10000 1.04 178 06:32 20.11.2021
226 Clouds 3 1030 93 10000 0.86 194 05:18 20.11.2021
227 Clouds 3 1030 93 10000 0.89 48 04:49 20.11.2021
228 Clouds 3 1032 92 10000 0.94 264 00:43 20.11.2021
229 Clouds 3 1031 92 10000 0.45 331 23:45 19.11.2021
230 Clouds 2 1031 90 10000 1.36 249 22:53 19.11.2021
231 Clouds 3 1031 88 10000 0.45 278 21:28 19.11.2021
232 Clouds 3 1031 90 10000 1.34 273 20:41 19.11.2021
233 Clouds 3 1031 87 10000 1.3 262 20:23 19.11.2021
234 Clouds 3 1031 89 10000 1.3 262 19:44 19.11.2021
235 Clouds 3 1030 89 10000 1.62 244 18:46 19.11.2021
236 Clouds 5 1031 82 10000 1.32 264 17:44 19.11.2021
237 Clouds 7 1032 80 10000 1.26 286 16:43 19.11.2021
238 Clouds 9 1031 68 10000 0.45 231 15:21 19.11.2021
239 Clouds 7 1032 84 10000 0.45 271 11:44 19.11.2021
240 Clouds 4 1033 92 10000 1.99 246 10:25 19.11.2021
241 Clouds 1 1033 91 10000 0.45 137 08:39 19.11.2021
242 Clouds 1 1032 92 10000 0.89 227 06:29 19.11.2021
243 Clouds 0 1032 91 10000 2.18 235 04:19 19.11.2021
244 Clouds 1 1032 94 10000 2.25 236 23:59 18.11.2021
245 Clouds 1 1032 94 10000 2.25 236 23:41 18.11.2021
246 Clouds 1 1032 89 10000 1.92 238 21:41 18.11.2021
247 Clouds 2 1032 89 10000 1.56 247 20:46 18.11.2021
248 Clouds 2 1032 88 10000 2.01 226 20:28 18.11.2021
249 Clouds 2 1032 88 10000 2.01 226 19:43 18.11.2021
250 Clouds 3 1031 87 10000 1.71 223 18:40 18.11.2021
251 Clouds 4 1031 85 10000 1.16 210 17:58 18.11.2021
252 Clouds 5 1031 84 10000 1.16 210 17:36 18.11.2021
253 Clouds 6 1031 84 10000 0.41 319 16:43 18.11.2021
254 Clouds 8 1030 73 10000 0.45 277 15:24 18.11.2021
255 Clouds 8 1031 78 10000 1.34 304 13:25 18.11.2021
256 Clouds 7 1031 83 10000 1.34 265 11:45 18.11.2021
257 Clouds 6 1032 83 10000 0.45 304 11:26 18.11.2021
258 Clouds 6 1032 85 10000 1.34 278 10:56 18.11.2021
259 Clouds 5 1031 89 10000 0.79 250 09:32 18.11.2021
260 Clouds 4 1030 92 10000 0.85 288 07:34 18.11.2021
261 Clouds 4 1029 92 10000 1.58 278 05:47 18.11.2021
262 Clouds 4 1029 88 10000 1.86 241 04:31 18.11.2021
263 Clouds 4 1029 88 10000 0.89 241 01:22 18.11.2021
264 Clouds 4 1028 88 10000 0.45 270 22:48 17.11.2021
265 Clouds 4 1028 88 10000 0.45 271 22:20 17.11.2021
266 Clouds 4 1027 87 10000 0.45 218 21:37 17.11.2021
267 Clouds 4 1027 86 10000 0.89 281 20:50 17.11.2021
268 Clouds 5 1025 87 10000 1.63 285 17:53 17.11.2021
269 Clouds 4 1025 89 10000 0.45 219 17:25 17.11.2021
270 Clouds 5 1023 88 10000 0.45 210 14:51 17.11.2021
271 Clouds 5 1023 90 10000 0.89 272 12:41 17.11.2021
272 Clouds 5 1024 91 10000 0.45 274 11:44 17.11.2021
273 Clouds 4 1023 92 10000 0.89 268 10:28 17.11.2021
274 Clouds 4 1023 92 10000 0.45 292 09:24 17.11.2021
275 Clouds 4 1022 92 10000 1.17 302 07:44 17.11.2021
276 Clouds 4 1021 92 10000 1.16 280 03:51 17.11.2021
277 Clouds 4 1021 92 10000 1.16 280 03:51 17.11.2021
278 Clouds 4 1021 92 10000 0.89 277 01:45 17.11.2021
279 Clouds 4 1021 92 10000 1.28 275 23:26 16.11.2021
280 Clouds 4 1021 92 10000 0.91 261 21:27 16.11.2021
281 Clouds 4 1021 92 10000 0.89 264 20:18 16.11.2021
282 Clouds 4 1021 92 10000 0.83 272 18:54 16.11.2021
283 Clouds 4 1021 92 10000 0.83 272 18:35 16.11.2021
284 Clouds 4 1021 92 10000 1.34 287 17:43 16.11.2021
285 Clouds 4 1021 91 10000 0.89 325 16:49 16.11.2021
286 Clouds 4 1021 93 10000 0.89 287 16:18 16.11.2021
287 Clouds 4 1021 91 10000 1.44 285 15:40 16.11.2021
288 Clouds 4 1025 89 10000 0.45 280 12:34 16.11.2021
289 Clouds 4 1022 93 10000 2.05 268 09:49 16.11.2021
290 Clouds 4 1022 93 10000 0.45 312 08:48 16.11.2021
291 Clouds 3 1022 95 10000 1.34 216 07:34 16.11.2021
292 Clouds 4 1021 94 10000 0.45 211 04:45 16.11.2021
293 Clouds 4 1021 95 10000 0.45 143 23:23 15.11.2021
294 Clouds 4 1022 93 10000 0.89 133 22:40 15.11.2021
295 Clouds 5 1022 93 10000 0.45 55 21:55 15.11.2021
296 Clouds 5 1022 93 10000 0.89 113 21:30 15.11.2021
297 Clouds 4 1021 93 10000 0.76 39 20:29 15.11.2021
298 Clouds 4 1021 95 10000 0.89 92 18:53 15.11.2021
299 Clouds 4 1022 92 10000 0.89 122 16:56 15.11.2021
300 Clouds 5 1022 91 10000 0.45 106 15:48 15.11.2021
301 Clouds 5 1022 91 10000 0.45 106 15:48 15.11.2021
302 Clouds 5 1020 75 10000 2.33 62 15:29 15.11.2021
303 Clouds 5 1020 75 10000 2.26 70 13:53 15.11.2021
304 Clouds 4 1021 95 10000 2.08 65 12:18 15.11.2021
305 Clouds 4 1022 95 10000 0.89 51 09:30 15.11.2021
306 Clouds 4 1022 95 10000 0.45 39 08:37 15.11.2021
307 Clouds 4 1021 95 10000 0.45 45 06:32 15.11.2021
308 Clouds 4 1022 92 10000 1.34 60 00:34 15.11.2021
309 Clouds 5 1022 92 10000 0.45 124 22:41 14.11.2021
310 Clouds 5 1022 92 10000 0.89 32 21:18 14.11.2021
311 Clouds 6 1021 92 10000 0.89 63 19:18 14.11.2021
312 Clouds 6 1021 92 10000 1.34 51 18:54 14.11.2021
313 Clouds 6 1021 92 10000 0.89 52 18:36 14.11.2021
314 Clouds 6 1021 92 10000 0.89 65 18:18 14.11.2021
315 Clouds 6 1020 93 10000 0.89 41 17:57 14.11.2021
316 Clouds 6 1020 93 10000 0.89 50 17:39 14.11.2021
317 Clouds 6 1020 93 10000 0.45 38 17:21 14.11.2021
318 Clouds 6 1020 91 10000 3.27 79 16:57 14.11.2021
319 Clouds 6 1020 91 10000 0.45 37 16:39 14.11.2021
320 Clouds 6 1019 91 10000 0.45 61 16:18 14.11.2021
321 Clouds 7 1019 90 10000 0.45 48 15:19 14.11.2021
322 Clouds 6 1019 90 10000 0.89 5 14:43 14.11.2021
323 Clouds 6 1019 91 10000 0.89 45 14:20 14.11.2021
324 Clouds 7 1019 91 10000 0.89 10 13:51 14.11.2021
325 Clouds 6 1019 91 10000 0.89 22 13:27 14.11.2021
326 Clouds 7 1019 92 10000 0.45 113 12:22 14.11.2021
327 Clouds 6 1019 95 10000 0.89 65 10:58 14.11.2021
328 Clouds 6 1019 96 10000 1.34 34 10:36 14.11.2021
329 Clouds 6 1018 94 10000 0.45 49 09:26 14.11.2021
330 Clouds 6 1018 94 10000 1.76 69 08:51 14.11.2021
331 Rain 6 1017 95 10000 0.73 141 04:47 14.11.2021
332 Clouds 6 1017 94 10000 0.45 189 22:50 13.11.2021
333 Clouds 6 1017 94 10000 1.74 193 21:59 13.11.2021
334 Clouds 6 1017 94 10000 0.45 222 21:35 13.11.2021
335 Clouds 6 1017 94 10000 2.1 185 20:43 13.11.2021
336 Rain 6 1017 93 10000 0.89 163 18:56 13.11.2021
337 Rain 6 1017 94 10000 1.34 161 18:32 13.11.2021
338 Rain 6 1017 93 10000 0.89 188 17:41 13.11.2021
339 Rain 6 1018 91 10000 0.45 278 15:55 13.11.2021
340 Rain 7 1018 89 10000 0.45 245 14:45 13.11.2021
341 Clouds 7 1017 89 10000 0.89 275 13:56 13.11.2021
342 Clouds 7 1018 86 10000 0.89 322 12:43 13.11.2021
343 Rain 6 1020 84 10000 2.01 277 11:51 13.11.2021
344 Rain 4 1017 71 10000 1.86 259 11:24 13.11.2021
345 Clouds 4 1017 71 10000 1.87 259 10:39 13.11.2021
346 Clouds 3 1018 96 10000 1.86 249 09:49 13.11.2021
347 Clouds 3 1020 97 10000 1.68 219 09:31 13.11.2021
348 Clouds 2 1018 96 10000 1.68 219 08:49 13.11.2021
349 Clear 2 1018 94 10000 0.89 205 07:54 13.11.2021
350 Clouds 2 1017 94 10000 1.63 276 04:43 13.11.2021
351 Clouds 2 1017 94 10000 1.97 234 04:23 13.11.2021
352 Clear 3 1019 96 10000 0.45 250 00:19 13.11.2021
353 Clear 3 1019 94 10000 1.55 250 22:42 12.11.2021
354 Clouds 3 1019 93 10000 1.36 282 20:55 12.11.2021
355 Clear 3 1019 93 10000 0.45 247 19:43 12.11.2021
356 Clear 3 1019 93 10000 0.83 160 19:23 12.11.2021
357 Clear 4 1019 91 10000 0.47 126 18:20 12.11.2021
358 Clear 3 1017 82 10000 1.33 42 16:20 12.11.2021
359 Clouds 3 1017 73 10000 1.46 52 15:31 12.11.2021
360 Clouds 2 1019 69 10000 1.69 70 11:32 12.11.2021
361 Clouds 2 1020 71 10000 1.31 71 10:50 12.11.2021
362 Clouds 2 1022 79 10000 0.8 124 09:29 12.11.2021
363 Clouds 1 1022 94 10000 0.79 124 08:38 12.11.2021
364 Clear 1 1023 93 10000 0.13 37 02:25 12.11.2021
365 Clear 3 1024 77 10000 0.75 198 23:39 11.11.2021
366 Clear 3 1024 74 10000 0.59 280 22:30 11.11.2021
367 Clear 3 1027 83 10000 0.86 277 21:27 11.11.2021
368 Clear 3 1027 82 10000 0.86 273 20:38 11.11.2021
369 Clear 5 1024 83 10000 0.26 343 18:56 11.11.2021
370 Clear 6 1024 82 10000 0.77 10 17:43 11.11.2021
371 Clear 8 1023 77 10000 1.27 356 16:43 11.11.2021
372 Clear 11 1023 72 10000 0.45 78 14:46 11.11.2021
373 Clear 11 1023 71 10000 0.45 45 14:28 11.11.2021
374 Clear 12 1023 69 10000 0.89 64 13:38 11.11.2021
375 Clear 11 1023 75 10000 1.79 309 12:48 11.11.2021
376 Clear 3 1023 68 10000 1.23 303 10:40 11.11.2021
377 Clear 2 1024 77 10000 1.27 225 09:34 11.11.2021
378 Clear 1 1024 75 10000 1.22 268 07:38 11.11.2021
379 Clear 1 1024 76 10000 0.88 258 04:45 11.11.2021
380 Clouds 2 1024 75 10000 0.16 3 23:35 10.11.2021
381 Clouds 3 1024 75 10000 0.32 100 22:22 10.11.2021
382 Clouds 4 1024 87 10000 0.46 70 21:21 10.11.2021
383 Clouds 4 1024 91 10000 0.48 69 20:47 10.11.2021
384 Clouds 5 1025 87 10000 0.66 30 19:47 10.11.2021
385 Clouds 5 1025 86 10000 0.7 36 19:24 10.11.2021
386 Rain 7 1024 82 10000 1.25 74 16:38 10.11.2021
387 Clouds 7 1024 78 10000 1.4 56 15:40 10.11.2021
388 Clouds 8 1024 76 10000 1.31 63 13:51 10.11.2021
389 Clouds 7 1025 77 10000 0.45 111 12:59 10.11.2021
390 Clouds 6 1024 82 10000 1.32 77 11:36 10.11.2021
391 Clouds 1 1026 73 10000 0.52 89 08:51 10.11.2021
392 Clouds -1 1026 94 10000 0.52 89 08:33 10.11.2021
393 Clouds -1 1025 93 10000 0.61 251 06:40 10.11.2021
394 Clouds -1 1025 93 10000 1.27 236 05:51 10.11.2021
395 Clouds -1 1026 92 10000 0.53 260 00:27 10.11.2021
396 Clouds 1 1026 88 10000 1.09 130 21:55 09.11.2021
397 Clouds 2 1025 85 10000 2.05 94 20:32 09.11.2021
398 Clouds 2 1025 85 10000 2.05 94 20:32 09.11.2021
399 Clouds 3 1026 83 10000 2.85 89 19:26 09.11.2021
400 Clouds 4 1026 80 10000 1.34 126 18:37 09.11.2021
401 Clouds 7 1026 72 10000 0.89 54 16:26 09.11.2021
402 Clouds 8 1027 74 10000 1.79 30 14:52 09.11.2021
403 Clouds 7 1027 72 10000 1.34 103 13:21 09.11.2021
404 Clouds 6 1027 78 10000 0.89 35 11:59 09.11.2021
405 Clouds 4 1027 89 10000 1.34 76 10:46 09.11.2021
406 Rain 2 1027 90 10000 0.45 103 09:42 09.11.2021
407 Clouds 0 1027 91 10000 0.89 126 08:37 09.11.2021
408 Clouds -1 1027 90 10000 1.34 121 06:51 09.11.2021
409 Clouds 0 1026 89 10000 2.05 88 02:30 09.11.2021
410 Clouds 0 1026 88 10000 2.05 88 01:50 09.11.2021
411 Clouds -1 1026 91 10000 1.59 84 00:19 09.11.2021
412 Clouds -1 1026 91 10000 1.61 72 23:28 08.11.2021
413 Clouds 0 1025 87 10000 1.61 72 22:34 08.11.2021
414 Clouds 1 1026 85 10000 1.52 78 21:21 08.11.2021
415 Clouds 2 1025 84 10000 1.52 82 20:31 08.11.2021
416 Clouds 4 1025 82 10000 1.62 58 19:18 08.11.2021
417 Clouds 6 1024 76 10000 1.65 46 17:35 08.11.2021
418 Clouds 8 1023 67 10000 0.45 11 15:38 08.11.2021
419 Clouds 8 1023 69 10000 0.45 71 14:55 08.11.2021
420 Clouds 8 1023 70 10000 1.34 39 14:24 08.11.2021
421 Clouds 7 1023 78 10000 0.45 56 12:48 08.11.2021
422 Clouds 7 1024 80 10000 0.89 324 11:37 08.11.2021
423 Clouds 6 1023 85 10000 0.45 53 10:35 08.11.2021
424 Clouds 4 1023 92 10000 1.14 240 08:56 08.11.2021
425 Clouds 4 1023 91 10000 1.35 241 07:56 08.11.2021
426 Clouds 4 1022 90 10000 1.99 231 06:54 08.11.2021
427 Clouds 6 1021 91 10000 0.89 223 03:35 08.11.2021
428 Clouds 6 1021 89 10000 0.89 274 00:18 08.11.2021
429 Clouds 6 1021 87 10000 0.89 259 22:48 07.11.2021
430 Clouds 7 1020 77 10000 0.45 217 21:24 07.11.2021
431 Clouds 7 1020 71 10000 0.45 215 19:56 07.11.2021
432 Clouds 8 1020 64 10000 0.45 262 18:28 07.11.2021
433 Clouds 8 1020 59 10000 0.45 265 17:40 07.11.2021
434 Clouds 9 1022 55 10000 2.24 259 16:21 07.11.2021
435 Clouds 11 1020 49 10000 1.79 263 14:47 07.11.2021
436 Clouds 11 1020 49 10000 0.89 301 14:24 07.11.2021
437 Clouds 9 1021 62 10000 0.45 229 12:48 07.11.2021
438 Clouds 7 1022 69 10000 0.89 202 11:31 07.11.2021
439 Clouds 2 1024 90 10000 2.81 243 08:59 07.11.2021
440 Clear 1 1026 93 10000 1.34 255 02:55 07.11.2021
441 Clear 0 1026 93 10000 0.45 277 02:18 07.11.2021
442 Clear 0 1026 90 10000 1.83 200 22:56 06.11.2021
443 Clear 1 1027 89 10000 1.42 196 21:53 06.11.2021
444 Clear 1 1027 88 10000 1.31 167 20:59 06.11.2021
445 Clear 2 1028 87 10000 1.43 151 20:18 06.11.2021
446 Clear 5 1028 82 10000 1.1 94 17:31 06.11.2021
447 Clear 8 1028 72 10000 1.55 73 16:32 06.11.2021
448 Clear 9 1029 69 10000 0.89 55 13:41 06.11.2021
449 Clouds 9 1030 73 10000 0.45 105 12:56 06.11.2021
450 Clouds 8 1031 76 10000 0.89 44 11:24 06.11.2021
451 Clouds 3 1031 87 10000 0.87 150 08:49 06.11.2021
452 Clouds 3 1030 93 10000 0.59 99 04:50 06.11.2021
453 Clouds 4 1029 92 10000 0.55 23 00:43 06.11.2021
454 Clouds 4 1029 89 10000 0.43 335 23:31 05.11.2021
455 Clouds 3 1029 89 10000 0.47 282 22:33 05.11.2021
456 Clouds 3 1029 89 10000 0.78 233 22:33 05.11.2021
457 Clouds 4 1028 87 10000 0.8 238 20:41 05.11.2021
458 Clouds 4 1027 86 10000 0.8 257 20:18 05.11.2021
459 Clouds 5 1027 85 10000 1.28 208 18:56 05.11.2021
460 Clouds 5 1027 84 10000 1.28 208 18:37 05.11.2021
461 Clouds 7 1025 79 10000 0.82 299 16:49 05.11.2021
462 Clouds 8 1024 72 10000 0.45 223 14:41 05.11.2021
463 Clouds 8 1024 76 10000 0.45 238 12:50 05.11.2021
464 Clouds 5 1023 83 10000 0.45 244 09:51 05.11.2021
465 Clouds 3 1021 87 10000 4.24 259 08:38 05.11.2021
466 Clouds 1 1019 87 10000 0.45 292 06:50 05.11.2021
467 Clouds 1 1018 87 10000 0.45 232 04:42 05.11.2021
468 Clouds 2 1016 85 10000 2.95 244 02:22 05.11.2021
469 Clouds 3 1016 85 10000 1.34 213 00:30 05.11.2021
470 Clouds 3 1016 86 10000 0.89 287 22:56 04.11.2021
471 Clouds 3 1016 85 10000 1.34 268 22:18 04.11.2021
472 Clouds 3 1015 86 10000 0.45 217 21:29 04.11.2021
473 Clouds 4 1014 85 10000 0.45 208 20:29 04.11.2021
474 Clouds 4 1014 85 10000 0.45 226 19:50 04.11.2021
475 Clouds 4 1014 85 10000 0.45 205 19:28 04.11.2021
476 Clouds 4 1013 85 10000 0.45 234 18:42 04.11.2021
477 Clouds 5 1012 83 10000 0.45 223 17:28 04.11.2021
478 Clouds 6 1011 83 10000 0.89 266 16:23 04.11.2021
479 Clouds 6 1011 83 10000 0.89 266 16:23 04.11.2021
480 Rain 6 1008 83 10000 0.89 256 14:19 04.11.2021
481 Clouds 5 1006 87 10000 1.34 266 10:52 04.11.2021
482 Clouds 4 1005 90 76 1.34 246 08:58 04.11.2021
483 Clouds 4 1004 90 146 1.34 200 08:28 04.11.2021
484 Clouds 4 1004 91 94 0.89 234 07:34 04.11.2021
485 Rain 6 1003 90 10000 2.81 256 23:52 03.11.2021
486 Clouds 6 1004 90 10000 2.99 254 22:49 03.11.2021
487 Clouds 6 1003 89 10000 0.89 233 21:45 03.11.2021
488 Clouds 6 1003 89 10000 0.89 215 21:19 03.11.2021
489 Rain 6 1004 89 10000 0.89 200 20:33 03.11.2021
490 Rain 7 1003 88 10000 0.89 273 19:40 03.11.2021
491 Rain 7 1003 86 10000 0.45 215 18:47 03.11.2021
492 Rain 7 1002 86 10000 0.45 225 18:18 03.11.2021
493 Clouds 7 1001 85 10000 0.89 281 17:20 03.11.2021
494 Clouds 8 1000 83 10000 0.89 319 15:56 03.11.2021
495 Clouds 8 1000 83 10000 0.45 274 15:38 03.11.2021
496 Clouds 8 999 81 10000 0.45 49 13:49 03.11.2021
497 Clouds 7 1001 87 10000 0.45 123 11:39 03.11.2021
498 Clouds 6 1001 89 10000 1.34 129 10:53 03.11.2021
499 Clouds 5 1001 88 10000 0.89 159 10:18 03.11.2021
500 Clouds 4 1002 89 10000 1.34 129 09:28 03.11.2021
501 Clouds 2 1002 92 10000 0.45 105 08:22 03.11.2021
502 Clouds 2 1002 90 10000 0.89 100 07:38 03.11.2021
503 Clouds 1 1002 89 10000 2.72 105 04:24 03.11.2021
504 Clear 2 1005 92 10000 0.45 114 01:49 03.11.2021
505 Clear 2 1005 92 10000 2.4 112 01:49 03.11.2021
506 Clouds 3 1007 90 10000 0.45 133 23:33 02.11.2021
507 Clouds 4 1007 86 10000 1.65 202 22:29 02.11.2021
508 Clouds 5 1006 82 10000 0.45 216 20:54 02.11.2021
509 Clouds 6 1006 82 10000 0.45 220 20:30 02.11.2021
510 Clouds 6 1006 81 10000 0.45 229 19:47 02.11.2021
511 Clouds 7 1006 79 10000 1.79 190 18:51 02.11.2021
512 Clouds 8 1005 78 10000 1.34 213 17:58 02.11.2021
513 Clouds 8 1005 77 10000 0.89 184 17:32 02.11.2021
514 Clouds 10 1005 72 10000 0.45 233 16:29 02.11.2021
515 Clouds 10 1004 72 10000 0.45 229 15:26 02.11.2021
516 Clouds 10 1004 77 10000 0.89 248 14:22 02.11.2021
517 Clouds 10 1005 76 10000 0.89 238 13:27 02.11.2021
518 Clouds 11 1004 68 10000 1.79 281 12:33 02.11.2021
519 Clouds 10 1004 74 10000 0.45 295 11:32 02.11.2021
520 Clouds 10 1005 79 10000 0.89 234 10:51 02.11.2021
521 Clouds 9 1005 84 10000 0.45 224 10:26 02.11.2021
522 Clouds 6 1005 91 10000 0.89 196 08:43 02.11.2021
523 Clouds 5 1004 91 10000 1.34 203 06:50 02.11.2021
524 Clouds 6 1004 92 10000 0.45 281 03:48 02.11.2021
525 Clouds 6 1005 92 10000 0.45 260 02:18 02.11.2021
526 Rain 6 1005 94 10000 0.45 116 22:47 01.11.2021
527 Rain 6 1007 94 10000 0.45 205 20:52 01.11.2021
528 Rain 6 1007 94 10000 0.45 196 20:33 01.11.2021
529 Rain 7 1007 92 10000 0.45 222 19:52 01.11.2021
530 Rain 7 1007 92 10000 0.89 232 19:25 01.11.2021
531 Rain 7 1007 91 10000 1.34 217 18:21 01.11.2021
532 Rain 8 1007 91 10000 0.45 237 17:21 01.11.2021
533 Rain 8 1007 91 10000 1.34 196 16:45 01.11.2021
534 Rain 9 1007 91 10000 1.34 259 15:47 01.11.2021
535 Rain 9 1007 91 10000 0.89 276 15:21 01.11.2021
536 Rain 9 1007 91 10000 0.89 276 15:21 01.11.2021
537 Rain 9 1007 90 10000 2.09 231 14:42 01.11.2021
538 Rain 9 1007 90 10000 1.99 242 14:20 01.11.2021
539 Rain 9 1008 89 10000 0.45 295 13:25 01.11.2021
540 Rain 10 1008 88 10000 0.89 279 12:25 01.11.2021
541 Clouds 10 1008 86 10000 0.89 298 10:33 01.11.2021
542 Clouds 10 1007 87 10000 1.79 355 09:25 01.11.2021
543 Clouds 6 1009 79 10000 2.06 271 07:49 01.11.2021
544 Clouds 7 1004 85 10000 1.34 228 05:57 01.11.2021
545 Clouds 7 1006 86 10000 1.81 189 03:44 01.11.2021
546 Clouds 8 1006 83 10000 1.34 295 00:37 01.11.2021
547 Clear 8 1006 82 10000 0.45 123 22:24 31.10.2021
548 Clear 9 1006 81 10000 0.45 105 20:46 31.10.2021
549 Clouds 10 1007 76 10000 2.09 169 18:57 31.10.2021
550 Clouds 10 1008 78 10000 2.1 169 18:37 31.10.2021
551 Clouds 13 1005 71 10000 1.65 100 17:23 31.10.2021
552 Clouds 16 1006 71 10000 2.12 77 15:48 31.10.2021
553 Clouds 18 1008 48 10000 0.45 216 13:56 31.10.2021
554 Clouds 17 1010 47 10000 0.45 174 12:49 31.10.2021
555 Clouds 16 1009 59 10000 1.79 122 11:38 31.10.2021
556 Clouds 14 1012 63 10000 0.45 186 10:41 31.10.2021
557 Clouds 10 1013 80 10000 1.25 117 09:21 31.10.2021
558 Clouds 10 1013 80 10000 1.25 117 09:21 31.10.2021
559 Clouds 4 1015 93 10000 0.45 123 07:20 31.10.2021
560 Clouds 8 1013 87 10000 0.45 307 00:54 31.10.2021
561 Clouds 9 1013 87 10000 2.14 146 22:45 30.10.2021
562 Clouds 9 1012 85 10000 2.26 145 21:35 30.10.2021
563 Clouds 9 1012 84 10000 2.06 150 20:33 30.10.2021
564 Clouds 10 1011 82 10000 2.08 204 18:43 30.10.2021
565 Rain 11 1011 78 10000 3.32 283 16:53 30.10.2021
566 Clouds 15 1008 57 10000 1.34 306 14:50 30.10.2021
567 Clouds 15 1008 58 10000 0.89 115 13:39 30.10.2021
568 Clouds 14 1008 59 10000 0.45 74 13:21 30.10.2021
569 Clouds 9 1010 71 10000 2.85 118 11:58 30.10.2021
570 Clouds 9 1010 71 10000 0.45 100 11:39 30.10.2021
571 Clear 3 1008 95 10000 2.77 116 10:32 30.10.2021
572 Clouds 1 1011 70 10000 1.76 130 08:52 30.10.2021
573 Clouds 1 1012 96 10000 1.81 99 07:19 30.10.2021
574 Clouds 2 1012 95 10000 1.61 104 05:39 30.10.2021
575 Clouds 3 1014 94 10000 0.95 165 00:45 30.10.2021
576 Clouds 4 1015 93 10000 0.89 117 22:43 29.10.2021
577 Clouds 4 1015 93 10000 1.27 196 22:20 29.10.2021
578 Clouds 4 1014 91 10000 1.17 205 20:45 29.10.2021
579 Clouds 5 1014 88 10000 1.28 176 19:56 29.10.2021
580 Clouds 6 1014 84 10000 0.71 149 18:33 29.10.2021
581 Clouds 10 1014 73 10000 1.13 34 16:52 29.10.2021
582 Clouds 11 1017 69 10000 1.48 291 14:38 29.10.2021
583 Clouds 5 1014 53 10000 0.67 288 11:56 29.10.2021
584 Clouds 2 1014 59 10000 0.19 210 10:44 29.10.2021
585 Clouds 2 1014 93 10000 0.94 136 08:38 29.10.2021
586 Clear 3 1019 93 10000 1.44 127 00:37 29.10.2021
587 Clear 4 1019 91 10000 1.5 151 23:25 28.10.2021
588 Clear 4 1020 91 10000 1.52 151 22:18 28.10.2021
589 Clear 5 1020 91 10000 1.65 145 20:54 28.10.2021
590 Clear 7 1020 87 10000 1.73 137 19:51 28.10.2021
591 Clear 9 1019 83 10000 1.45 97 18:26 28.10.2021
592 Clear 12 1019 73 10000 0.45 59 17:19 28.10.2021
593 Clear 13 1018 73 10000 0.92 78 16:19 28.10.2021
594 Clear 13 1021 71 10000 0.45 43 14:25 28.10.2021
595 Clouds 13 1022 68 10000 0.32 137 13:29 28.10.2021
596 Clouds 11 1022 72 10000 0.32 138 12:41 28.10.2021
597 Clouds 6 1022 77 10000 0.8 227 10:58 28.10.2021
598 Clear 5 1023 95 10000 0.89 130 09:40 28.10.2021
599 Clear 4 1024 95 10000 0.45 200 09:22 28.10.2021
600 Clear 4 1024 93 10000 0.45 209 08:35 28.10.2021
601 Clear 4 1023 95 10000 0.45 261 07:40 28.10.2021
602 Clouds 5 1024 93 10000 1.31 106 00:40 28.10.2021
603 Clouds 6 1025 91 10000 1.99 117 22:36 27.10.2021
604 Clouds 6 1025 90 10000 2.19 112 21:34 27.10.2021
605 Clouds 7 1025 89 10000 2.26 99 20:57 27.10.2021
606 Clouds 7 1025 89 10000 2.26 99 20:38 27.10.2021
607 Clouds 8 1028 87 10000 2.32 89 19:42 27.10.2021
608 Clouds 9 1028 83 10000 2.5 80 18:54 27.10.2021
609 Clouds 13 1023 71 10000 0.89 81 16:49 27.10.2021
610 Clouds 14 1025 68 10000 1.79 52 16:23 27.10.2021
611 Clouds 14 1026 66 10000 0.89 33 15:23 27.10.2021
612 Clouds 14 1027 70 10000 0.89 40 13:42 27.10.2021
613 Clouds 9 1028 85 10000 0.45 140 10:59 27.10.2021
614 Clouds 8 1028 89 10000 1.37 123 10:36 27.10.2021
615 Clouds 4 1028 94 10000 0.45 154 08:58 27.10.2021
616 Clouds 2 1028 94 10000 1.28 157 07:39 27.10.2021
617 Clouds 3 1027 93 10000 0.52 202 05:37 27.10.2021
618 Clouds 4 1027 92 10000 1.91 212 01:21 27.10.2021
619 Clouds 4 1027 92 10000 1.91 212 00:54 27.10.2021
620 Clouds 5 1027 91 10000 1.91 228 23:52 26.10.2021
621 Clouds 7 1027 90 10000 1.93 215 22:44 26.10.2021
622 Clouds 7 1027 89 10000 1.87 226 22:21 26.10.2021
623 Clouds 8 1027 89 10000 1.87 226 21:32 26.10.2021
624 Clouds 9 1026 85 10000 1.43 214 19:48 26.10.2021
625 Clouds 10 1028 84 10000 0.95 230 18:54 26.10.2021
626 Clouds 11 1025 82 10000 1.15 242 17:45 26.10.2021
627 Clouds 13 1025 77 10000 0.45 239 15:49 26.10.2021
628 Clouds 11 1025 86 10000 0.89 271 12:55 26.10.2021
629 Rain 8 1025 87 10000 0.89 228 10:54 26.10.2021
630 Clouds 3 1025 89 10000 0.45 217 08:41 26.10.2021
631 Clouds 2 1024 91 10000 0.45 147 07:22 26.10.2021
632 Clouds 4 1023 92 10000 1.74 231 00:19 26.10.2021
633 Clouds 4 1022 91 10000 1.74 231 23:36 25.10.2021
634 Clouds 4 1022 90 10000 1.52 213 22:33 25.10.2021
635 Clouds 5 1022 89 10000 1.52 213 21:43 25.10.2021
636 Clouds 6 1022 88 10000 1.28 201 20:38 25.10.2021
637 Clouds 7 1022 86 10000 0.87 188 19:43 25.10.2021
638 Clouds 7 1022 86 10000 0.66 115 19:22 25.10.2021
639 Clouds 9 1022 81 10000 0.18 81 18:38 25.10.2021
640 Clouds 10 1022 76 10000 0.18 81 17:34 25.10.2021
641 Clouds 11 1023 68 10000 0.38 72 14:53 25.10.2021
642 Clouds 9 1023 78 10000 0.34 228 12:33 25.10.2021
643 Clouds 5 1023 88 10000 0.39 229 10:54 25.10.2021
644 Clouds 0 1024 68 10000 1.27 208 08:59 25.10.2021
645 Clouds 1 1024 90 10000 0.45 118 07:19 25.10.2021
646 Clouds 1 1024 89 10000 1.39 221 05:21 25.10.2021
647 Clear 2 1024 90 10000 0.45 131 00:52 25.10.2021
648 Clear 2 1024 90 10000 0.45 122 00:33 25.10.2021
649 Clear 2 1025 90 10000 0.45 233 23:41 24.10.2021
650 Clear 2 1025 88 10000 1.55 208 22:39 24.10.2021
651 Clear 2 1025 88 10000 1.7 191 22:20 24.10.2021
652 Clear 4 1025 86 10000 1.63 167 21:18 24.10.2021
653 Clear 5 1025 85 10000 1.63 166 20:36 24.10.2021
654 Clear 6 1026 81 10000 1.59 137 19:47 24.10.2021
655 Clear 9 1025 75 10000 1.81 85 18:29 24.10.2021
656 Clear 11 1025 76 10000 1.81 85 17:45 24.10.2021
657 Clear 13 1026 55 10000 0.45 35 15:56 24.10.2021
658 Clear 13 1026 55 10000 0.45 58 15:19 24.10.2021
659 Clear 11 1027 64 10000 0.45 33 13:19 24.10.2021
660 Clear 9 1028 70 10000 0.45 83 12:23 24.10.2021
661 Clear 8 1028 79 10000 0.45 132 11:34 24.10.2021
662 Clear 5 1028 88 10000 0.45 104 10:30 24.10.2021
663 Clear 0 1027 92 10000 2.78 97 08:39 24.10.2021
664 Clouds 2 1029 88 10000 2.75 96 01:53 24.10.2021
665 Clouds 2 1030 88 10000 0.89 122 23:51 23.10.2021
666 Clouds 3 1030 87 10000 2.58 95 22:40 23.10.2021
667 Clouds 4 1030 84 10000 1.9 79 20:39 23.10.2021
668 Clouds 6 1030 79 10000 1.77 72 19:26 23.10.2021
669 Clouds 8 1029 75 10000 1.77 72 18:41 23.10.2021
670 Clouds 9 1029 69 10000 1.82 44 17:44 23.10.2021
671 Clouds 11 1027 61 10000 2.07 20 16:45 23.10.2021
672 Clouds 11 1028 59 10000 0.45 321 15:20 23.10.2021
673 Clouds 10 1029 69 10000 0.89 341 13:18 23.10.2021
674 Clouds 4 1026 88 10000 0.45 246 00:36 23.10.2021
675 Clouds 4 1026 88 10000 0.45 269 23:35 22.10.2021
676 Clouds 5 1024 86 10000 0.45 217 21:27 22.10.2021
677 Clouds 7 1022 82 10000 0.89 293 19:24 22.10.2021
678 Clouds 8 1021 80 10000 0.45 210 18:24 22.10.2021
679 Clouds 9 1021 75 10000 0.45 229 16:27 22.10.2021
680 Clouds 9 1020 79 10000 0.45 269 14:35 22.10.2021
681 Rain 8 1021 86 10000 0.89 252 12:41 22.10.2021
682 Clouds 7 1020 92 10000 0.89 301 10:56 22.10.2021
683 Clouds 7 1019 91 10000 1.79 277 09:57 22.10.2021
684 Clouds 6 1019 92 10000 1.34 274 09:32 22.10.2021
685 Clouds 7 1018 91 10000 0.89 335 07:30 22.10.2021
686 Clouds 8 1017 91 10000 0.89 299 06:20 22.10.2021
687 Clouds 10 1015 66 10000 1.34 278 00:40 22.10.2021
688 Clouds 10 1015 63 10000 0.45 233 23:49 21.10.2021
689 Clouds 10 1012 64 10000 0.89 236 22:43 21.10.2021
690 Clear 10 1014 65 10000 0.45 200 21:28 21.10.2021
691 Clouds 11 1014 64 10000 1.34 202 20:21 21.10.2021
692 Clouds 11 1013 64 10000 0.89 216 19:51 21.10.2021
693 Clouds 11 1013 61 10000 0.45 216 19:24 21.10.2021
694 Clouds 12 1013 57 10000 0.45 199 18:32 21.10.2021
695 Clouds 13 1013 53 10000 0.89 267 17:51 21.10.2021
696 Clouds 15 1013 49 10000 2.68 291 16:47 21.10.2021
697 Clouds 15 1012 44 10000 4.92 189 15:29 21.10.2021
698 Clouds 15 1012 46 10000 4.02 264 14:53 21.10.2021
699 Clouds 15 1012 51 10000 3.13 288 13:57 21.10.2021
700 Clouds 14 1011 57 10000 2.24 216 11:49 21.10.2021
701 Rain 13 1009 70 10000 1.79 284 09:39 21.10.2021
702 Clouds 12 1007 80 10000 3.55 252 07:48 21.10.2021
703 Rain 11 1006 80 10000 2.3 203 06:35 21.10.2021
704 Clouds 12 1010 80 10000 2.06 220 00:35 21.10.2021
705 Clouds 13 1011 76 10000 1.34 171 22:29 20.10.2021
706 Clouds 13 1013 75 10000 2.55 193 21:47 20.10.2021
707 Clouds 13 1012 73 10000 0.45 205 20:58 20.10.2021
708 Clouds 14 1014 71 10000 0.89 289 20:39 20.10.2021
709 Clouds 14 1013 70 10000 0.89 198 20:18 20.10.2021
710 Clouds 15 1013 67 10000 0.89 229 19:23 20.10.2021
711 Clouds 17 1014 64 10000 0.45 198 18:29 20.10.2021
712 Clouds 18 1014 63 10000 1.34 217 17:33 20.10.2021
713 Clouds 21 1016 49 10000 0.89 232 14:33 20.10.2021
714 Clouds 13 1019 75 10000 0.45 98 09:54 20.10.2021
715 Clear 9 1020 87 10000 1.77 193 05:34 20.10.2021
716 Clear 10 1022 87 10000 0.45 161 02:37 20.10.2021
717 Clouds 12 1023 82 10000 1.71 204 00:33 20.10.2021
718 Clouds 13 1024 80 10000 0.45 128 22:53 19.10.2021
719 Clouds 13 1025 77 10000 0.45 180 21:37 19.10.2021
720 Clouds 13 1025 73 10000 0.45 162 20:27 19.10.2021
721 Clouds 13 1024 72 10000 0.89 160 19:59 19.10.2021
722 Clouds 13 1024 71 10000 3.11 173 19:36 19.10.2021
723 Clouds 14 1024 68 10000 3.12 173 18:40 19.10.2021
724 Clouds 14 1028 81 10000 0.45 123 17:52 19.10.2021
725 Clouds 12 1025 74 10000 2.57 193 15:30 19.10.2021
726 Rain 13 1026 71 10000 1.86 227 14:40 19.10.2021
727 Clouds 13 1027 78 10000 2.73 265 13:55 19.10.2021
728 Rain 12 1026 75 10000 1.8 267 12:24 19.10.2021
729 Rain 10 1027 77 10000 0.45 242 11:28 19.10.2021
730 Rain 8 1027 82 10000 0.45 177 09:55 19.10.2021
731 Clouds 6 1027 86 10000 0.45 155 08:57 19.10.2021
732 Clouds 5 1029 88 10000 2.12 199 02:25 19.10.2021
733 Clouds 5 1027 90 10000 0.97 215 00:20 19.10.2021
734 Clouds 5 1026 90 10000 0.97 215 23:41 18.10.2021
735 Clouds 5 1027 92 10000 0.85 167 22:57 18.10.2021
736 Clouds 6 1027 92 10000 0.85 167 22:31 18.10.2021
737 Clouds 6 1027 92 10000 0.85 167 22:31 18.10.2021
738 Clouds 7 1026 88 10000 0.9 151 20:53 18.10.2021
739 Clouds 8 1026 88 10000 1.71 143 20:30 18.10.2021
740 Clouds 8 1026 90 10000 1.71 143 19:41 18.10.2021
741 Clouds 9 1026 86 10000 1.48 109 19:20 18.10.2021
742 Clouds 13 1026 74 10000 0.45 58 16:59 18.10.2021
743 Clear 14 1025 73 10000 0.56 322 14:58 18.10.2021
744 Clouds 11 1029 78 10000 0.21 126 12:41 18.10.2021
745 Clouds 7 1027 94 10000 1.07 204 10:26 18.10.2021
746 Clouds 6 1027 94 10000 0.87 211 09:25 18.10.2021
747 Clouds 5 1023 94 10000 1.42 224 01:35 18.10.2021
748 Clouds 5 1023 92 10000 1.32 194 23:20 17.10.2021
749 Clouds 5 1022 91 10000 1.17 183 21:45 17.10.2021
750 Clouds 6 1022 90 10000 0.98 165 20:59 17.10.2021
751 Clouds 7 1022 90 10000 0.67 122 20:31 17.10.2021
752 Clouds 8 1021 88 10000 0.67 122 19:39 17.10.2021
753 Clouds 9 1021 86 10000 0.97 55 18:54 17.10.2021
754 Clouds 13 1021 76 10000 0.45 69 17:32 17.10.2021
755 Clear 14 1020 70 10000 0.89 343 14:58 17.10.2021
756 Clouds 14 1021 71 10000 0.45 75 14:24 17.10.2021
757 Clouds 13 1021 75 10000 0.89 319 13:34 17.10.2021
758 Clouds 11 1022 81 10000 0.45 56 11:55 17.10.2021
759 Clouds 7 1021 90 10000 0.83 187 10:34 17.10.2021
760 Clouds 4 1022 93 10000 0.45 135 09:28 17.10.2021
761 Clouds 2 1021 94 10000 1.11 195 07:19 17.10.2021
762 Clear 3 1021 92 10000 1.31 143 00:53 17.10.2021
763 Clear 3 1021 92 10000 1.22 129 00:22 17.10.2021
764 Clear 5 1021 90 10000 1.37 118 21:49 16.10.2021
765 Clear 7 1021 89 10000 1.43 86 20:32 16.10.2021
766 Clouds 8 1021 86 10000 1.66 72 19:46 16.10.2021
767 Clouds 9 1021 83 10000 1.97 56 19:23 16.10.2021
768 Clouds 10 1021 80 10000 1.97 56 18:55 16.10.2021
769 Clouds 11 1020 78 10000 1.96 56 18:37 16.10.2021
770 Clouds 12 1020 75 10000 2.16 46 18:18 16.10.2021
771 Clouds 13 1020 69 10000 0.45 49 17:25 16.10.2021
772 Clouds 14 1020 67 10000 0.89 61 15:25 16.10.2021
773 Clouds 13 1022 75 10000 1.34 262 11:55 16.10.2021
774 Clouds 10 1021 86 10000 1.35 56 10:43 16.10.2021
775 Clouds 6 1021 93 10000 0.2 287 08:23 16.10.2021
776 Clouds 8 1021 89 10000 0.82 284 01:25 16.10.2021
777 Clouds 8 1021 89 10000 0.81 284 01:25 16.10.2021
778 Clouds 8 1021 90 10000 0.97 290 23:57 15.10.2021
779 Clouds 9 1021 87 10000 1.08 291 23:24 15.10.2021
780 Clouds 9 1019 85 10000 1.21 277 22:19 15.10.2021
781 Clouds 10 1020 84 10000 1.4 270 21:29 15.10.2021
782 Clouds 10 1020 84 10000 1.4 270 20:49 15.10.2021
783 Clouds 10 1017 85 10000 1.56 265 19:37 15.10.2021
784 Clouds 11 1019 79 10000 1.72 278 18:41 15.10.2021
785 Clouds 15 1017 62 10000 2.35 289 16:43 15.10.2021
786 Clouds 15 1019 55 10000 0.45 279 15:36 15.10.2021
787 Clouds 14 1020 59 10000 0.89 305 13:31 15.10.2021
788 Clouds 11 1020 67 10000 1.79 279 11:40 15.10.2021
789 Clouds 10 1020 73 10000 1.34 270 10:58 15.10.2021
790 Clouds 6 1021 83 10000 0.45 287 09:59 15.10.2021
791 Clouds 2 1020 89 10000 0.45 124 06:47 15.10.2021
792 Clouds 4 1023 88 10000 1.29 163 01:48 15.10.2021
793 Clouds 5 1024 91 10000 1.24 165 00:22 15.10.2021
794 Clouds 6 1025 89 10000 1.16 168 22:52 14.10.2021
795 Clouds 7 1025 88 10000 1.32 168 21:45 14.10.2021
796 Clouds 8 1025 83 10000 1.34 175 20:55 14.10.2021
797 Clouds 8 1026 85 10000 1.21 172 20:19 14.10.2021
798 Clouds 8 1026 82 10000 1.21 172 19:40 14.10.2021
799 Clouds 11 1026 70 10000 0.61 255 17:39 14.10.2021
800 Clouds 11 1026 71 10000 0.59 255 17:39 14.10.2021
801 Clouds 11 1026 66 10000 0.45 198 16:56 14.10.2021
802 Clouds 11 1026 62 10000 0.89 241 16:21 14.10.2021
803 Clouds 11 1026 66 10000 1.34 202 14:44 14.10.2021
804 Clouds 11 1027 65 10000 0.45 281 14:24 14.10.2021
805 Clouds 9 1028 76 10000 0.45 259 11:56 14.10.2021
806 Clouds 7 1028 84 10000 0.45 212 10:43 14.10.2021
807 Clouds 3 1028 91 10000 2.47 233 07:39 14.10.2021
808 Clouds 2 1027 93 10000 2.33 245 03:51 14.10.2021
809 Clouds 5 1027 88 10000 2.11 227 00:34 14.10.2021
810 Clouds 5 1027 90 10000 1.59 251 22:32 13.10.2021
811 Clouds 5 1027 90 10000 1.54 272 21:35 13.10.2021
812 Clouds 6 1027 88 10000 1.65 302 20:23 13.10.2021
813 Clouds 6 1026 82 10000 1.84 319 19:20 13.10.2021
814 Clouds 7 1026 82 10000 1.83 319 18:37 13.10.2021
815 Clouds 9 1025 72 10000 1.79 293 15:54 13.10.2021
816 Clouds 9 1025 74 10000 1.34 325 14:46 13.10.2021
817 Clouds 9 1025 73 10000 0.45 104 14:23 13.10.2021
818 Clouds 8 1025 80 10000 1.34 322 12:24 13.10.2021
819 Clouds 8 1024 83 10000 0.45 292 11:36 13.10.2021
820 Clouds 6 1024 91 10000 1.47 256 09:26 13.10.2021
821 Clouds 5 1022 94 10000 0.45 336 07:50 13.10.2021
822 Clouds 6 1019 93 10000 0.89 289 02:58 13.10.2021
823 Clouds 6 1019 92 10000 0.45 294 02:19 13.10.2021
824 Clouds 7 1018 92 6710 1.79 217 23:33 12.10.2021
825 Rain 7 1018 90 7168 1.34 288 22:50 12.10.2021
826 Rain 7 1018 90 6108 0.45 232 22:23 12.10.2021
827 Rain 8 1019 89 10000 0.45 217 20:54 12.10.2021
828 Clouds 8 1018 88 10000 0.45 213 20:30 12.10.2021
829 Rain 8 1018 88 10000 0.45 222 19:31 12.10.2021
830 Clouds 9 1018 88 10000 1.34 292 18:24 12.10.2021
831 Clouds 9 1019 87 10000 0.45 286 17:20 12.10.2021
832 Clouds 9 1019 89 10000 0.89 285 16:20 12.10.2021
833 Clouds 9 1019 89 10000 0.45 211 15:30 12.10.2021
834 Clouds 9 1020 90 10000 0.45 200 13:46 12.10.2021
835 Clouds 8 1020 91 10000 0.89 230 12:58 12.10.2021
836 Rain 8 1021 92 10000 0.45 250 11:22 12.10.2021
837 Rain 7 1022 93 10000 0.45 213 09:34 12.10.2021
838 Clouds 7 1022 94 10000 0.45 263 08:20 12.10.2021
839 Clouds 7 1022 94 10000 2.52 240 06:45 12.10.2021
840 Clouds 7 1023 94 10000 0.45 288 04:39 12.10.2021
841 Clouds 7 1025 93 10000 0.45 276 02:55 12.10.2021
842 Clouds 7 1025 84 10000 2.48 241 23:49 11.10.2021
843 Clouds 7 1025 84 10000 0.45 295 23:28 11.10.2021
844 Clouds 7 1025 83 10000 2.31 257 23:28 11.10.2021
845 Clouds 7 1025 83 10000 0.45 285 22:51 11.10.2021
846 Clouds 8 1025 79 10000 0.45 294 21:25 11.10.2021
847 Clouds 8 1025 78 10000 1.91 270 20:28 11.10.2021
848 Clouds 9 1025 77 10000 1.86 281 19:35 11.10.2021
849 Clouds 11 1025 63 10000 0.45 284 18:23 11.10.2021
850 Clouds 13 1025 54 10000 0.45 263 16:41 11.10.2021
851 Clouds 13 1025 54 10000 0.45 248 16:21 11.10.2021
852 Clouds 13 1025 55 10000 0.45 209 15:44 11.10.2021
853 Clouds 13 1025 56 10000 0.45 248 14:54 11.10.2021
854 Clouds 13 1025 58 10000 0.45 205 14:19 11.10.2021
855 Clouds 12 1025 62 10000 0.89 261 13:35 11.10.2021
856 Clouds 8 1026 83 10000 0.45 266 11:18 11.10.2021
857 Clouds 4 1027 91 10000 0.89 198 09:47 11.10.2021
858 Clear 1 1027 94 10000 0.45 219 08:31 11.10.2021
859 Rain 2 1027 91 10000 1.25 175 01:46 11.10.2021
860 Clear 2 1027 91 10000 1.27 172 00:59 11.10.2021
861 Clear 2 1027 91 10000 1.27 172 00:40 11.10.2021
862 Clear 3 1027 89 10000 0.45 153 22:42 10.10.2021
863 Clear 3 1027 89 10000 0.45 238 21:50 10.10.2021
864 Clear 4 1027 88 10000 1.21 131 21:20 10.10.2021
865 Clear 5 1027 86 10000 1.08 105 20:40 10.10.2021
866 Clear 4 1027 88 10000 1.3 133 20:40 10.10.2021
867 Clear 5 1027 85 10000 1.08 105 20:19 10.10.2021
868 Clear 6 1027 82 10000 1.08 105 19:44 10.10.2021
869 Clear 7 1027 81 10000 1.54 91 19:26 10.10.2021
870 Clear 9 1026 69 10000 2.16 79 18:23 10.10.2021
871 Clear 12 1026 51 10000 0.45 294 15:54 10.10.2021
872 Clear 12 1025 54 10000 0.45 34 15:35 10.10.2021
873 Clear 11 1026 71 10000 0.89 96 13:41 10.10.2021
874 Clear 9 1027 78 10000 0.45 125 12:44 10.10.2021
875 Clear 7 1027 83 10000 0.45 229 11:59 10.10.2021
876 Clear 5 1027 91 10000 0.45 196 10:31 10.10.2021
877 Clear 2 1027 93 10000 0.45 120 09:19 10.10.2021
878 Clear 1 1027 93 10000 2.21 90 08:51 10.10.2021
879 Clear 2 1026 92 10000 1.94 85 04:57 10.10.2021
880 Clear 3 1027 89 10000 0.45 116 02:20 10.10.2021
881 Clear 4 1027 88 10000 2.46 79 00:52 10.10.2021
882 Clear 6 1027 85 10000 2.78 80 23:46 09.10.2021
883 Clear 6 1028 84 10000 0.89 82 22:21 09.10.2021
884 Clear 7 1027 83 10000 0.45 140 21:30 09.10.2021
885 Clear 7 1027 83 10000 0.45 102 21:30 09.10.2021
886 Clear 8 1027 80 10000 0.45 89 20:19 09.10.2021
887 Clear 9 1027 77 10000 0.45 85 19:41 09.10.2021
888 Clear 11 1029 74 10000 0.89 69 18:45 09.10.2021
889 Clear 12 1027 68 10000 1.34 80 17:51 09.10.2021
890 Clear 13 1027 63 10000 0.89 69 16:20 09.10.2021
891 Clouds 11 1027 75 10000 1.34 34 13:49 09.10.2021
892 Clouds 11 1027 77 10000 0.89 233 13:31 09.10.2021
893 Clouds 9 1028 86 10000 0.45 301 12:27 09.10.2021
894 Clouds 7 1027 93 10000 0.45 120 10:44 09.10.2021
895 Clouds 7 1027 93 10000 0.89 143 10:19 09.10.2021
896 Clouds 6 1027 93 10000 0.45 35 08:45 09.10.2021
897 Clouds 6 1026 93 10000 0.89 92 08:20 09.10.2021
898 Clouds 6 1026 94 10000 0.89 127 06:37 09.10.2021
899 Clouds 5 1026 94 10000 2.81 69 04:43 09.10.2021
900 Clear 6 1026 93 10000 2.95 73 02:46 09.10.2021
901 Clear 7 1026 92 10000 3.29 77 00:30 09.10.2021
902 Clear 7 1027 91 10000 0.45 91 23:33 08.10.2021
903 Clear 8 1027 91 10000 1.34 98 22:46 08.10.2021
904 Clear 8 1027 90 10000 0.89 43 21:44 08.10.2021
905 Clouds 9 1027 88 10000 0.45 81 20:30 08.10.2021
906 Clouds 12 1027 80 10000 0.45 26 18:23 08.10.2021
907 Clouds 13 1026 77 10000 0.89 32 17:18 08.10.2021
908 Clouds 13 1026 77 10000 0.89 32 17:18 08.10.2021
909 Clouds 13 1027 78 10000 1.79 55 16:43 08.10.2021
910 Clouds 14 1027 78 10000 0.45 49 16:21 08.10.2021
911 Clouds 13 1027 86 10000 1.34 43 13:47 08.10.2021
912 Clouds 11 1027 92 10000 0.45 44 11:56 08.10.2021
913 Clouds 10 1028 87 10000 0.45 43 10:47 08.10.2021
914 Clouds 10 1028 93 10000 3.29 80 09:48 08.10.2021
915 Clouds 9 1027 94 10000 0.45 101 06:49 08.10.2021
916 Clouds 9 1028 89 10000 1.56 85 23:28 07.10.2021
917 Clouds 9 1028 87 10000 1.56 85 22:55 07.10.2021
918 Clouds 10 1028 86 10000 1.63 90 21:30 07.10.2021
919 Clouds 10 1028 86 10000 1.95 87 20:43 07.10.2021
920 Clouds 10 1029 85 10000 2.1 82 19:39 07.10.2021
921 Clouds 10 1028 84 10000 0.45 116 18:59 07.10.2021
922 Clouds 11 1028 80 10000 0.45 36 17:35 07.10.2021
923 Clouds 11 1028 78 10000 0.45 64 16:42 07.10.2021
924 Clouds 11 1027 80 10000 0.45 40 14:57 07.10.2021
925 Clouds 11 1028 84 10000 1.73 53 13:44 07.10.2021
926 Clouds 11 1028 84 10000 0.45 40 13:20 07.10.2021
927 Rain 10 1028 86 10000 0.99 302 11:48 07.10.2021
928 Clouds 9 1028 88 10000 0.89 328 10:48 07.10.2021
929 Clouds 9 1028 88 10000 0.89 328 10:48 07.10.2021
930 Clouds 9 1027 90 10000 1.2 263 09:51 07.10.2021
931 Clouds 8 1027 92 10000 1.09 245 08:55 07.10.2021
932 Clouds 7 1027 92 10000 0.96 244 08:25 07.10.2021
933 Clouds 7 1026 92 10000 0.95 244 07:40 07.10.2021
934 Rain 7 1026 92 10000 1.18 231 06:47 07.10.2021
935 Clouds 7 1025 88 10000 0.45 277 00:59 07.10.2021
936 Clouds 7 1025 86 10000 2.52 246 23:35 06.10.2021
937 Clouds 8 1025 86 10000 0.45 284 22:41 06.10.2021
938 Clouds 8 1024 84 10000 2.2 236 21:41 06.10.2021
939 Clouds 9 1024 82 10000 0.89 277 20:34 06.10.2021
940 Clouds 10 1023 77 10000 0.45 289 19:26 06.10.2021
941 Clouds 12 1023 69 10000 2.9 263 18:20 06.10.2021
942 Clouds 13 1021 61 10000 0.45 250 16:44 06.10.2021
943 Clouds 13 1021 62 10000 0.89 212 15:24 06.10.2021
944 Clouds 13 1021 73 10000 0.45 233 13:31 06.10.2021
945 Clouds 13 1022 74 10000 0.89 222 12:53 06.10.2021
946 Clouds 12 1022 77 10000 0.89 298 12:29 06.10.2021
947 Clouds 11 1021 79 10000 0.89 216 11:46 06.10.2021
948 Rain 10 1021 91 10000 0.89 227 09:57 06.10.2021
949 Rain 9 1021 92 10000 0.45 208 09:37 06.10.2021
950 Rain 9 1020 86 10000 0.45 215 08:39 06.10.2021
951 Rain 10 1019 87 10000 0.45 293 06:47 06.10.2021
952 Rain 10 1018 87 10000 1.79 206 04:56 06.10.2021
953 Rain 11 1000 93 10000 0.45 127 00:25 06.10.2021
954 Rain 11 1000 93 10000 0.45 195 23:52 05.10.2021
955 Rain 11 1000 93 10000 0.45 195 23:52 05.10.2021
956 Rain 11 1000 93 10000 1.34 282 23:32 05.10.2021
957 Rain 12 999 93 10000 0.89 276 22:44 05.10.2021
958 Rain 11 999 88 10000 0.45 115 21:58 05.10.2021
959 Clouds 12 999 88 10000 3.54 255 21:35 05.10.2021
960 Rain 12 998 93 10000 2.79 232 20:38 05.10.2021
961 Rain 12 998 93 10000 0.89 128 20:19 05.10.2021
962 Rain 12 998 91 10000 1.95 198 19:27 05.10.2021
963 Rain 12 998 91 10000 0.45 209 18:46 05.10.2021
964 Rain 14 997 81 10000 1.79 252 16:35 05.10.2021
965 Clouds 14 997 84 10000 0.89 296 14:30 05.10.2021
966 Clouds 13 997 86 10000 0.89 265 13:33 05.10.2021
967 Clouds 13 996 88 10000 0.45 252 12:36 05.10.2021
968 Rain 13 997 87 10000 0.89 231 11:59 05.10.2021
969 Rain 12 997 89 10000 0.89 273 10:39 05.10.2021
970 Rain 12 997 89 10000 0.89 273 10:39 05.10.2021
971 Clouds 11 990 90 10000 3.26 265 08:44 05.10.2021
972 Clouds 11 999 87 10000 0.45 308 03:55 05.10.2021
973 Rain 11 1001 85 10000 1.32 72 23:53 04.10.2021
974 Rain 11 1002 84 10000 1.42 91 21:59 04.10.2021
975 Rain 12 1003 81 10000 0.83 295 19:34 04.10.2021
976 Rain 13 1003 83 10000 2.17 322 18:26 04.10.2021
977 Clouds 13 1004 81 10000 0.89 329 16:23 04.10.2021
978 Clouds 13 1004 81 10000 0.89 305 15:31 04.10.2021
979 Rain 13 1019 83 10000 1.79 334 14:42 04.10.2021
980 Rain 14 1004 80 10000 0.89 334 13:48 04.10.2021
981 Rain 14 1004 81 10000 1.34 288 13:24 04.10.2021
982 Clouds 14 1004 77 10000 1.34 325 11:35 04.10.2021
983 Clouds 13 1018 73 10000 2.33 337 10:48 04.10.2021
984 Clouds 13 1018 76 10000 2.45 328 09:58 04.10.2021
985 Clouds 13 1017 80 10000 0.45 138 08:39 04.10.2021
986 Clouds 13 1001 77 10000 2.65 330 07:19 04.10.2021
987 Clouds 16 1016 79 10000 0.45 305 00:29 04.10.2021
988 Clouds 14 1013 67 10000 3.42 263 22:34 03.10.2021
989 Clouds 14 1011 64 10000 2.69 228 21:39 03.10.2021
990 Clouds 16 1015 70 10000 0.45 42 20:59 03.10.2021
991 Clouds 16 1010 79 10000 2.27 128 19:57 03.10.2021
992 Clouds 20 1009 60 10000 1.92 100 18:34 03.10.2021
993 Clouds 22 1008 49 10000 1.73 73 17:48 03.10.2021
994 Clouds 24 1008 51 10000 1.11 50 16:34 03.10.2021
995 Clouds 24 1005 40 10000 1.79 171 14:46 03.10.2021
996 Clouds 24 1006 40 10000 1.79 151 14:46 03.10.2021
997 Clouds 24 1009 45 10000 0.45 157 13:58 03.10.2021
998 Clouds 23 1009 46 10000 2.24 169 13:22 03.10.2021
999 Clouds 21 1006 49 10000 2.24 196 12:29 03.10.2021
1000 Clouds 17 1007 61 10000 1.79 173 10:37 03.10.2021
1001 Clouds 13 1010 73 10000 1.79 149 08:43 03.10.2021
1002 Clouds 11 997 83 10000 0.89 205 01:44 03.10.2021
1003 Clouds 12 1013 85 10000 0.45 137 22:40 02.10.2021
1004 Clouds 14 1013 80 10000 2.75 120 20:57 02.10.2021
1005 Clouds 15 1013 74 10000 2.9 105 19:42 02.10.2021
1006 Clouds 17 1012 56 10000 3.01 92 18:52 02.10.2021
1007 Clouds 19 1012 54 10000 3.32 85 17:54 02.10.2021
1008 Clouds 20 1014 60 10000 0.45 132 17:21 02.10.2021
1009 Clouds 22 1016 54 10000 0.45 211 14:58 02.10.2021
1010 Clouds 15 1028 47 10000 1.79 285 16:35 30.09.2021
1011 Clouds 15 1028 54 10000 0.45 355 14:57 30.09.2021
1012 Clouds 14 1029 60 10000 1.89 283 13:20 30.09.2021
1013 Clouds 13 1030 65 10000 1.79 329 11:36 30.09.2021
1014 Clouds 12 1030 72 10000 1.34 320 10:42 30.09.2021
1015 Clouds 10 1030 85 10000 0.45 295 09:31 30.09.2021
1016 Clouds 9 1014 87 10000 1.75 252 08:28 30.09.2021
1017 Clouds 9 1014 86 10000 2.04 244 07:22 30.09.2021
1018 Clouds 9 1013 81 10000 2.47 247 04:52 30.09.2021
1019 Clouds 11 1012 85 10000 1.34 275 01:19 30.09.2021
1020 Clouds 11 1011 82 10000 0.45 274 23:49 29.09.2021
1021 Clouds 11 1010 85 10000 0.89 296 21:58 29.09.2021
1022 Clouds 11 1009 85 10000 3.54 275 21:24 29.09.2021
1023 Rain 13 1009 83 10000 0.89 247 20:24 29.09.2021
1024 Clouds 14 1020 80 10000 1.79 307 19:43 29.09.2021
1025 Clouds 16 1020 65 10000 0.45 186 18:28 29.09.2021
1026 Clouds 18 991 61 10000 0.45 215 17:34 29.09.2021
1027 Clouds 18 1022 66 10000 0.45 219 16:46 29.09.2021
1028 Clouds 17 1006 65 10000 0.89 236 15:49 29.09.2021
1029 Clouds 17 1022 65 10000 0.89 302 14:39 29.09.2021
1030 Clouds 17 1022 66 10000 0.45 229 13:42 29.09.2021
1031 Clouds 16 1023 69 10000 0.45 276 12:50 29.09.2021
1032 Clouds 15 1023 72 10000 0.45 186 11:54 29.09.2021
1033 Clouds 14 1023 84 10000 2.24 270 10:44 29.09.2021
1034 Rain 13 1006 87 10000 0.89 253 09:49 29.09.2021
1035 Rain 14 1006 89 10000 1.34 210 09:18 29.09.2021
1036 Rain 13 1005 91 10000 0.45 280 07:31 29.09.2021
1037 Clouds 14 1004 92 10000 2.04 262 03:40 29.09.2021
1038 Clouds 14 1005 86 10000 0.45 110 23:26 28.09.2021
1039 Clouds 14 1005 85 10000 0.45 107 22:23 28.09.2021
1040 Clouds 14 1005 84 10000 1.52 64 21:37 28.09.2021
1041 Clouds 14 1006 83 10000 1.99 56 20:36 28.09.2021
1042 Clouds 15 1005 79 10000 1.87 59 19:43 28.09.2021
1043 Clouds 15 1006 81 10000 0.89 5 18:46 28.09.2021
1044 Clouds 15 1006 77 10000 0.45 49 17:54 28.09.2021
1045 Clouds 16 1007 72 10000 0.89 67 15:56 28.09.2021
1046 Clouds 16 1008 76 10000 1.34 346 13:49 28.09.2021
1047 Clouds 15 1004 76 10000 0.45 344 12:48 28.09.2021
1048 Clouds 15 1024 80 10000 0.89 320 12:19 28.09.2021
1049 Clouds 14 1025 82 10000 0.89 266 11:45 28.09.2021
1050 Clouds 14 1009 82 10000 1.86 309 10:58 28.09.2021
1051 Clouds 13 1009 84 10000 1.79 298 10:19 28.09.2021
1052 Clouds 14 1009 88 10000 1.34 286 08:59 28.09.2021
1053 Clouds 14 1009 89 10000 1.79 313 08:38 28.09.2021
1054 Clouds 14 1008 90 10000 0.89 301 07:47 28.09.2021
1055 Clouds 14 1007 91 10000 2.1 250 05:28 28.09.2021
1056 Clouds 15 1007 88 10000 2.14 241 01:23 28.09.2021
1057 Clouds 15 1007 87 10000 2.23 239 00:25 28.09.2021
1058 Clouds 15 1022 89 10000 2.23 239 23:41 27.09.2021
1059 Clouds 15 1022 89 10000 2.55 244 22:56 27.09.2021
1060 Clouds 16 1021 89 10000 2.42 241 21:55 27.09.2021
1061 Clouds 16 1021 87 10000 1.97 242 20:45 27.09.2021
1062 Clouds 17 1020 85 10000 2.27 259 19:56 27.09.2021
1063 Clouds 18 1020 78 10000 2.09 263 19:28 27.09.2021
1064 Clouds 18 1017 74 10000 2.09 263 18:51 27.09.2021
1065 Clouds 20 1019 73 10000 2.74 275 17:30 27.09.2021
1066 Clouds 21 1019 67 10000 0.89 305 16:51 27.09.2021
1067 Clouds 21 1019 65 10000 0.89 289 15:45 27.09.2021
1068 Clouds 21 1019 65 10000 2.24 251 15:19 27.09.2021
1069 Clear 20 1019 69 10000 1.34 323 13:32 27.09.2021
1070 Clear 19 1020 77 10000 0.45 267 11:49 27.09.2021
1071 Clear 17 1020 85 10000 0.45 125 10:38 27.09.2021
1072 Clear 15 1020 89 10000 0.45 224 09:28 27.09.2021
1073 Clouds 14 1004 91 10000 1.73 193 06:30 27.09.2021
1074 Rain 15 1005 91 10000 1.87 207 03:25 27.09.2021
1075 Rain 16 1004 90 5724 1.79 270 22:39 26.09.2021
1076 Rain 17 1019 87 6304 0.89 274 21:53 26.09.2021
1077 Rain 17 1022 86 6729 1.34 293 21:26 26.09.2021
1078 Rain 18 1019 96 6797 5.91 264 20:24 26.09.2021
1079 Clouds 18 1019 96 6800 5.91 264 19:53 26.09.2021
1080 Clouds 21 1017 93 6897 4.23 274 18:48 26.09.2021
1081 Clouds 22 1016 88 8011 2.72 297 17:59 26.09.2021
1082 Clouds 21 1016 65 8011 2.72 297 17:36 26.09.2021
1083 Clouds 22 1016 64 10000 1.61 343 17:18 26.09.2021
1084 Clouds 23 1016 66 10000 2.24 275 16:22 26.09.2021
1085 Clouds 24 1018 61 10000 0.89 340 15:22 26.09.2021
1086 Clouds 25 1019 59 10000 0.89 323 14:18 26.09.2021
1087 Clouds 24 1019 62 10000 0.45 308 13:42 26.09.2021
1088 Clouds 22 1019 65 10000 0.89 125 12:26 26.09.2021
1089 Clouds 22 1019 64 10000 0.45 133 11:53 26.09.2021
1090 Clouds 21 1019 68 10000 1.34 106 10:59 26.09.2021
1091 Clouds 16 1019 85 10000 0.45 138 09:38 26.09.2021
1092 Clouds 15 1019 85 10000 1.69 193 08:31 26.09.2021
1093 Clouds 15 1018 80 10000 1.16 181 00:28 26.09.2021
1094 Clouds 15 1018 80 10000 1.16 181 23:43 25.09.2021
1095 Clouds 15 1018 80 10000 1.16 181 23:43 25.09.2021
1096 Clouds 15 1017 86 10000 1.6 142 22:39 25.09.2021
1097 Clouds 15 1017 86 10000 1.61 142 22:18 25.09.2021
1098 Clouds 15 1017 86 10000 1.61 142 22:18 25.09.2021
1099 Clouds 15 1017 85 10000 1.6 142 21:40 25.09.2021
1100 Clear 16 1017 82 10000 1.91 119 20:52 25.09.2021
1101 Clouds 18 1017 83 10000 2.05 102 19:40 25.09.2021
1102 Clouds 22 1018 65 10000 2.25 74 18:28 25.09.2021
1103 Clear 24 1016 55 10000 0.45 153 17:23 25.09.2021
1104 Clouds 24 1019 51 10000 1.42 61 14:39 25.09.2021
1105 Clear 24 1019 51 10000 0.45 144 13:55 25.09.2021
1106 Clear 22 1020 55 10000 0.45 114 12:46 25.09.2021
1107 Clear 20 1020 67 10000 0.89 138 11:27 25.09.2021
1108 Clear 16 1020 79 10000 0.45 102 10:20 25.09.2021
1109 Clear 13 1020 84 10000 0.45 203 09:21 25.09.2021
1110 Clear 9 1004 89 10000 0.89 136 07:48 25.09.2021
1111 Clear 10 1020 85 10000 1.96 221 00:52 25.09.2021
1112 Clear 12 1004 82 10000 2.13 217 23:25 24.09.2021
1113 Clear 12 1019 84 10000 0.45 262 21:34 24.09.2021
1114 Clear 14 1019 80 10000 1.08 256 20:32 24.09.2021
1115 Clear 15 1016 79 10000 0.75 273 19:32 24.09.2021
1116 Clear 19 1018 60 10000 1.62 303 18:29 24.09.2021
1117 Clear 20 1018 60 10000 1.63 304 17:53 24.09.2021
1118 Clear 21 1018 55 10000 0.45 209 17:34 24.09.2021
1119 Clear 21 1019 55 10000 0.45 285 15:59 24.09.2021
1120 Clear 20 1020 61 10000 0.45 229 13:41 24.09.2021
1121 Clear 19 1020 63 10000 0.89 252 12:44 24.09.2021
1122 Clear 19 1020 66 10000 0.45 210 12:26 24.09.2021
1123 Clear 17 1018 70 10000 0.89 272 11:28 24.09.2021
1124 Clear 15 1021 81 10000 1.79 244 10:00 24.09.2021
1125 Clouds 11 1021 88 10000 2.2 247 08:24 24.09.2021
1126 Clouds 9 1020 89 10000 2.63 240 07:32 24.09.2021
1127 Clouds 10 1018 88 10000 2.88 238 06:32 24.09.2021
1128 Clouds 10 1020 87 10000 3.06 239 04:53 24.09.2021
1129 Clouds 12 1019 80 10000 3.65 253 22:45 23.09.2021
1130 Clear 12 1018 76 10000 4.1 245 21:59 23.09.2021
1131 Clear 13 1018 76 10000 0.89 222 21:38 23.09.2021
1132 Clouds 14 1020 73 10000 0.89 256 20:32 23.09.2021
1133 Clouds 17 1018 72 10000 2.87 259 19:18 23.09.2021
1134 Clouds 17 1018 72 10000 2.89 259 19:18 23.09.2021
1135 Clouds 17 1018 72 10000 2.89 259 19:18 23.09.2021
1136 Clouds 21 1020 54 10000 0.45 281 17:18 23.09.2021
1137 Clear 21 1020 52 10000 0.45 259 15:20 23.09.2021
1138 Clear 21 1021 51 10000 0.45 46 14:59 23.09.2021
1139 Clouds 20 1021 54 10000 1.34 293 13:45 23.09.2021
1140 Clouds 19 1022 57 10000 1.34 118 13:18 23.09.2021
1141 Clouds 19 1022 57 10000 0.45 141 12:47 23.09.2021
1142 Clouds 18 1022 60 10000 0.45 101 12:22 23.09.2021
1143 Clouds 16 1022 69 10000 0.45 40 11:23 23.09.2021
1144 Clouds 13 1022 76 10000 0.45 215 10:20 23.09.2021
1145 Clouds 11 1023 80 10000 0.45 106 09:49 23.09.2021
1146 Clear 5 1023 93 10000 0.45 130 07:44 23.09.2021
1147 Clouds 6 1027 91 10000 2.04 127 01:43 23.09.2021
1148 Clouds 8 1027 90 10000 1.72 115 22:58 22.09.2021
1149 Clouds 8 1027 89 10000 1.68 112 22:24 22.09.2021
1150 Clouds 9 1027 88 10000 1.68 112 21:51 22.09.2021
1151 Clouds 9 1027 88 10000 1.68 112 21:32 22.09.2021
1152 Clouds 10 1027 85 10000 1.72 91 20:39 22.09.2021
1153 Clouds 13 1027 77 10000 1.97 64 19:28 22.09.2021
1154 Clouds 15 1025 69 10000 1.97 64 18:37 22.09.2021
1155 Clouds 16 1027 68 10000 2.44 42 17:43 22.09.2021
1156 Clouds 16 1027 65 10000 0.89 54 16:37 22.09.2021
1157 Clouds 16 1027 67 10000 0.89 319 15:18 22.09.2021
1158 Clouds 16 1029 64 10000 0.45 128 13:48 22.09.2021
1159 Clouds 14 1030 61 10000 0.89 271 11:46 22.09.2021
1160 Clouds 12 1030 70 10000 0.45 304 10:44 22.09.2021
1161 Clouds 9 1030 90 10000 1.26 259 09:21 22.09.2021
1162 Clouds 7 1030 84 10000 1.28 255 08:22 22.09.2021
1163 Clouds 6 1029 84 10000 1.27 259 06:57 22.09.2021
1164 Clouds 7 1029 92 10000 1.08 254 05:51 22.09.2021
1165 Clouds 7 1029 92 10000 0.89 262 05:32 22.09.2021
1166 Clouds 7 1029 92 10000 0.41 244 03:44 22.09.2021
1167 Clouds 8 1030 90 10000 1.01 297 00:21 22.09.2021
1168 Clouds 10 1030 88 10000 1.19 343 22:52 21.09.2021
1169 Clouds 10 1030 86 10000 1.67 355 21:33 21.09.2021
1170 Clouds 11 1029 81 10000 1.64 358 20:26 21.09.2021
1171 Clouds 13 1028 74 10000 1.98 349 19:20 21.09.2021
1172 Clouds 16 1028 62 10000 0.89 298 17:35 21.09.2021
1173 Clouds 15 1028 62 10000 0.45 54 16:34 21.09.2021
1174 Clouds 15 1028 68 10000 1.84 345 15:39 21.09.2021
1175 Clouds 15 1028 68 10000 0.89 208 14:57 21.09.2021
1176 Clouds 15 1028 70 10000 0.45 84 13:56 21.09.2021
1177 Clouds 15 1028 72 10000 0.45 122 13:36 21.09.2021
1178 Clouds 14 1028 76 10000 0.89 67 12:35 21.09.2021
1179 Clouds 11 1027 75 10000 0.9 37 10:26 21.09.2021
1180 Clouds 9 1025 79 10000 0.23 165 08:28 21.09.2021
1181 Clouds 10 1025 79 10000 0.94 204 06:53 21.09.2021
1182 Clouds 10 1024 73 10000 0.9 115 00:30 21.09.2021
1183 Clouds 10 1022 69 10000 1.35 45 22:27 20.09.2021
1184 Clouds 10 1022 69 10000 1.35 46 21:40 20.09.2021
1185 Clouds 10 1022 70 10000 1.78 34 20:55 20.09.2021
1186 Clouds 13 1021 78 10000 2.28 38 19:33 20.09.2021
1187 Clouds 15 1021 67 10000 0.45 116 17:52 20.09.2021
1188 Clouds 15 1020 71 10000 0.45 19 16:50 20.09.2021
1189 Clouds 15 1020 69 10000 2.5 18 15:57 20.09.2021
1190 Clouds 15 1020 69 10000 0.45 56 15:32 20.09.2021
1191 Clouds 14 1020 75 10000 2.33 16 14:25 20.09.2021
1192 Clouds 13 1020 78 10000 1.73 48 12:39 20.09.2021
1193 Clouds 13 1020 81 10000 0.45 139 12:20 20.09.2021
1194 Rain 11 1020 84 10000 1.54 40 10:32 20.09.2021
1195 Clouds 11 1019 92 10000 1.18 24 09:44 20.09.2021
1196 Clouds 11 1019 92 10000 0.86 11 09:25 20.09.2021
1197 Clouds 11 1019 85 10000 0.59 329 08:31 20.09.2021
1198 Clouds 11 1017 83 10000 1.61 309 02:29 20.09.2021
1199 Clouds 12 1017 87 10000 0.45 300 22:47 19.09.2021
1200 Clouds 12 1016 80 10000 1.79 267 21:47 19.09.2021
1201 Clouds 13 1016 85 10000 1.79 305 20:59 19.09.2021
1202 Clouds 14 1015 74 10000 1.79 245 19:54 19.09.2021
1203 Clouds 16 1015 76 10000 0.45 44 18:42 19.09.2021
1204 Clouds 17 1014 72 10000 2.2 349 17:33 19.09.2021
1205 Clouds 17 1013 66 10000 2.72 27 16:33 19.09.2021
1206 Clouds 18 1014 66 10000 2.72 27 15:31 19.09.2021
1207 Clouds 18 1014 65 10000 0.45 157 14:48 19.09.2021
1208 Clear 18 1014 66 10000 0.89 79 13:52 19.09.2021
1209 Clear 17 1014 68 10000 1.34 69 12:55 19.09.2021
1210 Clear 16 1014 73 10000 0.89 49 11:46 19.09.2021
1211 Clear 16 1014 73 10000 0.45 44 11:22 19.09.2021
1212 Clear 12 1014 82 10000 0.45 30 09:51 19.09.2021
1213 Clear 11 1014 90 10000 0.45 48 09:23 19.09.2021
1214 Clear 7 1014 93 10000 1.75 82 06:48 19.09.2021
1215 Clouds 9 1016 89 10000 1.68 100 00:48 19.09.2021
1216 Clouds 10 1017 89 10000 1.97 104 22:58 18.09.2021
1217 Clouds 11 1017 87 10000 2.14 94 21:56 18.09.2021
1218 Clouds 13 1017 84 10000 2.13 78 20:46 18.09.2021
1219 Clouds 15 1016 76 10000 1.59 76 19:42 18.09.2021
1220 Clouds 16 1016 72 10000 1.51 67 19:22 18.09.2021
1221 Clouds 17 1014 74 10000 1.51 67 18:58 18.09.2021
1222 Clouds 19 1014 54 10000 0.89 327 18:29 18.09.2021
1223 Clouds 20 1015 50 10000 0.45 16 16:35 18.09.2021
1224 Clear 20 1017 54 10000 0.45 239 13:53 18.09.2021
1225 Clear 20 1018 55 10000 0.45 71 13:31 18.09.2021
1226 Clear 20 1018 58 10000 0.45 106 12:52 18.09.2021
1227 Clear 18 1018 63 10000 0.89 294 11:59 18.09.2021
1228 Clear 18 1018 66 10000 0.45 111 11:29 18.09.2021
1229 Clear 16 1018 76 10000 0.61 352 10:30 18.09.2021
1230 Clear 12 1018 83 10000 0.45 111 09:23 18.09.2021
1231 Clouds 9 1018 90 10000 1.06 251 08:24 18.09.2021
1232 Clouds 9 1017 92 10000 1.45 190 00:52 18.09.2021
1233 Clouds 10 1017 87 10000 1.3 168 23:55 17.09.2021
1234 Clouds 10 1019 92 10000 1.23 159 22:48 17.09.2021
1235 Clouds 10 1017 91 10000 1.18 150 22:23 17.09.2021
1236 Clouds 11 1017 90 10000 0.79 127 21:32 17.09.2021
1237 Clouds 11 1017 90 10000 1.18 150 21:32 17.09.2021
1238 Clouds 15 1017 76 10000 0.8 331 19:34 17.09.2021
1239 Clouds 16 1017 72 10000 0.8 331 18:40 17.09.2021
1240 Clouds 17 1017 66 10000 0.45 49 16:35 17.09.2021
1241 Clouds 17 1017 67 10000 0.45 292 15:21 17.09.2021
1242 Clouds 16 1018 80 10000 0.45 323 11:51 17.09.2021
1243 Clouds 13 1018 88 10000 0.45 138 10:21 17.09.2021
1244 Clouds 12 1018 91 10000 1.27 258 07:46 17.09.2021
1245 Clouds 11 1018 90 10000 1.82 277 05:27 17.09.2021
1246 Clouds 13 1018 89 10000 1.72 300 00:32 17.09.2021
1247 Clouds 14 1018 89 10000 0.89 312 22:42 16.09.2021
1248 Clouds 15 1018 89 10000 0.89 305 22:23 16.09.2021
1249 Clouds 15 1018 89 10000 0.45 296 21:35 16.09.2021
1250 Rain 16 1017 88 10000 0.45 175 20:30 16.09.2021
1251 Clouds 17 1016 87 10000 0.89 5 18:52 16.09.2021
1252 Rain 17 1016 87 10000 0.45 310 18:18 16.09.2021
1253 Rain 18 1016 86 9481 2.24 289 16:47 16.09.2021
1254 Clouds 19 1016 83 8579 0.89 194 14:49 16.09.2021
1255 Rain 18 1016 86 10000 1.34 184 13:34 16.09.2021
1256 Rain 18 1017 87 10000 0.45 212 12:45 16.09.2021
1257 Rain 18 1017 87 8737 0.45 176 11:50 16.09.2021
1258 Rain 18 1017 87 8737 0.45 176 11:50 16.09.2021
1259 Rain 17 1017 88 10000 3.49 242 10:56 16.09.2021
1260 Rain 17 1017 95 10000 0.45 217 10:22 16.09.2021
1261 Rain 17 1017 95 10000 0.89 188 09:31 16.09.2021
1262 Rain 16 1016 95 10000 1.82 239 07:52 16.09.2021
1263 Clouds 15 1016 95 10000 0.45 170 06:58 16.09.2021
1264 Clouds 15 1016 90 10000 0.89 141 06:38 16.09.2021
1265 Clouds 16 1017 90 10000 2.2 229 03:22 16.09.2021
1266 Clouds 17 1017 89 10000 0.45 166 00:58 16.09.2021
1267 Rain 17 1017 89 10000 0.89 268 23:30 15.09.2021
1268 Clouds 17 1017 88 10000 0.45 298 22:39 15.09.2021
1269 Rain 18 1016 88 10000 0.45 186 21:31 15.09.2021
1270 Rain 18 1016 87 8203 0.89 124 20:49 15.09.2021
1271 Rain 19 1016 81 10000 2.25 245 19:33 15.09.2021
1272 Clouds 20 1012 76 10000 2.25 245 18:53 15.09.2021
1273 Clouds 21 1015 76 10000 1.62 253 17:45 15.09.2021
1274 Clouds 21 1015 75 10000 0.43 223 16:43 15.09.2021
1275 Rain 21 1012 76 10000 1.11 346 15:25 15.09.2021
1276 Rain 21 1012 73 10000 1.34 334 14:43 15.09.2021
1277 Rain 22 1016 70 10000 1.79 322 13:48 15.09.2021
1278 Clouds 22 1016 70 10000 0.45 103 13:29 15.09.2021
1279 Clouds 22 1016 71 10000 0.45 241 12:34 15.09.2021
1280 Clouds 22 1016 74 10000 1.34 263 11:51 15.09.2021
1281 Clouds 20 1016 81 10000 0.45 186 10:58 15.09.2021
1282 Clouds 20 1016 83 10000 1.08 334 10:35 15.09.2021
1283 Rain 17 1016 87 10000 0.89 314 09:23 15.09.2021
1284 Clouds 14 1016 93 10000 0.45 307 07:27 15.09.2021
1285 Clouds 15 1016 91 10000 1.13 191 02:50 15.09.2021
1286 Clouds 17 1017 87 10000 1.88 147 22:36 14.09.2021
1287 Clouds 18 1017 85 10000 2 149 21:34 14.09.2021
1288 Clouds 20 1017 73 10000 1.92 129 20:25 14.09.2021
1289 Clouds 22 1015 62 10000 1.62 84 19:41 14.09.2021
1290 Clouds 25 1015 56 10000 2.13 58 17:34 14.09.2021
1291 Clouds 26 1016 55 10000 0.45 234 16:49 14.09.2021
1292 Clouds 27 1017 52 10000 0.45 45 15:27 14.09.2021
1293 Clouds 26 1018 54 10000 0.45 238 14:28 14.09.2021
1294 Clouds 24 1018 63 10000 0.89 123 11:50 14.09.2021
1295 Clouds 22 1018 70 10000 0.89 122 10:49 14.09.2021
1296 Clouds 19 1018 83 10000 1.68 118 09:50 14.09.2021
1297 Clouds 14 1018 87 10000 1.36 155 08:24 14.09.2021
1298 Clouds 12 1017 84 10000 0.45 147 06:22 14.09.2021
1299 Clouds 14 1018 91 10000 1.52 153 23:36 13.09.2021
1300 Clouds 15 1019 89 10000 1.62 124 22:29 13.09.2021
1301 Clouds 16 1018 88 10000 1.62 124 21:59 13.09.2021
1302 Clouds 16 1018 87 10000 1.62 124 21:39 13.09.2021
1303 Clouds 19 1017 90 10000 1.95 88 19:48 13.09.2021
1304 Clouds 22 1016 39 10000 2.12 78 18:45 13.09.2021
1305 Clouds 23 1016 58 10000 0.89 41 17:41 13.09.2021
1306 Clouds 24 1018 56 10000 0.89 31 16:50 13.09.2021
1307 Clouds 24 1018 57 10000 0.89 53 14:56 13.09.2021
1308 Clouds 24 1017 58 10000 0.45 34 14:56 13.09.2021
1309 Clouds 21 1020 67 10000 0.45 65 11:52 13.09.2021
1310 Clouds 19 1019 72 10000 0.89 94 10:58 13.09.2021
1311 Clouds 15 1019 86 10000 0.97 122 09:31 13.09.2021
1312 Clouds 13 1019 83 10000 0.61 93 01:24 13.09.2021
1313 Clouds 15 1019 81 10000 0.56 29 22:55 12.09.2021
1314 Clouds 16 1019 81 10000 0.7 27 22:24 12.09.2021
1315 Clear 17 1018 79 10000 1.04 17 21:34 12.09.2021
1316 Clouds 17 1017 66 10000 1.44 25 20:21 12.09.2021
1317 Clouds 18 1017 65 10000 1.17 31 19:49 12.09.2021
1318 Clouds 20 1016 65 10000 1.64 29 19:19 12.09.2021
1319 Clouds 21 1016 58 10000 1.78 19 18:19 12.09.2021
1320 Clouds 23 1017 57 10000 0.45 35 16:30 12.09.2021
1321 Clouds 23 1017 57 10000 0.45 191 16:30 12.09.2021
1322 Clouds 22 1017 59 10000 1.34 324 14:50 12.09.2021
1323 Clouds 21 1019 66 10000 1.34 102 12:47 12.09.2021
1324 Clouds 19 1020 76 10000 0.51 139 10:44 12.09.2021
1325 Clouds 15 1020 87 10000 0.45 181 08:59 12.09.2021
1326 Clouds 14 1020 89 10000 1.16 223 08:36 12.09.2021
1327 Clouds 13 1020 93 10000 1.68 233 01:49 12.09.2021
1328 Clouds 14 1020 92 10000 0.87 272 23:19 11.09.2021
1329 Clouds 15 1020 85 10000 0.92 277 21:41 11.09.2021
1330 Clouds 17 1019 82 10000 0.29 313 20:21 11.09.2021
1331 Clouds 20 1015 66 10000 0.45 299 18:35 11.09.2021
1332 Clouds 21 1019 70 10000 0.45 202 17:29 11.09.2021
1333 Clouds 20 1019 73 10000 0.45 142 15:43 11.09.2021
1334 Clouds 21 1020 68 10000 0.45 232 13:30 11.09.2021
1335 Clouds 20 1020 72 10000 1.79 213 12:30 11.09.2021
1336 Clouds 18 1017 83 10000 1.79 268 11:18 11.09.2021
1337 Clouds 17 1020 92 10000 1.79 213 09:35 11.09.2021
1338 Rain 15 1020 89 10000 2.43 223 07:44 11.09.2021
1339 Clouds 15 1020 89 10000 2.15 236 06:48 11.09.2021
1340 Clouds 17 1019 78 10000 0.89 212 23:23 10.09.2021
1341 Clouds 17 1019 76 10000 2.3 249 22:23 10.09.2021
1342 Clouds 18 1018 73 10000 2.3 249 21:48 10.09.2021
1343 Clouds 19 1016 70 10000 1.98 271 19:57 10.09.2021
1344 Clouds 23 1015 59 10000 1.18 288 18:26 10.09.2021
1345 Clouds 25 1015 53 10000 0.65 355 16:48 10.09.2021
1346 Clouds 24 1019 56 10000 0.89 296 14:41 10.09.2021
1347 Clear 23 1018 58 10000 0.98 335 11:56 10.09.2021
1348 Clear 15 1018 87 10000 1.37 231 08:36 10.09.2021
1349 Clouds 13 1017 91 10000 0.45 329 07:49 10.09.2021
1350 Clouds 15 1017 87 10000 2.11 227 00:42 10.09.2021
1351 Clouds 16 1017 85 10000 2.43 222 22:31 09.09.2021
1352 Clouds 16 1017 84 10000 2.43 228 21:45 09.09.2021
1353 Clouds 18 1016 81 10000 2.55 219 20:46 09.09.2021
1354 Clouds 20 1015 86 10000 2.69 220 19:54 09.09.2021
1355 Clear 23 1014 59 10000 2.28 241 18:31 09.09.2021
1356 Clear 25 1016 52 10000 0.45 291 16:40 09.09.2021
1357 Clear 25 1016 52 10000 0.45 229 15:42 09.09.2021
1358 Clouds 23 1015 50 10000 0.44 187 12:53 09.09.2021
1359 Clouds 22 1015 48 10000 0.94 189 11:45 09.09.2021
1360 Clouds 19 1013 67 10000 0.45 171 09:50 09.09.2021
1361 Clouds 16 1016 81 10000 0.89 180 08:49 09.09.2021
1362 Clear 12 1016 93 10000 2.11 217 06:26 09.09.2021
1363 Clear 12 1016 92 10000 2 230 02:36 09.09.2021
1364 Clear 12 1016 92 10000 2 230 02:36 09.09.2021
1365 Clear 15 1016 89 10000 1.6 165 22:42 08.09.2021
1366 Clear 17 1016 83 10000 1.45 130 21:35 08.09.2021
1367 Clouds 20 1015 89 10000 1.69 72 19:56 08.09.2021
1368 Clouds 22 1014 81 10000 2.34 72 19:22 08.09.2021
1369 Clouds 24 1016 59 10000 3.23 73 18:29 08.09.2021
1370 Clouds 24 1014 70 10000 3.22 73 17:56 08.09.2021
1371 Clouds 25 1017 55 10000 0.89 41 16:34 08.09.2021
1372 Clear 24 1018 52 10000 0.45 86 14:30 08.09.2021
1373 Clear 24 1018 52 10000 0.45 86 14:30 08.09.2021
1374 Clouds 23 1019 58 10000 0.89 93 12:54 08.09.2021
1375 Clouds 22 1019 60 10000 1.34 117 12:27 08.09.2021
1376 Clouds 21 1019 63 10000 0.45 151 11:38 08.09.2021
1377 Clouds 18 1020 69 10000 0.89 113 10:42 08.09.2021
1378 Clouds 18 1020 72 10000 0.45 22 10:24 08.09.2021
1379 Clouds 13 1020 89 10000 0.89 121 08:54 08.09.2021
1380 Clouds 8 1022 95 10000 1.72 99 07:38 08.09.2021
1381 Clouds 8 1021 93 10000 1.85 102 05:34 08.09.2021
1382 Clear 12 1023 88 10000 2.21 116 22:50 07.09.2021
1383 Clear 13 1023 87 10000 2.19 115 21:59 07.09.2021
1384 Clouds 17 1023 73 10000 2.32 89 20:23 07.09.2021
1385 Clouds 21 1020 49 10000 0.45 103 18:45 07.09.2021
1386 Clouds 21 1023 52 10000 0.89 38 18:18 07.09.2021
1387 Clouds 21 1023 53 10000 0.89 69 18:18 07.09.2021
1388 Clouds 23 1023 48 10000 0.45 201 16:47 07.09.2021
1389 Clouds 23 1024 48 10000 1.34 126 15:40 07.09.2021
1390 Clouds 23 1024 49 10000 0.45 275 14:44 07.09.2021
1391 Clouds 23 1025 53 10000 1.79 33 12:44 07.09.2021
1392 Clouds 20 1024 63 10000 0.89 70 11:51 07.09.2021
1393 Clouds 18 1024 72 10000 2.01 81 10:43 07.09.2021
1394 Clouds 10 1024 94 10000 1.57 125 08:39 07.09.2021
1395 Clouds 8 1024 90 10000 0.89 114 07:44 07.09.2021
1396 Clouds 9 1025 92 10000 1.14 167 05:41 07.09.2021
1397 Clouds 10 1025 91 10000 1.3 150 02:38 07.09.2021
1398 Clouds 11 1025 90 10000 1.19 142 00:53 07.09.2021
1399 Clear 12 1025 89 10000 1.32 141 23:36 06.09.2021
1400 Clear 12 1025 87 10000 1.44 136 22:57 06.09.2021
1401 Clear 13 1025 87 10000 1.43 136 22:39 06.09.2021
1402 Clear 14 1025 82 10000 1.43 98 21:31 06.09.2021
1403 Clear 20 1023 55 10000 2.01 64 19:32 06.09.2021
1404 Clear 21 1023 76 10000 2.01 64 18:58 06.09.2021
1405 Clear 22 1023 48 10000 0.89 42 18:24 06.09.2021
1406 Clear 23 1024 50 10000 0.89 48 17:36 06.09.2021
1407 Clear 24 1024 50 10000 0.45 24 15:58 06.09.2021
1408 Clear 24 1025 55 10000 0.89 86 14:26 06.09.2021
1409 Clear 22 1025 62 10000 1.34 107 12:48 06.09.2021
1410 Clear 19 1025 72 10000 2.81 84 10:59 06.09.2021
1411 Clear 16 1025 77 10000 0.45 123 09:59 06.09.2021
1412 Clear 7 1023 89 10000 0.91 137 07:34 06.09.2021
1413 Clear 11 1023 90 10000 1.93 107 00:22 06.09.2021
1414 Clear 12 1023 88 10000 1.9 107 23:19 05.09.2021
1415 Clear 13 1023 86 10000 1.89 107 22:30 05.09.2021
1416 Clear 14 1022 83 10000 1.83 106 21:55 05.09.2021
1417 Clear 16 1022 75 10000 1.93 104 20:55 05.09.2021
1418 Clear 21 1020 54 10000 2.06 82 19:22 05.09.2021
1419 Clear 23 1021 55 10000 0.89 27 17:36 05.09.2021
1420 Clear 23 1021 54 10000 0.89 27 17:36 05.09.2021
1421 Clear 24 1020 49 10000 0.45 21 15:40 05.09.2021
1422 Clear 24 1021 51 10000 0.89 171 14:45 05.09.2021
1423 Clear 22 1021 61 10000 0.45 9 12:34 05.09.2021
1424 Clear 19 1020 69 10000 1.99 79 10:59 05.09.2021
1425 Clear 18 1021 72 10000 0.45 120 10:34 05.09.2021
1426 Clear 15 1021 82 10000 0.45 175 09:26 05.09.2021
1427 Clear 10 1021 92 10000 0.78 146 08:23 05.09.2021
1428 Clear 9 1019 92 10000 0.92 164 03:20 05.09.2021
1429 Clear 11 1019 90 10000 1.28 132 00:34 05.09.2021
1430 Clear 11 1019 91 10000 1.28 132 23:52 04.09.2021
1431 Clear 12 1019 87 10000 1.24 129 22:55 04.09.2021
1432 Clear 13 1018 86 10000 1.3 125 22:34 04.09.2021
1433 Clear 18 1017 73 10000 1.28 90 19:58 04.09.2021
1434 Clear 20 1017 61 10000 1.52 76 19:32 04.09.2021
1435 Clear 23 1019 49 10000 0.89 26 16:47 04.09.2021
1436 Clear 23 1018 51 10000 0.45 34 14:28 04.09.2021
1437 Clear 20 1017 68 10000 0.45 150 11:22 04.09.2021
1438 Clear 16 1019 81 10000 0.45 129 09:39 04.09.2021
1439 Clear 8 1020 94 10000 0.57 177 07:30 04.09.2021
1440 Clear 11 1019 91 10000 0.99 133 00:48 04.09.2021
1441 Clear 12 1019 90 10000 1.06 122 23:32 03.09.2021
1442 Clear 12 1019 89 10000 1.12 118 22:57 03.09.2021
1443 Clear 14 1019 85 10000 1.3 112 21:37 03.09.2021
1444 Clear 16 1019 78 10000 1.58 98 20:53 03.09.2021
1445 Clear 18 1018 76 10000 1.69 72 20:19 03.09.2021
1446 Clear 20 1018 66 10000 1.98 58 19:30 03.09.2021
1447 Clear 22 1018 57 10000 0.89 344 17:58 03.09.2021
1448 Clear 22 1018 55 10000 0.89 148 16:46 03.09.2021
1449 Clear 23 1020 55 10000 0.89 139 15:38 03.09.2021
1450 Clear 22 1021 63 10000 0.89 17 13:24 03.09.2021
1451 Clear 17 1022 73 10000 0.89 105 10:45 03.09.2021
1452 Clear 14 1022 83 10000 0.89 144 09:20 03.09.2021
1453 Clear 8 1022 90 10000 0.97 105 07:54 03.09.2021
1454 Clear 7 1022 93 10000 1.42 113 06:26 03.09.2021
1455 Clear 12 1024 87 10000 3.03 88 23:56 02.09.2021
1456 Clear 14 1025 76 10000 3.27 95 21:49 02.09.2021
1457 Clear 16 1023 71 10000 3.11 94 20:40 02.09.2021
1458 Clear 21 1025 57 10000 1.34 267 17:41 02.09.2021
1459 Clear 21 1025 52 10000 1.34 16 16:30 02.09.2021
1460 Clear 21 1026 52 10000 1.79 189 15:30 02.09.2021
1461 Clear 21 1026 55 10000 0.89 261 13:28 02.09.2021
1462 Clear 18 1026 65 10000 0.89 268 11:43 02.09.2021
1463 Clear 17 1027 71 10000 1.79 83 10:53 02.09.2021
1464 Clear 11 1026 87 10000 0.45 115 08:57 02.09.2021
1465 Clear 6 1026 94 10000 1.77 108 07:22 02.09.2021
1466 Clear 6 1026 94 10000 1.77 108 07:22 02.09.2021
1467 Clear 6 1026 93 10000 1.59 106 05:31 02.09.2021
1468 Clear 8 1026 93 10000 1.45 101 02:36 02.09.2021
1469 Clouds 8 1027 92 10000 1.45 114 01:49 02.09.2021
1470 Clouds 10 1027 87 10000 1.52 125 23:41 01.09.2021
1471 Clouds 11 1027 86 10000 1.57 108 22:44 01.09.2021
1472 Clouds 11 1027 86 10000 1.57 108 22:44 01.09.2021
1473 Clouds 12 1027 84 10000 1.65 94 21:58 01.09.2021
1474 Clouds 13 1027 82 10000 1.88 85 21:29 01.09.2021
1475 Clouds 17 1026 65 10000 2 70 19:33 01.09.2021
1476 Clear 19 1026 56 10000 0.45 40 17:52 01.09.2021
1477 Clear 19 1026 54 10000 0.45 96 16:58 01.09.2021
1478 Clear 20 1026 53 10000 0.45 70 16:35 01.09.2021
1479 Clear 19 1027 58 10000 0.89 58 13:59 01.09.2021
1480 Clear 16 1027 71 10000 1.34 298 11:47 01.09.2021
1481 Clouds 14 1027 86 10000 0.45 331 09:49 01.09.2021
1482 Clouds 10 1026 95 10000 0.44 4 08:19 01.09.2021
1483 Clouds 9 1026 95 10000 0.82 242 06:42 01.09.2021
1484 Clouds 13 1026 92 10000 1.8 261 23:30 31.08.2021
1485 Clouds 13 1025 90 10000 0.89 211 21:57 31.08.2021
1486 Clouds 15 1023 85 10000 1.35 300 19:49 31.08.2021
1487 Clouds 16 1024 79 10000 0.45 300 19:23 31.08.2021
1488 Clouds 17 1023 73 10000 2.24 331 17:44 31.08.2021
1489 Clouds 17 1023 72 10000 1.34 303 17:25 31.08.2021
1490 Clouds 17 1021 75 10000 1.79 295 16:28 31.08.2021
1491 Clouds 17 1023 73 10000 1.34 345 15:25 31.08.2021
1492 Clouds 15 1022 87 10000 1.34 317 12:19 31.08.2021
1493 Clouds 14 1022 90 2703 0.89 331 11:19 31.08.2021
1494 Clouds 14 1022 90 2703 1.34 315 10:43 31.08.2021
1495 Clouds 13 1021 91 2160 1.79 256 09:41 31.08.2021
1496 Clouds 13 1021 91 10000 2.73 269 07:52 31.08.2021
1497 Clouds 12 1020 91 10000 0.45 295 05:57 31.08.2021
1498 Clouds 13 1019 90 10000 1.34 301 23:36 30.08.2021
1499 Clouds 13 1019 89 10000 0.45 217 22:36 30.08.2021
1500 Clouds 13 1019 93 10000 0.45 229 21:35 30.08.2021
1501 Rain 14 1018 92 10000 1.34 214 20:41 30.08.2021
1502 Clouds 14 1018 92 10000 2.85 247 19:53 30.08.2021
1503 Rain 14 1017 89 10000 0.89 207 19:19 30.08.2021
1504 Rain 15 1015 87 10000 1.34 196 17:50 30.08.2021
1505 Rain 15 1017 89 10000 0.45 290 16:28 30.08.2021
1506 Clouds 14 1016 92 9981 0.45 263 15:45 30.08.2021
1507 Rain 14 1016 92 9688 0.45 292 13:59 30.08.2021
1508 Rain 14 1016 92 10000 0.89 254 13:19 30.08.2021
1509 Clouds 13 1015 95 8102 1.34 311 10:59 30.08.2021
1510 Rain 12 1015 95 5218 1.34 267 04:57 30.08.2021
1511 Rain 13 1017 91 10000 0.45 213 21:57 29.08.2021
1512 Clouds 13 1017 89 10000 2.56 241 20:54 29.08.2021
1513 Clouds 14 1015 86 10000 3.45 238 19:28 29.08.2021
1514 Clouds 14 1016 83 10000 0.89 284 18:25 29.08.2021
1515 Clouds 15 1017 77 10000 0.45 207 15:58 29.08.2021
1516 Rain 14 1017 81 10000 1.34 272 14:29 29.08.2021
1517 Rain 14 1017 81 10000 0.45 252 13:55 29.08.2021
1518 Clouds 14 1017 85 10000 0.45 329 12:58 29.08.2021
1519 Clouds 13 1018 86 10000 0.45 296 12:18 29.08.2021
1520 Clouds 13 1018 86 10000 1.34 297 12:18 29.08.2021
1521 Clouds 13 1018 87 10000 0.89 313 11:40 29.08.2021
1522 Clouds 12 1018 94 10000 1.34 266 10:47 29.08.2021
1523 Clouds 12 1018 94 10000 1.34 275 10:28 29.08.2021
1524 Rain 11 1018 95 10000 0.89 252 09:32 29.08.2021
1525 Clouds 10 1018 94 10000 0.45 277 04:19 29.08.2021
1526 Clouds 11 1019 93 10000 0.45 220 22:57 28.08.2021
1527 Clouds 10 1019 91 10000 1.34 221 20:33 28.08.2021
1528 Rain 11 1019 89 10000 0.45 257 19:29 28.08.2021
1529 Rain 12 1018 86 10000 2.24 205 18:24 28.08.2021
1530 Clouds 12 1018 87 10000 2.24 231 17:46 28.08.2021
1531 Clouds 13 1018 86 10000 0.89 167 16:44 28.08.2021
1532 Clouds 13 1018 85 10000 1.34 224 15:20 28.08.2021
1533 Rain 13 1017 83 10000 1.34 202 13:59 28.08.2021
1534 Clouds 13 1017 82 10000 0.89 233 13:40 28.08.2021
1535 Clouds 14 1018 94 10000 2.51 285 12:35 28.08.2021
1536 Clouds 13 1017 89 10000 0.89 306 11:34 28.08.2021
1537 Clouds 13 1017 91 10000 0.45 283 10:18 28.08.2021
1538 Rain 11 1017 93 10000 0.89 240 07:57 28.08.2021
1539 Clouds 11 1018 89 10000 0.45 214 00:59 28.08.2021
1540 Clouds 12 1016 89 10000 0.89 225 21:29 27.08.2021
1541 Clouds 12 1017 88 10000 2.25 257 20:53 27.08.2021
1542 Clouds 14 1017 78 10000 0.89 214 19:43 27.08.2021
1543 Clouds 15 1017 73 10000 0.89 273 18:39 27.08.2021
1544 Clouds 15 1016 70 10000 1.79 283 17:54 27.08.2021
1545 Clouds 16 1017 72 10000 1.79 329 16:46 27.08.2021
1546 Clouds 15 1016 76 10000 2.68 195 14:50 27.08.2021
1547 Clouds 14 1016 77 10000 2.24 231 14:31 27.08.2021
1548 Rain 13 1017 82 10000 0.89 244 12:28 27.08.2021
1549 Clouds 13 1017 85 10000 1.34 331 10:58 27.08.2021
1550 Rain 13 1016 86 10000 1.34 300 10:36 27.08.2021
1551 Clouds 11 1016 94 10000 0.89 236 09:19 27.08.2021
1552 Rain 11 1016 90 10000 0.45 276 08:37 27.08.2021
1553 Rain 11 1015 88 10000 2.23 236 05:38 27.08.2021
1554 Clouds 12 1015 84 10000 1.34 234 00:49 27.08.2021
1555 Clouds 12 1015 85 10000 0.45 229 00:28 27.08.2021
1556 Clouds 12 1015 85 10000 0.89 225 22:28 26.08.2021
1557 Clouds 12 1015 84 10000 0.89 209 21:49 26.08.2021
1558 Clouds 14 1014 82 10000 0.89 284 19:53 26.08.2021
1559 Clouds 15 1013 83 10000 1.34 229 18:36 26.08.2021
1560 Clouds 15 1013 86 10000 1.79 308 17:26 26.08.2021
1561 Clouds 14 1014 90 10000 1.34 257 16:30 26.08.2021
1562 Rain 13 1014 88 9498 2.24 293 14:53 26.08.2021
1563 Rain 14 1012 81 10000 2.68 296 13:27 26.08.2021
1564 Rain 15 1015 80 10000 0.45 260 12:34 26.08.2021
1565 Rain 15 1014 78 10000 2.24 330 11:45 26.08.2021
1566 Clouds 15 1014 80 10000 2.24 275 09:30 26.08.2021
1567 Clouds 13 1014 84 10000 0.89 264 08:19 26.08.2021
1568 Clouds 11 1017 88 10000 2.25 224 23:45 25.08.2021
1569 Clouds 11 1018 87 10000 1.82 225 22:44 25.08.2021
1570 Clear 11 1018 86 10000 1.29 215 22:25 25.08.2021
1571 Clear 14 1018 78 10000 0.21 182 20:58 25.08.2021
1572 Clear 14 1017 76 10000 0.21 182 20:58 25.08.2021
1573 Clear 15 1020 73 10000 0.47 105 20:30 25.08.2021
1574 Clear 15 1020 73 10000 0.47 105 20:30 25.08.2021
1575 Clear 18 1018 57 10000 1.28 57 19:24 25.08.2021
1576 Clear 19 1019 54 10000 0.45 53 17:53 25.08.2021
1577 Clear 19 1019 55 10000 1.79 79 15:59 25.08.2021
1578 Clear 19 1019 55 10000 1.79 79 15:59 25.08.2021
1579 Clear 19 1020 56 10000 1.79 32 15:32 25.08.2021
1580 Clear 19 1020 57 10000 0.89 30 14:46 25.08.2021
1581 Clouds 18 1020 58 10000 0.89 130 13:53 25.08.2021
1582 Clouds 18 1021 63 10000 0.89 74 12:20 25.08.2021
1583 Clouds 16 1022 69 10000 1.34 34 11:19 25.08.2021
1584 Clouds 14 1022 79 10000 1.34 107 09:59 25.08.2021
1585 Clouds 14 1022 81 10000 1.34 91 09:36 25.08.2021
1586 Clouds 13 1022 83 10000 1.34 82 08:36 25.08.2021
1587 Clouds 11 1022 87 10000 0.45 97 07:20 25.08.2021
1588 Clouds 13 1024 81 10000 1.34 114 01:21 25.08.2021
1589 Clouds 13 1024 80 10000 0.89 105 23:31 24.08.2021
1590 Clouds 14 1025 85 10000 0.89 101 21:20 24.08.2021
1591 Clouds 15 1024 83 10000 0.45 28 20:18 24.08.2021
1592 Clouds 15 1024 83 10000 0.89 50 19:43 24.08.2021
1593 Clouds 15 1024 82 10000 0.89 32 19:43 24.08.2021
1594 Clouds 16 1024 80 10000 1.34 32 17:55 24.08.2021
1595 Clouds 17 1024 77 10000 1.79 49 17:22 24.08.2021
1596 Clouds 17 1024 77 10000 1.79 49 17:22 24.08.2021
1597 Clouds 17 1024 75 10000 1.34 40 16:23 24.08.2021
1598 Clouds 16 1024 81 10000 2.63 72 13:54 24.08.2021
1599 Clouds 14 1024 89 10000 2.54 56 12:45 24.08.2021
1600 Clouds 13 1024 92 10000 2.03 22 11:21 24.08.2021
1601 Clouds 13 1024 93 10000 0.89 339 10:47 24.08.2021
1602 Clouds 12 1024 93 10000 1.96 10 09:55 24.08.2021
1603 Clouds 12 1023 89 10000 0.45 279 07:42 24.08.2021
1604 Clouds 12 1023 89 10000 0.45 275 05:57 24.08.2021
1605 Clouds 13 1023 90 10000 0.45 319 03:47 24.08.2021
1606 Clouds 14 1022 89 10000 2.68 325 23:57 23.08.2021
1607 Clouds 15 1022 88 10000 0.89 315 22:50 23.08.2021
1608 Rain 15 1022 88 10000 1.79 308 21:40 23.08.2021
1609 Rain 15 1021 90 10000 1.34 268 20:23 23.08.2021
1610 Rain 18 1020 73 10000 0.45 236 18:39 23.08.2021
1611 Clouds 19 1021 68 10000 0.89 198 16:27 23.08.2021
1612 Clouds 18 1021 73 10000 0.45 265 13:58 23.08.2021
1613 Clouds 17 1022 81 10000 0.45 273 12:33 23.08.2021
1614 Clouds 17 1022 83 10000 0.45 288 11:24 23.08.2021
1615 Rain 16 1022 83 10000 0.45 284 10:36 23.08.2021
1616 Clouds 15 1022 88 10000 0.45 273 09:21 23.08.2021
1617 Clouds 14 1022 92 10000 1.34 236 07:54 23.08.2021
1618 Clouds 13 1021 89 10000 2.52 261 06:47 23.08.2021
1619 Clouds 13 1021 88 10000 0.89 242 04:46 23.08.2021
1620 Clouds 15 1022 89 10000 0.89 225 00:48 23.08.2021
1621 Rain 15 1021 88 10000 0.45 279 22:44 22.08.2021
1622 Rain 16 1021 88 10000 0.89 339 21:58 22.08.2021
1623 Rain 17 1020 87 4800 0.89 203 20:21 22.08.2021
1624 Rain 18 1019 88 10000 0.45 285 18:54 22.08.2021
1625 Rain 21 1018 75 10000 0.45 218 16:27 22.08.2021
1626 Clouds 22 1019 66 10000 0.45 321 14:55 22.08.2021
1627 Clouds 22 1019 64 10000 0.45 227 14:34 22.08.2021
1628 Clouds 21 1018 68 10000 1.83 258 13:20 22.08.2021
1629 Clouds 22 1018 68 10000 1.82 258 12:50 22.08.2021
1630 Clouds 21 1020 74 10000 1.79 277 11:58 22.08.2021
1631 Clouds 20 1020 78 10000 0.89 294 11:39 22.08.2021
1632 Clouds 18 1019 83 10000 1.34 211 10:20 22.08.2021
1633 Rain 16 1019 89 10000 1.79 190 08:18 22.08.2021
1634 Clouds 16 1019 83 10000 0.45 202 04:50 22.08.2021
1635 Clouds 18 1019 83 10000 2.23 183 22:51 21.08.2021
1636 Clouds 18 1019 80 10000 1.93 164 22:27 21.08.2021
1637 Clouds 24 1019 61 10000 1.78 57 19:22 21.08.2021
1638 Clouds 25 1017 49 10000 1.78 57 18:39 21.08.2021
1639 Clouds 26 1019 48 10000 1.8 29 17:48 21.08.2021
1640 Clouds 27 1019 47 10000 0.89 325 16:50 21.08.2021
1641 Clouds 27 1019 46 10000 2.24 315 15:51 21.08.2021
1642 Clouds 27 1019 46 10000 0.89 221 15:26 21.08.2021
1643 Clouds 26 1018 49 10000 0.45 5 14:21 21.08.2021
1644 Clouds 25 1020 54 10000 0.89 184 13:28 21.08.2021
1645 Clouds 24 1017 59 10000 1.65 84 12:24 21.08.2021
1646 Clouds 18 1020 81 10000 1.29 120 09:21 21.08.2021
1647 Clear 12 1019 93 10000 1.16 165 05:32 21.08.2021
1648 Clear 16 1020 82 10000 0.54 55 22:42 20.08.2021
1649 Clear 18 1019 76 10000 1.24 20 21:18 20.08.2021
1650 Clouds 23 1017 53 10000 0.45 309 17:46 20.08.2021
1651 Clouds 23 1018 56 10000 1.9 311 15:51 20.08.2021
1652 Clouds 23 1018 55 10000 0.45 49 13:36 20.08.2021
1653 Clouds 21 1018 71 10000 0.89 343 11:37 20.08.2021
1654 Clouds 19 1018 76 10000 0.45 342 10:42 20.08.2021
1655 Clouds 18 1018 81 10000 0.45 325 09:36 20.08.2021
1656 Clouds 16 1018 85 10000 0.45 133 08:41 20.08.2021
1657 Clouds 14 1018 88 10000 1.34 221 06:59 20.08.2021
1658 Clouds 15 1017 87 10000 0.45 357 04:22 20.08.2021
1659 Clouds 16 1018 82 10000 1.55 156 00:19 20.08.2021
1660 Clouds 17 1022 80 10000 1.35 150 22:57 19.08.2021
1661 Clouds 17 1018 79 10000 1.05 131 22:31 19.08.2021
1662 Clouds 19 1017 71 10000 0.8 83 20:32 19.08.2021
1663 Clouds 19 1016 69 10000 1.17 47 19:35 19.08.2021
1664 Clouds 22 1017 60 10000 0.45 271 17:19 19.08.2021
1665 Clouds 21 1014 58 10000 0.89 195 15:53 19.08.2021
1666 Clouds 20 1018 66 10000 0.89 149 13:29 19.08.2021
1667 Clouds 19 1018 71 10000 0.89 294 12:33 19.08.2021
1668 Clouds 18 1018 75 10000 1.34 247 11:23 19.08.2021
1669 Clouds 17 1018 79 10000 1.34 248 10:20 19.08.2021
1670 Clouds 16 1018 82 10000 1.34 274 09:44 19.08.2021
1671 Clouds 16 1018 83 10000 0.89 259 09:18 19.08.2021
1672 Clouds 14 1022 90 10000 2.16 229 06:51 19.08.2021
1673 Clear 14 1018 90 10000 0.45 205 02:22 19.08.2021
1674 Clear 13 1018 90 10000 1.72 245 01:48 19.08.2021
1675 Clear 13 1019 90 10000 1.83 227 22:55 18.08.2021
1676 Clear 15 1019 84 10000 1.6 227 21:40 18.08.2021
1677 Clear 17 1017 76 10000 1.06 247 20:31 18.08.2021
1678 Clouds 18 1018 71 10000 1.43 314 19:32 18.08.2021
1679 Clouds 19 1018 65 10000 0.45 257 18:47 18.08.2021
1680 Clouds 20 1019 65 10000 0.45 275 17:57 18.08.2021
1681 Clouds 19 1019 66 10000 0.45 265 15:47 18.08.2021
1682 Clouds 19 1019 66 10000 0.45 306 15:24 18.08.2021
1683 Clouds 19 1018 68 10000 0.45 317 14:51 18.08.2021
1684 Clouds 17 1020 75 10000 0.45 263 12:43 18.08.2021
1685 Clouds 17 1020 74 10000 0.45 273 12:24 18.08.2021
1686 Clouds 16 1020 78 10000 0.45 232 10:43 18.08.2021
1687 Clouds 12 1020 92 10000 1.34 217 07:47 18.08.2021
1688 Rain 11 1021 90 10000 1.57 157 00:45 18.08.2021
1689 Rain 14 1020 79 10000 1.66 353 22:30 17.08.2021
1690 Rain 15 1020 72 10000 1.07 347 21:27 17.08.2021
1691 Rain 15 1017 70 10000 0.89 330 20:45 17.08.2021
1692 Clouds 17 1020 64 10000 0.89 340 19:19 17.08.2021
1693 Clouds 18 1020 55 10000 0.45 132 17:33 17.08.2021
1694 Clouds 18 1021 56 10000 0.89 267 16:40 17.08.2021
1695 Clouds 18 1021 59 10000 0.45 260 15:38 17.08.2021
1696 Clouds 17 1021 62 10000 0.89 263 14:29 17.08.2021
1697 Clouds 16 1022 64 10000 0.45 204 12:35 17.08.2021
1698 Clouds 12 1022 84 10000 1.34 275 09:22 17.08.2021
1699 Clouds 11 1022 89 10000 1.34 267 07:54 17.08.2021
1700 Clouds 11 1020 89 10000 0.45 317 05:48 17.08.2021
1701 Clouds 14 1017 88 10000 1.34 184 23:18 16.08.2021
1702 Clouds 14 1017 85 10000 0.45 238 22:47 16.08.2021
1703 Clouds 14 1017 85 10000 2.68 257 22:28 16.08.2021
1704 Rain 15 1018 89 10000 1.34 206 21:36 16.08.2021
1705 Rain 15 1017 91 10000 1.34 215 20:50 16.08.2021
1706 Rain 16 1016 93 10000 0.45 211 19:26 16.08.2021
1707 Rain 16 1016 93 9290 0.89 238 18:25 16.08.2021
1708 Rain 16 1016 88 9293 0.89 205 17:52 16.08.2021
1709 Rain 18 1014 93 10000 0.45 290 15:53 16.08.2021
1710 Rain 18 1014 87 10000 0.45 297 14:58 16.08.2021
1711 Clouds 19 1014 82 10000 0.89 325 13:40 16.08.2021
1712 Rain 20 1014 81 10000 0.45 336 12:56 16.08.2021
1713 Rain 21 1014 80 10000 0.89 290 11:30 16.08.2021
1714 Rain 18 1014 90 10000 0.89 190 08:58 16.08.2021
1715 Rain 19 1014 86 10000 0.89 218 07:45 16.08.2021
1716 Rain 18 1014 90 10000 2.68 196 07:27 16.08.2021
1717 Clouds 18 1013 91 10000 0.45 242 05:51 16.08.2021
1718 Clouds 19 1014 84 10000 0.89 185 23:54 15.08.2021
1719 Rain 20 1015 85 10000 2.8 208 21:21 15.08.2021
1720 Clouds 22 1012 50 10000 1.4 282 19:25 15.08.2021
1721 Rain 23 1012 46 10000 1.4 282 18:38 15.08.2021
1722 Rain 26 1012 52 10000 1.36 331 17:42 15.08.2021
1723 Clear 29 1014 52 10000 1.34 328 16:30 15.08.2021
1724 Clear 31 1014 48 10000 0.45 288 15:34 15.08.2021
1725 Clear 30 1015 50 10000 0.89 277 14:32 15.08.2021
1726 Clear 29 1017 59 10000 1.34 355 12:39 15.08.2021
1727 Clear 24 1018 74 10000 0.45 284 09:57 15.08.2021
1728 Clear 18 1018 92 10000 0.45 231 06:53 15.08.2021
1729 Clear 20 1019 85 10000 1.68 228 01:21 15.08.2021
1730 Clear 20 1020 87 10000 1.73 214 00:28 15.08.2021
1731 Clear 23 1018 73 10000 0.42 143 21:22 14.08.2021
1732 Clear 23 1018 73 10000 0.42 143 21:22 14.08.2021
1733 Clear 28 1019 84 10000 0.85 41 19:45 14.08.2021
1734 Clear 27 1019 51 10000 1.32 25 19:26 14.08.2021
1735 Clear 30 1018 48 10000 1.34 303 17:34 14.08.2021
1736 Clear 30 1019 47 10000 0.45 23 16:39 14.08.2021
1737 Clear 30 1021 48 10000 1.34 315 15:34 14.08.2021
1738 Clear 29 1022 51 10000 0.89 84 13:32 14.08.2021
1739 Clear 25 1023 59 10000 0.89 107 10:57 14.08.2021
1740 Clear 21 1024 79 10000 1.19 234 08:53 14.08.2021
1741 Clouds 20 1024 83 10000 1.9 253 00:21 14.08.2021
1742 Clouds 20 1024 79 10000 1.9 253 23:49 13.08.2021
1743 Clouds 22 1022 71 10000 1.51 236 21:50 13.08.2021
1744 Clouds 26 1021 48 10000 2.26 299 19:29 13.08.2021
1745 Clouds 28 1021 51 10000 2.26 299 18:45 13.08.2021
1746 Clouds 30 1023 45 10000 2.24 252 17:18 13.08.2021
1747 Clouds 30 1023 44 10000 1.79 294 15:55 13.08.2021
1748 Clouds 28 1024 60 10000 2.9 244 11:55 13.08.2021
1749 Clouds 26 1024 64 10000 0.89 267 11:18 13.08.2021
1750 Rain 19 1023 85 10000 0.89 227 08:40 13.08.2021
1751 Rain 19 1023 83 10000 1.79 252 07:48 13.08.2021
1752 Clouds 17 1022 86 10000 2.16 213 06:35 13.08.2021
1753 Clouds 18 1022 85 10000 1.41 190 00:29 13.08.2021
1754 Clouds 22 1021 74 10000 1.47 147 21:51 12.08.2021
1755 Clouds 24 1020 65 10000 1.95 118 20:42 12.08.2021
1756 Clouds 26 1019 48 10000 1.98 94 19:50 12.08.2021
1757 Clouds 26 1019 48 10000 1.98 94 19:50 12.08.2021
1758 Clouds 28 1019 49 10000 1.66 65 18:34 12.08.2021
1759 Clouds 29 1021 49 10000 1.56 6 16:51 12.08.2021
1760 Clouds 29 1019 46 10000 1.77 349 16:27 12.08.2021
1761 Clouds 28 1021 50 10000 0.45 115 13:52 12.08.2021
1762 Clouds 26 1022 59 10000 0.45 192 11:39 12.08.2021
1763 Clouds 20 1022 75 10000 0.45 221 09:35 12.08.2021
1764 Clouds 16 1018 84 10000 0.88 177 07:52 12.08.2021
1765 Clouds 18 1021 82 10000 1.25 171 23:25 11.08.2021
1766 Clouds 20 1021 77 10000 1.09 152 21:53 11.08.2021
1767 Clouds 25 1020 53 10000 1.2 10 19:25 11.08.2021
1768 Clouds 26 1019 48 10000 2.25 351 18:27 11.08.2021
1769 Clouds 27 1020 46 10000 3.13 285 15:38 11.08.2021
1770 Clouds 27 1021 47 10000 3.13 285 15:19 11.08.2021
1771 Clouds 27 1021 49 10000 1.34 242 14:20 11.08.2021
1772 Clear 25 1021 54 10000 1.34 208 12:29 11.08.2021
1773 Clear 24 1021 58 10000 1.79 186 11:45 11.08.2021
1774 Clear 23 1019 59 10000 0.64 353 11:21 11.08.2021
1775 Clear 21 1020 70 10000 0.89 163 09:43 11.08.2021
1776 Clear 14 1019 88 10000 1.48 220 07:23 11.08.2021
1777 Clouds 18 1018 72 10000 0.45 132 22:53 10.08.2021
1778 Clouds 18 1018 69 10000 0.25 24 22:28 10.08.2021
1779 Clouds 20 1019 62 10000 0.58 298 20:57 10.08.2021
1780 Clouds 23 1018 54 10000 1.76 294 19:33 10.08.2021
1781 Clouds 26 1018 53 10000 2.46 304 18:31 10.08.2021
1782 Clouds 27 1017 47 10000 1.79 313 15:58 10.08.2021
1783 Clouds 26 1018 47 10000 1.34 266 14:42 10.08.2021
1784 Clouds 24 1019 56 10000 0.89 324 11:53 10.08.2021
1785 Clouds 20 1019 75 10000 0.45 272 09:48 10.08.2021
1786 Clear 12 1019 87 10000 1.54 187 06:48 10.08.2021
1787 Clear 11 1019 92 10000 1.62 193 04:58 10.08.2021
1788 Clouds 16 1020 80 10000 2.01 176 23:41 09.08.2021
1789 Clouds 17 1020 78 10000 2.16 182 21:54 09.08.2021
1790 Clouds 17 1020 76 10000 2.16 182 21:34 09.08.2021
1791 Clouds 20 1020 55 10000 1.07 173 19:35 09.08.2021
1792 Clouds 23 1019 53 10000 0.89 271 17:19 09.08.2021
1793 Clouds 23 1019 51 10000 0.45 142 15:33 09.08.2021
1794 Clouds 22 1019 55 10000 0.89 136 13:46 09.08.2021
1795 Clouds 22 1019 57 10000 1.34 296 13:26 09.08.2021
1796 Clouds 20 1019 64 10000 1.41 109 10:44 09.08.2021
1797 Clouds 15 1020 83 10000 0.76 187 08:26 09.08.2021
1798 Clouds 15 1019 85 10000 2.18 200 23:26 08.08.2021
1799 Clouds 15 1018 83 10000 2.69 193 21:26 08.08.2021
1800 Clouds 16 1015 83 10000 0.89 193 19:46 08.08.2021
1801 Rain 17 1018 96 10000 2.45 230 16:54 08.08.2021
1802 Clouds 17 1017 76 10000 2.39 235 15:33 08.08.2021
1803 Clouds 18 1016 50 10000 2.24 226 13:23 08.08.2021
1804 Clouds 17 1015 91 10000 2.39 215 11:25 08.08.2021
1805 Clouds 14 1015 88 10000 0.45 176 06:45 08.08.2021
1806 Rain 14 1014 87 10000 1.34 161 05:37 08.08.2021
1807 Clouds 14 1012 87 9459 0.45 200 00:32 08.08.2021
1808 Rain 14 1011 87 10000 1.34 211 22:47 07.08.2021
1809 Rain 14 1011 87 10000 2.24 149 21:41 07.08.2021
1810 Rain 14 1011 92 10000 0.45 264 20:51 07.08.2021
1811 Rain 17 1008 82 3937 1.79 241 17:46 07.08.2021
1812 Clouds 24 1006 52 10000 1.79 343 16:43 07.08.2021
1813 Clouds 25 1007 54 10000 0.89 345 14:29 07.08.2021
1814 Clouds 25 1007 59 10000 0.45 101 13:32 07.08.2021
1815 Clouds 24 1007 59 10000 0.45 101 13:32 07.08.2021
1816 Clouds 21 1009 65 10000 1.79 169 10:25 07.08.2021
1817 Clouds 13 1009 89 10000 1.8 141 06:31 07.08.2021
1818 Clouds 13 1011 91 10000 1.43 187 01:51 07.08.2021
1819 Clouds 14 1011 85 10000 1.43 187 01:50 07.08.2021
1820 Clouds 16 1011 79 10000 0.78 234 21:51 06.08.2021
1821 Clouds 18 1010 77 10000 0.98 276 20:34 06.08.2021
1822 Clouds 20 1009 62 10000 0.45 267 19:56 06.08.2021
1823 Clouds 22 1010 53 10000 0.45 273 18:32 06.08.2021
1824 Clouds 22 1010 51 10000 0.45 184 18:32 06.08.2021
1825 Clouds 22 1010 53 10000 0.45 273 18:32 06.08.2021
1826 Clouds 22 1010 52 10000 0.45 273 18:32 06.08.2021
1827 Clouds 22 1010 53 10000 0.45 273 18:32 06.08.2021
1828 Clouds 22 1010 54 10000 0.89 210 15:48 06.08.2021
1829 Rain 17 1011 83 10000 1.79 186 10:51 06.08.2021
1830 Rain 16 1011 84 10000 2.24 211 09:56 06.08.2021
1831 Clouds 14 1010 88 10000 0.45 211 07:32 06.08.2021
1832 Clouds 14 1011 90 10000 3.84 236 23:33 05.08.2021
1833 Clouds 15 1011 85 10000 0.89 157 21:56 05.08.2021
1834 Clouds 16 1011 83 10000 0.45 258 20:44 05.08.2021
1835 Rain 18 1010 78 8272 0.45 213 19:24 05.08.2021
1836 Clouds 21 1011 64 10000 0.45 286 16:33 05.08.2021
1837 Clouds 18 1012 73 10000 0.45 284 14:25 05.08.2021
1838 Clouds 16 1013 88 10000 1.79 207 11:21 05.08.2021
1839 Clouds 13 1013 95 10000 0.45 243 08:38 05.08.2021
1840 Rain 13 1013 91 10000 0.45 262 04:50 05.08.2021
1841 Rain 13 1014 89 9654 1.45 209 23:20 04.08.2021
1842 Rain 13 1014 93 7175 0.45 127 21:44 04.08.2021
1843 Rain 13 1014 93 8380 1.59 203 21:21 04.08.2021
1844 Rain 15 1014 88 8419 0.45 130 18:22 04.08.2021
1845 Rain 16 1015 86 10000 0.89 135 16:42 04.08.2021
1846 Rain 18 1015 72 10000 1.34 112 14:43 04.08.2021
1847 Clouds 16 1016 75 10000 1.4 110 11:34 04.08.2021
1848 Rain 13 1016 91 10000 1.64 232 04:54 04.08.2021
1849 Rain 15 1016 84 10000 1.34 213 20:35 03.08.2021
1850 Rain 15 1016 84 10000 3.48 241 19:59 03.08.2021
1851 Clouds 19 1014 68 10000 2.71 209 17:50 03.08.2021
1852 Clouds 21 1014 58 10000 0.45 277 16:23 03.08.2021
1853 Clouds 22 1016 57 10000 0.45 87 12:20 03.08.2021
1854 Clouds 19 1016 65 10000 0.45 124 10:39 03.08.2021
1855 Clouds 12 1017 92 10000 1.86 212 06:46 03.08.2021
1856 Clouds 20 1016 59 10000 1.79 351 17:48 02.08.2021
1857 Clouds 21 1016 56 10000 1.34 278 16:38 02.08.2021
1858 Clouds 21 1016 56 10000 0.45 225 15:25 02.08.2021
1859 Clouds 18 1017 67 10000 0.45 250 11:59 02.08.2021
1860 Clouds 18 1017 69 10000 0.45 334 11:34 02.08.2021
1861 Clouds 16 1017 76 10000 0.89 281 09:49 02.08.2021
1862 Rain 14 1015 87 10000 1.34 218 22:45 01.08.2021
1863 Clouds 16 1013 79 10000 1.34 206 18:19 01.08.2021
1864 Rain 15 1012 85 10000 2.39 249 15:29 01.08.2021
1865 Rain 15 1012 85 8108 0.45 288 11:38 01.08.2021
1866 Clouds 14 1012 93 10000 0.45 279 09:25 01.08.2021
1867 Rain 15 1009 87 10000 1.34 46 03:48 01.08.2021
1868 Clouds 17 1011 79 10000 0.69 184 22:52 31.07.2021
1869 Clouds 19 1012 78 10000 1.16 186 20:53 31.07.2021
1870 Clouds 22 1012 69 10000 0.45 243 17:49 31.07.2021
1871 Clouds 21 1012 66 10000 0.45 280 16:36 31.07.2021
1872 Clouds 21 1012 69 10000 1.28 286 12:38 31.07.2021
1873 Clouds 18 1013 82 10000 0.45 216 08:53 31.07.2021
1874 Rain 17 1013 83 10000 0.45 208 01:39 31.07.2021
1875 Rain 17 1013 83 10000 0.45 208 01:39 31.07.2021
1876 Rain 21 1016 65 10000 2.68 280 20:31 30.07.2021
1877 Clouds 24 1010 44 10000 2.06 252 19:58 30.07.2021
1878 Clouds 17 1014 81 10000 0.89 159 08:31 30.07.2021
1879 Clouds 25 1015 57 10000 1.85 298 17:33 29.07.2021
1880 Clouds 14 1018 88 10000 0.45 237 06:38 29.07.2021
1881 Clouds 14 1017 93 10000 2.06 237 04:29 29.07.2021
1882 Clouds 17 1017 95 10000 2.42 195 21:22 28.07.2021
1883 Clouds 18 1013 89 10000 0.89 161 17:22 28.07.2021
1884 Rain 18 1019 90 10000 0.45 130 15:52 28.07.2021
1885 Clouds 18 1015 90 10000 1.4 191 08:24 28.07.2021
1886 Clouds 20 1015 89 10000 1.34 267 23:31 27.07.2021
1887 Clouds 21 1015 80 10000 0.95 23 21:28 27.07.2021
1888 Clouds 24 1016 64 10000 0.89 58 14:53 27.07.2021
1889 Clouds 22 1017 65 10000 0.45 76 11:41 27.07.2021
1890 Clouds 20 1017 78 10000 0.89 277 09:49 27.07.2021
1891 Rain 23 1012 60 8407 2.57 322 17:54 26.07.2021
1892 Clouds 25 1012 52 10000 1.63 55 15:31 26.07.2021
1893 Clouds 15 1014 89 10000 0.45 143 04:52 26.07.2021
1894 Clouds 19 1014 84 10000 0.54 315 20:56 25.07.2021
1895 Rain 21 1012 74 10000 0.45 31 18:25 25.07.2021
1896 Clouds 22 1012 71 10000 2.68 304 15:47 25.07.2021
1897 Clouds 20 1011 79 10000 1.75 350 10:57 25.07.2021
1898 Clouds 17 1013 88 10000 1.01 5 08:20 25.07.2021
1899 Rain 16 1013 88 10000 0.45 135 22:35 24.07.2021
1900 Rain 20 1014 83 10000 0.45 246 20:19 24.07.2021
1901 Clouds 27 1012 56 10000 1.34 309 15:49 24.07.2021
1902 Clouds 14 1012 89 10000 1.89 129 04:20 24.07.2021
1903 Clear 28 1016 46 10000 0.89 309 14:40 23.07.2021
1904 Clear 26 1017 52 10000 0.45 203 12:42 23.07.2021
1905 Clear 15 1018 86 10000 0.45 231 07:25 23.07.2021
1906 Clear 23 1018 60 10000 0.79 89 20:33 22.07.2021
1907 Clouds 24 1022 55 10000 0.89 96 11:29 22.07.2021
1908 Clouds 20 1020 68 10000 1.6 74 09:53 22.07.2021
1909 Clouds 15 1022 84 10000 0.53 101 07:38 22.07.2021
1910 Clear 19 1022 68 10000 0.58 40 21:47 21.07.2021
1911 Clear 20 1022 74 10000 1.1 23 21:29 21.07.2021
1912 Clear 25 1022 48 10000 0.45 79 14:54 21.07.2021
1913 Clear 20 1022 66 10000 0.45 28 09:49 21.07.2021
1914 Clear 17 1022 76 10000 1.32 44 08:47 21.07.2021
1915 Clear 15 1021 82 10000 0.99 293 23:47 20.07.2021
1916 Clouds 24 1015 47 10000 1.79 327 17:43 20.07.2021
1917 Clouds 24 1019 50 10000 0.45 107 16:25 20.07.2021
1918 Clouds 23 1021 51 10000 0.89 318 15:26 20.07.2021
1919 Clouds 21 1018 58 10000 0.45 48 11:18 20.07.2021
1920 Clear 14 1018 86 10000 0.89 288 04:48 20.07.2021
1921 Clear 18 1018 72 10000 1.69 22 22:25 19.07.2021
1922 Clear 25 1019 55 10000 0.89 5 13:36 19.07.2021
1923 Clear 24 1017 61 10000 2.11 28 12:37 19.07.2021
1924 Clouds 21 1021 84 10000 0.45 120 19:44 18.07.2021
1925 Clouds 21 1020 80 6126 0.91 354 15:20 18.07.2021
1926 Clouds 17 1020 90 10000 2.69 351 10:19 18.07.2021
1927 Clouds 19 1020 87 4246 0.45 309 22:27 17.07.2021
1928 Clouds 19 1020 92 4248 0.89 311 21:54 17.07.2021
1929 Clouds 19 1020 92 4247 0.45 335 21:35 17.07.2021
1930 Rain 19 1020 83 10000 0.45 84 12:34 17.07.2021
1931 Clouds 18 1021 86 10000 0.89 284 10:21 17.07.2021
1932 Clouds 16 1024 91 10000 0.45 284 04:46 17.07.2021
1933 Clouds 22 1018 61 10000 0.89 54 14:23 16.07.2021
1934 Clouds 17 1019 80 10000 0.89 313 09:45 16.07.2021
1935 Clouds 13 1018 91 10000 1.51 236 06:57 16.07.2021
1936 Clouds 16 1012 83 10000 1.34 188 14:39 15.07.2021
1937 Clouds 16 1016 86 10000 1.74 191 13:48 15.07.2021
1938 Clouds 15 1014 87 10000 0.45 229 08:44 15.07.2021
1939 Clouds 14 1014 88 10000 3.96 239 00:19 15.07.2021
1940 Rain 17 1013 79 10000 3.13 215 16:48 14.07.2021
1941 Clouds 17 1012 78 10000 2.83 271 11:59 14.07.2021
1942 Rain 13 1013 94 10000 0.45 206 01:18 14.07.2021
1943 Clouds 14 1013 90 10000 0.45 217 20:21 13.07.2021
1944 Clouds 15 1012 90 10000 0.89 198 19:42 13.07.2021
1945 Clouds 15 1012 92 10000 0.89 198 19:21 13.07.2021
1946 Rain 14 1012 92 10000 0.89 301 18:43 13.07.2021
1947 Rain 14 1010 93 4341 5.09 253 18:23 13.07.2021
1948 Clouds 16 1011 79 10000 1.34 309 14:33 13.07.2021
1949 Clouds 19 1008 78 10000 5.53 256 09:38 13.07.2021
1950 Clouds 19 1009 77 10000 1.73 69 22:45 12.07.2021
1951 Clouds 26 1009 55 10000 0.89 32 17:28 12.07.2021
1952 Clouds 26 1010 55 10000 0.45 5 15:20 12.07.2021
1953 Clear 14 1016 86 10000 1.06 185 00:31 12.07.2021
1954 Clear 16 1016 85 10000 1.08 195 21:57 11.07.2021
1955 Rain 20 1019 75 10000 1.6 315 15:50 11.07.2021
1956 Rain 16 1017 89 10000 1.79 232 01:55 11.07.2021
1957 Clouds 24 1016 56 10000 0.89 34 17:19 10.07.2021
1958 Clear 13 1021 90 10000 0.45 162 07:52 10.07.2021
1959 Clear 12 1021 93 10000 0.99 121 07:22 10.07.2021
1960 Clouds 19 1022 72 10000 1.34 339 19:57 09.07.2021
1961 Clouds 17 1023 85 10000 0.45 192 14:51 09.07.2021
1962 Rain 15 1021 93 10000 0.45 211 12:48 09.07.2021
1963 Rain 14 1020 93 10000 1.34 219 00:48 09.07.2021
1964 Rain 15 1021 93 7843 3.5 253 22:52 08.07.2021
1965 Rain 16 1020 92 2782 0.45 215 20:20 08.07.2021
1966 Rain 17 1020 91 7738 1.34 215 18:23 08.07.2021
1967 Clouds 19 1018 92 6126 2.98 304 13:52 08.07.2021
1968 Clouds 19 1020 90 6126 2.98 304 13:30 08.07.2021
1969 Rain 19 1020 86 10000 0.89 309 12:35 08.07.2021
1970 Clouds 18 1020 90 10000 0.89 275 11:21 08.07.2021
1971 Clouds 16 1020 94 10000 0.45 330 06:52 08.07.2021
1972 Clouds 16 1019 89 10000 1.3 351 03:52 08.07.2021
1973 Clouds 18 1020 85 10000 1.3 93 22:59 07.07.2021
1974 Clouds 18 1020 84 10000 1.47 67 22:20 07.07.2021
1975 Clouds 18 1020 83 10000 1.48 66 21:45 07.07.2021
1976 Clouds 19 1020 82 10000 1.14 50 21:24 07.07.2021
1977 Clouds 19 1020 82 10000 2 68 19:59 07.07.2021
1978 Clouds 19 1020 81 10000 2 65 19:30 07.07.2021
1979 Clouds 20 1020 80 10000 1.99 66 18:55 07.07.2021
1980 Clouds 20 1020 80 10000 1.79 107 15:58 07.07.2021
1981 Clouds 20 1019 81 10000 0.89 113 15:24 07.07.2021
1982 Clouds 18 1019 90 10000 0.45 355 11:52 07.07.2021
1983 Clouds 16 1017 89 10000 1.42 25 07:27 07.07.2021
1984 Rain 16 1017 95 10000 1.35 37 05:52 07.07.2021
1985 Clouds 17 1016 95 10000 0.45 231 02:56 07.07.2021
1986 Clouds 19 1014 81 9777 3.93 312 20:53 06.07.2021
1987 Rain 20 1014 78 10000 0.45 125 19:18 06.07.2021
1988 Clouds 22 1012 55 10000 4.29 332 18:43 06.07.2021
1989 Clouds 23 1011 40 10000 4.62 321 17:43 06.07.2021
1990 Clouds 29 1011 47 10000 0.45 38 13:37 06.07.2021
1991 Clouds 23 1012 63 10000 0.89 279 09:44 06.07.2021
1992 Clear 21 1012 71 10000 0.45 240 08:49 06.07.2021
1993 Clear 18 1013 76 10000 1.34 107 08:21 06.07.2021
1994 Clouds 14 1015 88 10000 0.45 125 02:29 06.07.2021
1995 Clouds 15 1015 86 10000 0.45 174 23:57 05.07.2021
1996 Clouds 17 1015 78 10000 1.5 171 21:58 05.07.2021
1997 Clouds 20 1015 86 10000 2.19 204 17:21 05.07.2021
1998 Clouds 20 1015 57 10000 3.89 289 14:29 05.07.2021
1999 Clouds 13 1015 90 10000 2.03 216 05:59 05.07.2021
2000 Clouds 13 1015 90 10000 2.03 217 05:41 05.07.2021
2001 Clouds 14 1015 89 10000 1.79 217 00:58 05.07.2021
2002 Rain 15 1014 90 10000 0.45 199 21:19 04.07.2021
2003 Rain 18 1011 81 9420 0.45 308 18:29 04.07.2021
2004 Clouds 22 1011 66 10000 0.45 232 15:30 04.07.2021
2005 Clouds 21 1014 70 10000 0.45 146 11:26 04.07.2021
2006 Clouds 17 1015 90 10000 0.89 223 08:38 04.07.2021
2007 Rain 17 1017 80 10000 1.79 248 23:31 03.07.2021
2008 Rain 18 1016 94 10000 4.17 240 21:57 03.07.2021
2009 Clouds 24 1017 46 10000 0.45 43 14:19 03.07.2021
2010 Clouds 23 1016 49 10000 0.45 306 12:37 03.07.2021
2011 Clouds 18 1019 67 10000 0.45 148 09:28 03.07.2021
2012 Clouds 17 1019 76 10000 0.45 137 08:45 03.07.2021
2013 Clear 13 1019 78 10000 1.93 213 01:34 03.07.2021
2014 Clouds 18 1020 68 10000 0.45 58 11:34 02.07.2021
2015 Clouds 13 1019 90 10000 2.01 239 07:29 02.07.2021
2016 Clouds 12 1019 93 10000 1.94 238 04:38 02.07.2021
2017 Clouds 14 1020 92 10000 2.02 236 22:32 01.07.2021
2018 Clouds 14 1019 88 10000 1.92 235 21:40 01.07.2021
2019 Clouds 14 1019 86 10000 0.45 276 20:38 01.07.2021
2020 Clouds 15 1019 86 10000 0.89 267 19:21 01.07.2021
2021 Clouds 15 1019 83 10000 1.34 327 18:49 01.07.2021
2022 Rain 15 1019 85 10000 0.89 246 17:48 01.07.2021
2023 Rain 14 1019 85 10000 0.45 271 17:18 01.07.2021
2024 Rain 15 1018 84 10000 1.34 273 15:25 01.07.2021
2025 Clouds 15 1018 81 10000 1.79 254 14:23 01.07.2021
2026 Clouds 13 1018 87 10000 0.45 198 10:55 01.07.2021
2027 Clouds 13 1018 87 10000 0.45 198 10:55 01.07.2021
2028 Clouds 12 1017 90 10000 1.79 234 05:47 01.07.2021
2029 Rain 13 1016 88 10000 0.45 223 23:21 30.06.2021
2030 Rain 14 1016 86 10000 3.63 248 22:20 30.06.2021
2031 Clouds 14 1016 86 10000 3.92 250 21:22 30.06.2021
2032 Clouds 15 1016 84 10000 3.53 257 20:27 30.06.2021
2033 Rain 15 1016 80 10000 0.45 186 18:54 30.06.2021
2034 Rain 15 1018 77 10000 0.45 204 14:26 30.06.2021
2035 Clouds 17 1016 67 10000 0.45 275 13:23 30.06.2021
2036 Clouds 13 1015 90 10000 0.45 250 08:18 30.06.2021
2037 Clouds 14 1014 90 10000 1.34 221 21:29 29.06.2021
2038 Rain 14 1014 84 10000 2.24 198 18:36 29.06.2021
2039 Rain 16 1007 72 3804 5.37 244 17:43 29.06.2021
2040 Clouds 24 1008 60 10000 0.89 38 16:36 29.06.2021
2041 Clouds 25 1009 57 10000 0.89 77 15:49 29.06.2021
2042 Clouds 25 1011 54 10000 1.34 15 13:31 29.06.2021
2043 Clouds 24 1012 56 10000 0.45 155 12:43 29.06.2021
2044 Rain 18 1015 85 10000 0.89 259 00:41 29.06.2021
2045 Clouds 22 1011 66 10000 2.69 71 21:47 28.06.2021
2046 Clouds 26 1011 49 10000 2.94 56 19:48 28.06.2021
2047 Clouds 29 1014 49 10000 1.34 24 17:29 28.06.2021
2048 Clouds 29 1015 47 10000 0.45 279 15:22 28.06.2021
2049 Clouds 28 1016 47 10000 0.45 179 12:59 28.06.2021
2050 Clouds 21 1017 70 10000 1.34 125 08:59 28.06.2021
2051 Clouds 18 1016 77 10000 1.29 119 23:45 27.06.2021
2052 Clouds 21 1021 65 10000 0.45 131 21:51 27.06.2021
2053 Clouds 25 1014 50 10000 2.1 78 19:42 27.06.2021
2054 Clouds 27 1014 51 10000 1.34 31 16:53 27.06.2021
2055 Clouds 26 1014 49 10000 0.45 208 14:20 27.06.2021
2056 Clouds 19 1018 68 10000 0.45 119 09:33 27.06.2021
2057 Clouds 16 1019 82 10000 0.45 283 23:30 26.06.2021
2058 Clouds 19 1023 70 10000 0.45 283 21:24 26.06.2021
2059 Rain 22 1017 82 10000 1.39 64 20:42 26.06.2021
2060 Clouds 23 1016 54 10000 0.89 40 19:25 26.06.2021
2061 Clouds 24 1017 52 10000 1.34 0 15:39 26.06.2021
2062 Clear 23 1018 53 10000 0.89 50 12:57 26.06.2021
2063 Clear 19 1020 70 10000 0.89 155 09:58 26.06.2021
2064 Clear 11 1019 89 10000 0.93 170 06:20 26.06.2021
2065 Clouds 17 1019 83 10000 1.93 285 21:23 25.06.2021
2066 Clouds 18 1020 75 10000 0.89 300 20:20 25.06.2021
2067 Clouds 19 1019 73 10000 0.45 233 17:58 25.06.2021
2068 Clouds 19 1019 71 10000 0.89 168 16:56 25.06.2021
2069 Clouds 19 1019 69 10000 3.13 336 15:51 25.06.2021
2070 Clouds 19 1019 66 10000 0.45 195 13:27 25.06.2021
2071 Clouds 17 1020 78 10000 0.45 321 09:36 25.06.2021
2072 Clouds 14 1020 92 10000 1.34 207 07:22 25.06.2021
2073 Rain 14 1020 93 10000 1.79 214 03:58 25.06.2021
2074 Rain 15 1020 88 8653 2.24 190 23:40 24.06.2021
2075 Rain 16 1019 88 9983 1.79 173 21:48 24.06.2021
2076 Rain 17 1017 93 4450 2.93 242 20:41 24.06.2021
2077 Rain 18 1017 84 2579 0.45 321 19:39 24.06.2021
2078 Rain 22 1017 68 10000 0.45 316 17:21 24.06.2021
2079 Clouds 23 1018 63 10000 0.45 64 15:23 24.06.2021
2080 Clouds 22 1018 69 10000 2.24 306 14:50 24.06.2021
2081 Clouds 22 1018 66 10000 0.45 44 12:54 24.06.2021
2082 Clouds 18 1018 79 10000 0.89 298 09:46 24.06.2021
2083 Clouds 16 1018 84 10000 1.84 307 08:26 24.06.2021
2084 Clouds 14 1018 88 10000 1.52 286 06:39 24.06.2021
2085 Clouds 15 1017 85 2249 0.45 250 23:33 23.06.2021
2086 Rain 16 1016 84 8926 0.89 63 22:25 23.06.2021
2087 Rain 20 1016 82 10000 3.58 306 20:59 23.06.2021
2088 Rain 22 1015 70 10000 0.89 18 19:55 23.06.2021
2089 Clouds 24 1017 65 10000 0.89 42 18:29 23.06.2021
2090 Clouds 25 1019 62 10000 0.89 14 16:52 23.06.2021
2091 Clouds 24 1018 63 10000 0.89 24 14:31 23.06.2021
2092 Clouds 23 1018 68 10000 0.89 74 12:38 23.06.2021
2093 Clouds 21 1018 90 10000 1.9 16 11:22 23.06.2021
2094 Clouds 18 1015 90 10000 0.89 321 09:26 23.06.2021
2095 Clouds 17 1019 94 10000 2.4 319 08:38 23.06.2021
2096 Clouds 17 1019 93 10000 0.45 278 07:49 23.06.2021
2097 Clouds 16 1018 91 4879 2.38 280 05:33 23.06.2021
2098 Rain 17 1018 94 10000 0.45 287 01:54 23.06.2021
2099 Rain 18 1016 91 10000 1.34 213 23:59 22.06.2021
2100 Rain 18 1016 90 10000 0.89 209 23:41 22.06.2021
2101 Rain 18 1016 90 10000 0.45 208 22:39 22.06.2021
2102 Rain 18 1016 91 6675 0.45 277 21:39 22.06.2021
2103 Rain 19 1014 89 10000 2.68 283 20:36 22.06.2021
2104 Rain 20 1014 84 10000 0.89 209 19:18 22.06.2021
2105 Rain 21 1014 83 9967 0.45 198 18:31 22.06.2021
2106 Clouds 21 1013 81 10000 3.46 340 17:29 22.06.2021
2107 Rain 22 1009 75 10000 1.79 184 16:52 22.06.2021
2108 Clouds 24 1011 62 10000 0.89 54 15:21 22.06.2021
2109 Clouds 25 1011 66 10000 1.34 32 14:26 22.06.2021
2110 Clouds 25 1012 60 10000 0.89 186 13:38 22.06.2021
2111 Clouds 24 1011 64 10000 1.34 46 12:30 22.06.2021
2112 Clouds 22 1012 70 10000 1.34 70 10:49 22.06.2021
2113 Clouds 18 1012 91 10000 0.45 34 08:42 22.06.2021
2114 Rain 16 1013 88 10000 5.15 304 00:56 22.06.2021
2115 Rain 16 1012 87 10000 1.79 240 23:59 21.06.2021
2116 Rain 19 1008 82 10000 0.45 222 22:52 21.06.2021
2117 Rain 21 1007 63 10000 2.02 352 21:30 21.06.2021
2118 Rain 20 1007 60 10000 2.01 352 20:50 21.06.2021
2119 Rain 20 1007 60 10000 2.01 352 20:50 21.06.2021
2120 Clouds 26 1007 70 10000 2.16 13 19:55 21.06.2021
2121 Clouds 27 1010 50 10000 0.89 38 19:20 21.06.2021
2122 Clouds 28 1008 48 10000 1.34 32 17:47 21.06.2021
2123 Clouds 28 1007 46 10000 1.34 141 16:51 21.06.2021
2124 Clouds 28 1009 45 10000 1.79 84 16:27 21.06.2021
2125 Clouds 28 1005 46 10000 1.79 304 15:48 21.06.2021
2126 Clouds 28 1009 45 10000 1.79 229 14:25 21.06.2021
2127 Clouds 27 1005 100 10000 0.89 222 13:37 21.06.2021
2128 Clouds 26 1010 100 10000 0.45 292 12:51 21.06.2021
2129 Clouds 25 1006 100 10000 1.79 330 12:30 21.06.2021
2130 Clouds 24 1010 100 10000 1.79 261 10:42 21.06.2021
2131 Clouds 23 1010 100 10000 1.79 279 10:18 21.06.2021
2132 Clouds 20 1010 79 10000 1.9 257 08:30 21.06.2021
2133 Clouds 19 1011 80 10000 0.45 188 07:55 21.06.2021
2134 Clouds 20 1009 95 10000 3.92 254 01:20 21.06.2021
2135 Clouds 22 1009 71 10000 6.61 310 23:48 20.06.2021
2136 Clouds 22 1008 77 10000 1.34 297 23:28 20.06.2021
2137 Clouds 22 1008 75 10000 0.89 292 22:47 20.06.2021
2138 Clouds 24 1007 70 10000 2.97 109 21:37 20.06.2021
2139 Clouds 25 1007 65 10000 0.45 113 20:22 20.06.2021
2140 Clouds 26 1008 62 10000 0.45 42 19:35 20.06.2021
2141 Clouds 27 1009 59 10000 0.45 28 18:44 20.06.2021
2142 Clouds 28 1010 53 10000 1.34 42 17:35 20.06.2021
2143 Clouds 27 1010 54 10000 0.89 15 16:39 20.06.2021
2144 Clouds 27 1011 57 10000 0.45 29 15:38 20.06.2021
2145 Clouds 27 1012 57 10000 0.45 84 14:55 20.06.2021
2146 Clouds 27 1012 57 10000 0.89 69 14:36 20.06.2021
2147 Clouds 28 1013 54 10000 0.45 36 13:19 20.06.2021
2148 Clouds 26 1015 59 10000 0.45 180 11:48 20.06.2021
2149 Clouds 25 1015 63 10000 0.45 286 11:23 20.06.2021
2150 Rain 23 1015 72 10000 0.45 220 09:49 20.06.2021
2151 Rain 23 1015 71 10000 0.45 306 08:59 20.06.2021
2152 Clouds 19 1012 75 10000 1.45 150 02:25 20.06.2021
2153 Clear 21 1013 73 10000 2.8 104 23:35 19.06.2021
2154 Clouds 22 1013 71 10000 3.56 89 22:43 19.06.2021
2155 Clear 23 1013 69 10000 2.96 86 21:48 19.06.2021
2156 Clouds 27 1011 74 10000 1.99 99 20:40 19.06.2021
2157 Clouds 30 1011 61 10000 2.2 82 18:48 19.06.2021
2158 Clouds 31 1014 38 10000 0.45 29 17:55 19.06.2021
2159 Clouds 31 1014 38 10000 1.34 26 17:22 19.06.2021
2160 Clouds 31 1015 44 10000 0.45 73 15:55 19.06.2021
2161 Clouds 30 1016 47 10000 0.45 42 14:21 19.06.2021
2162 Clouds 29 1017 53 10000 0.89 284 12:48 19.06.2021
2163 Clouds 28 1018 56 10000 0.89 202 11:53 19.06.2021
2164 Clouds 26 1018 64 10000 0.89 323 10:44 19.06.2021
2165 Clouds 25 1018 66 10000 1.34 324 10:23 19.06.2021
2166 Clouds 24 1017 70 10000 1.34 290 09:23 19.06.2021
2167 Clouds 21 1018 78 10000 0.89 277 07:45 19.06.2021
2168 Clouds 18 1019 84 10000 3.16 247 06:29 19.06.2021
2169 Clouds 18 1019 84 10000 3.17 247 06:29 19.06.2021
2170 Clouds 19 1016 78 10000 3.59 247 01:46 19.06.2021
2171 Clouds 20 1016 76 10000 3.29 232 00:18 19.06.2021
2172 Clouds 20 1015 76 10000 3.31 232 23:32 18.06.2021
2173 Clouds 21 1016 74 10000 2.91 221 22:50 18.06.2021
2174 Clouds 22 1014 74 10000 2.67 214 22:22 18.06.2021
2175 Clouds 24 1015 65 10000 2.31 215 21:39 18.06.2021
2176 Clouds 24 1015 64 10000 2.31 215 21:19 18.06.2021
2177 Clouds 29 1013 64 10000 1.7 89 20:18 18.06.2021
2178 Clouds 31 1015 36 10000 3.26 49 18:27 18.06.2021
2179 Clouds 31 1012 34 10000 3.25 49 17:39 18.06.2021
2180 Clouds 31 1013 35 10000 0.89 88 16:30 18.06.2021
2181 Clouds 31 1013 36 10000 0.45 101 15:45 18.06.2021
2182 Clouds 31 1015 35 10000 0.89 56 14:34 18.06.2021
2183 Clouds 31 1015 41 10000 0.45 154 13:41 18.06.2021
2184 Clouds 29 1015 44 10000 0.45 36 12:48 18.06.2021
2185 Clouds 29 1011 46 10000 0.89 348 12:29 18.06.2021
2186 Clouds 27 1011 54 10000 0.45 317 11:30 18.06.2021
2187 Clouds 27 1016 53 10000 0.45 230 10:52 18.06.2021
2188 Clouds 26 1011 57 10000 0.89 241 10:23 18.06.2021
2189 Clouds 25 1015 58 10000 0.89 292 09:49 18.06.2021
2190 Clouds 22 1016 67 10000 0.45 310 08:56 18.06.2021
2191 Clouds 21 1016 71 10000 0.89 282 08:30 18.06.2021
2192 Clouds 17 1016 79 10000 2.82 262 07:33 18.06.2021
2193 Clear 15 1015 81 10000 1.28 120 03:24 18.06.2021
2194 Clear 18 1015 76 10000 1.84 102 00:33 18.06.2021
2195 Clear 19 1015 72 10000 1.24 118 23:27 17.06.2021
2196 Clear 20 1015 66 10000 1.37 99 22:26 17.06.2021
2197 Clear 21 1015 65 10000 1.36 99 21:51 17.06.2021
2198 Clear 25 1013 68 10000 1.6 82 20:59 17.06.2021
2199 Clear 28 1013 68 10000 1.6 82 20:31 17.06.2021
2200 Clear 29 1013 64 10000 1.68 60 19:53 17.06.2021
2201 Clear 29 1013 55 10000 2.61 51 19:22 17.06.2021
2202 Clear 31 1013 33 10000 0.45 330 17:50 17.06.2021
2203 Clear 31 1013 34 10000 2.24 342 17:22 17.06.2021
2204 Clear 31 1015 32 10000 0.45 59 16:30 17.06.2021
2205 Clear 31 1015 32 10000 0.45 51 15:53 17.06.2021
2206 Clouds 30 1015 35 10000 0.45 75 14:29 17.06.2021
2207 Clouds 30 1016 38 10000 0.89 53 13:46 17.06.2021
2208 Clouds 30 1016 42 10000 0.45 82 12:31 17.06.2021
2209 Clouds 28 1016 48 10000 0.89 309 11:41 17.06.2021
2210 Clouds 26 1016 53 10000 0.45 274 10:44 17.06.2021
2211 Clouds 25 1016 55 10000 0.45 269 10:23 17.06.2021
2212 Clouds 24 1016 60 10000 0.89 267 09:42 17.06.2021
2213 Clouds 22 1016 65 10000 0.45 178 08:52 17.06.2021
2214 Clouds 19 1015 74 10000 0.99 148 07:51 17.06.2021
2215 Clouds 13 1015 86 10000 0.45 179 06:23 17.06.2021
2216 Clouds 14 1016 84 10000 1.17 163 02:42 17.06.2021
2217 Clouds 18 1016 73 10000 2.11 105 23:41 16.06.2021
2218 Clouds 18 1016 71 10000 2.17 106 23:21 16.06.2021
2219 Clouds 19 1015 72 10000 2.27 106 22:25 16.06.2021
2220 Clouds 20 1015 79 10000 2.28 106 21:44 16.06.2021
2221 Clouds 23 1014 53 10000 2.31 95 21:20 16.06.2021
2222 Clouds 25 1014 77 10000 2.21 90 20:42 16.06.2021
2223 Clouds 26 1014 68 10000 2.35 79 19:52 16.06.2021
2224 Clouds 27 1015 41 10000 0.89 48 19:33 16.06.2021
2225 Clouds 27 1014 57 10000 2.9 75 18:53 16.06.2021
2226 Clouds 28 1013 34 10000 1.34 49 18:28 16.06.2021
2227 Clouds 28 1015 35 10000 0.89 40 17:44 16.06.2021
2228 Clouds 29 1013 33 10000 0.89 20 17:26 16.06.2021
2229 Clouds 29 1015 36 10000 0.89 22 16:44 16.06.2021
2230 Clouds 29 1015 36 10000 0.89 22 16:44 16.06.2021
2231 Clouds 29 1017 33 10000 0.89 203 16:18 16.06.2021
2232 Clouds 29 1014 33 10000 0.45 52 15:36 16.06.2021
2233 Clouds 28 1012 32 10000 0.89 343 14:50 16.06.2021
2234 Clouds 28 1016 32 10000 1.79 166 14:30 16.06.2021
2235 Clouds 28 1021 35 10000 2.68 69 13:56 16.06.2021
2236 Clouds 28 1021 35 10000 0.45 29 13:56 16.06.2021
2237 Clouds 28 1021 36 10000 0.45 85 13:23 16.06.2021
2238 Clouds 27 1017 37 10000 0.89 82 12:55 16.06.2021
2239 Clouds 27 1015 37 10000 0.45 36 12:33 16.06.2021
2240 Clouds 26 1015 45 10000 0.89 31 11:46 16.06.2021
2241 Clouds 25 1017 49 10000 0.89 114 10:53 16.06.2021
2242 Clouds 23 1016 60 10000 2.18 104 10:34 16.06.2021
2243 Clouds 22 1016 61 10000 2.18 104 09:39 16.06.2021
2244 Clouds 19 1018 70 10000 1.37 120 08:34 16.06.2021
2245 Clouds 19 1018 69 10000 1.76 113 08:34 16.06.2021
2246 Clouds 17 1018 74 10000 1.37 120 07:48 16.06.2021
2247 Clouds 15 1018 76 10000 1.01 148 07:25 16.06.2021
2248 Clouds 15 1018 77 10000 1.01 148 07:25 16.06.2021
2249 Clouds 13 1019 83 10000 1.2 198 02:48 16.06.2021
2250 Clouds 16 1019 75 10000 1.55 204 23:49 15.06.2021
2251 Clouds 17 1019 73 10000 1.29 193 23:23 15.06.2021
2252 Clouds 17 1019 71 10000 1.29 193 22:55 15.06.2021
2253 Clouds 18 1019 70 10000 1.29 193 22:33 15.06.2021
2254 Clouds 20 1019 63 10000 0.83 136 21:28 15.06.2021
2255 Clouds 23 1018 49 10000 0.56 127 20:38 15.06.2021
2256 Clouds 25 1017 69 10000 1.12 60 19:35 15.06.2021
2257 Clouds 26 1019 40 10000 0.45 48 18:31 15.06.2021
2258 Clouds 27 1017 35 10000 1.9 35 16:53 15.06.2021
2259 Clouds 27 1021 37 10000 0.45 27 16:21 15.06.2021
2260 Clouds 27 1019 37 10000 0.45 57 15:34 15.06.2021
2261 Clouds 27 1022 38 10000 0.45 25 14:44 15.06.2021
2262 Clouds 27 1020 36 10000 0.45 70 13:42 15.06.2021
2263 Clouds 26 1016 35 10000 0.45 98 13:21 15.06.2021
2264 Clouds 26 1020 39 10000 0.45 45 12:44 15.06.2021
2265 Clouds 25 1019 44 10000 0.45 43 11:49 15.06.2021
2266 Clouds 23 1019 47 10000 0.45 111 11:19 15.06.2021
2267 Clouds 23 1020 48 10000 0.45 71 10:51 15.06.2021
2268 Clouds 23 1020 48 10000 0.45 40 10:32 15.06.2021
2269 Clouds 21 1020 56 10000 1.25 60 09:34 15.06.2021
2270 Clouds 17 1020 70 10000 0.96 122 08:29 15.06.2021
2271 Clouds 15 1020 74 10000 0.45 183 07:43 15.06.2021
2272 Clouds 11 1020 85 10000 0.45 117 06:38 15.06.2021
2273 Clouds 10 1020 86 10000 1.19 160 04:32 15.06.2021
2274 Clear 12 1021 79 10000 1.4 136 00:48 15.06.2021
2275 Clear 13 1021 76 10000 1.44 132 23:59 14.06.2021
2276 Clear 14 1021 73 10000 1.56 125 23:26 14.06.2021
2277 Clear 15 1020 72 10000 1.56 125 22:43 14.06.2021
2278 Clear 16 1020 69 10000 1.82 120 22:21 14.06.2021
2279 Clear 17 1020 78 10000 1.82 120 21:47 14.06.2021
2280 Clear 19 1019 76 10000 1.67 97 21:24 14.06.2021
2281 Clear 21 1019 75 10000 1.68 97 20:55 14.06.2021
2282 Clear 21 1019 75 10000 1.68 97 20:55 14.06.2021
2283 Clear 22 1019 70 10000 1.65 86 20:26 14.06.2021
2284 Clear 23 1019 70 10000 1.65 86 19:40 14.06.2021
2285 Clear 23 1020 41 10000 0.45 38 19:18 14.06.2021
2286 Clear 24 1019 36 10000 2.23 65 18:42 14.06.2021
2287 Clear 24 1020 37 10000 0.89 64 18:18 14.06.2021
2288 Clear 24 1020 40 10000 0.89 87 17:30 14.06.2021
2289 Clear 25 1019 38 10000 0.89 87 17:30 14.06.2021
2290 Clear 24 1017 39 10000 1.34 88 16:36 14.06.2021
2291 Clear 24 1021 39 10000 0.45 24 15:50 14.06.2021
2292 Clear 24 1021 37 10000 0.45 80 15:31 14.06.2021
2293 Clear 24 1021 45 10000 0.89 52 14:51 14.06.2021
2294 Clear 23 1022 43 10000 0.89 16 13:44 14.06.2021
2295 Clear 22 1023 45 10000 0.45 251 12:55 14.06.2021
2296 Clear 22 1022 44 10000 0.45 95 12:37 14.06.2021
2297 Clear 21 1023 48 10000 0.45 32 11:53 14.06.2021
2298 Clear 20 1023 52 10000 0.45 28 10:57 14.06.2021
2299 Clear 18 1024 58 10000 0.89 327 09:50 14.06.2021
2300 Clear 17 1024 60 10000 0.89 36 09:25 14.06.2021
2301 Clear 15 1024 68 10000 0.45 34 08:42 14.06.2021
2302 Clear 13 1024 72 10000 1.79 129 07:53 14.06.2021
2303 Clear 10 1024 85 10000 1.64 80 06:44 14.06.2021
2304 Clear 9 1024 87 10000 1.42 73 04:58 14.06.2021
2305 Clear 11 1025 78 10000 1.18 50 00:53 14.06.2021
2306 Clear 12 1025 74 10000 0.96 22 23:55 13.06.2021
2307 Clear 13 1025 73 10000 0.89 355 23:23 13.06.2021
2308 Clear 14 1025 72 10000 0.87 355 22:41 13.06.2021
2309 Clear 15 1025 79 10000 1.01 355 22:20 13.06.2021
2310 Clear 17 1025 79 10000 1.01 355 21:50 13.06.2021
2311 Clear 17 1025 79 10000 1.03 355 21:31 13.06.2021
2312 Clear 20 1025 75 10000 1.53 353 20:46 13.06.2021
2313 Clear 20 1025 67 10000 1.97 345 20:28 13.06.2021
2314 Clear 20 1025 67 10000 1.97 345 19:46 13.06.2021
2315 Clear 22 1025 43 10000 0.45 205 19:25 13.06.2021
2316 Clear 21 1024 56 10000 2.72 342 18:47 13.06.2021
2317 Clear 22 1023 42 10000 0.45 270 18:20 13.06.2021
2318 Clear 23 1025 38 10000 0.45 246 17:25 13.06.2021
2319 Clear 23 1024 37 10000 0.45 156 16:37 13.06.2021
2320 Clear 23 1025 39 10000 0.45 309 15:39 13.06.2021
2321 Clouds 22 1024 43 10000 0.89 185 14:46 13.06.2021
2322 Clouds 22 1025 45 10000 3.13 288 13:53 13.06.2021
2323 Clouds 21 1025 46 10000 2.24 322 13:25 13.06.2021
2324 Clouds 21 1025 46 10000 2.68 269 13:25 13.06.2021
2325 Clouds 21 1026 47 10000 1.34 232 12:51 13.06.2021
2326 Clouds 21 1026 49 10000 0.45 283 12:30 13.06.2021
2327 Clouds 20 1025 52 10000 2.68 297 11:45 13.06.2021
2328 Clouds 19 1026 59 10000 0.45 251 10:49 13.06.2021
2329 Clouds 18 1026 59 10000 1.34 316 10:31 13.06.2021
2330 Clouds 18 1025 61 10000 0.89 337 09:48 13.06.2021
2331 Clouds 17 1022 64 10000 1.34 323 09:26 13.06.2021
2332 Clouds 17 1025 66 10000 0.89 239 08:51 13.06.2021
2333 Clouds 16 1022 66 10000 0.89 16 08:30 13.06.2021
2334 Clouds 15 1025 72 10000 1.34 328 07:34 13.06.2021
2335 Clouds 17 1023 74 10000 0.45 285 04:20 13.06.2021
2336 Clouds 18 1023 92 10000 3.16 286 23:50 12.06.2021
2337 Clouds 19 1022 92 10000 3.15 294 23:18 12.06.2021
2338 Clouds 19 1021 61 10000 3.13 316 22:29 12.06.2021
2339 Clouds 21 1021 86 10000 3.58 292 21:44 12.06.2021
2340 Clouds 23 1020 82 10000 4.03 289 20:52 12.06.2021
2341 Clouds 22 1020 61 10000 4.58 289 20:21 12.06.2021
2342 Clouds 22 1020 60 10000 4.58 289 19:57 12.06.2021
2343 Clouds 21 1019 73 10000 0.89 280 18:56 12.06.2021
2344 Clouds 22 1019 70 10000 0.45 226 18:29 12.06.2021
2345 Clouds 23 1019 62 10000 0.45 241 17:32 12.06.2021
2346 Rain 23 1020 64 10000 0.89 229 16:59 12.06.2021
2347 Clouds 26 1019 48 10000 0.89 194 15:40 12.06.2021
2348 Clouds 26 1020 47 10000 0.89 9 14:52 12.06.2021
2349 Clouds 26 1020 49 10000 1.34 273 14:31 12.06.2021
2350 Clouds 25 1020 51 10000 0.89 239 13:58 12.06.2021
2351 Clouds 25 1021 51 10000 0.45 257 12:41 12.06.2021
2352 Clouds 25 1021 52 10000 3.58 303 12:23 12.06.2021
2353 Clouds 24 1017 53 10000 3.13 258 11:38 12.06.2021
2354 Clouds 23 1021 55 10000 2.24 304 10:46 12.06.2021
2355 Clouds 23 1021 57 10000 1.79 290 10:27 12.06.2021
2356 Clouds 22 1021 61 10000 0.45 275 09:46 12.06.2021
2357 Clouds 20 1021 66 10000 0.45 200 08:46 12.06.2021
2358 Clouds 17 1019 78 10000 2.51 240 07:40 12.06.2021
2359 Clouds 14 1020 85 10000 0.45 180 05:40 12.06.2021
2360 Clouds 15 1021 85 10000 2.55 228 00:52 12.06.2021
2361 Clouds 17 1020 80 10000 2.36 231 22:45 11.06.2021
2362 Clouds 17 1019 79 10000 2.07 221 22:18 11.06.2021
2363 Clouds 18 1020 89 10000 2.07 221 21:41 11.06.2021
2364 Clouds 20 1019 84 10000 1.48 229 21:21 11.06.2021
2365 Clouds 22 1018 78 10000 0.75 318 20:21 11.06.2021
2366 Clouds 23 1019 55 10000 1.22 353 19:28 11.06.2021
2367 Clouds 24 1018 68 10000 1.23 353 18:39 11.06.2021
2368 Clouds 24 1016 46 10000 1.79 290 17:49 11.06.2021
2369 Clouds 25 1020 44 10000 1.79 300 16:37 11.06.2021
2370 Clouds 25 1020 47 10000 1.79 297 15:27 11.06.2021
2371 Clouds 25 1020 48 10000 1.79 34 14:44 11.06.2021
2372 Clouds 24 1019 53 10000 2.19 353 13:45 11.06.2021
2373 Clouds 23 1021 53 10000 0.45 69 12:29 11.06.2021
2374 Clouds 23 1021 57 10000 0.45 355 11:52 11.06.2021
2375 Clouds 21 1021 62 10000 1.79 331 11:24 11.06.2021
2376 Clouds 19 1021 74 10000 1.19 297 09:37 11.06.2021
2377 Clouds 18 1021 93 10000 1.15 252 08:57 11.06.2021
2378 Clouds 15 1021 89 10000 1.18 245 07:55 11.06.2021
2379 Clouds 13 1020 94 10000 1.54 252 06:27 11.06.2021
2380 Clouds 15 1021 90 10000 1.81 230 23:59 10.06.2021
2381 Clouds 15 1021 92 10000 0.45 328 22:53 10.06.2021
2382 Clouds 15 1021 91 10000 0.45 130 22:35 10.06.2021
2383 Clouds 16 1021 83 10000 0.45 132 21:43 10.06.2021
2384 Rain 17 1021 95 10000 1.25 273 20:59 10.06.2021
2385 Rain 18 1023 77 10000 1.01 302 20:23 10.06.2021
2386 Rain 21 1020 65 10000 1.34 311 19:29 10.06.2021
2387 Clouds 22 1021 62 10000 0.51 1 18:36 10.06.2021
2388 Clouds 23 1020 57 10000 0.89 209 18:18 10.06.2021
2389 Clouds 24 1020 53 10000 0.45 315 17:23 10.06.2021
2390 Clouds 24 1020 52 10000 1.79 317 16:45 10.06.2021
2391 Clouds 24 1019 54 10000 1.34 304 15:56 10.06.2021
2392 Clouds 23 1022 60 10000 0.89 256 13:45 10.06.2021
2393 Clouds 22 1022 61 10000 0.45 36 12:45 10.06.2021
2394 Clouds 21 1022 67 10000 0.89 324 11:43 10.06.2021
2395 Clouds 20 1022 71 10000 0.89 321 10:39 10.06.2021
2396 Clouds 17 1022 83 10000 0.89 200 08:49 10.06.2021
2397 Clouds 14 1022 91 10000 0.45 213 02:00 10.06.2021
2398 Clouds 15 1022 87 10000 0.92 272 00:21 10.06.2021
2399 Clouds 16 1022 85 10000 0.93 295 22:55 09.06.2021
2400 Clouds 16 1022 85 10000 0.39 359 22:19 09.06.2021
2401 Clouds 16 1022 84 10000 0.45 296 22:19 09.06.2021
2402 Clouds 17 1022 84 9296 1.45 11 21:32 09.06.2021
2403 Clouds 17 1022 82 10000 1.34 221 20:55 09.06.2021
2404 Clouds 18 1021 78 10000 1.34 177 20:24 09.06.2021
2405 Clouds 19 1022 77 10000 0.45 198 19:47 09.06.2021
2406 Clouds 20 1019 70 10000 1.34 296 18:28 09.06.2021
2407 Clouds 24 1020 52 10000 0.45 100 15:39 09.06.2021
2408 Clouds 24 1018 55 10000 0.45 107 15:18 09.06.2021
2409 Clouds 24 1020 52 10000 0.45 30 13:59 09.06.2021
2410 Clouds 23 1019 58 10000 1.34 332 13:30 09.06.2021
2411 Clouds 23 1021 60 10000 0.45 74 12:45 09.06.2021
2412 Clouds 23 1020 64 10000 0.45 36 12:27 09.06.2021
2413 Clouds 19 1021 77 10000 0.89 308 09:47 09.06.2021
2414 Clouds 17 1021 85 10000 0.89 223 08:50 09.06.2021
2415 Clouds 14 1021 87 10000 0.45 211 07:23 09.06.2021
2416 Clouds 12 1021 86 10000 1.65 248 05:45 09.06.2021
2417 Clouds 16 1021 78 10000 0.45 260 23:22 08.06.2021
2418 Clouds 16 1020 76 10000 0.45 355 22:46 08.06.2021
2419 Clouds 17 1021 70 10000 1.5 37 21:58 08.06.2021
2420 Clouds 20 1019 71 10000 2.17 21 20:39 08.06.2021
2421 Clouds 23 1018 49 10000 3.03 24 18:19 08.06.2021
2422 Clouds 24 1018 51 10000 3.02 23 17:49 08.06.2021
2423 Clouds 24 1018 51 10000 3.03 24 17:49 08.06.2021
2424 Clouds 25 1019 48 10000 0.45 104 16:29 08.06.2021
2425 Clouds 24 1021 57 10000 0.45 25 14:36 08.06.2021
2426 Clouds 22 1021 66 10000 1.34 340 12:40 08.06.2021
2427 Clouds 20 1021 73 10000 0.45 348 10:48 08.06.2021
2428 Clouds 12 1021 89 10000 1.5 244 05:44 08.06.2021
2429 Clouds 15 1021 82 10000 0.95 51 00:33 08.06.2021
2430 Clouds 16 1021 78 10000 1.33 52 22:30 07.06.2021
2431 Rain 19 1021 65 10000 0.45 164 20:20 07.06.2021
2432 Clouds 21 1017 59 10000 1.34 25 18:30 07.06.2021
2433 Clouds 21 1018 63 10000 2.62 66 15:33 07.06.2021
2434 Clouds 20 1021 73 10000 0.89 321 13:26 07.06.2021
2435 Clouds 19 1021 76 10000 0.45 34 11:37 07.06.2021
2436 Clouds 18 1021 80 10000 1.48 137 10:21 07.06.2021
2437 Clouds 17 1021 86 10000 1.48 137 09:35 07.06.2021
2438 Clouds 15 1021 90 10000 0.99 175 08:25 07.06.2021
2439 Clouds 14 1021 92 10000 1.03 190 06:32 07.06.2021
2440 Rain 16 1021 87 10000 3.03 219 21:34 06.06.2021
2441 Rain 16 1021 85 10000 0.45 229 20:26 06.06.2021
2442 Clouds 16 1024 82 10000 0.45 284 18:21 06.06.2021
2443 Clouds 16 1018 82 10000 0.45 265 16:38 06.06.2021
2444 Rain 15 1021 89 10000 0.45 309 13:53 06.06.2021
2445 Rain 15 1021 90 10000 0.45 296 12:26 06.06.2021
2446 Rain 14 1021 90 10000 0.45 194 11:38 06.06.2021
2447 Rain 14 1021 91 10000 1.79 202 10:23 06.06.2021
2448 Rain 13 1021 91 9931 0.45 214 09:28 06.06.2021
2449 Rain 13 1021 92 10000 1.79 209 08:56 06.06.2021
2450 Rain 13 1021 91 8039 3.5 249 07:35 06.06.2021
2451 Rain 13 1023 88 5729 0.89 220 00:35 06.06.2021
2452 Rain 13 1023 86 8619 0.45 219 23:19 05.06.2021
2453 Rain 14 1023 83 10000 0.45 207 22:19 05.06.2021
2454 Clouds 15 1026 76 6709 3.58 240 20:29 05.06.2021
2455 Clouds 16 1021 96 6710 6.56 256 19:36 05.06.2021
2456 Clouds 20 1019 64 4355 5.42 270 16:52 05.06.2021
2457 Clouds 21 1025 63 10000 3.75 284 15:55 05.06.2021
2458 Clouds 22 1021 61 10000 2.68 233 13:36 05.06.2021
2459 Clear 21 1022 63 10000 0.45 277 11:43 05.06.2021
2460 Clouds 20 1022 69 10000 0.45 261 09:50 05.06.2021
2461 Clouds 19 1022 72 10000 0.45 240 09:20 05.06.2021
2462 Clouds 14 1022 87 10000 0.45 248 06:25 05.06.2021
2463 Clouds 17 1022 86 10000 0.45 204 22:41 04.06.2021
2464 Clouds 17 1022 86 10000 0.89 121 22:20 04.06.2021
2465 Clouds 17 1022 83 10000 3.41 221 20:54 04.06.2021
2466 Rain 18 1022 87 10000 1.34 244 19:31 04.06.2021
2467 Rain 21 1020 58 10000 1.11 174 18:26 04.06.2021
2468 Clouds 24 1022 52 10000 0.89 295 16:37 04.06.2021
2469 Clouds 27 1022 43 10000 0.45 36 14:30 04.06.2021
2470 Clouds 24 1023 56 10000 0.45 220 11:50 04.06.2021
2471 Clouds 21 1023 65 10000 1.34 298 09:37 04.06.2021
2472 Clouds 14 1022 79 10000 1.09 213 07:23 04.06.2021
2473 Clouds 11 1022 85 10000 1.23 210 05:53 04.06.2021
2474 Clouds 16 1021 69 10000 1.91 132 23:24 03.06.2021
2475 Clouds 22 1021 71 10000 1.91 89 20:50 03.06.2021
2476 Clouds 22 1020 52 10000 1.79 81 20:23 03.06.2021
2477 Clouds 23 1020 44 10000 1.79 82 19:48 03.06.2021
2478 Clouds 25 1018 46 10000 0.89 120 17:41 03.06.2021
2479 Clouds 26 1022 44 10000 0.89 53 15:35 03.06.2021
2480 Clouds 26 1022 44 10000 0.45 42 14:36 03.06.2021
2481 Clouds 25 1021 49 10000 2.24 325 12:43 03.06.2021
2482 Clouds 20 1023 60 10000 1.34 273 09:53 03.06.2021
2483 Clouds 19 1023 70 10000 1.95 268 08:59 03.06.2021
2484 Clouds 10 1021 80 10000 1.13 171 02:23 03.06.2021
2485 Clouds 14 1020 68 10000 1.54 155 23:22 02.06.2021
2486 Clouds 16 1018 64 10000 1.54 135 21:52 02.06.2021
2487 Clouds 17 1018 63 10000 1.48 105 21:20 02.06.2021
2488 Clouds 21 1017 72 10000 1.59 75 20:27 02.06.2021
2489 Clouds 23 1017 36 10000 0.45 69 19:31 02.06.2021
2490 Clear 24 1016 33 10000 0.89 143 16:40 02.06.2021
2491 Clouds 24 1018 33 10000 0.45 20 15:34 02.06.2021
2492 Clouds 23 1018 41 10000 0.45 284 13:26 02.06.2021
2493 Clouds 22 1017 45 10000 1.34 337 11:50 02.06.2021
2494 Clouds 20 1016 50 10000 0.45 87 10:41 02.06.2021
2495 Clouds 18 1017 56 10000 1.34 331 09:58 02.06.2021
2496 Clouds 16 1016 62 10000 0.89 321 09:38 02.06.2021
2497 Clouds 15 1017 61 10000 0.45 286 08:43 02.06.2021
2498 Clouds 8 1018 86 10000 1.1 171 06:56 02.06.2021
2499 Clouds 6 1016 86 10000 0.45 110 03:49 02.06.2021
2500 Clouds 12 1016 67 10000 2.3 93 23:36 01.06.2021
2501 Clouds 15 1016 77 10000 2.49 97 21:41 01.06.2021
2502 Clouds 18 1015 69 10000 2.69 89 20:33 01.06.2021
2503 Clouds 20 1016 37 10000 1.34 31 18:32 01.06.2021
2504 Clouds 21 1017 33 10000 1.34 38 17:18 01.06.2021
2505 Clouds 21 1018 38 10000 0.89 241 14:57 01.06.2021
2506 Clear 20 1018 39 10000 0.89 44 13:19 01.06.2021
2507 Clear 19 1019 39 10000 1.79 78 12:25 01.06.2021
2508 Clear 18 1020 43 10000 2.68 67 11:26 01.06.2021
2509 Clear 18 1020 45 10000 0.89 247 10:55 01.06.2021
2510 Clear 16 1020 52 10000 0.89 32 09:57 01.06.2021
2511 Clear 13 1020 64 10000 0.45 22 08:54 01.06.2021
2512 Clear 9 1020 76 10000 0.45 124 07:37 01.06.2021
2513 Clear 7 1021 82 10000 2.16 109 01:27 01.06.2021
2514 Clear 9 1019 71 10000 2.17 112 23:39 31.05.2021
2515 Clear 10 1021 70 10000 2.25 109 23:19 31.05.2021
2516 Clear 11 1021 63 10000 2.18 111 22:24 31.05.2021
2517 Clear 16 1020 45 10000 2.06 100 20:51 31.05.2021
2518 Clear 16 1019 48 10000 2.3 90 20:19 31.05.2021
2519 Clear 18 1021 40 10000 0.89 34 18:42 31.05.2021
2520 Clear 18 1021 40 10000 0.89 47 17:43 31.05.2021
2521 Clear 18 1021 42 10000 0.89 22 16:41 31.05.2021
2522 Clear 18 1021 43 10000 0.89 16 15:41 31.05.2021
2523 Clouds 17 1022 47 10000 0.89 59 13:25 31.05.2021
2524 Clouds 17 1022 47 10000 0.89 59 13:25 31.05.2021
2525 Clouds 17 1022 47 10000 0.45 49 12:54 31.05.2021
2526 Clouds 16 1022 48 10000 0.89 73 12:27 31.05.2021
2527 Clouds 16 1022 50 10000 0.89 76 11:47 31.05.2021
2528 Clouds 14 1022 55 10000 0.45 111 10:31 31.05.2021
2529 Clouds 13 1022 63 10000 0.45 23 09:32 31.05.2021
2530 Clear 10 1022 74 10000 0.45 43 08:23 31.05.2021
2531 Clear 8 1022 79 10000 0.89 125 07:40 31.05.2021
2532 Clear 6 1022 85 10000 1.87 85 06:49 31.05.2021
2533 Clear 7 1024 77 10000 2.18 75 23:56 30.05.2021
2534 Clear 8 1022 75 10000 2.25 79 23:20 30.05.2021
2535 Clear 9 1023 67 10000 2.29 81 22:34 30.05.2021
2536 Clear 11 1024 73 10000 2.29 81 21:44 30.05.2021
2537 Clear 11 1023 68 10000 2.19 85 21:25 30.05.2021
2538 Clear 15 1023 70 10000 2.28 75 20:50 30.05.2021
2539 Clear 14 1023 63 10000 2.44 73 20:31 30.05.2021
2540 Clear 15 1023 62 10000 2.44 73 19:37 30.05.2021
2541 Clear 16 1022 39 10000 0.45 18 18:50 30.05.2021
2542 Clear 17 1024 38 10000 1.79 39 17:46 30.05.2021
2543 Clear 17 1023 38 10000 1.34 76 16:55 30.05.2021
2544 Clear 17 1024 38 10000 0.45 111 16:31 30.05.2021
2545 Clear 17 1024 38 10000 0.45 57 16:31 30.05.2021
2546 Clear 16 1023 40 10000 0.89 24 15:49 30.05.2021
2547 Clear 17 1025 42 10000 0.45 111 14:58 30.05.2021
2548 Clear 16 1025 43 10000 0.45 257 13:32 30.05.2021
2549 Clear 15 1025 51 10000 1.79 322 11:59 30.05.2021
2550 Clear 14 1025 54 10000 1.34 65 10:59 30.05.2021
2551 Clear 14 1025 58 10000 0.45 47 10:37 30.05.2021
2552 Clear 13 1024 66 10000 0.45 62 09:55 30.05.2021
2553 Clear 13 1025 65 10000 0.45 355 09:35 30.05.2021
2554 Clear 12 1025 71 10000 0.45 123 08:52 30.05.2021
2555 Clouds 8 1025 85 10000 1.64 54 07:44 30.05.2021
2556 Clouds 5 1025 90 10000 0.97 39 04:23 30.05.2021
2557 Clouds 7 1025 84 10000 1.11 1 00:49 30.05.2021
2558 Clouds 8 1025 81 10000 0.84 332 23:32 29.05.2021
2559 Clouds 10 1023 76 10000 0.98 328 22:25 29.05.2021
2560 Clouds 11 1023 74 10000 0.98 328 21:52 29.05.2021
2561 Clouds 12 1023 68 10000 1.49 348 21:18 29.05.2021
2562 Clouds 12 1023 68 10000 1.49 348 21:18 29.05.2021
2563 Clouds 14 1023 55 10000 1.51 10 20:42 29.05.2021
2564 Clouds 15 1023 56 10000 0.89 57 20:23 29.05.2021
2565 Clouds 15 1023 54 10000 0.45 77 19:40 29.05.2021
2566 Clouds 17 1023 47 10000 0.45 24 18:18 29.05.2021
2567 Clouds 17 1023 47 10000 0.45 67 17:19 29.05.2021
2568 Clouds 17 1023 48 10000 0.89 212 15:53 29.05.2021
2569 Clouds 18 1022 56 10000 0.45 54 14:50 29.05.2021
2570 Clouds 17 1023 46 10000 0.45 19 13:52 29.05.2021
2571 Clouds 17 1023 47 10000 0.89 38 13:18 29.05.2021
2572 Clouds 17 1022 50 10000 0.45 72 12:39 29.05.2021
2573 Clouds 17 1023 49 10000 0.45 91 12:19 29.05.2021
2574 Clouds 16 1023 53 10000 0.45 57 11:24 29.05.2021
2575 Clouds 15 1023 57 10000 0.45 124 10:50 29.05.2021
2576 Clouds 14 1023 60 10000 0.45 40 10:25 29.05.2021
2577 Clouds 13 1021 68 10000 0.45 45 09:22 29.05.2021
2578 Clouds 13 1022 75 10000 0.45 49 08:51 29.05.2021
2579 Clouds 10 1023 88 10000 2.02 56 07:57 29.05.2021
2580 Clouds 8 1023 88 10000 1.79 48 06:49 29.05.2021
2581 Clouds 11 1021 81 10000 0.42 352 00:36 29.05.2021
2582 Clouds 11 1021 80 10000 0.83 2 23:50 28.05.2021
2583 Clouds 12 1022 70 10000 0.89 10 21:55 28.05.2021
2584 Clouds 13 1020 70 10000 0.9 10 21:36 28.05.2021
2585 Clouds 14 1022 66 10000 0.89 329 20:28 28.05.2021
2586 Clouds 14 1022 65 10000 0.45 60 19:58 28.05.2021
2587 Clouds 14 1022 64 10000 0.45 37 19:35 28.05.2021
2588 Clouds 15 1021 63 10000 0.89 39 18:49 28.05.2021
2589 Clouds 15 1021 64 10000 0.89 67 18:27 28.05.2021
2590 Clouds 15 1022 64 10000 0.89 54 17:32 28.05.2021
2591 Clouds 16 1022 63 10000 0.45 113 16:42 28.05.2021
2592 Clouds 16 1022 61 10000 0.45 190 15:58 28.05.2021
2593 Clouds 16 1022 61 10000 0.45 275 15:33 28.05.2021
2594 Clouds 16 1021 65 10000 0.45 53 14:37 28.05.2021
2595 Clouds 15 1022 65 10000 0.89 59 13:46 28.05.2021
2596 Clouds 15 1023 64 10000 0.89 61 12:59 28.05.2021
2597 Clouds 15 1023 63 10000 2.24 325 12:39 28.05.2021
2598 Clouds 15 1023 64 10000 0.45 44 11:44 28.05.2021
2599 Clouds 14 1023 68 10000 1.34 329 10:54 28.05.2021
2600 Clouds 14 1023 68 10000 0.89 311 10:31 28.05.2021
2601 Clouds 13 1023 72 10000 0.45 115 09:33 28.05.2021
2602 Clouds 11 1023 79 10000 0.45 123 08:49 28.05.2021
2603 Clouds 11 1023 80 10000 0.89 127 08:31 28.05.2021
2604 Clouds 10 1023 86 10000 0.45 198 07:50 28.05.2021
2605 Clouds 9 1023 88 10000 1.65 275 07:32 28.05.2021
2606 Clouds 8 1022 89 10000 1.84 242 06:44 28.05.2021
2607 Clouds 8 1022 88 10000 0.45 216 04:34 28.05.2021
2608 Clouds 9 1022 85 10000 2.01 234 23:57 27.05.2021
2609 Clouds 9 1022 84 10000 1.95 243 23:34 27.05.2021
2610 Clouds 9 1021 84 10000 1.93 268 22:22 27.05.2021
2611 Clouds 9 1021 84 10000 1.93 268 22:22 27.05.2021
2612 Clouds 10 1021 82 10000 0.45 213 21:48 27.05.2021
2613 Rain 10 1021 83 10000 0.45 213 21:48 27.05.2021
2614 Rain 10 1021 83 10000 0.45 213 21:48 27.05.2021
2615 Clouds 10 1021 82 10000 0.89 281 21:48 27.05.2021
2616 Rain 10 1022 80 10000 3.58 315 21:28 27.05.2021
2617 Rain 11 1024 74 10000 0.45 313 20:50 27.05.2021
2618 Rain 12 1021 72 10000 0.89 221 20:28 27.05.2021
2619 Clouds 12 1021 69 10000 0.45 275 19:32 27.05.2021
2620 Clouds 13 1021 68 10000 0.89 219 18:45 27.05.2021
2621 Clouds 13 1021 65 10000 0.45 195 18:27 27.05.2021
2622 Clouds 14 1020 59 10000 0.89 215 17:32 27.05.2021
2623 Clouds 14 1020 57 10000 0.89 315 16:58 27.05.2021
2624 Clouds 14 1020 57 10000 0.89 300 16:35 27.05.2021
2625 Clouds 13 1020 61 10000 1.34 315 15:46 27.05.2021
2626 Clouds 13 1021 64 10000 0.89 222 15:19 27.05.2021
2627 Clouds 12 1021 70 10000 1.34 184 14:36 27.05.2021
2628 Clouds 12 1021 73 10000 0.45 300 14:18 27.05.2021
2629 Clouds 11 1021 73 10000 0.89 307 13:47 27.05.2021
2630 Clouds 11 1021 74 10000 2.24 317 13:19 27.05.2021
2631 Rain 11 1021 79 10000 0.45 327 12:55 27.05.2021
2632 Rain 11 1021 79 10000 0.45 234 12:36 27.05.2021
2633 Rain 10 1021 80 10000 1.34 194 12:18 27.05.2021
2634 Rain 10 1021 83 10000 0.45 279 11:19 27.05.2021
2635 Clouds 10 1020 84 10000 0.89 302 10:48 27.05.2021
2636 Clouds 9 1020 86 10000 0.45 244 09:59 27.05.2021
2637 Rain 9 1020 91 10000 0.45 261 09:37 27.05.2021
2638 Rain 8 1020 93 10000 0.89 209 08:34 27.05.2021
2639 Clouds 8 1020 89 10000 0.45 153 07:36 27.05.2021
2640 Rain 8 1019 88 10000 0.45 289 04:21 27.05.2021
2641 Rain 8 1019 87 10000 0.89 274 01:23 27.05.2021
2642 Rain 9 1019 86 10000 0.45 263 23:42 26.05.2021
2643 Rain 9 1018 86 10000 2.68 315 23:21 26.05.2021
2644 Rain 10 1018 85 10000 0.45 241 22:46 26.05.2021
2645 Rain 10 1018 85 10000 1.79 289 22:21 26.05.2021
2646 Rain 11 1017 82 10000 0.89 279 21:40 26.05.2021
2647 Rain 11 1017 81 10000 1.34 230 21:22 26.05.2021
2648 Rain 11 1017 79 10000 0.45 260 20:44 26.05.2021
2649 Rain 12 1017 79 10000 0.45 209 20:24 26.05.2021
2650 Rain 12 1017 79 10000 1.79 298 19:55 26.05.2021
2651 Rain 12 1017 75 10000 1.79 223 19:36 26.05.2021
2652 Rain 12 1014 74 10000 4.58 271 18:53 26.05.2021
2653 Rain 13 1017 73 10000 1.79 302 18:20 26.05.2021
2654 Rain 13 1014 71 10000 1.34 323 17:30 26.05.2021
2655 Rain 13 1014 70 10000 2.68 203 16:46 26.05.2021
2656 Rain 14 1016 65 10000 0.89 265 16:20 26.05.2021
2657 Rain 14 1015 65 10000 0.89 118 15:50 26.05.2021
2658 Rain 15 1016 59 10000 1.79 239 15:26 26.05.2021
2659 Clouds 15 1015 53 10000 0.89 319 14:48 26.05.2021
2660 Rain 15 1016 54 10000 0.89 260 14:22 26.05.2021
2661 Rain 16 1016 52 10000 0.45 0 13:51 26.05.2021
2662 Rain 16 1016 51 10000 1.79 240 13:23 26.05.2021
2663 Clouds 15 1017 53 10000 0.45 242 12:32 26.05.2021
2664 Clouds 15 1017 54 10000 2.24 230 11:54 26.05.2021
2665 Clouds 14 1017 54 10000 0.45 273 11:28 26.05.2021
2666 Clouds 14 1018 54 10000 0.89 221 10:49 26.05.2021
2667 Clouds 14 1018 52 10000 0.89 244 10:29 26.05.2021
2668 Clouds 14 1018 53 10000 0.45 208 09:54 26.05.2021
2669 Clouds 13 1018 55 10000 0.45 220 09:35 26.05.2021
2670 Clouds 12 1018 59 10000 0.89 207 08:55 26.05.2021
2671 Clouds 9 1019 70 10000 0.89 190 07:40 26.05.2021
2672 Clouds 7 1019 75 10000 2.48 190 06:59 26.05.2021
2673 Clouds 6 1019 79 10000 2.53 218 05:28 26.05.2021
2674 Clouds 8 1022 69 10000 2.73 210 01:39 26.05.2021
2675 Clouds 8 1022 69 10000 2.73 210 01:39 26.05.2021
2676 Clouds 8 1023 66 10000 3.06 225 23:44 25.05.2021
2677 Clouds 8 1023 65 10000 2.89 232 22:53 25.05.2021
2678 Clear 8 1022 65 10000 2.72 242 22:19 25.05.2021
2679 Clear 9 1022 65 10000 2.72 242 21:41 25.05.2021
2680 Clouds 10 1021 63 10000 1.13 211 21:21 25.05.2021
2681 Clouds 11 1021 58 10000 1.15 211 20:33 25.05.2021
2682 Clouds 10 1020 65 10000 2.01 285 19:48 25.05.2021
2683 Clouds 14 1020 44 10000 0.89 225 19:30 25.05.2021
2684 Clouds 14 1020 43 10000 1.79 239 18:53 25.05.2021
2685 Clouds 14 1020 42 10000 1.79 198 18:32 25.05.2021
2686 Clouds 14 1020 43 10000 2.68 225 17:46 25.05.2021
2687 Clouds 15 1020 45 10000 2.24 219 16:46 25.05.2021
2688 Clouds 14 1020 45 10000 2.68 269 16:25 25.05.2021
2689 Clouds 14 1020 45 10000 2.68 302 15:57 25.05.2021
2690 Clouds 14 1019 47 10000 3.13 239 15:27 25.05.2021
2691 Clouds 15 1020 46 10000 2.68 278 14:55 25.05.2021
2692 Clouds 14 1020 48 10000 3.13 242 14:36 25.05.2021
2693 Clouds 14 1020 49 10000 3.13 225 13:54 25.05.2021
2694 Clouds 13 1020 48 10000 5.36 342 13:32 25.05.2021
2695 Clouds 13 1020 53 10000 3.13 161 12:47 25.05.2021
2696 Clouds 12 1020 56 10000 2.24 209 12:27 25.05.2021
2697 Clouds 12 1020 55 10000 1.79 250 11:42 25.05.2021
2698 Clouds 11 1017 57 10000 3.58 207 11:21 25.05.2021
2699 Clouds 10 1020 64 10000 1.79 240 10:42 25.05.2021
2700 Clouds 9 1020 69 10000 0.89 219 09:54 25.05.2021
2701 Clouds 8 1019 81 10000 0.89 206 09:26 25.05.2021
2702 Clouds 8 1019 81 10000 1.79 260 07:57 25.05.2021
2703 Rain 7 1019 90 10000 0.45 223 06:50 25.05.2021
2704 Rain 8 1018 90 10000 0.45 189 03:51 25.05.2021
2705 Rain 9 1015 92 10000 0.45 136 00:47 25.05.2021
2706 Rain 9 1015 92 10000 0.45 160 23:38 24.05.2021
2707 Rain 9 1015 92 10000 0.45 160 23:38 24.05.2021
2708 Rain 10 1015 92 10000 1.34 207 23:18 24.05.2021
2709 Rain 10 1015 92 10000 1.34 220 22:40 24.05.2021
2710 Rain 10 1015 92 10000 0.45 183 21:59 24.05.2021
2711 Rain 10 1015 91 10000 1.79 182 21:22 24.05.2021
2712 Rain 11 1015 91 10000 0.89 227 20:55 24.05.2021
2713 Rain 11 1015 91 10000 0.89 227 20:55 24.05.2021
2714 Rain 11 1015 90 10000 0.89 267 20:24 24.05.2021
2715 Rain 12 1014 89 10000 0.45 317 19:52 24.05.2021
2716 Rain 12 1014 89 10000 0.89 223 19:31 24.05.2021
2717 Rain 13 1014 86 10000 1.79 301 18:59 24.05.2021
2718 Rain 13 1013 86 10000 0.45 241 18:33 24.05.2021
2719 Rain 14 1013 84 10000 0.45 205 17:56 24.05.2021
2720 Rain 15 1013 80 10000 1.34 286 17:25 24.05.2021
2721 Rain 16 1012 75 10000 0.89 243 16:48 24.05.2021
2722 Rain 17 1012 67 10000 0.45 220 15:55 24.05.2021
2723 Rain 17 1012 64 10000 0.89 185 15:36 24.05.2021
2724 Rain 17 1012 62 10000 1.34 184 14:52 24.05.2021
2725 Clouds 17 1013 59 10000 0.45 194 14:27 24.05.2021
2726 Rain 16 1014 63 10000 0.45 108 13:44 24.05.2021
2727 Rain 16 1013 72 10000 0.45 53 13:22 24.05.2021
2728 Clouds 16 1015 65 10000 0.45 182 12:36 24.05.2021
2729 Clouds 15 1015 67 10000 0.45 235 12:18 24.05.2021
2730 Clouds 14 1015 67 10000 0.45 109 11:27 24.05.2021
2731 Clouds 14 1015 67 10000 3.15 99 10:57 24.05.2021
2732 Clouds 13 1015 68 10000 0.89 119 10:32 24.05.2021
2733 Clouds 11 1015 74 10000 0.89 111 09:43 24.05.2021
2734 Clouds 11 1016 75 10000 0.89 126 09:19 24.05.2021
2735 Clouds 9 1016 83 10000 1.34 124 08:38 24.05.2021
2736 Clouds 7 1016 86 10000 0.45 130 07:37 24.05.2021
2737 Clouds 6 1017 86 10000 0.89 135 04:53 24.05.2021
2738 Clouds 7 1018 85 10000 1.34 136 03:46 24.05.2021
2739 Clouds 7 1020 83 10000 0.89 132 01:28 24.05.2021
2740 Clouds 7 1020 87 10000 2.4 120 23:54 23.05.2021
2741 Clouds 8 1020 79 10000 2.55 119 23:27 23.05.2021
2742 Clouds 8 1019 85 10000 2.56 119 22:42 23.05.2021
2743 Clouds 8 1018 84 10000 1.77 128 22:21 23.05.2021
2744 Clouds 9 1018 79 10000 1.78 128 21:37 23.05.2021
2745 Clouds 11 1019 74 10000 1.36 97 21:18 23.05.2021
2746 Clouds 13 1019 75 10000 1.36 97 20:39 23.05.2021
2747 Clouds 14 1018 57 10000 0.8 36 20:21 23.05.2021
2748 Clouds 14 1018 70 10000 0.8 36 19:41 23.05.2021
2749 Clouds 15 1019 48 10000 1.34 265 18:59 23.05.2021
2750 Clouds 15 1019 49 10000 0.45 271 18:21 23.05.2021
2751 Clouds 15 1019 51 10000 0.45 231 17:43 23.05.2021
2752 Clouds 15 1020 50 10000 0.89 94 17:25 23.05.2021
2753 Clouds 15 1020 52 10000 0.45 293 16:47 23.05.2021
2754 Clouds 15 1020 53 10000 0.45 258 16:24 23.05.2021
2755 Clouds 15 1020 55 10000 0.89 291 15:58 23.05.2021
2756 Clouds 14 1020 60 10000 0.45 192 15:32 23.05.2021
2757 Clouds 14 1020 55 10000 0.89 247 14:51 23.05.2021
2758 Clouds 14 1020 57 10000 0.45 306 14:31 23.05.2021
2759 Clouds 13 1018 76 10000 0.45 265 13:37 23.05.2021
2760 Clouds 11 1020 79 10000 0.45 29 12:47 23.05.2021
2761 Clouds 10 1020 83 10000 0.45 155 12:23 23.05.2021
2762 Clouds 9 1020 85 10000 0.45 243 11:37 23.05.2021
2763 Clouds 9 1020 87 10000 0.89 200 11:18 23.05.2021
2764 Rain 8 1019 91 10000 0.45 219 10:30 23.05.2021
2765 Rain 7 1019 92 10000 0.45 284 09:54 23.05.2021
2766 Rain 7 1018 91 10000 0.45 165 08:58 23.05.2021
2767 Rain 7 1018 91 10000 0.89 206 07:58 23.05.2021
2768 Rain 7 1017 90 10000 0.45 220 07:38 23.05.2021
2769 Rain 8 1015 92 10000 0.45 234 07:20 23.05.2021
2770 Rain 10 1012 77 10000 2 225 01:53 23.05.2021
2771 Clouds 10 1012 78 10000 0.89 190 00:39 23.05.2021
2772 Clouds 11 1012 74 10000 0.45 180 23:28 22.05.2021
2773 Clouds 11 1012 74 10000 0.45 180 23:28 22.05.2021
2774 Clouds 11 1011 67 10000 2.4 215 22:57 22.05.2021
2775 Clouds 11 1014 85 10000 2.41 215 22:39 22.05.2021
2776 Clouds 11 1012 67 10000 2.26 213 22:18 22.05.2021
2777 Clouds 11 1014 79 10000 2.26 213 21:42 22.05.2021
2778 Clouds 14 1013 85 10000 2.91 187 20:58 22.05.2021
2779 Clouds 14 1013 85 10000 2.91 187 20:36 22.05.2021
2780 Clouds 16 1012 78 10000 2.34 204 19:47 22.05.2021
2781 Clouds 16 1011 47 10000 0.45 252 19:28 22.05.2021
2782 Clouds 16 1011 71 10000 2.14 246 18:51 22.05.2021
2783 Clouds 16 1009 39 10000 1.79 198 18:26 22.05.2021
2784 Clouds 17 1009 40 10000 4.02 292 17:46 22.05.2021
2785 Clouds 17 1009 40 10000 4.02 292 17:46 22.05.2021
2786 Clouds 17 1012 41 10000 3.58 296 17:28 22.05.2021
2787 Clouds 16 1012 42 10000 2.68 331 16:43 22.05.2021
2788 Clouds 16 1012 42 10000 4.02 180 15:45 22.05.2021
2789 Clouds 16 1011 48 10000 1.79 302 15:26 22.05.2021
2790 Clouds 16 1012 47 10000 0.89 243 14:29 22.05.2021
2791 Clouds 15 1010 48 10000 4.02 235 13:52 22.05.2021
2792 Clouds 15 1012 52 10000 1.34 257 13:31 22.05.2021
2793 Clouds 14 1013 56 10000 0.89 224 12:41 22.05.2021
2794 Clouds 14 1013 55 10000 2.68 301 12:22 22.05.2021
2795 Clouds 13 1013 59 10000 1.34 215 11:40 22.05.2021
2796 Clouds 12 1013 63 10000 1.34 285 10:43 22.05.2021
2797 Clouds 12 1013 63 10000 2.24 311 10:23 22.05.2021
2798 Clouds 9 1013 84 10000 1.34 233 08:57 22.05.2021
2799 Clouds 8 1013 86 10000 0.45 213 08:33 22.05.2021
2800 Clouds 7 1013 86 10000 0.45 205 07:43 22.05.2021
2801 Rain 7 1012 90 10000 0.45 227 05:40 22.05.2021
2802 Rain 7 1013 91 10000 0.45 296 02:33 22.05.2021
2803 Rain 9 1012 91 5286 0.45 211 23:44 21.05.2021
2804 Rain 9 1012 91 5323 1.79 288 23:44 21.05.2021
2805 Rain 9 1012 90 10000 1.79 213 22:55 21.05.2021
2806 Rain 9 1011 91 6907 0.45 217 22:28 21.05.2021
2807 Rain 10 1012 90 6906 1.34 223 21:50 21.05.2021
2808 Rain 10 1012 90 10000 1.34 226 21:26 21.05.2021
2809 Rain 10 1012 90 10000 0.89 177 20:50 21.05.2021
2810 Rain 10 1012 90 10000 0.89 177 20:50 21.05.2021
2811 Rain 10 1012 89 10000 1.34 221 20:29 21.05.2021
2812 Rain 10 1012 88 10000 2.29 202 19:54 21.05.2021
2813 Rain 10 1013 87 10000 0.45 186 19:28 21.05.2021
2814 Rain 11 1013 84 10000 1.34 211 18:47 21.05.2021
2815 Rain 11 1014 82 10000 0.45 211 18:25 21.05.2021
2816 Rain 11 1014 82 10000 0.45 301 17:40 21.05.2021
2817 Rain 11 1014 81 10000 0.89 248 17:40 21.05.2021
2818 Rain 12 1014 80 10000 0.45 208 17:21 21.05.2021
2819 Rain 12 1014 69 10000 1.34 111 16:40 21.05.2021
2820 Rain 13 1014 71 10000 0.89 252 16:20 21.05.2021
2821 Rain 13 1014 72 10000 0.89 155 15:44 21.05.2021
2822 Rain 13 1014 72 10000 2.24 252 15:25 21.05.2021
2823 Rain 12 1013 82 10000 1.79 192 14:38 21.05.2021
2824 Rain 14 1014 76 10000 1.79 297 13:59 21.05.2021
2825 Rain 14 1014 64 10000 1.34 320 13:24 21.05.2021
2826 Rain 15 1011 60 10000 2.68 179 12:23 21.05.2021
2827 Rain 15 1015 68 10000 0.45 248 11:44 21.05.2021
2828 Rain 15 1017 59 10000 1.34 146 11:25 21.05.2021
2829 Rain 15 1014 52 10000 1.79 249 10:48 21.05.2021
2830 Clouds 14 1012 53 10000 1.79 249 10:20 21.05.2021
2831 Clouds 13 1014 57 10000 0.45 204 09:33 21.05.2021
2832 Clouds 13 1014 57 10000 0.45 204 09:33 21.05.2021
2833 Clouds 12 1015 64 10000 0.45 248 08:46 21.05.2021
2834 Clouds 11 1015 69 10000 0.45 169 08:19 21.05.2021
2835 Clouds 9 1015 76 10000 0.89 209 07:26 21.05.2021
2836 Clouds 7 1016 84 10000 0.89 221 05:47 21.05.2021
2837 Clouds 7 1018 85 10000 2.27 172 00:47 21.05.2021
2838 Clouds 8 1018 84 10000 2.32 173 00:19 21.05.2021
2839 Clouds 8 1018 84 10000 2.26 175 23:26 20.05.2021
2840 Clouds 8 1019 84 10000 2.26 175 22:59 20.05.2021
2841 Clouds 8 1019 85 10000 2.26 175 22:40 20.05.2021
2842 Clouds 9 1019 84 10000 1.78 176 22:18 20.05.2021
2843 Clouds 9 1019 84 10000 1.78 176 21:47 20.05.2021
2844 Clouds 10 1020 80 10000 0.93 185 21:19 20.05.2021
2845 Clouds 12 1020 68 10000 0.45 300 20:37 20.05.2021
2846 Clouds 13 1020 64 10000 1.27 288 20:18 20.05.2021
2847 Clouds 13 1021 79 10000 1.28 287 19:42 20.05.2021
2848 Clouds 14 1021 59 10000 1.34 275 19:22 20.05.2021
2849 Clouds 14 1021 55 10000 0.45 277 18:37 20.05.2021
2850 Clouds 14 1022 56 10000 0.89 254 17:50 20.05.2021
2851 Clouds 14 1022 55 10000 0.89 187 17:31 20.05.2021
2852 Clouds 14 1022 59 10000 0.89 219 16:56 20.05.2021
2853 Clouds 14 1022 63 10000 0.45 239 16:30 20.05.2021
2854 Clouds 13 1022 65 10000 0.89 199 15:43 20.05.2021
2855 Clouds 13 1022 64 10000 0.89 303 15:25 20.05.2021
2856 Clouds 13 1022 79 10000 0.45 204 14:46 20.05.2021
2857 Rain 12 1023 70 10000 1.79 304 14:21 20.05.2021
2858 Rain 13 1023 65 10000 0.89 279 13:42 20.05.2021
2859 Clouds 12 1023 65 10000 2.24 276 12:57 20.05.2021
2860 Clouds 12 1023 64 10000 1.34 225 12:37 20.05.2021
2861 Clouds 11 1022 73 10000 0.45 247 12:18 20.05.2021
2862 Clouds 11 1023 73 10000 0.45 255 11:22 20.05.2021
2863 Rain 11 1023 72 10000 0.45 213 10:58 20.05.2021
2864 Clouds 10 1023 74 10000 0.89 261 10:37 20.05.2021
2865 Rain 10 1021 73 10000 1.79 274 10:19 20.05.2021
2866 Clouds 10 1023 76 10000 0.45 258 09:42 20.05.2021
2867 Clouds 9 1023 80 10000 0.45 227 09:24 20.05.2021
2868 Clouds 9 1023 81 10000 0.45 263 08:54 20.05.2021
2869 Clouds 8 1023 83 10000 0.89 286 08:34 20.05.2021
2870 Clouds 8 1021 88 10000 0.45 272 07:52 20.05.2021
2871 Clouds 8 1022 87 10000 0.45 277 07:28 20.05.2021
2872 Rain 7 1022 88 10000 1.34 211 06:47 20.05.2021
2873 Clouds 7 1020 90 10000 0.45 222 05:46 20.05.2021
2874 Clouds 7 1020 90 10000 4.72 254 04:35 20.05.2021
2875 Clouds 7 1021 86 10000 1.34 224 01:36 20.05.2021
2876 Clouds 7 1020 88 10000 1.34 242 00:19 20.05.2021
2877 Clouds 7 1019 88 10000 0.45 279 23:47 19.05.2021
2878 Clouds 7 1019 88 10000 0.45 218 23:21 19.05.2021
2879 Clouds 7 1019 88 10000 0.45 211 22:42 19.05.2021
2880 Clouds 7 1019 88 10000 0.45 242 22:21 19.05.2021
2881 Clouds 8 1019 87 10000 0.45 213 21:47 19.05.2021
2882 Clouds 8 1020 84 10000 0.45 335 21:24 19.05.2021
2883 Clouds 9 1019 87 10000 1.79 257 20:59 19.05.2021
2884 Rain 9 1019 87 10000 0.45 288 20:27 19.05.2021
2885 Rain 9 1019 86 10000 0.45 242 19:57 19.05.2021
2886 Rain 9 1019 86 10000 0.45 223 19:39 19.05.2021
2887 Rain 9 1019 85 10000 0.45 146 19:18 19.05.2021
2888 Rain 10 1018 78 10000 0.45 317 18:39 19.05.2021
2889 Clouds 11 1018 75 10000 0.89 230 18:18 19.05.2021
2890 Clouds 12 1018 72 9629 0.89 163 17:24 19.05.2021
2891 Clouds 11 1018 74 9629 0.89 215 16:54 19.05.2021
2892 Clouds 11 1018 76 9629 0.89 285 16:35 19.05.2021
2893 Rain 10 1018 79 10000 0.89 224 15:53 19.05.2021
2894 Rain 10 1018 80 10000 2.68 245 15:34 19.05.2021
2895 Rain 11 1018 78 10000 1.34 270 14:55 19.05.2021
2896 Clouds 12 1018 72 10000 0.89 217 14:25 19.05.2021
2897 Rain 11 1018 82 10000 0.45 198 13:45 19.05.2021
2898 Clouds 10 1018 82 10000 0.45 204 13:26 19.05.2021
2899 Rain 10 1018 79 10000 0.45 203 12:43 19.05.2021
2900 Clouds 11 1018 75 9905 0.45 214 12:21 19.05.2021
2901 Clouds 10 1018 79 9895 4.02 306 11:45 19.05.2021
2902 Clouds 10 1018 85 10000 2.24 292 11:27 19.05.2021
2903 Clouds 10 1018 85 10000 0.89 298 10:59 19.05.2021
2904 Rain 10 1018 84 10000 0.45 273 10:38 19.05.2021
2905 Clouds 9 1018 89 10000 0.45 304 09:57 19.05.2021
2906 Clouds 9 1018 91 10000 0.45 210 09:30 19.05.2021
2907 Clouds 8 1018 91 10000 0.89 253 08:59 19.05.2021
2908 Rain 8 1018 91 10000 0.45 259 08:36 19.05.2021
2909 Rain 7 1018 91 10000 0.45 286 07:56 19.05.2021
2910 Rain 8 1017 89 10000 0.89 276 07:22 19.05.2021
2911 Rain 8 1017 87 10000 0.45 259 06:36 19.05.2021
2912 Clouds 8 1016 90 10000 3.34 252 05:22 19.05.2021
2913 Clouds 8 1015 88 10000 0.89 269 02:42 19.05.2021
2914 Clouds 8 1015 85 10000 0.89 269 00:34 19.05.2021
2915 Clouds 8 1015 84 10000 2.29 277 23:49 18.05.2021
2916 Clouds 9 1015 85 10000 2.29 285 23:18 18.05.2021
2917 Clouds 9 1015 85 10000 2.31 285 22:38 18.05.2021
2918 Clouds 9 1015 84 10000 0.45 202 22:20 18.05.2021
2919 Clouds 9 1014 81 10000 2.09 291 21:40 18.05.2021
2920 Clouds 9 1015 76 10000 2.05 292 21:18 18.05.2021
2921 Clouds 10 1014 73 10000 0.45 241 20:46 18.05.2021
2922 Clouds 11 1015 69 10000 0.45 269 20:19 18.05.2021
2923 Clouds 11 1015 72 10000 0.45 209 19:48 18.05.2021
2924 Clouds 11 1015 70 10000 0.89 195 19:24 18.05.2021
2925 Clouds 12 1015 68 10000 0.45 275 18:46 18.05.2021
2926 Rain 12 1015 71 10000 0.45 282 18:25 18.05.2021
2927 Clouds 12 1015 70 10000 0.45 282 17:50 18.05.2021
2928 Clouds 12 1016 71 10000 0.45 173 17:29 18.05.2021
2929 Clouds 13 1015 61 10000 1.34 316 16:37 18.05.2021
2930 Clouds 13 1016 62 10000 2.68 204 16:18 18.05.2021
2931 Clouds 13 1016 65 10000 0.89 217 15:38 18.05.2021
2932 Clouds 13 1016 67 10000 0.89 312 15:19 18.05.2021
2933 Clouds 13 1017 67 10000 2.24 182 15:19 18.05.2021
2934 Clouds 11 1016 74 10000 0.45 233 14:29 18.05.2021
2935 Rain 10 1016 82 10000 1.79 248 13:41 18.05.2021
2936 Rain 10 1017 82 10000 0.89 293 12:45 18.05.2021
2937 Rain 10 1017 85 10000 0.45 252 12:19 18.05.2021
2938 Rain 11 1017 77 10000 1.34 217 11:38 18.05.2021
2939 Clouds 11 1017 75 10000 2.24 188 10:57 18.05.2021
2940 Clouds 11 1017 81 10000 0.89 219 10:31 18.05.2021
2941 Clouds 11 1015 79 10000 0.45 192 09:58 18.05.2021
2942 Clouds 10 1017 79 10000 0.45 182 09:35 18.05.2021
2943 Clouds 10 1015 81 10000 0.45 248 08:51 18.05.2021
2944 Clouds 9 1015 81 10000 0.89 242 08:19 18.05.2021
2945 Clouds 9 1015 81 10000 0.89 242 08:19 18.05.2021
2946 Clouds 9 1015 82 10000 0.45 235 07:41 18.05.2021
2947 Clouds 9 1014 84 10000 0.89 201 06:49 18.05.2021
2948 Clouds 9 1013 85 10000 0.45 284 02:31 18.05.2021
2949 Clouds 9 1013 85 10000 0.45 235 01:51 18.05.2021
2950 Clouds 9 1013 86 10000 0.45 233 00:49 18.05.2021
2951 Clouds 9 1013 86 10000 0.45 211 00:26 18.05.2021
2952 Clouds 9 1013 86 10000 0.89 205 23:40 17.05.2021
2953 Clouds 9 1013 86 10000 0.89 223 23:21 17.05.2021
2954 Clouds 9 1013 88 10000 0.45 161 22:46 17.05.2021
2955 Clouds 9 1013 89 10000 0.89 206 22:25 17.05.2021
2956 Clouds 9 1012 90 10000 0.45 244 21:59 17.05.2021
2957 Clouds 9 1012 92 10000 0.45 261 21:22 17.05.2021
2958 Rain 9 1011 92 10000 5.76 247 20:45 17.05.2021
2959 Rain 10 1011 91 10000 0.45 232 20:22 17.05.2021
2960 Clouds 10 1011 91 10000 0.45 207 19:48 17.05.2021
2961 Rain 10 1011 86 10000 1.34 237 19:27 17.05.2021
2962 Rain 12 1010 88 10000 0.45 206 18:52 17.05.2021
2963 Clouds 11 1010 91 10000 0.89 277 18:32 17.05.2021
2964 Rain 12 1010 85 10000 0.45 200 17:57 17.05.2021
2965 Clouds 12 1010 86 10000 0.45 218 17:36 17.05.2021
2966 Rain 13 1010 67 10000 1.34 209 16:57 17.05.2021
2967 Clouds 13 1009 68 10000 2.24 204 16:25 17.05.2021
2968 Clouds 12 1009 74 10000 2.24 296 15:54 17.05.2021
2969 Clouds 13 1013 55 10000 3.13 279 15:24 17.05.2021
2970 Clouds 12 1013 57 10000 5.36 266 14:47 17.05.2021
2971 Clouds 14 1007 59 10000 2.68 298 14:28 17.05.2021
2972 Clouds 14 1009 65 10000 1.79 310 13:56 17.05.2021
2973 Clouds 13 1009 65 10000 2.24 209 12:47 17.05.2021
2974 Clouds 13 1013 61 10000 5.81 233 12:27 17.05.2021
2975 Clouds 12 1007 65 10000 3.13 216 11:50 17.05.2021
2976 Clouds 11 1009 66 10000 8.23 240 11:27 17.05.2021
2977 Clouds 11 1013 71 10000 2.24 320 10:57 17.05.2021
2978 Rain 11 1008 74 10000 1.79 239 10:32 17.05.2021
2979 Rain 11 1008 77 10000 2.24 271 09:59 17.05.2021
2980 Rain 10 1008 85 10000 0.89 233 08:55 17.05.2021
2981 Rain 9 1008 84 10000 0.89 229 08:24 17.05.2021
2982 Clouds 8 1008 87 10000 0.89 281 07:34 17.05.2021
2983 Clouds 8 1007 90 10000 0.89 245 06:47 17.05.2021
2984 Rain 8 1007 90 10000 0.45 161 06:20 17.05.2021
2985 Clouds 9 1006 93 10000 5.61 253 03:34 17.05.2021
2986 Rain 9 1005 93 10000 0.45 248 01:34 17.05.2021
2987 Rain 9 1006 92 10000 0.45 223 00:39 17.05.2021
2988 Rain 9 1005 96 10000 2.96 197 23:42 16.05.2021
2989 Clouds 9 1004 92 10000 2.62 191 23:19 16.05.2021
2990 Clouds 9 1005 92 10000 2.63 191 22:33 16.05.2021
2991 Clouds 9 1004 92 10000 0.45 170 21:59 16.05.2021
2992 Clouds 9 1004 92 10000 0.89 195 21:40 16.05.2021
2993 Rain 9 1005 91 10000 0.45 138 21:22 16.05.2021
2994 Rain 10 1005 90 10000 0.45 256 20:39 16.05.2021
2995 Rain 10 1005 89 10000 4.09 245 20:19 16.05.2021
2996 Rain 11 1006 79 10000 0.45 206 19:43 16.05.2021
2997 Rain 12 1006 75 8576 0.45 211 19:22 16.05.2021
2998 Rain 12 1003 61 8577 1.34 177 18:46 16.05.2021
2999 Rain 13 1005 54 10000 8.23 240 18:26 16.05.2021
3000 Rain 13 1004 51 10000 4.63 240 17:58 16.05.2021
3001 Rain 13 1004 51 10000 4.63 240 17:58 16.05.2021
3002 Rain 13 1005 47 10000 4.63 210 17:38 16.05.2021
3003 Clouds 13 1005 47 10000 4.63 210 17:20 16.05.2021
3004 Rain 14 1005 51 10000 4.63 220 16:42 16.05.2021
3005 Rain 15 1005 51 10000 4.63 220 16:24 16.05.2021
3006 Rain 15 1005 44 10000 4.63 220 15:48 16.05.2021
3007 Clouds 15 1003 46 10000 5.96 290 15:23 16.05.2021
3008 Clouds 17 1006 48 10000 5.66 200 14:48 16.05.2021
3009 Clouds 16 1011 44 10000 2.68 280 14:21 16.05.2021
3010 Clouds 16 1011 45 10000 0.89 359 13:56 16.05.2021
3011 Clouds 16 1006 54 10000 1.34 217 13:27 16.05.2021
3012 Clouds 16 1011 47 10000 3.13 267 12:59 16.05.2021
3013 Clouds 15 1005 52 10000 1.79 182 12:40 16.05.2021
3014 Clouds 15 1005 50 10000 2.24 211 12:22 16.05.2021
3015 Clouds 15 1008 58 10000 1.34 281 11:44 16.05.2021
3016 Clouds 13 1012 58 10000 2.68 279 10:59 16.05.2021
3017 Clouds 13 1008 63 10000 1.34 265 10:36 16.05.2021
3018 Clouds 12 1012 61 10000 2.68 302 10:18 16.05.2021
3019 Clouds 11 1008 72 10000 0.89 292 09:40 16.05.2021
3020 Clouds 11 1008 78 10000 0.45 294 09:21 16.05.2021
3021 Clouds 9 1008 86 10000 3.06 237 08:36 16.05.2021
3022 Clouds 9 1008 92 10000 2.6 216 08:18 16.05.2021
3023 Clouds 7 1008 96 10000 2.33 212 07:26 16.05.2021
3024 Clouds 6 1008 95 10000 2.65 230 05:38 16.05.2021
3025 Rain 8 1008 93 10000 0.45 204 00:53 16.05.2021
3026 Rain 8 1008 92 10000 0.89 190 00:19 16.05.2021
3027 Rain 8 1007 92 10000 0.45 190 23:24 15.05.2021
3028 Rain 9 1008 92 10000 0.89 176 22:59 15.05.2021
3029 Rain 9 1008 93 10000 1.34 332 22:28 15.05.2021
3030 Rain 9 1007 93 10000 3.88 277 21:55 15.05.2021
3031 Rain 10 1007 91 9370 0.45 305 21:23 15.05.2021
3032 Rain 10 1007 85 7556 0.45 251 20:54 15.05.2021
3033 Rain 11 1016 75 10000 0.45 272 20:22 15.05.2021
3034 Rain 12 1005 58 10000 3.09 280 19:44 15.05.2021
3035 Rain 13 1005 65 10000 4.87 288 18:55 15.05.2021
3036 Rain 15 1005 61 10000 1.32 359 18:22 15.05.2021
3037 Rain 16 1005 56 10000 1.34 0 17:46 15.05.2021
3038 Clouds 16 1006 54 10000 0.45 216 16:59 15.05.2021
3039 Clouds 16 1006 53 10000 0.89 35 16:38 15.05.2021
3040 Clouds 17 1006 52 10000 0.82 317 16:19 15.05.2021
3041 Clouds 16 1006 50 10000 0.45 34 15:34 15.05.2021
3042 Clouds 16 1007 54 10000 0.45 65 14:49 15.05.2021
3043 Clouds 16 1008 54 10000 0.45 42 14:28 15.05.2021
3044 Clouds 15 1009 62 10000 0.93 305 13:43 15.05.2021
3045 Clouds 14 1009 60 10000 0.85 267 13:18 15.05.2021
3046 Clouds 13 1010 61 10000 0.45 82 11:55 15.05.2021
3047 Clouds 13 1010 63 10000 1.55 240 11:23 15.05.2021
3048 Clouds 13 1010 68 10000 1.55 240 10:40 15.05.2021
3049 Clouds 11 1011 82 10000 1.84 224 09:45 15.05.2021
3050 Rain 9 1011 95 10000 1.87 218 08:42 15.05.2021
3051 Rain 9 1011 95 10000 2.02 219 07:56 15.05.2021
3052 Rain 8 1011 94 10000 2.17 224 07:23 15.05.2021
3053 Rain 8 1011 94 10000 2.17 224 06:52 15.05.2021
3054 Rain 8 1011 94 10000 2.49 229 05:53 15.05.2021
3055 Rain 9 1011 92 10000 3.71 246 04:19 15.05.2021
3056 Rain 9 1015 76 10000 0.89 301 00:35 15.05.2021
3057 Clouds 10 1015 76 10000 1.88 255 23:45 14.05.2021
3058 Clouds 9 1010 87 10000 1.74 273 22:44 14.05.2021
3059 Clouds 9 1010 85 10000 1.59 279 22:24 14.05.2021
3060 Clouds 11 1009 75 10000 1.59 279 21:31 14.05.2021
3061 Clouds 13 1008 54 10000 2.06 350 20:55 14.05.2021
3062 Clouds 13 1008 47 10000 1.54 330 20:28 14.05.2021
3063 Clouds 14 1008 44 10000 1.54 340 19:50 14.05.2021
3064 Clouds 14 1006 48 10000 0.45 312 19:28 14.05.2021
3065 Clouds 14 1008 47 10000 3.6 320 18:52 14.05.2021
3066 Clouds 15 1013 47 10000 0.89 286 18:27 14.05.2021
3067 Clouds 17 1008 52 10000 2.85 334 17:48 14.05.2021
3068 Clouds 16 1008 51 10000 3.35 326 17:25 14.05.2021
3069 Clouds 17 1008 54 10000 3.35 326 16:46 14.05.2021
3070 Clouds 17 1008 52 10000 3.52 315 16:28 14.05.2021
3071 Clouds 16 1009 50 10000 0.45 191 15:45 14.05.2021
3072 Clouds 16 1009 55 10000 2.9 311 14:42 14.05.2021
3073 Clouds 16 1009 53 10000 0.45 288 14:20 14.05.2021
3074 Clouds 15 1009 59 10000 2.69 302 13:33 14.05.2021
3075 Clouds 15 1009 60 10000 3.12 298 12:54 14.05.2021
3076 Clouds 15 1009 56 10000 0.45 240 12:30 14.05.2021
3077 Clouds 15 1009 56 10000 0.45 270 11:50 14.05.2021
3078 Clouds 14 1008 57 10000 1.34 304 11:23 14.05.2021
3079 Clouds 14 1009 65 10000 0.45 234 10:38 14.05.2021
3080 Clouds 14 1008 60 10000 3.36 278 10:38 14.05.2021
3081 Clouds 13 1009 70 10000 3.33 269 09:53 14.05.2021
3082 Clouds 12 1009 78 10000 2.95 257 09:32 14.05.2021
3083 Clouds 10 1009 91 10000 2.78 254 08:57 14.05.2021
3084 Clouds 10 1009 94 10000 0.45 280 08:28 14.05.2021
3085 Clouds 6 1009 94 10000 2.17 228 06:58 14.05.2021
3086 Clouds 6 1009 94 10000 2.17 228 06:38 14.05.2021
3087 Rain 8 1009 95 10000 2.6 241 02:39 14.05.2021
3088 Rain 8 1009 95 10000 3.07 246 00:39 14.05.2021
3089 Rain 8 1009 95 10000 3.18 245 23:52 13.05.2021
3090 Rain 8 1009 95 10000 3.63 249 23:26 13.05.2021
3091 Rain 9 1009 95 10000 3.63 249 22:57 13.05.2021
3092 Rain 9 1009 95 10000 3.63 249 22:38 13.05.2021
3093 Rain 9 1009 94 10000 4.49 264 22:20 13.05.2021
3094 Rain 9 1010 92 10000 4.5 263 21:40 13.05.2021
3095 Rain 10 1009 92 10000 1.34 305 21:21 13.05.2021
3096 Rain 10 1009 92 10000 0.45 208 20:45 13.05.2021
3097 Rain 11 1008 90 10000 0.89 213 19:55 13.05.2021
3098 Rain 10 1009 89 10000 0.45 289 19:36 13.05.2021
3099 Rain 12 1008 88 10000 0.45 229 19:18 13.05.2021
3100 Clouds 11 1008 86 10000 3.05 245 18:40 13.05.2021
3101 Clouds 12 1008 86 10000 0.89 288 18:20 13.05.2021
3102 Clouds 12 1008 88 10000 0.45 262 17:41 13.05.2021
3103 Clouds 12 1008 88 10000 0.45 216 17:22 13.05.2021
3104 Clouds 12 1008 87 10000 0.45 219 16:48 13.05.2021
3105 Clouds 12 1008 83 10000 0.45 61 16:19 13.05.2021
3106 Rain 12 1008 83 10000 0.89 136 15:56 13.05.2021
3107 Rain 12 1008 83 10000 0.89 136 15:56 13.05.2021
3108 Rain 12 1008 85 10000 0.89 193 15:25 13.05.2021
3109 Rain 13 1008 86 10000 1.34 158 14:58 13.05.2021
3110 Rain 13 1008 86 10000 0.45 177 14:39 13.05.2021
3111 Rain 13 1008 87 10000 0.45 56 14:21 13.05.2021
3112 Rain 13 1008 87 10000 1.34 205 13:43 13.05.2021
3113 Rain 13 1008 87 10000 1.34 232 13:24 13.05.2021
3114 Rain 13 1009 82 10000 0.45 5 12:42 13.05.2021
3115 Rain 13 1010 86 10000 0.45 188 12:20 13.05.2021
3116 Clouds 13 1009 84 10000 0.45 213 11:40 13.05.2021
3117 Clouds 11 1009 88 10000 0.45 224 10:58 13.05.2021
3118 Clouds 7 1009 90 10000 0.45 313 10:38 13.05.2021
3119 Clouds 7 1009 92 10000 0.45 167 09:56 13.05.2021
3120 Rain 6 1009 93 10000 0.45 261 09:30 13.05.2021
3121 Rain 6 1009 94 10000 1.34 277 08:40 13.05.2021
3122 Rain 5 1009 94 10000 0.45 265 08:20 13.05.2021
3123 Rain 5 1009 94 10000 1.55 264 07:30 13.05.2021
3124 Clouds 5 1009 94 10000 0.45 295 05:56 13.05.2021
3125 Clouds 5 1010 94 10000 2.64 240 02:46 13.05.2021
3126 Clouds 5 1010 94 10000 0.45 284 02:28 13.05.2021
3127 Rain 6 1011 94 10000 0.45 291 23:45 12.05.2021
3128 Rain 6 1012 94 10000 0.45 279 22:57 12.05.2021
3129 Rain 6 1012 94 10000 0.89 285 22:24 12.05.2021
3130 Rain 6 1012 94 10000 1.34 271 21:55 12.05.2021
3131 Rain 6 1012 94 10000 0.45 229 21:20 12.05.2021
3132 Rain 6 1012 94 10000 0.45 271 20:51 12.05.2021
3133 Rain 6 1012 93 10000 0.45 229 19:58 12.05.2021
3134 Rain 6 1012 93 10000 0.89 275 19:27 12.05.2021
3135 Rain 7 1012 93 10000 0.45 238 18:30 12.05.2021
3136 Rain 7 1012 93 10000 0.45 259 17:56 12.05.2021
3137 Rain 7 1012 93 10000 0.45 222 17:36 12.05.2021
3138 Rain 7 1012 93 10000 0.45 209 17:18 12.05.2021
3139 Rain 7 1012 93 10000 0.45 216 16:36 12.05.2021
3140 Rain 7 1012 93 10000 0.89 246 15:47 12.05.2021
3141 Rain 10 1011 96 10000 0.45 202 15:28 12.05.2021
3142 Rain 10 1011 96 10000 0.89 178 14:39 12.05.2021
3143 Rain 10 1011 96 10000 0.89 207 14:20 12.05.2021
3144 Rain 9 1011 96 10000 0.89 252 13:42 12.05.2021
3145 Rain 9 1011 96 10000 0.89 225 12:49 12.05.2021
3146 Rain 9 1011 96 9747 0.89 289 12:26 12.05.2021
3147 Rain 9 1011 96 9747 0.89 331 11:40 12.05.2021
3148 Rain 9 1011 96 9652 0.45 319 11:00 12.05.2021
3149 Rain 9 1011 96 7333 0.45 254 10:33 12.05.2021
3150 Rain 9 1011 96 7306 5.59 259 09:50 12.05.2021
3151 Rain 9 1011 96 10000 0.45 239 09:29 12.05.2021
3152 Rain 9 1011 96 9625 0.45 177 08:57 12.05.2021
3153 Rain 8 1011 96 10000 0.89 194 08:37 12.05.2021
3154 Rain 8 1011 96 10000 0.45 208 08:18 12.05.2021
3155 Rain 8 1011 95 7925 0.45 208 06:34 12.05.2021
3156 Rain 9 1011 94 10000 0.89 211 02:39 12.05.2021
3157 Rain 10 1011 92 10000 0.45 182 00:40 12.05.2021
3158 Clouds 10 1011 90 10000 0.45 193 23:56 11.05.2021
3159 Clouds 11 1011 87 10000 0.45 186 23:29 11.05.2021
3160 Clouds 11 1011 85 10000 0.89 292 22:59 11.05.2021
3161 Rain 11 1011 84 10000 0.89 213 22:41 11.05.2021
3162 Rain 11 1010 83 10000 0.89 257 22:18 11.05.2021
3163 Rain 11 1010 83 10000 0.89 257 22:18 11.05.2021
3164 Clouds 12 1015 78 10000 2.24 290 21:48 11.05.2021
3165 Clouds 12 1010 82 10000 1.34 269 21:30 11.05.2021
3166 Clouds 13 1009 87 10000 6.69 240 20:47 11.05.2021
3167 Clouds 13 1009 87 10000 7.72 240 20:26 11.05.2021
3168 Clouds 14 1008 94 8000 5.14 260 19:46 11.05.2021
3169 Clouds 15 1008 82 10000 5.14 250 19:23 11.05.2021
3170 Drizzle 15 1008 72 10000 7.2 260 18:58 11.05.2021
3171 Clouds 15 1007 77 10000 5.66 270 18:29 11.05.2021
3172 Drizzle 16 1007 72 10000 5.66 270 17:47 11.05.2021
3173 Clouds 16 1051 67 10000 0.45 82 17:23 11.05.2021
3174 Clouds 16 1051 68 10000 0.89 75 16:59 11.05.2021
3175 Clouds 18 1006 75 10000 0.89 234 16:29 11.05.2021
3176 Clouds 17 1006 73 10000 0.89 306 15:46 11.05.2021
3177 Rain 18 1006 73 10000 0.89 294 15:21 11.05.2021
3178 Clouds 18 1006 68 10000 0.45 243 14:59 11.05.2021
3179 Clouds 17 1002 71 10000 2.24 331 14:41 11.05.2021
3180 Rain 17 1005 71 10000 3.76 320 14:20 11.05.2021
3181 Clouds 17 1005 75 10000 3.77 320 13:40 11.05.2021
3182 Clouds 16 1005 75 10000 3.16 347 13:19 11.05.2021
3183 Clouds 15 1005 79 10000 3.16 347 12:49 11.05.2021
3184 Clouds 15 1005 80 10000 3.05 312 12:24 11.05.2021
3185 Clouds 14 1006 83 10000 0.45 15 11:42 11.05.2021
3186 Clouds 14 1006 83 10000 1.72 339 11:23 11.05.2021
3187 Clouds 14 1006 82 10000 1.72 339 10:47 11.05.2021
3188 Clouds 14 1006 81 10000 0.45 51 10:23 11.05.2021
3189 Clouds 14 1006 82 10000 1.62 310 09:51 11.05.2021
3190 Clouds 14 1006 82 10000 1.7 358 09:32 11.05.2021
3191 Clouds 13 1007 83 10000 1.84 311 08:54 11.05.2021
3192 Clouds 13 1007 84 10000 1.86 311 08:32 11.05.2021
3193 Clouds 12 1007 91 10000 2.29 284 07:56 11.05.2021
3194 Clouds 12 1007 92 10000 2.3 284 07:36 11.05.2021
3195 Clouds 11 1007 91 10000 2.83 278 06:24 11.05.2021
3196 Clouds 14 1007 83 9764 2.85 282 01:38 11.05.2021
3197 Clouds 14 1007 83 9764 2.85 282 01:38 11.05.2021
3198 Clouds 14 1008 77 10000 2.06 270 00:51 11.05.2021
3199 Clouds 15 1051 65 10000 0.89 293 00:33 11.05.2021
3200 Clouds 16 1008 80 10000 2.91 293 23:26 10.05.2021
3201 Clouds 15 1008 77 10000 0.51 0 22:55 10.05.2021
3202 Clouds 16 1051 55 10000 0.89 76 22:37 10.05.2021
3203 Clouds 16 1008 72 10000 2.06 280 22:18 10.05.2021
3204 Clouds 18 1008 73 10000 1.41 11 21:31 10.05.2021
3205 Clouds 18 1051 55 10000 0.45 89 20:55 10.05.2021
3206 Clouds 21 1004 63 10000 1.41 11 20:37 10.05.2021
3207 Clouds 21 1004 63 10000 2.38 49 20:18 10.05.2021
3208 Clouds 23 1008 49 10000 2.92 41 19:41 10.05.2021
3209 Clouds 23 1004 54 10000 0.89 331 19:20 10.05.2021
3210 Clear 23 1009 49 10000 4.12 340 18:52 10.05.2021
3211 Clouds 24 1008 53 10000 3.09 160 18:20 10.05.2021
3212 Clear 25 1008 35 10000 3.6 190 17:43 10.05.2021
3213 Clear 26 1008 31 10000 3.09 180 17:20 10.05.2021
3214 Clear 26 1008 34 10000 3.6 240 16:45 10.05.2021
3215 Clear 28 1009 28 10000 5.14 230 16:24 10.05.2021
3216 Clear 27 1009 26 10000 6.17 240 15:33 10.05.2021
3217 Clear 27 1009 24 10000 4.12 260 14:59 10.05.2021
3218 Clear 27 1009 24 10000 4.12 260 14:39 10.05.2021
3219 Clear 27 1009 24 10000 4.12 260 14:20 10.05.2021
3220 Clear 27 1009 32 10000 3.09 190 13:35 10.05.2021
3221 Clear 27 1009 27 10000 3.09 190 12:48 10.05.2021
3222 Clear 26 1009 27 10000 3.09 160 12:23 10.05.2021
3223 Clear 26 1009 31 10000 3.6 120 11:45 10.05.2021
3224 Clear 25 1009 31 10000 3.6 130 11:26 10.05.2021
3225 Clear 24 1009 35 10000 4.12 120 10:46 10.05.2021
3226 Clear 22 1009 38 10000 3.09 150 10:27 10.05.2021
3227 Clear 21 1010 43 10000 1.54 230 09:48 10.05.2021
3228 Clear 20 1010 52 10000 1.54 90 09:28 10.05.2021
3229 Clear 17 1009 52 10000 1.54 170 08:34 10.05.2021
3230 Clouds 15 1009 62 10000 1.91 149 07:55 10.05.2021
3231 Clear 12 1008 58 10000 2.57 150 07:35 10.05.2021
3232 Clouds 13 1009 60 10000 2.38 147 06:58 10.05.2021
3233 Clouds 12 1008 51 10000 3.09 140 06:27 10.05.2021
3234 Clouds 13 1009 58 10000 3.6 170 00:55 10.05.2021
3235 Clouds 14 1008 67 10000 3.09 220 23:55 09.05.2021
3236 Clouds 15 1008 67 10000 4.63 170 22:43 09.05.2021
3237 Clouds 17 1008 52 10000 1.03 140 22:21 09.05.2021
3238 Clouds 17 1008 48 10000 1.54 160 21:49 09.05.2021
3239 Clouds 17 1008 45 10000 1.54 100 21:28 09.05.2021
3240 Clouds 21 1008 40 10000 2.57 70 20:42 09.05.2021
3241 Clouds 22 1008 40 10000 3.6 60 20:21 09.05.2021
3242 Clouds 23 1008 38 10000 3.6 70 19:41 09.05.2021
3243 Clouds 23 1008 33 10000 4.63 80 19:20 09.05.2021
3244 Clouds 24 1008 29 10000 5.66 80 18:45 09.05.2021
3245 Clear 25 1008 29 10000 4.63 90 18:23 09.05.2021
3246 Clear 26 1009 25 10000 4.63 100 17:33 09.05.2021
3247 Clouds 26 1009 25 10000 3.6 70 16:41 09.05.2021
3248 Clouds 26 1010 22 10000 4.12 100 16:23 09.05.2021
3249 Clouds 26 1010 19 10000 3.6 130 15:23 09.05.2021
3250 Clouds 26 1011 24 10000 3.6 150 14:53 09.05.2021
3251 Clouds 25 1011 22 10000 3.6 140 14:24 09.05.2021
3252 Clouds 26 1012 18 10000 1.54 160 13:40 09.05.2021
3253 Clouds 25 1012 22 10000 2.06 150 12:50 09.05.2021
3254 Clouds 25 1013 31 10000 2.06 160 12:25 09.05.2021
3255 Clouds 23 1013 38 10000 3.6 120 11:24 09.05.2021
3256 Clouds 20 1013 35 10000 3.09 130 10:55 09.05.2021
3257 Clouds 21 1013 35 10000 3.09 130 10:36 09.05.2021
3258 Clouds 17 1012 42 10000 1.79 130 09:42 09.05.2021
3259 Clouds 16 1053 50 10000 3.58 104 09:21 09.05.2021
3260 Clouds 15 1052 50 10000 3.58 97 08:53 09.05.2021
3261 Clouds 13 1014 62 10000 0.45 209 08:28 09.05.2021
3262 Clouds 12 1014 72 10000 2.13 136 07:42 09.05.2021
3263 Clouds 7 1014 77 10000 2.2 147 06:42 09.05.2021
3264 Clouds 7 1014 81 10000 2.13 175 04:43 09.05.2021
3265 Clouds 8 1016 77 10000 2.58 162 00:43 09.05.2021
3266 Clouds 9 1016 73 10000 2.54 157 23:34 08.05.2021
3267 Clouds 10 1015 72 10000 2.6 151 22:57 08.05.2021
3268 Clouds 10 1015 81 10000 1.03 150 22:37 08.05.2021
3269 Clouds 10 1015 81 10000 0.51 0 22:18 08.05.2021
3270 Clouds 11 1015 62 10000 1.54 110 21:43 08.05.2021
3271 Clouds 12 1015 58 10000 1.03 0 21:18 08.05.2021
3272 Clouds 14 1015 54 10000 1.03 0 20:37 08.05.2021
3273 Clouds 16 1015 41 10000 2.06 60 19:57 08.05.2021
3274 Clouds 16 1015 34 10000 2.06 0 19:23 08.05.2021
3275 Clouds 17 1015 29 10000 3.09 260 18:51 08.05.2021
3276 Clouds 17 1015 29 10000 3.09 260 18:51 08.05.2021
3277 Clouds 17 1015 29 10000 3.09 260 18:33 08.05.2021
3278 Clouds 18 1016 29 10000 3.09 270 17:49 08.05.2021
3279 Clouds 18 1016 36 10000 3.09 250 16:52 08.05.2021
3280 Clouds 18 1016 38 10000 0.45 63 16:29 08.05.2021
3281 Clouds 18 1017 38 10000 0.45 80 15:49 08.05.2021
3282 Clouds 17 1017 39 10000 0.45 61 15:28 08.05.2021
3283 Clouds 17 1018 38 10000 0.89 207 14:49 08.05.2021
3284 Clouds 17 1018 40 10000 0.45 276 14:20 08.05.2021
3285 Clouds 17 1018 40 10000 0.45 276 14:20 08.05.2021
3286 Clouds 16 1018 44 10000 0.45 226 13:45 08.05.2021
3287 Clouds 15 1019 47 10000 0.45 245 13:20 08.05.2021
3288 Clouds 14 1019 53 10000 0.45 92 12:30 08.05.2021
3289 Clouds 13 1019 46 10000 0.6 181 11:40 08.05.2021
3290 Clouds 13 1019 51 10000 1.92 137 10:58 08.05.2021
3291 Clouds 12 1020 52 10000 0.45 135 10:40 08.05.2021
3292 Clouds 11 1019 58 10000 0.89 36 10:19 08.05.2021
3293 Clouds 10 1020 64 10000 0.45 184 09:47 08.05.2021
3294 Clouds 9 1020 72 10000 0.45 175 09:27 08.05.2021
3295 Clouds 6 1020 95 10000 1.71 156 08:25 08.05.2021
3296 Clouds 3 1020 94 10000 1.71 156 07:40 08.05.2021
3297 Clouds 1 1020 93 10000 1.78 171 06:50 08.05.2021
3298 Clear 0 1020 91 10000 1.89 201 05:21 08.05.2021
3299 Clouds 1 1021 89 10000 1.42 202 01:51 08.05.2021
3300 Clouds 2 1021 86 10000 1.3 216 00:50 08.05.2021
3301 Clouds 3 1021 85 10000 1.53 215 00:27 08.05.2021
3302 Clouds 3 1020 81 10000 1.58 230 23:29 07.05.2021
3303 Clouds 4 1024 79 10000 1.58 230 22:48 07.05.2021
3304 Clouds 5 1019 67 10000 1.83 251 22:19 07.05.2021
3305 Clouds 7 1019 57 10000 1.54 270 21:39 07.05.2021
3306 Clouds 6 1019 57 10000 1.54 270 21:21 07.05.2021
3307 Clouds 7 1018 53 10000 3.09 290 20:42 07.05.2021
3308 Clouds 8 1018 60 10000 0.89 273 20:21 07.05.2021
3309 Clear 8 1017 46 10000 5.14 290 19:43 07.05.2021
3310 Clear 10 1017 46 10000 4.63 280 19:24 07.05.2021
3311 Clouds 10 1016 53 10000 5.34 271 18:43 07.05.2021
3312 Clouds 10 1016 54 10000 5.89 276 18:24 07.05.2021
3313 Clouds 10 1017 65 10000 1.79 248 17:25 07.05.2021
3314 Clouds 9 1016 70 10000 1.34 257 16:59 07.05.2021
3315 Clouds 8 1016 75 10000 1.34 212 16:39 07.05.2021
3316 Clouds 8 1015 76 10000 5.14 240 15:59 07.05.2021
3317 Clouds 8 1015 89 10000 1.34 286 15:40 07.05.2021
3318 Clouds 6 1015 91 2843 0.89 195 15:21 07.05.2021
3319 Rain 6 1015 85 10000 1.34 225 14:32 07.05.2021
3320 Clouds 7 1013 82 10000 2.24 275 13:55 07.05.2021
3321 Clouds 7 1013 87 10000 5.14 270 13:24 07.05.2021
3322 Clouds 6 1013 92 8249 0.89 306 12:49 07.05.2021
3323 Clouds 6 1013 93 2907 0.89 279 12:28 07.05.2021
3324 Rain 6 1012 93 2904 1.34 306 11:51 07.05.2021
3325 Rain 5 1016 89 98 1.34 282 11:27 07.05.2021
3326 Rain 5 1016 89 98 1.34 282 11:27 07.05.2021
3327 Rain 6 1010 87 8000 8.75 320 10:44 07.05.2021
3328 Rain 7 1009 87 2971 5.36 341 10:23 07.05.2021
3329 Rain 8 1014 83 2839 1.34 283 09:55 07.05.2021
3330 Rain 7 1010 94 7130 0.89 273 08:57 07.05.2021
3331 Rain 6 1009 93 7200 0.89 195 08:36 07.05.2021
3332 Rain 6 1009 91 10000 1.34 262 07:34 07.05.2021
3333 Rain 7 1009 91 10000 1.34 262 07:34 07.05.2021
3334 Rain 7 1008 90 10000 1.34 259 06:45 07.05.2021
3335 Rain 8 1008 89 10000 1.34 229 04:57 07.05.2021
3336 Clouds 8 1008 91 10000 1.34 195 01:30 07.05.2021
3337 Rain 8 1007 96 10000 0.89 190 23:18 06.05.2021
3338 Rain 7 1006 95 10000 0.45 241 22:32 06.05.2021
3339 Clouds 7 1006 95 10000 3.34 194 21:43 06.05.2021
3340 Rain 7 1007 94 9649 2.14 182 20:48 06.05.2021
3341 Rain 7 1007 94 10000 2.57 154 20:25 06.05.2021
3342 Rain 7 1007 94 10000 2.58 154 20:25 06.05.2021
3343 Rain 7 1007 94 10000 2.57 154 19:54 06.05.2021
3344 Rain 8 1006 93 9267 1.26 192 19:26 06.05.2021
3345 Rain 7 1006 93 9267 1.26 192 18:58 06.05.2021
3346 Rain 7 1006 92 9267 1.26 192 18:35 06.05.2021
3347 Rain 8 1007 90 10000 1.55 261 17:51 06.05.2021
3348 Rain 8 1007 89 10000 3.69 293 17:29 06.05.2021
3349 Rain 9 1008 88 10000 3.69 293 16:58 06.05.2021
3350 Rain 9 1007 87 10000 0.45 36 16:37 06.05.2021
3351 Rain 9 1007 86 10000 2.6 296 16:18 06.05.2021
3352 Rain 9 1009 83 10000 2.65 296 15:42 06.05.2021
3353 Rain 9 1009 81 10000 1.54 260 15:19 06.05.2021
3354 Rain 10 1010 82 10000 2.9 268 14:26 06.05.2021
3355 Rain 10 1011 82 10000 0.89 215 13:54 06.05.2021
3356 Rain 10 1011 76 10000 1.34 226 13:26 06.05.2021
3357 Rain 11 1011 64 10000 1.34 212 12:47 06.05.2021
3358 Rain 11 1011 56 10000 0.45 239 12:24 06.05.2021
3359 Rain 11 1011 53 10000 1.34 233 11:49 06.05.2021
3360 Clouds 11 1010 53 10000 4.12 210 11:24 06.05.2021
3361 Clouds 10 1015 54 10000 3.02 250 10:52 06.05.2021
3362 Clouds 10 1011 57 10000 4.63 220 10:27 06.05.2021
3363 Clouds 9 1011 63 10000 0.89 224 09:51 06.05.2021
3364 Clouds 8 1012 65 10000 0.45 232 09:31 06.05.2021
3365 Clouds 8 1012 72 10000 0.89 270 08:51 06.05.2021
3366 Rain 7 1012 77 10000 0.45 196 08:24 06.05.2021
3367 Clouds 6 1013 83 10000 3.31 229 07:52 06.05.2021
3368 Clouds 5 1012 86 10000 3 233 07:31 06.05.2021
3369 Clouds 5 1012 84 10000 3.57 241 06:28 06.05.2021
3370 Rain 5 1013 82 10000 1.34 186 05:50 06.05.2021
3371 Rain 5 1013 82 10000 1.34 186 05:50 06.05.2021
3372 Rain 5 1013 79 10000 0.89 209 04:36 06.05.2021
3373 Rain 5 1013 82 10000 4.57 233 02:35 06.05.2021
3374 Clouds 4 1014 88 10000 4.48 233 00:20 06.05.2021
3375 Clouds 5 1014 83 10000 0.45 238 22:49 05.05.2021
3376 Clouds 6 1013 78 10000 1.79 197 22:24 05.05.2021
3377 Rain 6 1013 80 10000 3.62 237 21:43 05.05.2021
3378 Clouds 6 1013 73 10000 3.57 242 21:21 05.05.2021
3379 Clouds 7 1012 66 10000 0.45 222 20:37 05.05.2021
3380 Rain 8 1011 76 10000 0.45 346 19:59 05.05.2021
3381 Clouds 8 1011 77 10000 0.45 267 19:37 05.05.2021
3382 Clouds 9 1011 72 10000 1.34 295 19:18 05.05.2021
3383 Clouds 9 1011 66 10000 1.79 267 18:23 05.05.2021
3384 Rain 9 1011 63 10000 1.79 260 17:54 05.05.2021
3385 Clouds 10 1010 64 10000 1.79 281 17:28 05.05.2021
3386 Clouds 9 1010 65 10000 1.79 277 16:55 05.05.2021
3387 Clouds 9 1010 65 10000 1.79 277 16:55 05.05.2021
3388 Clouds 10 1010 61 10000 3.13 0 16:32 05.05.2021
3389 Clouds 10 1009 64 10000 3.13 258 15:59 05.05.2021
3390 Clouds 9 1013 74 10000 0.89 284 15:22 05.05.2021
3391 Clouds 8 1009 88 10000 1.79 258 14:45 05.05.2021
3392 Clouds 8 1009 91 10000 1.79 223 14:26 05.05.2021
3393 Rain 6 1009 92 10000 1.79 219 13:53 05.05.2021
3394 Rain 5 1009 93 10000 2.24 277 13:26 05.05.2021
3395 Rain 6 1008 90 10000 1.79 219 12:37 05.05.2021
3396 Rain 7 1008 91 7324 1.34 85 12:18 05.05.2021
3397 Rain 6 1008 93 7325 5.42 290 11:42 05.05.2021
3398 Rain 7 1008 92 10000 0.45 234 11:23 05.05.2021
3399 Rain 6 1007 94 10000 0.45 248 10:44 05.05.2021
3400 Rain 6 1007 94 10000 0.45 248 10:44 05.05.2021
3401 Rain 5 1007 95 6004 0.45 320 09:56 05.05.2021
3402 Rain 5 1007 94 6748 3.53 297 09:35 05.05.2021
3403 Rain 5 1007 93 5902 0.45 265 08:45 05.05.2021
3404 Rain 6 1006 93 10000 3.67 305 08:26 05.05.2021
3405 Rain 6 1005 92 10000 0.45 204 07:49 05.05.2021
3406 Rain 7 1005 87 10000 1.34 263 07:23 05.05.2021
3407 Rain 9 1004 82 10000 3.36 274 06:40 05.05.2021
3408 Clouds 10 1004 77 10000 4.02 255 04:50 05.05.2021
3409 Clouds 12 1006 69 10000 0.45 179 00:52 05.05.2021
3410 Rain 12 1007 58 10000 9.77 260 23:44 04.05.2021
3411 Rain 12 1006 62 10000 0.45 239 22:59 04.05.2021
3412 Clouds 12 1006 61 10000 5.94 272 22:39 04.05.2021
3413 Clouds 13 1007 54 10000 5.91 271 22:18 04.05.2021
3414 Clouds 13 1007 41 10000 8.75 260 21:43 04.05.2021
3415 Rain 14 1007 49 10000 1.79 294 21:22 04.05.2021
3416 Rain 14 1007 49 10000 2.24 280 21:22 04.05.2021
3417 Rain 14 1006 38 10000 9.77 260 20:46 04.05.2021
3418 Clouds 14 1007 38 10000 6.69 260 20:26 04.05.2021
3419 Rain 15 1007 39 10000 5.14 260 19:56 04.05.2021
3420 Rain 15 1006 49 10000 4.85 282 19:36 04.05.2021
3421 Rain 15 1006 48 10000 4.87 282 19:18 04.05.2021
3422 Clouds 16 1006 49 10000 4.87 282 18:39 04.05.2021
3423 Clouds 17 1007 46 10000 0.45 217 17:51 04.05.2021
3424 Clouds 17 1007 44 10000 0.45 202 17:30 04.05.2021
3425 Clouds 17 1007 44 10000 1.34 229 16:51 04.05.2021
3426 Clouds 17 1008 43 10000 1.79 269 16:24 04.05.2021
3427 Clouds 17 1008 42 10000 1.79 219 15:47 04.05.2021
3428 Clouds 17 1008 42 10000 1.34 253 15:22 04.05.2021
3429 Clouds 17 1009 41 10000 2.68 279 14:31 04.05.2021
3430 Clouds 17 1010 38 10000 1.79 233 13:42 04.05.2021
3431 Clouds 17 1010 37 10000 2.24 200 13:22 04.05.2021
3432 Clouds 17 1010 40 10000 1.79 238 12:54 04.05.2021
3433 Clouds 17 1010 38 10000 2.24 237 12:29 04.05.2021
3434 Clouds 16 1011 42 10000 1.79 228 11:46 04.05.2021
3435 Clouds 15 1011 45 10000 0.89 275 11:27 04.05.2021
3436 Clouds 14 1012 48 10000 1.34 252 10:44 04.05.2021
3437 Clouds 14 1012 49 10000 1.34 282 10:25 04.05.2021
3438 Clouds 12 1012 54 10000 0.89 299 09:43 04.05.2021
3439 Clouds 11 1012 55 10000 1.34 242 09:21 04.05.2021
3440 Clouds 10 1012 59 10000 0.89 240 08:49 04.05.2021
3441 Clouds 9 1012 66 10000 0.89 254 08:20 04.05.2021
3442 Clouds 7 1013 81 10000 3.21 190 07:47 04.05.2021
3443 Clouds 5 1013 86 10000 2.99 193 07:24 04.05.2021
3444 Clouds 3 1013 89 10000 3.1 193 06:22 04.05.2021
3445 Clouds 3 1014 88 10000 2.76 191 03:58 04.05.2021
3446 Clouds 4 1015 86 10000 2.63 179 02:28 04.05.2021
3447 Clouds 5 1016 84 10000 2.55 172 00:36 04.05.2021
3448 Clouds 5 1017 81 10000 2.45 170 23:36 03.05.2021
3449 Clouds 5 1017 77 10000 2.21 165 22:48 03.05.2021
3450 Clouds 6 1018 76 10000 2.21 165 22:30 03.05.2021
3451 Clouds 6 1018 73 10000 1.87 148 21:52 03.05.2021
3452 Clouds 7 1018 74 10000 1.85 135 21:31 03.05.2021
3453 Clouds 7 1018 76 10000 1.45 101 21:31 03.05.2021
3454 Clouds 8 1018 46 10000 0.51 280 20:57 03.05.2021
3455 Clouds 9 1018 43 10000 1.54 270 20:39 03.05.2021
3456 Clear 11 1018 40 10000 2.57 290 19:57 03.05.2021
3457 Clouds 13 1018 48 10000 1.07 52 19:35 03.05.2021
3458 Clouds 13 1018 45 10000 0.45 276 18:47 03.05.2021
3459 Clouds 13 1018 44 10000 0.45 198 18:26 03.05.2021
3460 Clouds 13 1019 48 10000 0.45 272 17:35 03.05.2021
3461 Clouds 13 1019 47 10000 0.45 254 16:56 03.05.2021
3462 Clouds 13 1020 48 10000 0.89 230 16:38 03.05.2021
3463 Clouds 13 1020 48 10000 0.89 236 15:55 03.05.2021
3464 Clouds 13 1020 47 10000 1.34 271 15:34 03.05.2021
3465 Clouds 11 1021 58 10000 0.45 236 14:45 03.05.2021
3466 Clouds 11 1021 61 10000 0.45 239 14:19 03.05.2021
3467 Clouds 11 1021 61 10000 0.45 239 14:19 03.05.2021
3468 Clouds 11 1025 48 10000 0.45 313 13:47 03.05.2021
3469 Clouds 11 1022 56 10000 0.89 223 13:28 03.05.2021
3470 Clouds 10 1022 56 10000 0.89 309 12:43 03.05.2021
3471 Clouds 10 1022 60 10000 1.34 276 12:20 03.05.2021
3472 Clouds 9 1022 72 10000 0.45 266 11:39 03.05.2021
3473 Clouds 9 1022 72 10000 0.45 266 11:39 03.05.2021
3474 Clouds 8 1023 78 10000 3.94 282 11:20 03.05.2021
3475 Clouds 8 1023 71 10000 0.89 257 10:44 03.05.2021
3476 Clouds 8 1023 76 10000 0.45 209 10:21 03.05.2021
3477 Clouds 8 1023 79 10000 0.89 261 09:43 03.05.2021
3478 Clouds 7 1023 87 10000 0.45 223 08:53 03.05.2021
3479 Clouds 5 1022 92 10000 0.45 294 08:25 03.05.2021
3480 Clouds 5 1022 94 10000 0.45 267 07:57 03.05.2021
3481 Clouds 4 1022 95 10000 2.65 241 06:42 03.05.2021
3482 Clouds 4 1021 87 10000 3.6 220 06:20 03.05.2021
3483 Clouds 4 1021 93 10000 3.6 220 05:50 03.05.2021
3484 Clouds 4 1020 95 10000 3.18 242 01:24 03.05.2021
3485 Clouds 4 1020 95 10000 3.03 248 00:18 03.05.2021
3486 Clouds 4 1019 95 10000 3.09 255 23:22 02.05.2021
3487 Clouds 4 1019 95 10000 3.09 255 22:45 02.05.2021
3488 Clouds 4 1019 94 10000 3.13 255 22:20 02.05.2021
3489 Clouds 5 1019 93 10000 3.13 255 21:47 02.05.2021
3490 Clouds 5 1019 93 10000 3.16 257 21:29 02.05.2021
3491 Clouds 6 1018 92 10000 3.49 267 20:28 02.05.2021
3492 Rain 6 1018 91 10000 3.48 267 19:55 02.05.2021
3493 Rain 6 1018 90 10000 3.49 267 19:37 02.05.2021
3494 Rain 7 1018 88 10000 0.89 155 19:19 02.05.2021
3495 Rain 8 1022 75 10000 4.47 282 18:41 02.05.2021
3496 Clouds 9 1021 66 10000 1.34 273 18:23 02.05.2021
3497 Clouds 10 1016 61 10000 3.6 240 17:45 02.05.2021
3498 Clouds 9 1016 74 10000 0.45 261 17:27 02.05.2021
3499 Clouds 9 1016 74 10000 0.45 227 16:51 02.05.2021
3500 Clouds 9 1016 71 10000 2.57 220 16:28 02.05.2021
3501 Clouds 9 1016 78 10000 0.45 305 15:45 02.05.2021
3502 Clouds 8 1021 72 10000 1.34 271 15:25 02.05.2021
3503 Clouds 8 1017 87 224 0.89 232 14:58 02.05.2021
3504 Clouds 7 1017 91 224 0.89 289 14:37 02.05.2021
3505 Rain 6 1017 94 2126 0.45 264 13:49 02.05.2021
3506 Rain 6 1016 87 10000 4.12 250 13:25 02.05.2021
3507 Rain 6 1017 94 218 1.34 291 12:58 02.05.2021
3508 Rain 5 1016 95 218 0.89 247 12:40 02.05.2021
3509 Rain 5 1016 95 49 0.45 283 12:20 02.05.2021
3510 Rain 5 1016 95 49 0.89 285 11:47 02.05.2021
3511 Rain 5 1016 95 51 0.45 209 11:27 02.05.2021
3512 Rain 5 1015 96 61 1.34 236 10:23 02.05.2021
3513 Rain 4 1015 96 61 1.34 209 09:56 02.05.2021
3514 Rain 4 1014 96 62 0.89 251 09:37 02.05.2021
3515 Rain 4 1014 96 60 0.89 289 09:19 02.05.2021
3516 Rain 4 1013 96 60 0.89 202 08:43 02.05.2021
3517 Rain 4 1013 96 115 1.34 223 08:22 02.05.2021
3518 Rain 4 1013 96 1630 0.89 215 07:26 02.05.2021
3519 Rain 4 1012 95 1991 0.89 221 06:38 02.05.2021
3520 Rain 5 1009 95 2314 1.34 239 04:32 02.05.2021
3521 Rain 7 1007 96 4169 1.79 223 01:34 02.05.2021
3522 Rain 8 1005 96 3627 0.89 249 23:45 01.05.2021
3523 Rain 8 1005 96 1875 0.45 273 23:25 01.05.2021
3524 Rain 8 1006 96 1934 5.2 309 22:45 01.05.2021
3525 Rain 8 1006 96 1193 0.45 250 22:23 01.05.2021
3526 Clouds 8 1006 96 1230 3.86 315 21:47 01.05.2021
3527 Clouds 9 1006 95 5353 3.58 333 21:24 01.05.2021
3528 Clouds 9 1006 94 8412 0.45 223 20:57 01.05.2021
3529 Rain 9 1006 94 8409 0.45 188 20:39 01.05.2021
3530 Clouds 9 1006 93 8549 0.45 235 20:20 01.05.2021
3531 Rain 10 1006 89 8549 0.45 247 19:41 01.05.2021
3532 Rain 10 1007 88 10000 3.26 342 19:23 01.05.2021
3533 Clouds 10 1007 87 10000 3.29 342 18:39 01.05.2021
3534 Clouds 10 1007 86 10000 0.45 350 18:18 01.05.2021
3535 Clouds 11 1007 85 10000 0.45 259 17:35 01.05.2021
3536 Clouds 11 1008 85 10000 0.45 331 16:51 01.05.2021
3537 Clouds 11 1008 83 10000 0.45 103 16:33 01.05.2021
3538 Clouds 11 1008 80 10000 0.45 36 15:56 01.05.2021
3539 Rain 12 1008 80 10000 0.89 46 14:55 01.05.2021
3540 Clouds 12 1009 81 10000 0.89 65 13:56 01.05.2021
3541 Clouds 11 1009 83 10000 0.89 81 13:24 01.05.2021
3542 Clouds 11 1010 85 10000 0.89 69 12:52 01.05.2021
3543 Clouds 11 1010 84 10000 1.34 108 12:23 01.05.2021
3544 Clouds 11 1010 83 10000 1.34 69 11:48 01.05.2021
3545 Clouds 10 1010 83 10000 0.89 101 11:30 01.05.2021
3546 Clouds 10 1010 82 10000 1.79 26 10:56 01.05.2021
3547 Clouds 9 1010 81 10000 1.34 47 10:27 01.05.2021
3548 Clouds 9 1011 90 10000 1.68 53 09:42 01.05.2021
3549 Clouds 8 1011 90 10000 0.45 55 09:24 01.05.2021
3550 Clouds 8 1011 95 10000 2.21 71 08:23 01.05.2021
3551 Clouds 7 1012 95 10000 0.45 33 07:37 01.05.2021
3552 Clouds 7 1012 94 10000 0.76 92 05:51 01.05.2021
3553 Rain 7 1013 95 10000 0.78 293 03:42 01.05.2021
3554 Clouds 7 1013 95 10000 3.21 263 00:32 01.05.2021
3555 Clouds 7 1013 95 10000 3.21 263 23:57 30.04.2021
3556 Clouds 7 1013 93 10000 3.5 266 22:56 30.04.2021
3557 Rain 7 1013 93 10000 0.89 215 22:37 30.04.2021
3558 Rain 7 1012 93 10000 0.45 289 22:18 30.04.2021
3559 Rain 7 1012 92 10000 0.45 275 21:43 30.04.2021
3560 Rain 8 1011 91 10000 0.89 295 21:23 30.04.2021
3561 Clouds 8 1011 88 10000 4.75 307 20:41 30.04.2021
3562 Rain 9 1009 91 10000 0.89 22 19:57 30.04.2021
3563 Rain 11 1008 89 10000 1.34 240 19:19 30.04.2021
3564 Rain 13 1008 85 10000 0.45 86 18:43 30.04.2021
3565 Rain 15 1007 77 10000 0.45 171 18:24 30.04.2021
3566 Rain 16 1006 59 10000 7.72 360 17:48 30.04.2021
3567 Rain 17 1006 55 10000 6.69 30 17:23 30.04.2021
3568 Clouds 18 1006 52 10000 5.14 20 16:52 30.04.2021
3569 Clouds 18 1006 52 10000 5.66 60 16:28 30.04.2021
3570 Clouds 18 1007 55 10000 5.14 100 15:41 30.04.2021
3571 Clouds 17 1007 55 10000 5.14 90 15:20 30.04.2021
3572 Clouds 16 1007 59 10000 4.63 90 14:46 30.04.2021
3573 Clouds 16 1008 59 10000 3.6 80 14:27 30.04.2021
3574 Clouds 16 1009 59 10000 4.12 100 13:53 30.04.2021
3575 Clouds 13 1009 62 10000 3.6 70 13:34 30.04.2021
3576 Clouds 14 1009 73 10000 1.34 38 12:44 30.04.2021
3577 Clouds 14 1009 71 10000 5.66 90 12:25 30.04.2021
3578 Clouds 14 1009 71 10000 5.66 90 12:25 30.04.2021
3579 Clouds 13 1014 71 10000 1.34 105 11:40 30.04.2021
3580 Clouds 13 1010 77 10000 1.34 36 11:21 30.04.2021
3581 Clouds 11 1011 83 10000 1.79 20 10:40 30.04.2021
3582 Clear 10 1011 81 10000 3.6 30 10:21 30.04.2021
3583 Clouds 10 1011 92 10000 0.45 51 09:34 30.04.2021
3584 Clouds 8 1012 95 10000 0.45 71 08:51 30.04.2021
3585 Clouds 9 1011 95 10000 1.71 20 07:59 30.04.2021
3586 Clouds 8 1011 95 10000 1.71 20 07:31 30.04.2021
3587 Clouds 8 1011 95 10000 1.33 11 06:53 30.04.2021
3588 Clouds 8 1011 95 10000 1.29 338 06:25 30.04.2021
3589 Clouds 9 1011 95 10000 1.29 338 05:40 30.04.2021
3590 Clouds 8 1011 95 10000 2.43 263 02:57 30.04.2021
3591 Rain 8 1015 91 10000 0.45 285 01:45 30.04.2021
3592 Rain 9 1010 93 10000 3.04 230 00:21 30.04.2021
3593 Rain 9 1010 91 10000 3.52 222 23:26 29.04.2021
3594 Rain 9 1010 90 10000 0.89 218 22:44 29.04.2021
3595 Rain 9 1010 90 10000 0.89 218 22:44 29.04.2021
3596 Rain 9 1009 88 10000 0.89 240 22:23 29.04.2021
3597 Rain 10 1009 84 10000 0.45 232 21:45 29.04.2021
3598 Rain 11 1008 66 10000 2.57 220 21:25 29.04.2021
3599 Rain 10 1008 62 10000 3.09 210 20:55 29.04.2021
3600 Rain 10 1008 62 10000 3.09 230 20:36 29.04.2021
3601 Rain 11 1008 62 10000 3.09 230 20:18 29.04.2021
3602 Rain 12 1007 58 10000 3.6 230 19:41 29.04.2021
3603 Rain 13 1007 54 10000 3.6 220 19:21 29.04.2021
3604 Clear 13 1007 54 10000 3.6 220 18:43 29.04.2021
3605 Rain 13 1007 62 10000 2.57 180 18:21 29.04.2021
3606 Rain 12 1007 66 10000 3.09 180 17:46 29.04.2021
3607 Rain 12 1007 74 10000 0.45 243 17:19 29.04.2021
3608 Rain 12 1008 71 10000 4.12 210 16:44 29.04.2021
3609 Rain 14 1008 60 10000 0.45 289 16:23 29.04.2021
3610 Rain 13 1053 52 10000 4.02 234 15:50 29.04.2021
3611 Clouds 14 1007 54 10000 0.89 248 15:26 29.04.2021
3612 Clouds 14 1012 51 10000 1.34 299 14:46 29.04.2021
3613 Clouds 14 1005 51 10000 2.68 276 14:46 29.04.2021
3614 Clouds 14 1005 51 10000 2.68 276 14:46 29.04.2021
3615 Clouds 14 1012 51 10000 1.34 299 14:46 29.04.2021
3616 Clouds 14 1012 51 10000 1.34 299 14:46 29.04.2021
3617 Clouds 14 1012 51 10000 1.34 299 14:46 29.04.2021
3618 Clouds 14 1012 51 10000 1.34 299 14:46 29.04.2021
3619 Clouds 14 1012 51 10000 1.34 299 14:46 29.04.2021
3620 Clouds 14 1012 51 10000 1.34 299 14:46 29.04.2021
3621 Clouds 15 1008 50 10000 5.14 240 14:24 29.04.2021
3622 Clouds 14 1005 53 10000 0.89 266 13:46 29.04.2021
3623 Clouds 14 1007 58 10000 0.89 210 13:24 29.04.2021
3624 Clouds 14 1008 59 10000 0.89 242 12:45 29.04.2021
3625 Clouds 13 1008 61 10000 0.89 259 12:27 29.04.2021
3626 Clouds 13 1008 64 10000 0.89 317 11:48 29.04.2021
3627 Clouds 12 1008 66 10000 0.89 236 11:26 29.04.2021
3628 Clouds 12 1008 66 10000 0.89 209 10:52 29.04.2021
3629 Clouds 12 1013 64 10000 0.89 301 10:32 29.04.2021
3630 Clouds 12 1007 70 10000 1.34 225 09:46 29.04.2021
3631 Clouds 12 1012 68 10000 6.26 295 09:27 29.04.2021
3632 Clouds 11 1004 66 10000 3.58 284 08:55 29.04.2021
3633 Clouds 11 1045 57 10000 3.13 125 08:32 29.04.2021
3634 Clouds 12 1006 79 10000 0.89 198 07:48 29.04.2021
3635 Clouds 11 1006 83 10000 4.62 258 06:59 29.04.2021
3636 Clouds 11 1005 83 10000 4.2 251 05:32 29.04.2021
3637 Clouds 11 1004 72 10000 0.45 255 01:53 29.04.2021
3638 Clouds 9 1003 73 10000 2.95 253 23:53 28.04.2021
3639 Clouds 11 1002 68 10000 1.73 220 23:19 28.04.2021
3640 Clouds 11 1000 61 10000 1.73 220 22:43 28.04.2021
3641 Clouds 12 1001 56 10000 1.51 151 22:20 28.04.2021
3642 Clouds 13 1003 54 10000 1.03 130 21:39 28.04.2021
3643 Clouds 12 1003 44 10000 1.54 70 21:20 28.04.2021
3644 Clear 15 1003 39 10000 2.06 60 20:43 28.04.2021
3645 Clear 16 1003 39 10000 2.06 60 20:25 28.04.2021
3646 Clear 16 1003 39 10000 2.06 60 20:25 28.04.2021
3647 Clear 17 1003 39 10000 2.57 30 19:54 28.04.2021
3648 Clear 18 1003 36 10000 3.6 20 19:26 28.04.2021
3649 Clear 18 1003 34 10000 3.6 10 18:52 28.04.2021
3650 Clear 19 1003 34 10000 4.12 10 18:32 28.04.2021
3651 Clear 19 1003 32 10000 3.09 40 17:50 28.04.2021
3652 Clear 19 1003 32 10000 2.06 360 17:26 28.04.2021
3653 Clouds 20 1003 40 10000 0.89 118 16:53 28.04.2021
3654 Clouds 19 1003 39 10000 1.34 61 16:20 28.04.2021
3655 Clouds 19 1004 39 10000 0.45 111 15:46 28.04.2021
3656 Clouds 20 1004 40 10000 0.45 259 14:58 28.04.2021
3657 Clouds 19 1004 41 10000 0.89 69 14:40 28.04.2021
3658 Clouds 19 1004 43 10000 0.89 46 14:20 28.04.2021
3659 Clouds 19 1004 43 10000 0.45 51 13:41 28.04.2021
3660 Clouds 19 1004 46 10000 0.45 234 13:22 28.04.2021
3661 Clouds 18 1005 46 10000 0.89 49 12:41 28.04.2021
3662 Clouds 17 1005 48 10000 0.45 133 12:21 28.04.2021
3663 Clouds 16 1005 53 10000 0.89 39 11:38 28.04.2021
3664 Clouds 16 1005 53 10000 0.89 130 11:19 28.04.2021
3665 Clouds 14 1005 59 10000 0.45 31 10:39 28.04.2021
3666 Clouds 13 1005 60 10000 0.89 54 10:19 28.04.2021
3667 Clouds 12 1005 65 10000 1.49 95 09:43 28.04.2021
3668 Clouds 10 1005 70 10000 1.18 114 09:24 28.04.2021
3669 Clouds 10 1005 75 10000 1.19 114 08:47 28.04.2021
3670 Clouds 4 1005 90 10000 1.07 122 07:31 28.04.2021
3671 Clouds 3 1005 91 10000 1.05 122 06:47 28.04.2021
3672 Clouds 2 1005 90 10000 1.25 100 05:28 28.04.2021
3673 Clouds 4 1005 88 10000 1.21 99 02:43 28.04.2021
3674 Clouds 5 1006 85 10000 1.31 104 01:53 28.04.2021
3675 Clouds 6 1006 80 10000 2.2 96 00:28 28.04.2021
3676 Clouds 7 1006 61 10000 1.54 100 23:43 27.04.2021
3677 Clouds 7 1005 61 10000 2.57 90 22:57 27.04.2021
3678 Clouds 7 1005 61 10000 2.57 90 22:38 27.04.2021
3679 Clouds 8 1005 53 10000 2.57 70 22:18 27.04.2021
3680 Clouds 9 1005 50 10000 3.09 60 21:44 27.04.2021
3681 Clear 10 1005 50 10000 3.09 60 21:20 27.04.2021
3682 Clear 12 1005 47 10000 3.6 60 20:48 27.04.2021
3683 Clear 13 1005 41 10000 4.12 50 20:29 27.04.2021
3684 Clear 14 1005 41 10000 4.63 40 19:46 27.04.2021
3685 Clear 15 1004 38 10000 4.63 30 19:22 27.04.2021
3686 Clear 15 1005 41 10000 4.12 50 18:51 27.04.2021
3687 Clear 15 1005 41 10000 4.12 50 18:32 27.04.2021
3688 Clear 16 1005 38 10000 5.14 30 17:49 27.04.2021
3689 Clear 16 1005 41 10000 5.14 50 17:25 27.04.2021
3690 Clear 16 1005 41 10000 5.66 20 16:47 27.04.2021
3691 Clouds 16 1005 45 10000 2.24 46 16:26 27.04.2021
3692 Clouds 16 1005 47 10000 2.68 59 15:50 27.04.2021
3693 Clouds 16 1005 47 10000 1.79 53 15:27 27.04.2021
3694 Clouds 16 1006 48 10000 1.79 57 14:56 27.04.2021
3695 Clouds 16 1006 46 10000 1.34 58 14:38 27.04.2021
3696 Clouds 16 1006 46 10000 1.34 32 14:18 27.04.2021
3697 Clouds 15 1006 50 10000 1.34 205 13:36 27.04.2021
3698 Clouds 14 1007 50 10000 2.24 30 12:51 27.04.2021
3699 Clouds 14 1011 44 10000 1.34 165 12:24 27.04.2021
3700 Clouds 13 1007 51 10000 1.79 40 11:55 27.04.2021
3701 Clouds 12 1012 49 10000 0.89 291 11:25 27.04.2021
3702 Clouds 11 1008 56 10000 0.89 209 10:45 27.04.2021
3703 Clouds 10 1008 57 10000 0.45 51 10:21 27.04.2021
3704 Clouds 8 1008 62 10000 4.72 80 09:44 27.04.2021
3705 Clouds 6 1008 69 10000 0.45 32 08:53 27.04.2021
3706 Clear 5 1008 74 10000 0.45 144 08:18 27.04.2021
3707 Clear 3 1009 76 10000 0.45 48 07:35 27.04.2021
3708 Clear 1 1009 86 10000 3.13 81 06:49 27.04.2021
3709 Clear 0 1008 86 10000 3.11 81 05:58 27.04.2021
3710 Clear 1 1009 85 10000 3.15 80 04:30 27.04.2021
3711 Clear 3 1010 73 10000 3 84 01:52 27.04.2021
3712 Clear 3 1011 52 10000 2.06 100 00:21 27.04.2021
3713 Clear 4 1011 56 10000 2.06 60 23:36 26.04.2021
3714 Clear 4 1011 56 10000 2.06 60 23:18 26.04.2021
3715 Clear 5 1012 52 10000 1.54 40 22:48 26.04.2021
3716 Clear 7 1012 40 10000 2.06 60 21:58 26.04.2021
3717 Clear 8 1012 40 10000 4.12 30 21:39 26.04.2021
3718 Clear 9 1012 40 10000 4.12 30 21:20 26.04.2021
3719 Clear 11 1011 32 10000 5.14 20 20:40 26.04.2021
3720 Clear 11 1011 32 10000 5.14 20 20:22 26.04.2021
3721 Clear 13 1011 28 10000 5.66 20 19:41 26.04.2021
3722 Clear 13 1011 28 10000 3.6 40 19:23 26.04.2021
3723 Clear 14 1011 26 10000 4.63 30 18:43 26.04.2021
3724 Clear 14 1012 26 10000 5.14 20 18:19 26.04.2021
3725 Clear 14 1012 28 10000 4.12 360 17:46 26.04.2021
3726 Clouds 15 1012 33 10000 0.89 70 17:21 26.04.2021
3727 Clouds 14 1012 33 10000 0.89 98 16:45 26.04.2021
3728 Clouds 15 1013 33 10000 1.34 191 16:25 26.04.2021
3729 Clouds 15 1013 35 10000 0.89 54 15:44 26.04.2021
3730 Clouds 15 1014 35 10000 1.34 289 15:21 26.04.2021
3731 Clouds 15 1014 39 10000 1.34 30 14:54 26.04.2021
3732 Clouds 14 1014 35 10000 1.34 69 14:34 26.04.2021
3733 Clouds 14 1015 41 10000 1.34 57 13:52 26.04.2021
3734 Clouds 14 1015 42 10000 0.89 16 13:28 26.04.2021
3735 Clouds 13 1015 44 10000 1.34 69 12:52 26.04.2021
3736 Clouds 12 1016 45 10000 1.79 338 11:55 26.04.2021
3737 Clouds 11 1016 45 10000 2.24 92 11:36 26.04.2021
3738 Clouds 10 1016 49 10000 0.89 31 10:50 26.04.2021
3739 Clouds 9 1016 52 10000 0.89 53 10:24 26.04.2021
3740 Clouds 8 1016 57 10000 0.45 88 09:48 26.04.2021
3741 Clouds 7 1015 58 10000 1.79 78 09:25 26.04.2021
3742 Clouds 6 1016 63 10000 0.89 42 08:55 26.04.2021
3743 Clouds 5 1016 69 10000 0.45 172 08:22 26.04.2021
3744 Clouds 4 1016 72 10000 0.89 57 07:53 26.04.2021
3745 Clouds 3 1016 74 10000 2.44 72 07:26 26.04.2021
3746 Clouds 2 1016 76 10000 0.45 42 06:38 26.04.2021
3747 Clouds 2 1017 78 10000 2.48 72 05:37 26.04.2021
3748 Clouds 2 1058 59 10000 0.45 89 04:37 26.04.2021
3749 Clear 3 1059 58 10000 2.94 79 03:22 26.04.2021
3750 Clear 4 1019 73 10000 2.97 45 01:19 26.04.2021
3751 Clear 4 1019 67 10000 3 45 00:44 26.04.2021
3752 Clear 5 1019 62 10000 3.19 48 23:48 25.04.2021
3753 Clouds 5 1019 59 10000 2.88 43 23:26 25.04.2021
3754 Clouds 6 1024 56 10000 2.88 43 22:56 25.04.2021
3755 Clouds 6 1024 52 10000 1.63 37 22:36 25.04.2021
3756 Clouds 6 1019 53 10000 1.61 37 22:18 25.04.2021
3757 Clouds 8 1020 37 10000 2.06 50 21:41 25.04.2021
3758 Clouds 9 1020 37 10000 2.57 40 21:23 25.04.2021
3759 Clouds 10 1019 37 10000 4.12 20 20:48 25.04.2021
3760 Clouds 11 1019 32 10000 5.14 20 20:26 25.04.2021
3761 Clouds 13 1019 22 10000 3.6 340 19:48 25.04.2021
3762 Clouds 14 1019 34 10000 0.45 43 19:28 25.04.2021
3763 Clouds 14 1019 26 10000 4.63 320 18:53 25.04.2021
3764 Clouds 15 1019 36 10000 0.89 69 18:29 25.04.2021
3765 Clouds 15 1019 33 10000 3.6 340 17:57 25.04.2021
3766 Clouds 15 1023 36 10000 1.34 294 17:39 25.04.2021
3767 Clouds 15 1019 39 10000 0.45 217 17:20 25.04.2021
3768 Clouds 16 1019 37 10000 1.34 248 16:41 25.04.2021
3769 Clouds 16 1019 36 10000 0.89 86 16:22 25.04.2021
3770 Clouds 15 1019 38 10000 0.89 275 15:27 25.04.2021
3771 Clouds 15 1019 44 10000 1.34 273 14:55 25.04.2021
3772 Clouds 15 1019 43 10000 1.34 38 14:55 25.04.2021
3773 Clouds 15 1020 46 10000 0.89 214 14:22 25.04.2021
3774 Clouds 15 1020 44 10000 0.89 232 13:52 25.04.2021
3775 Clouds 14 1020 48 10000 0.89 246 13:22 25.04.2021
3776 Clouds 14 1020 47 10000 0.45 107 12:49 25.04.2021
3777 Clouds 13 1020 51 10000 0.45 39 12:26 25.04.2021
3778 Clouds 13 1020 50 10000 0.89 284 11:53 25.04.2021
3779 Clouds 12 1019 52 10000 1.34 257 11:31 25.04.2021
3780 Clouds 12 1020 55 10000 2.57 349 10:49 25.04.2021
3781 Clouds 10 1020 59 10000 0.45 257 10:21 25.04.2021
3782 Clouds 9 1020 63 10000 0.45 279 09:47 25.04.2021
3783 Clouds 8 1020 65 10000 1.88 330 09:25 25.04.2021
3784 Clouds 6 1020 80 10000 1.68 326 08:23 25.04.2021
3785 Clouds 4 1020 85 10000 1.68 326 07:47 25.04.2021
3786 Clouds 3 1019 87 10000 1.28 329 07:19 25.04.2021
3787 Clouds 2 1019 86 10000 1.03 200 06:37 25.04.2021
3788 Clouds 3 1019 89 10000 1.4 331 05:29 25.04.2021
3789 Clouds 3 1019 88 10000 1.4 331 04:39 25.04.2021
3790 Clouds 5 1019 81 10000 1.13 297 01:46 25.04.2021
3791 Clouds 5 1019 78 10000 0.86 298 01:18 25.04.2021
3792 Clouds 6 1020 73 10000 0.73 300 00:24 25.04.2021
3793 Clouds 6 1020 72 10000 0.73 300 23:49 24.04.2021
3794 Clouds 7 1020 70 10000 0.79 311 23:25 24.04.2021
3795 Clouds 8 1020 64 10000 0.79 311 22:43 24.04.2021
3796 Clouds 9 1020 57 10000 0.68 304 21:56 24.04.2021
3797 Clouds 9 1020 43 10000 1.54 60 21:29 24.04.2021
3798 Clear 12 1020 35 10000 2.57 50 20:57 24.04.2021
3799 Clear 13 1020 33 10000 4.12 30 20:36 24.04.2021
3800 Clear 14 1020 33 10000 4.12 30 20:18 24.04.2021
3801 Clear 16 1020 25 10000 3.6 360 19:38 24.04.2021
3802 Clear 16 1020 25 10000 3.6 360 19:18 24.04.2021
3803 Clear 17 1020 25 10000 3.09 10 18:40 24.04.2021
3804 Clear 17 1020 25 10000 3.09 10 18:18 24.04.2021
3805 Clouds 18 1020 22 10000 3.09 290 17:31 24.04.2021
3806 Clouds 18 1020 23 10000 2.06 320 16:53 24.04.2021
3807 Clouds 18 1020 28 10000 0.45 38 16:33 24.04.2021
3808 Clouds 18 1021 25 10000 2.06 0 15:44 24.04.2021
3809 Clouds 17 1021 25 10000 2.06 0 15:25 24.04.2021
3810 Clouds 18 1021 31 10000 0.89 103 14:34 24.04.2021
3811 Clouds 17 1022 35 10000 0.45 205 13:56 24.04.2021
3812 Clouds 17 1022 35 10000 0.45 205 13:56 24.04.2021
3813 Clouds 17 1022 31 10000 0.45 73 13:37 24.04.2021
3814 Clouds 16 1022 33 10000 0.45 44 12:43 24.04.2021
3815 Clouds 15 1022 35 10000 0.45 52 12:18 24.04.2021
3816 Clouds 15 1023 38 10000 0.45 340 11:47 24.04.2021
3817 Clouds 14 1023 42 10000 0.45 193 11:18 24.04.2021
3818 Clouds 12 1023 44 10000 0.45 207 10:43 24.04.2021
3819 Clouds 11 1023 50 10000 1.03 35 09:58 24.04.2021
3820 Clouds 10 1023 53 10000 1.03 35 09:32 24.04.2021
3821 Clear 3 1023 86 10000 1.03 210 07:58 24.04.2021
3822 Clear 1 1023 89 10000 0.14 144 07:27 24.04.2021
3823 Clouds 1 1023 86 10000 0.95 159 05:21 24.04.2021
3824 Clear 3 1024 75 10000 1 111 01:34 24.04.2021
3825 Clear 5 1025 71 10000 1.35 108 23:48 23.04.2021
3826 Clear 7 1025 65 10000 1.3 86 22:49 23.04.2021
3827 Clear 7 1025 59 10000 1.35 91 22:21 23.04.2021
3828 Clear 8 1025 53 10000 0.51 0 21:49 23.04.2021
3829 Clear 9 1025 46 10000 1.03 50 21:28 23.04.2021
3830 Clear 11 1024 37 10000 1.03 10 20:43 23.04.2021
3831 Clear 11 1024 37 10000 1.03 10 20:43 23.04.2021
3832 Clear 11 1024 35 10000 3.6 20 20:24 23.04.2021
3833 Clear 13 1024 35 10000 3.09 350 19:58 23.04.2021
3834 Clear 13 1024 30 10000 2.57 10 19:35 23.04.2021
3835 Clear 14 1024 30 10000 3.09 340 18:59 23.04.2021
3836 Clear 14 1024 26 10000 3.09 340 18:37 23.04.2021
3837 Clear 14 1024 26 10000 3.09 350 17:59 23.04.2021
3838 Clear 15 1024 26 10000 3.09 350 17:39 23.04.2021
3839 Clear 15 1024 28 10000 2.57 350 17:20 23.04.2021
3840 Clear 15 1025 26 10000 3.6 10 16:46 23.04.2021
3841 Clear 15 1025 24 10000 3.09 30 16:25 23.04.2021
3842 Clear 15 1025 26 10000 2.57 340 15:42 23.04.2021
3843 Clear 15 1025 32 10000 0.89 219 14:51 23.04.2021
3844 Clear 13 1025 35 10000 0.89 67 13:43 23.04.2021
3845 Clear 13 1025 35 10000 0.45 63 13:23 23.04.2021
3846 Clear 12 1025 45 10000 1.81 5 12:35 23.04.2021
3847 Clear 12 1025 46 10000 0.89 29 11:55 23.04.2021
3848 Clear 11 1026 47 10000 0.45 14 11:35 23.04.2021
3849 Clear 11 1026 47 10000 0.45 182 10:57 23.04.2021
3850 Clear 11 1026 49 10000 0.45 109 10:38 23.04.2021
3851 Clear 10 1026 51 10000 0.68 358 10:18 23.04.2021
3852 Clear 7 1025 68 10000 0.15 227 09:28 23.04.2021
3853 Clear 6 1025 82 10000 0.15 227 08:45 23.04.2021
3854 Clear 0 1024 80 10000 1.03 0 07:51 23.04.2021
3855 Clear 0 1025 91 10000 0.77 193 07:22 23.04.2021
3856 Clear -1 1024 90 10000 0.67 193 06:27 23.04.2021
3857 Clear 0 1024 87 10000 0.5 186 04:22 23.04.2021
3858 Clear 0 1024 86 10000 0.39 186 02:50 23.04.2021
3859 Clouds 3 1024 78 10000 0.66 313 00:35 23.04.2021
3860 Clouds 4 1023 67 10000 1.09 317 23:26 22.04.2021
3861 Clouds 4 1023 59 10000 1.09 317 22:40 22.04.2021
3862 Clouds 4 1022 62 10000 1.63 312 22:19 22.04.2021
3863 Clear 6 1022 42 10000 1.03 0 21:45 22.04.2021
3864 Clear 7 1022 34 10000 1.54 310 21:26 22.04.2021
3865 Clear 8 1021 31 10000 2.57 320 20:55 22.04.2021
3866 Clear 10 1021 27 10000 3.09 330 20:29 22.04.2021
3867 Clouds 11 1021 25 10000 4.63 340 19:54 22.04.2021
3868 Clouds 11 1021 25 10000 4.63 340 19:35 22.04.2021
3869 Clear 12 1020 32 10000 5.66 340 18:53 22.04.2021
3870 Clouds 13 1020 38 10000 4.63 340 18:22 22.04.2021
3871 Clouds 13 1020 43 10000 4.12 330 17:54 22.04.2021
3872 Clouds 13 1020 47 10000 5.66 340 17:22 22.04.2021
3873 Clouds 13 1020 50 10000 4.63 320 16:56 22.04.2021
3874 Clouds 13 1020 50 10000 5.14 310 16:37 22.04.2021
3875 Clouds 13 1020 50 10000 5.14 310 16:18 22.04.2021
3876 Clouds 12 1020 58 10000 5.14 310 15:40 22.04.2021
3877 Clouds 12 1020 54 10000 6.17 310 15:19 22.04.2021
3878 Clouds 12 1020 58 10000 5.66 330 14:41 22.04.2021
3879 Clouds 12 1020 58 10000 5.66 330 14:20 22.04.2021
3880 Clouds 12 1020 66 10000 4.63 330 13:40 22.04.2021
3881 Clouds 12 1020 66 10000 4.63 330 13:20 22.04.2021
3882 Clouds 12 1018 66 10000 1.34 316 12:45 22.04.2021
3883 Clouds 11 1020 66 10000 2.06 310 12:22 22.04.2021
3884 Clouds 11 1020 66 10000 1.54 0 11:47 22.04.2021
3885 Clouds 12 1024 66 10000 0.45 311 11:23 22.04.2021
3886 Clouds 11 1019 74 10000 0.89 211 10:46 22.04.2021
3887 Clouds 11 1019 75 10000 0.45 268 10:24 22.04.2021
3888 Clouds 10 1019 80 10000 0.45 259 09:49 22.04.2021
3889 Clouds 10 1019 82 10000 0.45 263 09:30 22.04.2021
3890 Clouds 8 1018 88 10000 0.45 234 08:41 22.04.2021
3891 Clouds 7 1018 89 10000 0.45 212 08:22 22.04.2021
3892 Clouds 7 1018 90 10000 0.45 133 07:46 22.04.2021
3893 Clouds 6 1018 92 10000 2.1 272 07:24 22.04.2021
3894 Clouds 6 1017 92 10000 2.09 272 06:40 22.04.2021
3895 Clouds 6 1017 81 10000 4.63 270 05:50 22.04.2021
3896 Clouds 6 1017 81 10000 2.06 200 05:20 22.04.2021
3897 Clouds 6 1017 91 10000 2.21 244 01:41 22.04.2021
3898 Clouds 7 1016 86 10000 2.17 230 23:54 21.04.2021
3899 Clouds 7 1016 84 10000 2.17 230 23:35 21.04.2021
3900 Clouds 8 1016 78 10000 2.05 223 22:45 21.04.2021
3901 Clouds 9 1016 74 10000 1.42 226 22:25 21.04.2021
3902 Clouds 10 1016 71 10000 2.06 170 21:57 21.04.2021
3903 Clouds 9 1016 71 10000 2.06 170 21:38 21.04.2021
3904 Clouds 10 1015 66 10000 2.57 180 21:18 21.04.2021
3905 Clouds 12 1015 50 10000 3.09 20 20:24 21.04.2021
3906 Clouds 14 1015 50 10000 3.6 50 19:46 21.04.2021
3907 Clouds 14 1014 61 10000 0.89 46 19:27 21.04.2021
3908 Clouds 14 1014 59 10000 1.34 146 18:51 21.04.2021
3909 Clouds 15 1014 56 10000 1.34 195 18:33 21.04.2021
3910 Clouds 16 1014 52 10000 0.89 86 17:58 21.04.2021
3911 Clouds 16 1014 53 10000 0.89 78 17:39 21.04.2021
3912 Clouds 16 1014 51 10000 0.89 90 17:20 21.04.2021
3913 Clouds 17 1014 44 10000 0.45 38 16:38 21.04.2021
3914 Clouds 17 1014 40 10000 0.89 183 15:47 21.04.2021
3915 Clouds 16 1014 41 10000 0.45 145 15:21 21.04.2021
3916 Clouds 16 1015 44 10000 0.45 210 14:44 21.04.2021
3917 Clear 16 1015 43 10000 0.45 188 14:24 21.04.2021
3918 Clear 15 1015 41 10000 0.89 301 13:50 21.04.2021
3919 Clear 16 1015 47 10000 0.45 146 13:22 21.04.2021
3920 Clear 15 1015 50 10000 0.45 115 12:46 21.04.2021
3921 Clear 14 1016 49 10000 0.45 147 12:20 21.04.2021
3922 Clear 15 1016 53 10000 0.45 250 11:43 21.04.2021
3923 Clear 14 1016 53 10000 0.45 325 11:23 21.04.2021
3924 Clear 12 1016 62 10000 0.55 5 10:39 21.04.2021
3925 Clear 11 1016 69 10000 0.52 223 09:57 21.04.2021
3926 Clear 8 1016 77 10000 1.08 213 09:26 21.04.2021
3927 Clear 7 1015 86 10000 1.09 213 08:50 21.04.2021
3928 Clear 5 1015 91 10000 1.3 208 08:24 21.04.2021
3929 Clear 4 1015 94 10000 1.26 209 07:54 21.04.2021
3930 Clear 3 1015 95 10000 1.63 207 07:28 21.04.2021
3931 Clear 1 1015 94 10000 1.69 203 06:22 21.04.2021
3932 Clear 3 1015 93 10000 1.64 204 02:28 21.04.2021
3933 Clear 5 1016 91 10000 1.43 178 00:28 21.04.2021
3934 Clear 5 1016 90 10000 1.43 178 23:41 20.04.2021
3935 Clear 7 1016 89 10000 1.46 160 22:50 20.04.2021
3936 Clear 8 1016 87 10000 1.47 143 22:24 20.04.2021
3937 Clear 8 1020 78 10000 1.47 143 21:59 20.04.2021
3938 Clear 8 1020 76 10000 1.47 143 21:41 20.04.2021
3939 Clear 9 1016 82 10000 1.23 118 21:22 20.04.2021
3940 Clear 9 1015 71 10000 1.54 20 20:41 20.04.2021
3941 Clouds 10 1015 62 10000 1.54 20 20:21 20.04.2021
3942 Clouds 11 1015 66 10000 2.06 330 19:51 20.04.2021
3943 Clouds 12 1015 67 10000 1.44 82 19:33 20.04.2021
3944 Clouds 12 1015 63 10000 0.45 49 18:50 20.04.2021
3945 Clouds 12 1015 65 10000 0.45 58 18:31 20.04.2021
3946 Clouds 13 1015 60 10000 0.45 38 17:43 20.04.2021
3947 Clouds 12 1015 59 10000 0.45 14 16:57 20.04.2021
3948 Clouds 13 1015 60 10000 0.45 273 16:36 20.04.2021
3949 Clouds 13 1015 65 10000 0.89 171 15:42 20.04.2021
3950 Clouds 12 1016 64 10000 0.89 202 15:23 20.04.2021
3951 Clouds 12 1016 70 10000 0.45 271 14:52 20.04.2021
3952 Clouds 11 1016 74 10000 0.89 163 14:27 20.04.2021
3953 Clouds 10 1017 77 10000 0.48 249 13:31 20.04.2021
3954 Clouds 9 1017 85 10000 0.49 249 12:55 20.04.2021
3955 Rain 9 1017 87 10000 0.49 249 12:31 20.04.2021
3956 Rain 9 1017 88 10000 0.81 272 11:58 20.04.2021
3957 Rain 8 1017 89 10000 0.81 272 11:38 20.04.2021
3958 Rain 8 1017 88 10000 0.45 214 11:19 20.04.2021
3959 Clouds 8 1017 92 10000 1.25 265 10:42 20.04.2021
3960 Clouds 7 1017 94 10000 1.66 254 10:20 20.04.2021
3961 Clouds 6 1017 95 10000 1.78 250 09:20 20.04.2021
3962 Clouds 6 1017 96 10000 1.78 249 08:54 20.04.2021
3963 Clouds 6 1017 96 10000 1.68 247 08:19 20.04.2021
3964 Clouds 5 1017 96 10000 1.69 249 07:35 20.04.2021
3965 Clouds 5 1016 96 10000 1.66 249 06:35 20.04.2021
3966 Rain 5 1016 96 10000 1.76 253 05:37 20.04.2021
3967 Clouds 5 1017 96 10000 1.82 251 04:41 20.04.2021
3968 Rain 5 1017 95 10000 1.77 245 00:53 20.04.2021
3969 Rain 5 1017 94 10000 1.63 251 00:27 20.04.2021
3970 Rain 5 1017 94 10000 1.63 251 00:27 20.04.2021
3971 Rain 6 1017 94 10000 1.63 251 23:33 19.04.2021
3972 Rain 6 1017 94 10000 1.13 263 22:51 19.04.2021
3973 Rain 6 1017 94 10000 0.9 307 22:29 19.04.2021
3974 Rain 6 1018 94 10000 0.9 307 21:47 19.04.2021
3975 Rain 6 1018 94 10000 1.5 344 21:25 19.04.2021
3976 Clouds 6 1017 94 10000 1.5 344 20:43 19.04.2021
3977 Clouds 6 1017 93 10000 2.06 357 20:22 19.04.2021
3978 Clouds 6 1017 92 10000 0.45 225 19:54 19.04.2021
3979 Clouds 6 1017 93 10000 1.8 8 19:36 19.04.2021
3980 Clouds 6 1017 92 10000 2.12 2 19:18 19.04.2021
3981 Clouds 6 1017 93 10000 2.12 2 18:44 19.04.2021
3982 Rain 6 1017 93 10000 0.45 247 18:21 19.04.2021
3983 Rain 6 1017 92 10000 0.45 171 17:46 19.04.2021
3984 Rain 7 1017 91 10000 2.37 19 17:26 19.04.2021
3985 Rain 8 1017 82 10000 1.79 84 16:45 19.04.2021
3986 Rain 10 1017 78 10000 1.34 29 16:26 19.04.2021
3987 Clouds 9 1017 77 10000 1.34 244 15:44 19.04.2021
3988 Clouds 10 1017 66 10000 0.45 161 15:24 19.04.2021
3989 Clouds 10 1017 59 10000 0.45 169 14:52 19.04.2021
3990 Clouds 10 1017 61 10000 1.9 10 14:33 19.04.2021
3991 Clouds 10 1017 62 10000 0.45 243 13:53 19.04.2021
3992 Clouds 10 1017 64 10000 0.45 240 13:29 19.04.2021
3993 Clouds 10 1017 62 10000 0.45 5 12:49 19.04.2021
3994 Clouds 9 1018 60 10000 1.34 252 12:29 19.04.2021
3995 Clouds 9 1018 69 10000 0.45 154 11:59 19.04.2021
3996 Clouds 9 1018 68 10000 0.45 73 11:39 19.04.2021
3997 Clouds 8 1018 72 10000 0.45 103 11:19 19.04.2021
3998 Clouds 8 1018 73 10000 0.45 82 10:43 19.04.2021
3999 Clouds 8 1018 75 10000 1.86 278 10:19 19.04.2021
4000 Clouds 7 1018 77 10000 0.45 296 09:43 19.04.2021
4001 Clouds 6 1018 79 10000 0.45 232 09:24 19.04.2021
4002 Clouds 4 1018 88 10000 0.45 229 08:37 19.04.2021
4003 Clouds 3 1018 91 10000 1.63 246 07:50 19.04.2021
4004 Clouds 3 1018 91 10000 1.61 234 07:24 19.04.2021
4005 Clouds 3 1018 91 10000 1.61 234 06:52 19.04.2021
4006 Clouds 2 1018 91 10000 1.74 234 04:47 19.04.2021
4007 Clouds 2 1019 92 10000 1.48 259 01:49 19.04.2021
4008 Clouds 3 1019 88 10000 1.46 255 00:42 19.04.2021
4009 Clouds 4 1019 87 10000 1.46 266 23:21 18.04.2021
4010 Clouds 4 1019 86 10000 1.47 266 22:58 18.04.2021
4011 Clouds 4 1019 86 10000 1.47 266 22:34 18.04.2021
4012 Clouds 4 1019 86 10000 1.31 260 21:56 18.04.2021
4013 Clouds 4 1019 85 10000 1.13 263 21:28 18.04.2021
4014 Clouds 5 1019 79 10000 1.12 263 20:55 18.04.2021
4015 Clouds 5 1019 77 10000 1.13 263 20:37 18.04.2021
4016 Clouds 6 1019 76 10000 1.18 299 20:18 18.04.2021
4017 Clouds 6 1018 75 10000 0.51 0 19:39 18.04.2021
4018 Clouds 7 1018 72 10000 1.23 320 19:19 18.04.2021
4019 Clouds 7 1018 73 10000 1.22 319 18:45 18.04.2021
4020 Clouds 7 1018 72 10000 0.45 282 18:25 18.04.2021
4021 Clouds 7 1018 72 10000 0.45 212 17:47 18.04.2021
4022 Clouds 7 1018 72 10000 0.45 67 17:28 18.04.2021
4023 Clouds 7 1018 76 10000 1.76 351 16:52 18.04.2021
4024 Clouds 7 1018 75 10000 0.45 93 16:34 18.04.2021
4025 Clouds 7 1018 73 10000 1.9 351 15:51 18.04.2021
4026 Clouds 7 1018 74 10000 1.83 344 15:28 18.04.2021
4027 Clouds 7 1018 77 10000 1.84 344 14:54 18.04.2021
4028 Clouds 6 1018 78 10000 1.83 344 14:36 18.04.2021
4029 Clouds 6 1018 78 10000 1.7 340 14:18 18.04.2021
4030 Clouds 6 1018 80 10000 0.45 261 13:38 18.04.2021
4031 Clouds 6 1018 80 10000 1.49 337 13:19 18.04.2021
4032 Clouds 5 1018 84 10000 1.49 336 12:35 18.04.2021
4033 Clouds 5 1018 87 10000 1.05 338 11:51 18.04.2021
4034 Clouds 5 1018 87 6376 0.89 334 11:26 18.04.2021
4035 Clouds 4 1018 89 6309 0.89 334 10:51 18.04.2021
4036 Clouds 4 1018 89 6322 0.89 334 10:32 18.04.2021
4037 Rain 4 1018 91 1234 0.98 338 09:58 18.04.2021
4038 Rain 3 1018 91 1234 0.98 338 09:39 18.04.2021
4039 Clouds 3 1018 92 296 1.07 343 09:19 18.04.2021
4040 Rain 3 1018 92 1652 1.02 333 08:40 18.04.2021
4041 Clouds 3 1018 92 298 1.04 343 08:19 18.04.2021
4042 Clouds 3 1018 92 298 1.04 343 07:39 18.04.2021
4043 Rain 3 1018 90 1292 1.06 2 05:48 18.04.2021
4044 Rain 3 1018 90 3195 1.24 2 05:26 18.04.2021
4045 Rain 3 1018 87 10000 1.45 359 03:37 18.04.2021
4046 Rain 4 1018 84 10000 1.4 7 02:22 18.04.2021
4047 Rain 4 1019 80 10000 1.46 15 00:41 18.04.2021
4048 Rain 5 1019 80 10000 1.57 20 23:46 17.04.2021
4049 Clouds 5 1019 80 10000 1.7 22 23:18 17.04.2021
4050 Clouds 5 1019 79 10000 0.45 64 22:41 17.04.2021
4051 Clouds 5 1019 78 10000 1.74 18 22:20 17.04.2021
4052 Clouds 5 1019 73 10000 1.73 18 21:41 17.04.2021
4053 Clouds 6 1019 73 10000 1.85 15 21:21 17.04.2021
4054 Clouds 6 1019 72 10000 1.75 18 20:28 17.04.2021
4055 Clouds 6 1018 69 10000 1.75 18 19:46 17.04.2021
4056 Clouds 6 1018 69 10000 1.75 18 19:46 17.04.2021
4057 Clouds 6 1018 68 10000 1.76 20 19:23 17.04.2021
4058 Clouds 6 1018 69 10000 1.76 20 18:59 17.04.2021
4059 Clouds 7 1018 69 10000 1.76 20 18:40 17.04.2021
4060 Clouds 7 1018 68 10000 0.45 56 18:20 17.04.2021
4061 Clouds 7 1018 68 10000 0.45 104 17:41 17.04.2021
4062 Clouds 7 1018 69 10000 1.35 20 16:56 17.04.2021
4063 Clouds 7 1018 68 10000 0.45 101 16:34 17.04.2021
4064 Clouds 6 1019 71 10000 1.55 27 15:58 17.04.2021
4065 Clouds 6 1019 70 10000 0.45 132 14:51 17.04.2021
4066 Clouds 7 1019 68 10000 0.45 68 14:33 17.04.2021
4067 Clouds 7 1019 67 10000 2.34 14 13:59 17.04.2021
4068 Clouds 6 1019 70 10000 0.45 51 13:40 17.04.2021
4069 Clouds 6 1020 70 10000 0.45 61 12:42 17.04.2021
4070 Clouds 5 1020 71 10000 2.28 9 12:22 17.04.2021
4071 Clouds 5 1020 77 10000 0.45 65 11:50 17.04.2021
4072 Clouds 4 1020 80 10000 0.45 272 11:31 17.04.2021
4073 Rain 4 1020 87 10000 0.45 65 10:48 17.04.2021
4074 Rain 3 1020 89 10000 1.71 360 10:29 17.04.2021
4075 Rain 3 1020 86 10000 1.71 360 09:45 17.04.2021
4076 Snow 2 1020 88 10000 1.12 340 08:46 17.04.2021
4077 Snow 1 1020 87 10000 0.71 291 08:26 17.04.2021
4078 Snow 0 1020 89 10000 0.71 291 07:42 17.04.2021
4079 Clear -1 1020 88 10000 0.47 286 04:51 17.04.2021
4080 Clear -1 1020 87 10000 0.25 341 03:40 17.04.2021
4081 Clear 0 1022 86 10000 0.57 71 00:55 17.04.2021
4082 Clear 0 1022 84 10000 0.8 47 00:30 17.04.2021
4083 Clear 0 1022 83 10000 0.8 47 23:55 16.04.2021
4084 Clear 0 1022 81 10000 0.82 47 23:33 16.04.2021
4085 Clear 1 1026 77 10000 1.22 30 22:51 16.04.2021
4086 Clear 2 1022 64 10000 1.65 23 22:23 16.04.2021
4087 Clear 3 1022 64 10000 2.57 30 21:56 16.04.2021
4088 Clear 3 1021 64 10000 3.09 20 21:38 16.04.2021
4089 Clear 2 1021 60 10000 4.12 20 20:55 16.04.2021
4090 Clear 5 1021 60 10000 5.14 10 20:35 16.04.2021
4091 Clouds 5 1021 64 10000 0.89 88 19:58 16.04.2021
4092 Clear 6 1021 52 10000 5.14 360 19:40 16.04.2021
4093 Clouds 6 1020 58 10000 1.34 44 18:49 16.04.2021
4094 Clouds 7 1020 58 10000 0.89 57 18:23 16.04.2021
4095 Clouds 7 1020 53 10000 1.79 95 17:48 16.04.2021
4096 Clouds 7 1020 52 10000 0.89 138 17:19 16.04.2021
4097 Clouds 7 1020 52 10000 0.45 57 16:44 16.04.2021
4098 Clouds 7 1021 52 10000 0.89 35 16:26 16.04.2021
4099 Clouds 8 1021 53 10000 0.89 109 15:54 16.04.2021
4100 Clouds 8 1021 53 10000 0.45 51 15:29 16.04.2021
4101 Clouds 8 1021 52 10000 0.89 38 14:43 16.04.2021
4102 Clouds 7 1021 54 10000 1.34 85 14:23 16.04.2021
4103 Clouds 7 1021 53 10000 0.89 92 13:55 16.04.2021
4104 Clouds 7 1021 55 10000 0.89 268 13:22 16.04.2021
4105 Clouds 6 1022 59 10000 0.45 219 12:53 16.04.2021
4106 Clouds 6 1022 58 10000 0.89 173 12:34 16.04.2021
4107 Clouds 6 1022 57 10000 0.45 84 11:59 16.04.2021
4108 Clouds 6 1022 60 10000 2.29 28 11:39 16.04.2021
4109 Clouds 5 1022 55 10000 0.45 238 11:20 16.04.2021
4110 Clouds 5 1022 64 10000 1.95 29 10:41 16.04.2021
4111 Clouds 3 1022 67 10000 0.45 26 10:20 16.04.2021
4112 Clouds 2 1022 74 10000 1.74 30 09:44 16.04.2021
4113 Clouds 2 1022 77 10000 1.31 23 09:21 16.04.2021
4114 Clouds 0 1022 88 10000 1.31 23 08:44 16.04.2021
4115 Clouds -1 1022 89 10000 0.56 1 08:19 16.04.2021
4116 Clouds -2 1022 91 10000 0.58 1 07:42 16.04.2021
4117 Clouds -3 1022 91 10000 0.33 334 07:18 16.04.2021
4118 Clouds -3 1022 91 10000 0.35 336 06:39 16.04.2021
4119 Clouds -3 1022 89 10000 0.34 348 05:32 16.04.2021
4120 Clouds -1 1023 87 10000 0.79 43 01:41 16.04.2021
4121 Clouds 0 1023 87 10000 1.13 53 00:44 16.04.2021
4122 Clouds 0 1023 85 10000 1.27 48 00:21 16.04.2021
4123 Clouds 0 1023 83 10000 1.27 48 23:52 15.04.2021
4124 Clouds 0 1023 83 10000 1.28 48 23:32 15.04.2021
4125 Clouds 0 1023 64 10000 1.76 45 22:50 15.04.2021
4126 Clouds 0 1023 82 10000 2.23 39 22:23 15.04.2021
4127 Clouds 2 1023 76 10000 2.19 39 21:44 15.04.2021
4128 Clouds 2 1023 74 10000 1.83 24 21:26 15.04.2021
4129 Clouds 3 1023 69 10000 1.86 24 20:56 15.04.2021
4130 Clouds 3 1023 65 10000 1.89 23 20:36 15.04.2021
4131 Clouds 4 1023 63 10000 1.88 24 20:18 15.04.2021
4132 Clouds 6 1022 61 10000 0.45 53 19:41 15.04.2021
4133 Clouds 5 1023 61 10000 0.89 38 19:21 15.04.2021
4134 Clouds 5 1023 59 10000 0.89 67 18:41 15.04.2021
4135 Clouds 6 1023 52 10000 0.45 86 18:19 15.04.2021
4136 Clouds 6 1023 55 10000 4.47 22 17:54 15.04.2021
4137 Clouds 6 1023 58 10000 1.34 55 17:31 15.04.2021
4138 Clouds 6 1023 52 10000 0.45 119 16:44 15.04.2021
4139 Clouds 7 1023 51 10000 0.45 100 16:25 15.04.2021
4140 Clouds 7 1023 54 10000 1.34 30 15:51 15.04.2021
4141 Clouds 7 1023 57 10000 0.45 59 15:28 15.04.2021
4142 Clouds 8 1024 50 10000 0.89 284 14:45 15.04.2021
4143 Clouds 8 1024 48 10000 1.34 219 14:27 15.04.2021
4144 Clouds 7 1024 50 10000 1.34 213 13:57 15.04.2021
4145 Rain 6 1024 61 10000 0.89 118 13:39 15.04.2021
4146 Rain 6 1024 50 10000 0.45 281 12:54 15.04.2021
4147 Clouds 5 1024 52 10000 0.89 248 12:28 15.04.2021
4148 Clouds 6 1024 55 10000 0.89 73 11:59 15.04.2021
4149 Clouds 5 1024 57 10000 0.89 61 11:39 15.04.2021
4150 Clouds 5 1024 60 10000 0.45 131 11:21 15.04.2021
4151 Clouds 4 1024 72 10000 2.54 33 10:46 15.04.2021
4152 Clouds 4 1024 71 10000 0.45 236 10:26 15.04.2021
4153 Clouds 2 1024 78 10000 1.52 46 09:35 15.04.2021
4154 Clouds 1 1024 86 10000 1.52 46 08:54 15.04.2021
4155 Clouds 1 1024 86 10000 1.52 46 08:54 15.04.2021
4156 Clouds 1 1024 91 10000 1.81 38 08:36 15.04.2021
4157 Clouds -1 1024 95 10000 1.12 45 07:48 15.04.2021
4158 Clouds -2 1024 95 10000 1.07 43 07:22 15.04.2021
4159 Clouds -2 1024 94 10000 1.07 43 06:38 15.04.2021
4160 Clouds -2 1024 94 10000 1.02 46 06:20 15.04.2021
4161 Clouds -1 1024 94 10000 0.78 62 04:49 15.04.2021
4162 Clouds 1 1024 91 10000 1.39 64 00:24 15.04.2021
4163 Clouds 2 1025 89 10000 1.67 46 23:37 14.04.2021
4164 Clouds 2 1025 89 10000 1.67 46 23:19 14.04.2021
4165 Clouds 2 1025 89 10000 1.67 46 22:43 14.04.2021
4166 Clouds 2 1025 89 10000 1.82 23 22:23 14.04.2021
4167 Clouds 2 1025 89 10000 1.84 23 21:43 14.04.2021
4168 Clouds 3 1025 87 10000 0.45 186 21:23 14.04.2021
4169 Clouds 3 1025 84 10000 0.45 175 20:56 14.04.2021
4170 Clouds 3 1025 80 10000 0.45 215 20:33 14.04.2021
4171 Clouds 3 1024 76 10000 2.54 38 19:51 14.04.2021
4172 Clouds 4 1024 76 10000 3.32 31 19:20 14.04.2021
4173 Clouds 4 1024 75 10000 3.32 31 18:56 14.04.2021
4174 Clouds 6 1024 73 10000 3.66 25 18:22 14.04.2021
4175 Clouds 6 1024 76 10000 0.45 175 17:58 14.04.2021
4176 Clouds 6 1024 73 10000 3.36 24 17:25 14.04.2021
4177 Clouds 6 1076 41 10000 0.89 282 16:54 14.04.2021
4178 Rain 6 1074 49 10000 0.89 285 16:26 14.04.2021
4179 Rain 6 1024 62 10000 1.34 205 15:44 14.04.2021
4180 Rain 7 1024 55 10000 0.89 306 15:26 14.04.2021
4181 Clouds 7 1025 55 10000 0.89 270 14:51 14.04.2021
4182 Clouds 7 1025 57 10000 0.89 303 14:27 14.04.2021
4183 Clouds 6 1025 63 10000 0.45 22 13:59 14.04.2021
4184 Rain 5 1025 66 10000 0.89 180 13:37 14.04.2021
4185 Clouds 5 1025 70 10000 0.89 242 12:40 14.04.2021
4186 Clouds 4 1026 77 10000 2.62 38 12:18 14.04.2021
4187 Clouds 5 1026 61 10000 0.89 169 11:39 14.04.2021
4188 Clouds 5 1026 61 10000 0.89 169 11:21 14.04.2021
4189 Clouds 4 1026 70 10000 0.89 53 10:34 14.04.2021
4190 Clouds 3 1026 74 10000 1.71 44 09:43 14.04.2021
4191 Clouds 2 1026 90 10000 0.8 41 09:23 14.04.2021
4192 Clouds 1 1026 94 10000 0.81 41 08:48 14.04.2021
4193 Clouds 0 1026 95 10000 0.1 290 08:23 14.04.2021
4194 Clouds -2 1026 95 10000 0.83 251 07:28 14.04.2021
4195 Clouds -2 1026 95 10000 1.1 256 06:28 14.04.2021
4196 Clouds -2 1026 94 10000 1.1 256 05:31 14.04.2021
4197 Clouds -1 1027 94 10000 1.23 262 02:27 14.04.2021
4198 Clouds 0 1028 93 10000 1.24 260 00:50 14.04.2021
4199 Clouds 0 1028 93 10000 1.33 262 00:32 14.04.2021
4200 Clouds 1 1028 92 10000 1.24 275 23:34 13.04.2021
4201 Clouds 1 1028 92 10000 1.24 275 22:44 13.04.2021
4202 Clouds 2 1028 91 10000 0.45 225 22:22 13.04.2021
4203 Clouds 2 1028 91 10000 1.11 294 21:49 13.04.2021
4204 Clouds 2 1027 90 10000 1.08 321 21:31 13.04.2021
4205 Clouds 2 1027 88 10000 1.08 321 20:51 13.04.2021
4206 Clouds 2 1027 87 10000 1.66 345 20:25 13.04.2021
4207 Clouds 3 1026 85 10000 1.67 345 19:59 13.04.2021
4208 Rain 3 1027 84 10000 2.03 3 19:26 13.04.2021
4209 Rain 3 1026 84 10000 2.03 3 18:57 13.04.2021
4210 Rain 4 1030 78 10000 0.45 172 18:32 13.04.2021
4211 Rain 5 1026 72 10000 1.99 19 17:41 13.04.2021
4212 Rain 5 1026 78 10000 0.89 67 17:22 13.04.2021
4213 Rain 4 1026 76 10000 1.34 300 16:55 13.04.2021
4214 Rain 5 1026 71 10000 1.34 250 16:37 13.04.2021
4215 Clouds 5 1026 61 10000 0.45 294 16:18 13.04.2021
4216 Clouds 5 1026 58 10000 0.45 240 15:39 13.04.2021
4217 Rain 4 1027 68 10000 1.34 205 14:59 13.04.2021
4218 Clouds 5 1027 63 10000 0.45 257 14:37 13.04.2021
4219 Clouds 5 1027 65 10000 0.89 316 14:18 13.04.2021
4220 Clouds 5 1027 73 10000 0.89 211 13:40 13.04.2021
4221 Clouds 5 1027 73 10000 0.45 261 13:22 13.04.2021
4222 Clouds 4 1027 80 10000 0.45 246 12:52 13.04.2021
4223 Clouds 4 1027 84 10000 2.46 353 12:23 13.04.2021
4224 Clouds 3 1028 87 10000 2.46 353 11:48 13.04.2021
4225 Clouds 3 1028 90 10000 2.35 342 11:28 13.04.2021
4226 Clouds 2 1027 95 10000 2.35 342 10:44 13.04.2021
4227 Clouds 2 1027 95 10000 1.9 317 10:20 13.04.2021
4228 Clouds 2 1027 95 10000 1.91 318 09:52 13.04.2021
4229 Clouds 1 1027 95 10000 1.48 276 09:27 13.04.2021
4230 Clouds 1 1027 96 10000 1.72 264 08:51 13.04.2021
4231 Clouds 1 1027 95 10000 1.62 237 08:25 13.04.2021
4232 Clouds 0 1027 95 10000 1.61 237 07:52 13.04.2021
4233 Clouds 0 1027 95 10000 1.53 211 07:32 13.04.2021
4234 Clouds 0 1027 95 10000 1.59 195 06:28 13.04.2021
4235 Snow 0 1027 94 10000 1.76 202 04:27 13.04.2021
4236 Snow 0 1027 93 10000 2.21 208 01:37 13.04.2021
4237 Snow 1 1027 94 10000 2.56 218 23:59 12.04.2021
4238 Clouds 1 1028 94 10000 2.56 218 23:39 12.04.2021
4239 Clouds 0 1027 94 10000 2.68 221 23:18 12.04.2021
4240 Snow 0 1028 94 10000 2.68 221 22:38 12.04.2021
4241 Snow 1 1028 94 10000 0.45 254 21:56 12.04.2021
4242 Snow 1 1028 94 10000 0.45 230 21:36 12.04.2021
4243 Snow 1 1028 94 10000 0.45 231 21:18 12.04.2021
4244 Snow 1 1027 94 10000 0.45 225 20:38 12.04.2021
4245 Snow 1 1027 94 10000 0.45 243 20:20 12.04.2021
4246 Snow 1 1027 94 10000 0.45 271 20:20 12.04.2021
4247 Snow 1 1027 94 10000 2.23 262 19:43 12.04.2021
4248 Snow 1 1027 93 10000 0.45 267 19:22 12.04.2021
4249 Snow 1 1027 93 10000 0.89 276 18:56 12.04.2021
4250 Snow 1 1027 92 9445 0.45 268 18:37 12.04.2021
4251 Snow 1 1026 93 9442 0.45 273 18:18 12.04.2021
4252 Snow 2 1026 92 9442 0.45 254 17:42 12.04.2021
4253 Rain 2 1026 92 2355 0.45 268 17:21 12.04.2021
4254 Rain 2 1026 92 2333 0.89 277 16:44 12.04.2021
4255 Rain 2 1025 91 840 0.89 313 16:26 12.04.2021
4256 Rain 2 1025 92 839 0.45 264 15:48 12.04.2021
4257 Rain 2 1025 92 904 0.89 252 15:25 12.04.2021
4258 Rain 3 1025 92 939 0.89 303 14:50 12.04.2021
4259 Rain 2 1025 92 43 0.45 273 14:29 12.04.2021
4260 Rain 2 1024 92 43 0.45 220 13:46 12.04.2021
4261 Rain 2 1024 92 27 0.89 263 13:26 12.04.2021
4262 Rain 2 1024 93 27 0.89 287 12:45 12.04.2021
4263 Rain 2 1024 94 23 0.89 269 12:24 12.04.2021
4264 Rain 2 1023 94 23 0.89 267 12:24 12.04.2021
4265 Rain 2 1023 95 23 0.89 309 11:56 12.04.2021
4266 Rain 2 1023 94 23 1.34 285 11:20 12.04.2021
4267 Snow 1 1022 94 23 1.34 277 10:43 12.04.2021
4268 Snow 1 1022 94 22 1.34 232 10:23 12.04.2021
4269 Snow 1 1021 93 22 0.89 271 09:46 12.04.2021
4270 Snow 1 1021 92 24 1.34 290 09:18 12.04.2021
4271 Snow 2 1019 91 26 1.34 302 08:36 12.04.2021
4272 Rain 3 1022 91 26 2.24 254 07:40 12.04.2021
4273 Rain 5 1017 90 207 1.34 264 07:20 12.04.2021
4274 Rain 5 1017 90 207 1.34 264 07:20 12.04.2021
4275 Clouds 8 1015 87 10000 3.6 330 05:52 12.04.2021
4276 Clouds 9 1015 83 10000 0.45 120 04:31 12.04.2021
4277 Clouds 9 1015 84 10000 2.03 271 01:23 12.04.2021
4278 Clouds 10 1014 81 10000 1.34 264 00:25 12.04.2021
4279 Clouds 10 1013 78 10000 1.34 267 23:48 11.04.2021
4280 Clouds 11 1013 75 10000 0.89 262 23:29 11.04.2021
4281 Clouds 10 1011 69 10000 3.43 313 22:46 11.04.2021
4282 Clouds 11 1011 54 10000 4.12 160 22:25 11.04.2021
4283 Clouds 11 1010 54 10000 2.57 150 21:50 11.04.2021
4284 Clouds 12 1011 62 10000 3.66 312 21:30 11.04.2021
4285 Clouds 11 1010 58 10000 1.03 150 20:58 11.04.2021
4286 Clouds 13 1010 44 10000 1.54 150 20:31 11.04.2021
4287 Clouds 16 1009 41 1500 2.06 170 19:58 11.04.2021
4288 Clouds 17 1009 41 1500 2.06 170 19:39 11.04.2021
4289 Clouds 17 1009 32 10000 2.06 170 19:19 11.04.2021
4290 Clouds 18 1009 32 10000 1.54 190 18:45 11.04.2021
4291 Clouds 18 1009 34 10000 3.09 180 18:26 11.04.2021
4292 Clouds 18 1009 47 10000 0.89 44 17:49 11.04.2021
4293 Clouds 18 1009 47 10000 0.45 38 17:28 11.04.2021
4294 Clouds 18 1009 46 10000 0.45 90 16:53 11.04.2021
4295 Clouds 19 1009 42 10000 0.89 51 16:27 11.04.2021
4296 Clouds 19 1009 39 10000 0.45 210 15:59 11.04.2021
4297 Clouds 19 1009 39 10000 0.89 279 15:40 11.04.2021
4298 Clear 18 1010 34 10000 2.57 250 15:22 11.04.2021
4299 Clouds 19 1009 40 10000 1.23 64 14:48 11.04.2021
4300 Clouds 19 1010 34 10000 1.54 190 14:19 11.04.2021
4301 Clouds 18 1010 34 10000 1.54 0 13:39 11.04.2021
4302 Clouds 18 1010 34 10000 1.54 0 13:21 11.04.2021
4303 Clear 18 1010 36 10000 1.03 0 12:26 11.04.2021
4304 Clouds 16 1010 36 10000 1.03 0 11:53 11.04.2021
4305 Clouds 16 1010 36 10000 1.03 0 11:33 11.04.2021
4306 Clouds 15 1010 44 10000 2.06 80 10:58 11.04.2021
4307 Clouds 14 1010 50 10000 1.54 160 10:39 11.04.2021
4308 Clouds 13 1010 50 10000 1.54 160 10:20 11.04.2021
4309 Clouds 12 1014 52 10000 1.27 144 09:40 11.04.2021
4310 Clouds 11 1010 61 10000 1.07 196 09:22 11.04.2021
4311 Clouds 9 1011 68 10000 1.08 196 08:39 11.04.2021
4312 Clouds 6 1011 84 10000 1.39 211 07:38 11.04.2021
4313 Clouds 6 1011 84 10000 2.11 214 07:19 11.04.2021
4314 Clouds 6 1011 77 10000 2.14 221 05:47 11.04.2021
4315 Clouds 6 1011 75 10000 2.4 217 05:22 11.04.2021
4316 Clouds 7 1011 69 10000 2.39 209 04:35 11.04.2021
4317 Clouds 7 1011 69 10000 2.4 217 04:35 11.04.2021
4318 Clouds 8 1011 68 10000 2.39 209 03:35 11.04.2021
4319 Clouds 9 1012 64 10000 2.09 191 00:55 11.04.2021
4320 Clouds 9 1012 64 10000 2.09 191 00:32 11.04.2021
4321 Clouds 9 1012 68 10000 2.04 172 23:45 10.04.2021
4322 Clouds 9 1012 70 10000 1.92 142 22:55 10.04.2021
4323 Clouds 10 1011 67 10000 2.03 108 22:28 10.04.2021
4324 Clouds 8 1012 76 10000 1.54 130 21:54 10.04.2021
4325 Clouds 10 1012 62 10000 1.03 130 21:25 10.04.2021
4326 Clouds 11 1012 54 10000 2.06 80 20:56 10.04.2021
4327 Clouds 12 1012 47 10000 1.54 90 20:36 10.04.2021
4328 Clouds 12 1012 47 10000 1.54 90 20:18 10.04.2021
4329 Clouds 14 1012 44 10000 2.57 50 19:42 10.04.2021
4330 Clouds 14 1012 41 10000 2.57 50 19:24 10.04.2021
4331 Clouds 16 1012 38 10000 2.06 70 18:42 10.04.2021
4332 Clouds 16 1013 36 10000 2.57 70 18:23 10.04.2021
4333 Clear 17 1013 36 10000 3.09 30 17:36 10.04.2021
4334 Clouds 17 1013 41 10000 1.34 316 16:50 10.04.2021
4335 Clouds 17 1013 42 10000 1.79 76 16:25 10.04.2021
4336 Clear 16 1014 33 10000 1.54 0 15:52 10.04.2021
4337 Clouds 16 1014 40 10000 0.89 28 14:57 10.04.2021
4338 Clear 16 1015 36 10000 1.54 0 14:37 10.04.2021
4339 Clouds 16 1015 42 10000 0.45 169 13:58 10.04.2021
4340 Clouds 16 1015 42 10000 0.45 274 13:36 10.04.2021
4341 Clouds 15 1016 43 10000 0.45 273 12:48 10.04.2021
4342 Clouds 14 1020 41 10000 1.34 278 12:26 10.04.2021
4343 Clouds 15 1016 43 10000 1.34 288 11:46 10.04.2021
4344 Clouds 14 1016 48 10000 0.89 188 11:23 10.04.2021
4345 Clouds 14 1016 48 10000 1.79 248 10:51 10.04.2021
4346 Clouds 13 1014 45 10000 2.68 189 10:31 10.04.2021
4347 Clouds 11 1020 49 10000 3.23 253 09:45 10.04.2021
4348 Clouds 8 1065 74 10000 0.89 92 09:19 10.04.2021
4349 Clouds 8 1015 58 10000 2.32 222 08:38 10.04.2021
4350 Clouds 7 1015 59 10000 2.28 211 08:18 10.04.2021
4351 Clouds 6 1053 74 10000 2.71 216 07:27 10.04.2021
4352 Clouds 5 1054 73 10000 2.71 216 06:46 10.04.2021
4353 Clouds 5 1015 67 10000 2.65 214 05:36 10.04.2021
4354 Clouds 5 1015 67 10000 2.43 205 03:46 10.04.2021
4355 Clouds 5 1015 65 10000 2.65 203 02:49 10.04.2021
4356 Clouds 5 1015 66 10000 2.91 202 02:18 10.04.2021
4357 Clouds 6 1015 61 10000 2.85 191 00:40 10.04.2021
4358 Clouds 6 1015 61 10000 2.8 191 23:59 09.04.2021
4359 Clouds 6 1016 59 10000 2.8 191 23:36 09.04.2021
4360 Clouds 7 1016 60 10000 2.72 196 22:57 09.04.2021
4361 Clouds 7 1016 57 10000 0.45 176 22:37 09.04.2021
4362 Clouds 7 1015 53 10000 2.51 199 21:55 09.04.2021
4363 Clouds 8 1016 52 10000 2.51 199 21:37 09.04.2021
4364 Clouds 8 1015 48 10000 2.01 206 21:18 09.04.2021
4365 Clouds 8 1015 49 3300 2.57 170 20:40 09.04.2021
4366 Clouds 9 1015 49 10000 1.03 200 20:21 09.04.2021
4367 Clouds 13 1015 28 10000 1.03 270 19:43 09.04.2021
4368 Clouds 13 1015 24 10000 1.54 280 19:23 09.04.2021
4369 Clouds 14 1015 23 10000 2.57 300 18:50 09.04.2021
4370 Clouds 15 1015 27 10000 1.91 295 18:29 09.04.2021
4371 Clear 15 1015 21 10000 2.06 270 17:52 09.04.2021
4372 Clouds 15 1015 23 10000 0.89 278 17:33 09.04.2021
4373 Clouds 16 1015 23 10000 1.34 246 16:55 09.04.2021
4374 Rain 16 1015 23 10000 0.45 301 16:32 09.04.2021
4375 Rain 16 1016 25 10000 1.79 273 15:50 09.04.2021
4376 Rain 16 1016 25 10000 1.34 234 15:26 09.04.2021
4377 Clouds 16 1016 26 10000 1.79 200 14:51 09.04.2021
4378 Clouds 17 1016 26 10000 0.89 267 14:30 09.04.2021
4379 Clouds 16 1017 26 10000 1.79 262 13:51 09.04.2021
4380 Clouds 15 1017 27 10000 1.34 240 13:23 09.04.2021
4381 Clouds 15 1017 25 10000 0.89 163 12:51 09.04.2021
4382 Clouds 14 1018 22 10000 1.79 250 12:32 09.04.2021
4383 Clouds 14 1018 30 10000 0.89 242 11:45 09.04.2021
4384 Clouds 14 1018 30 10000 0.89 242 11:45 09.04.2021
4385 Clouds 12 1019 27 10000 1.34 225 11:22 09.04.2021
4386 Clouds 11 1019 34 10000 0.89 255 10:46 09.04.2021
4387 Clouds 9 1023 37 10000 0.89 136 10:20 09.04.2021
4388 Clouds 7 1019 49 10000 0.45 250 09:39 09.04.2021
4389 Clouds 5 1019 59 10000 0.45 151 09:20 09.04.2021
4390 Clouds 4 1019 71 10000 1.92 214 08:51 09.04.2021
4391 Clouds -1 1020 82 10000 1.9 208 07:36 09.04.2021
4392 Clouds -2 1019 84 10000 2.06 196 06:34 09.04.2021
4393 Clouds -2 1020 84 10000 2.05 186 05:53 09.04.2021
4394 Clouds -1 1020 86 10000 2.11 175 03:52 09.04.2021
4395 Clear -1 1020 84 10000 2.11 161 01:32 09.04.2021
4396 Clear -1 1022 80 10000 2.06 150 00:37 09.04.2021
4397 Clear -1 1022 86 10000 2.01 157 00:18 09.04.2021
4398 Clear 0 1022 74 10000 3.09 150 23:21 08.04.2021
4399 Clear 0 1022 74 10000 3.09 160 22:43 08.04.2021
4400 Clouds 0 1022 80 10000 3.09 160 22:22 08.04.2021
4401 Clear 1 1023 80 10000 3.6 160 21:55 08.04.2021
4402 Clear 1 1023 80 10000 3.6 160 21:55 08.04.2021
4403 Clear 1 1023 80 10000 3.6 160 21:55 08.04.2021
4404 Clear 1 1023 80 10000 3.6 160 21:36 08.04.2021
4405 Clear 0 1023 74 10000 2.57 150 21:18 08.04.2021
4406 Clear 2 1022 60 10000 2.06 150 20:49 08.04.2021
4407 Clear 3 1022 48 10000 1.54 260 20:26 08.04.2021
4408 Clear 4 1022 48 10000 2.06 260 19:46 08.04.2021
4409 Clouds 6 1023 55 10000 0.23 174 19:20 08.04.2021
4410 Clouds 6 1023 42 10000 2.06 280 18:46 08.04.2021
4411 Clouds 7 1023 55 10000 0.89 239 18:21 08.04.2021
4412 Clouds 6 1023 57 10000 0.89 242 17:49 08.04.2021
4413 Clouds 6 1023 58 10000 0.89 345 17:26 08.04.2021
4414 Clouds 6 1024 56 10000 1.79 238 16:51 08.04.2021
4415 Clouds 6 1024 58 10000 0.45 225 16:33 08.04.2021
4416 Clouds 5 1024 61 10000 0.89 252 15:48 08.04.2021
4417 Clouds 5 1024 63 10000 0.45 250 15:29 08.04.2021
4418 Clouds 5 1024 63 10000 0.45 245 14:58 08.04.2021
4419 Clouds 4 1024 64 10000 0.45 260 14:36 08.04.2021
4420 Clouds 5 1025 62 10000 1.34 273 14:18 08.04.2021
4421 Rain 4 1025 65 10000 1.34 237 13:43 08.04.2021
4422 Rain 4 1025 68 10000 1.79 267 13:22 08.04.2021
4423 Clouds 4 1025 74 10000 0.89 226 12:44 08.04.2021
4424 Rain 3 1025 76 9460 1.34 267 12:25 08.04.2021
4425 Clouds 2 1025 79 9460 1.79 257 11:43 08.04.2021
4426 Clouds 2 1025 78 2959 1.34 240 11:18 08.04.2021
4427 Snow 1 1025 84 2959 0.89 234 10:42 08.04.2021
4428 Snow 1 1025 86 2657 0.45 195 10:19 08.04.2021
4429 Snow 1 1024 84 2680 0.45 216 09:43 08.04.2021
4430 Snow 0 1024 87 1142 0.45 244 08:47 08.04.2021
4431 Snow 0 1024 87 728 0.45 236 08:28 08.04.2021
4432 Snow 0 1023 87 735 0.89 245 07:59 08.04.2021
4433 Snow 0 1023 88 735 0.45 252 07:39 08.04.2021
4434 Snow 0 1022 86 4506 6.24 258 04:44 08.04.2021
4435 Snow -1 1021 93 2928 1.34 190 01:25 08.04.2021
4436 Snow -1 1021 93 2895 1.79 300 00:30 08.04.2021
4437 Snow -1 1021 93 319 1.34 248 23:45 07.04.2021
4438 Snow -1 1021 93 293 1.79 245 23:22 07.04.2021
4439 Snow -1 1020 93 295 1.79 249 22:54 07.04.2021
4440 Snow -1 1020 93 293 1.79 302 22:35 07.04.2021
4441 Snow -1 1020 92 279 1.34 287 21:53 07.04.2021
4442 Snow -1 1020 91 241 1.79 209 21:32 07.04.2021
4443 Snow 0 1020 86 241 1.34 203 20:49 07.04.2021
4444 Snow 0 1019 85 8741 1.79 269 20:27 07.04.2021
4445 Snow 0 1019 87 8741 2.24 233 19:50 07.04.2021
4446 Snow 0 1018 86 8742 1.79 263 19:31 07.04.2021
4447 Snow 1 1018 80 10000 2.24 234 18:56 07.04.2021
4448 Snow 1 1018 78 10000 1.34 255 18:22 07.04.2021
4449 Snow 1 1018 72 9821 3.13 259 17:59 07.04.2021
4450 Snow 1 1018 71 10000 3.58 252 17:40 07.04.2021
4451 Rain 2 1017 70 10000 1.79 251 16:59 07.04.2021
4452 Clouds 2 1017 68 10000 2.68 236 16:40 07.04.2021
4453 Clouds 2 1017 71 10000 3.58 285 16:21 07.04.2021
4454 Clouds 2 1017 82 10000 1.34 257 15:51 07.04.2021
4455 Clouds 2 1017 81 10000 1.34 262 15:25 07.04.2021
4456 Rain 3 1017 62 10000 2.68 266 14:42 07.04.2021
4457 Clouds 2 1021 61 10000 1.34 288 14:19 07.04.2021
4458 Clouds 1 1017 78 10000 2.24 209 13:38 07.04.2021
4459 Snow 1 1017 86 10000 0.89 277 13:20 07.04.2021
4460 Rain 1 1056 65 10000 2.68 154 12:42 07.04.2021
4461 Snow 1 1016 77 10000 2.24 248 12:18 07.04.2021
4462 Snow 0 1016 76 10000 2.68 248 11:43 07.04.2021
4463 Clouds 0 1016 77 9075 3.13 281 11:22 07.04.2021
4464 Snow 0 1016 85 9078 2.24 245 10:47 07.04.2021
4465 Snow -1 1015 87 6889 1.34 314 09:47 07.04.2021
4466 Snow -1 1014 87 4319 2.24 301 09:28 07.04.2021
4467 Snow -2 1014 90 4296 1.34 267 08:53 07.04.2021
4468 Snow -2 1013 89 565 0.89 247 08:31 07.04.2021
4469 Snow -2 1013 88 565 0.89 288 07:54 07.04.2021
4470 Clouds -2 1012 86 2001 1.34 268 07:29 07.04.2021
4471 Snow -2 1011 87 2002 1.34 231 06:43 07.04.2021
4472 Clouds -2 1011 87 8657 1.34 241 05:42 07.04.2021
4473 Snow -2 1010 91 6141 0.45 265 03:18 07.04.2021
4474 Snow -1 1010 86 10000 1.34 200 23:50 06.04.2021
4475 Clouds -1 1010 87 10000 0.89 214 23:23 06.04.2021
4476 Clouds -1 1010 88 10000 0.45 224 22:59 06.04.2021
4477 Clouds -2 1010 88 10000 0.89 248 22:22 06.04.2021
4478 Clouds -2 1010 88 10000 0.89 274 21:57 06.04.2021
4479 Clouds -1 1010 88 10000 0.45 282 21:38 06.04.2021
4480 Clouds -1 1010 88 10000 0.89 281 21:20 06.04.2021
4481 Clouds -1 1010 88 10000 0.89 207 20:50 06.04.2021
4482 Clouds 0 1010 86 10000 0.45 281 20:21 06.04.2021
4483 Snow 0 1009 84 10000 0.89 228 19:48 06.04.2021
4484 Snow 0 1009 81 10000 1.34 212 19:30 06.04.2021
4485 Snow 1 1009 75 10000 1.79 252 18:47 06.04.2021
4486 Snow 1 1009 77 10000 1.34 219 18:24 06.04.2021
4487 Snow 0 1010 83 10000 2.24 294 17:51 06.04.2021
4488 Snow 1 1009 85 10000 1.79 204 17:29 06.04.2021
4489 Clouds 2 1010 81 10000 1.79 234 16:55 06.04.2021
4490 Clouds 1 1010 82 10000 1.79 171 16:37 06.04.2021
4491 Snow 1 1010 91 10000 0.89 230 15:31 06.04.2021
4492 Snow 0 1010 88 10000 0.89 260 14:58 06.04.2021
4493 Snow 2 1010 74 10000 2.24 257 14:39 06.04.2021
4494 Rain 2 1010 74 10000 1.79 230 14:18 06.04.2021
4495 Snow 2 1011 78 10000 1.79 243 13:43 06.04.2021
4496 Snow 1 1011 80 10000 1.79 186 13:23 06.04.2021
4497 Snow 1 1011 81 10000 1.79 300 12:42 06.04.2021
4498 Snow 1 1011 82 8102 1.79 183 12:22 06.04.2021
4499 Snow 0 1012 82 7912 1.34 230 11:51 06.04.2021
4500 Clouds 0 1012 84 10000 1.79 194 11:21 06.04.2021
4501 Clouds -1 1012 84 10000 1.34 233 10:47 06.04.2021
4502 Clear -1 1012 83 10000 1.34 263 10:28 06.04.2021
4503 Clear -1 1012 82 10000 1.79 172 09:49 06.04.2021
4504 Clear -1 1012 86 10000 1.34 262 09:30 06.04.2021
4505 Clouds -2 1012 90 10000 0.89 304 08:45 06.04.2021
4506 Clouds -3 1012 90 10000 0.45 277 08:18 06.04.2021
4507 Clouds -4 1012 90 10000 0.45 202 06:55 06.04.2021
4508 Clouds -3 1012 92 10000 0.45 198 05:41 06.04.2021
4509 Clouds -2 1012 91 10000 3.94 253 02:58 06.04.2021
4510 Snow -2 1013 93 10000 0.45 244 00:45 06.04.2021
4511 Snow -2 1012 93 10000 0.45 286 00:21 06.04.2021
4512 Snow -2 1012 93 10000 0.45 294 23:43 05.04.2021
4513 Snow -2 1012 92 2976 0.89 274 23:22 05.04.2021
4514 Snow -1 1011 93 2975 0.89 249 22:48 05.04.2021
4515 Snow 0 1010 93 688 0.89 288 22:27 05.04.2021
4516 Snow 0 1009 93 707 0.89 234 21:45 05.04.2021
4517 Snow 0 1008 92 102 0.45 264 21:22 05.04.2021
4518 Snow 1 1007 90 102 1.34 188 20:45 05.04.2021
4519 Snow 1 1007 86 129 2.68 156 20:27 05.04.2021
4520 Rain 6 1005 57 10000 8.75 280 19:44 05.04.2021
4521 Rain 9 1004 46 10000 10.29 280 19:24 05.04.2021
4522 Rain 10 1004 40 10000 7.2 280 18:55 05.04.2021
4523 Rain 10 1004 40 10000 7.2 280 18:37 05.04.2021
4524 Rain 11 1003 45 10000 4.02 266 18:18 05.04.2021
4525 Clouds 12 1003 43 10000 2.68 254 17:45 05.04.2021
4526 Clouds 12 1003 43 10000 2.68 244 17:21 05.04.2021
4527 Clouds 13 1003 39 10000 3.58 311 16:44 05.04.2021
4528 Clouds 13 1004 38 10000 4.02 216 16:21 05.04.2021
4529 Clouds 14 1004 33 10000 4.47 250 15:54 05.04.2021
4530 Clouds 15 1004 30 10000 3.58 175 15:30 05.04.2021
4531 Clouds 15 1004 33 10000 4.02 263 14:54 05.04.2021
4532 Clouds 14 1005 33 10000 4.47 246 14:35 05.04.2021
4533 Clouds 14 1005 33 10000 4.47 246 14:35 05.04.2021
4534 Clouds 14 1005 37 10000 3.58 257 13:40 05.04.2021
4535 Clouds 14 1006 37 10000 4.02 261 13:22 05.04.2021
4536 Clouds 14 1006 37 10000 3.58 265 12:45 05.04.2021
4537 Clouds 14 1007 38 10000 3.58 254 12:22 05.04.2021
4538 Clouds 14 1008 37 10000 3.13 279 11:45 05.04.2021
4539 Clouds 13 1012 38 10000 5.81 277 11:27 05.04.2021
4540 Clouds 12 1008 40 10000 2.68 273 10:46 05.04.2021
4541 Clouds 11 1013 41 10000 2.24 301 10:28 05.04.2021
4542 Clouds 9 1009 49 10000 1.79 178 09:48 05.04.2021
4543 Clouds 8 1010 54 10000 1.34 237 09:25 05.04.2021
4544 Clouds 5 1010 63 10000 0.45 234 08:45 05.04.2021
4545 Clouds 4 1010 64 10000 0.45 211 08:26 05.04.2021
4546 Clear 2 1011 70 10000 0.45 238 07:38 05.04.2021
4547 Clear 2 1011 73 10000 3.04 232 06:40 05.04.2021
4548 Clear 2 1015 70 10000 0.45 191 02:32 05.04.2021
4549 Clear 2 1016 75 10000 2.52 220 00:52 05.04.2021
4550 Clouds 3 1016 75 10000 2.35 211 23:52 04.04.2021
4551 Clouds 3 1017 75 10000 1.98 210 23:30 04.04.2021
4552 Clouds 3 1017 72 10000 1.98 210 22:54 04.04.2021
4553 Clouds 3 1017 70 10000 1.33 212 22:31 04.04.2021
4554 Clouds 4 1017 64 10000 1.33 213 21:48 04.04.2021
4555 Clouds 5 1017 60 10000 0.75 183 21:21 04.04.2021
4556 Clouds 6 1017 53 10000 0.74 184 20:42 04.04.2021
4557 Clouds 7 1017 48 10000 0.3 118 20:20 04.04.2021
4558 Clear 8 1018 37 10000 2.06 290 19:38 04.04.2021
4559 Clear 10 1018 34 10000 2.57 330 19:19 04.04.2021
4560 Clouds 10 1018 34 10000 2.57 320 18:49 04.04.2021
4561 Clouds 11 1018 38 10000 0.45 267 18:24 04.04.2021
4562 Clouds 11 1018 38 10000 0.89 282 17:57 04.04.2021
4563 Clouds 11 1018 36 10000 0.45 36 17:25 04.04.2021
4564 Clouds 11 1019 35 10000 0.89 115 16:56 04.04.2021
4565 Clouds 11 1019 35 10000 0.89 250 16:37 04.04.2021
4566 Clouds 10 1020 34 10000 1.79 311 15:52 04.04.2021
4567 Clouds 11 1019 36 10000 0.45 265 15:31 04.04.2021
4568 Clouds 10 1020 39 10000 0.89 0 14:39 04.04.2021
4569 Clear 10 1020 38 10000 0.45 347 14:20 04.04.2021
4570 Clear 9 1021 37 10000 2.24 23 13:27 04.04.2021
4571 Clear 9 1021 42 10000 0.45 285 12:52 04.04.2021
4572 Clear 8 1021 43 10000 1.34 106 12:28 04.04.2021
4573 Clear 9 1022 44 10000 0.45 242 11:50 04.04.2021
4574 Clear 8 1022 46 10000 0.45 109 11:30 04.04.2021
4575 Clear 7 1022 49 10000 1.94 3 10:54 04.04.2021
4576 Clear 7 1022 52 10000 1.94 3 10:32 04.04.2021
4577 Clear 5 1022 70 10000 1.4 356 09:50 04.04.2021
4578 Clear 4 1022 78 10000 0.71 313 09:23 04.04.2021
4579 Clear 2 1025 73 10000 0.7 313 08:48 04.04.2021
4580 Clear 1 1022 88 10000 0.77 344 08:30 04.04.2021
4581 Clear -1 1022 90 10000 0.96 269 07:21 04.04.2021
4582 Clear -1 1022 90 10000 0.96 270 06:33 04.04.2021
4583 Clear 0 1022 86 10000 1.13 250 03:25 04.04.2021
4584 Clouds 2 1022 79 10000 1.25 266 01:18 04.04.2021
4585 Clouds 3 1023 78 10000 1.26 272 00:19 04.04.2021
4586 Clouds 3 1023 75 10000 1.27 273 23:42 03.04.2021
4587 Clouds 3 1023 74 10000 1.24 288 23:18 03.04.2021
4588 Clouds 4 1022 70 10000 1.24 288 22:48 03.04.2021
4589 Clouds 5 1023 75 10000 2.06 200 22:19 03.04.2021
4590 Clouds 4 1022 75 10000 2.57 210 21:47 03.04.2021
4591 Clouds 5 1022 65 10000 1.54 220 21:23 03.04.2021
4592 Clouds 5 1022 60 10000 1.03 280 20:49 03.04.2021
4593 Rain 6 1022 52 10000 1.03 280 20:27 03.04.2021
4594 Rain 5 1022 49 10000 1.54 280 19:50 03.04.2021
4595 Clouds 6 1022 57 10000 2.03 340 19:24 03.04.2021
4596 Clouds 6 1021 55 10000 2.03 339 18:48 03.04.2021
4597 Clouds 7 1021 55 10000 2.93 353 18:30 03.04.2021
4598 Clouds 7 1021 53 10000 0.89 234 17:51 03.04.2021
4599 Clouds 7 1021 52 10000 0.45 94 17:25 03.04.2021
4600 Clouds 7 1021 54 10000 3.34 0 16:51 03.04.2021
4601 Clouds 7 1021 55 10000 0.45 23 16:22 03.04.2021
4602 Clouds 7 1021 51 10000 0.45 234 15:50 03.04.2021
4603 Clouds 7 1021 53 10000 0.45 273 15:23 03.04.2021
4604 Clouds 7 1022 57 10000 0.45 140 14:44 03.04.2021
4605 Clouds 7 1022 55 10000 0.45 161 14:25 03.04.2021
4606 Clouds 7 1022 56 10000 0.45 148 13:53 03.04.2021
4607 Clouds 7 1022 53 10000 0.89 253 13:25 03.04.2021
4608 Clouds 6 1022 59 10000 0.45 59 12:57 03.04.2021
4609 Clouds 6 1022 57 10000 0.45 265 12:32 03.04.2021
4610 Clouds 6 1021 57 10000 0.45 247 11:40 03.04.2021
4611 Clouds 6 1021 60 10000 0.89 202 11:19 03.04.2021
4612 Clouds 5 1021 65 10000 0.45 192 10:45 03.04.2021
4613 Clouds 5 1021 67 10000 0.45 229 10:25 03.04.2021
4614 Clouds 4 1021 73 10000 0.45 240 09:36 03.04.2021
4615 Clouds 4 1020 74 10000 0.45 259 09:18 03.04.2021
4616 Clouds 3 1020 75 10000 0.45 53 08:35 03.04.2021
4617 Clouds 3 1019 76 10000 0.45 209 07:31 03.04.2021
4618 Clouds 3 1019 76 10000 2.99 314 06:56 03.04.2021
4619 Clouds 4 1018 83 10000 0.89 251 03:54 03.04.2021
4620 Clouds 3 1018 87 10000 2.49 304 02:55 03.04.2021
4621 Clouds 3 1018 86 10000 2.53 299 02:30 03.04.2021
4622 Clouds 3 1018 85 10000 2.6 285 00:45 03.04.2021
4623 Clouds 3 1018 84 10000 2.6 280 00:18 03.04.2021
4624 Clouds 4 1018 81 10000 2.59 280 23:44 02.04.2021
4625 Clouds 4 1018 81 10000 2.59 280 23:44 02.04.2021
4626 Clouds 4 1018 80 10000 2.63 292 23:18 02.04.2021
4627 Clouds 5 1018 77 10000 2.65 292 22:44 02.04.2021
4628 Clouds 5 1018 76 10000 3.07 302 22:25 02.04.2021
4629 Clouds 6 1018 74 10000 3.07 302 21:41 02.04.2021
4630 Clouds 7 1018 73 10000 0.45 340 21:19 02.04.2021
4631 Clouds 8 1017 69 10000 0.89 135 20:43 02.04.2021
4632 Clouds 9 1017 64 10000 1.34 203 20:21 02.04.2021
4633 Clouds 11 1016 50 10000 4.12 330 19:42 02.04.2021
4634 Clouds 12 1016 50 10000 0.45 250 19:23 02.04.2021
4635 Clouds 12 1016 43 10000 3.09 310 18:48 02.04.2021
4636 Clouds 13 1016 48 10000 1.34 260 18:30 02.04.2021
4637 Clouds 13 1016 47 10000 1.34 239 17:57 02.04.2021
4638 Clouds 13 1016 54 10000 0.45 284 17:32 02.04.2021
4639 Clouds 13 1016 58 10000 0.89 204 16:37 02.04.2021
4640 Clouds 12 1016 61 10000 0.89 224 15:47 02.04.2021
4641 Clouds 12 1017 64 10000 0.89 220 15:25 02.04.2021
4642 Clouds 12 1017 65 10000 0.45 248 14:41 02.04.2021
4643 Clouds 12 1017 66 10000 0.45 202 14:21 02.04.2021
4644 Clouds 11 1016 71 10000 0.89 320 13:39 02.04.2021
4645 Clouds 10 1018 74 10000 2.57 336 13:19 02.04.2021
4646 Clouds 9 1018 78 10000 0.45 42 12:38 02.04.2021
4647 Clouds 9 1018 79 10000 0.89 61 12:19 02.04.2021
4648 Clouds 9 1018 83 10000 2.63 339 11:48 02.04.2021
4649 Clouds 9 1019 83 10000 0.89 38 11:19 02.04.2021
4650 Clouds 8 1019 84 10000 0.45 63 10:44 02.04.2021
4651 Clouds 8 1019 85 10000 0.45 68 10:24 02.04.2021
4652 Clouds 8 1019 85 10000 1.97 342 09:52 02.04.2021
4653 Clouds 8 1018 86 10000 1.34 65 09:26 02.04.2021
4654 Clouds 8 1018 88 10000 0.45 131 08:46 02.04.2021
4655 Clouds 7 1018 94 10000 1.55 339 08:27 02.04.2021
4656 Clouds 6 1017 93 10000 1.46 325 07:23 02.04.2021
4657 Clouds 6 1017 92 10000 1.46 325 06:46 02.04.2021
4658 Clouds 9 1017 88 10000 1.73 288 03:54 02.04.2021
4659 Clouds 10 1017 80 10000 2.36 288 02:20 02.04.2021
4660 Clouds 11 1017 78 10000 0.45 225 00:47 02.04.2021
4661 Clouds 11 1017 77 10000 0.45 220 00:18 02.04.2021
4662 Clouds 11 1017 78 10000 0.89 230 23:30 01.04.2021
4663 Clouds 12 1018 78 10000 1.34 86 22:52 01.04.2021
4664 Clouds 12 1018 76 10000 0.89 180 22:19 01.04.2021
4665 Clouds 13 1018 74 10000 1.34 211 21:49 01.04.2021
4666 Rain 13 1018 76 10000 1.34 217 21:25 01.04.2021
4667 Rain 14 1016 74 10000 2.24 260 20:44 01.04.2021
4668 Rain 14 1018 71 10000 0.89 227 20:24 01.04.2021
4669 Rain 15 1017 71 10000 2.89 305 19:54 01.04.2021
4670 Clouds 15 1017 71 10000 2.89 305 19:35 01.04.2021
4671 Rain 18 1016 34 10000 3.09 270 18:46 01.04.2021
4672 Rain 20 1016 32 10000 4.63 270 18:19 01.04.2021
4673 Clear 22 1017 28 10000 4.63 270 17:52 01.04.2021
4674 Clouds 22 1021 35 10000 1.34 35 17:33 01.04.2021
4675 Clear 22 1017 30 10000 6.17 300 16:53 01.04.2021
4676 Clouds 22 1017 37 10000 1.34 275 16:31 01.04.2021
4677 Clouds 22 1017 37 10000 1.34 214 15:48 01.04.2021
4678 Clear 23 1017 36 10000 0.89 278 15:20 01.04.2021
4679 Clear 23 1018 35 10000 1.34 237 14:46 01.04.2021
4680 Clouds 22 1016 35 10000 1.34 51 14:26 01.04.2021
4681 Clouds 23 1018 35 10000 1.34 107 13:56 01.04.2021
4682 Clouds 22 1023 34 10000 0.45 209 13:31 01.04.2021
4683 Clouds 21 1017 34 10000 0.89 267 12:54 01.04.2021
4684 Clouds 21 1017 36 10000 1.79 322 12:33 01.04.2021
4685 Clouds 20 1024 37 10000 1.79 307 11:57 01.04.2021
4686 Clouds 19 1018 38 10000 1.79 239 11:38 01.04.2021
4687 Clouds 19 1018 39 10000 1.34 268 11:18 01.04.2021
4688 Clouds 17 1020 44 10000 0.45 180 10:45 01.04.2021
4689 Clouds 16 1018 43 10000 0.45 169 10:24 01.04.2021
4690 Clouds 13 1025 51 10000 2.63 240 09:32 01.04.2021
4691 Clouds 12 1020 60 10000 2.63 240 08:54 01.04.2021
4692 Clouds 10 1020 70 10000 2.3 236 08:28 01.04.2021
4693 Clouds 8 1020 78 10000 2.49 234 07:21 01.04.2021
4694 Clouds 8 1020 79 10000 2.49 234 06:56 01.04.2021
4695 Clouds 8 1020 78 10000 2.44 230 05:34 01.04.2021
4696 Clouds 8 1021 77 10000 2.42 232 03:20 01.04.2021
4697 Clouds 9 1021 76 10000 2.23 228 00:19 01.04.2021
4698 Clouds 9 1021 75 10000 2.23 228 23:40 31.03.2021
4699 Clouds 10 1021 74 10000 1.96 227 22:56 31.03.2021
4700 Clouds 11 1022 72 10000 1.6 219 22:37 31.03.2021
4701 Clouds 11 1022 71 10000 1.59 219 22:18 31.03.2021
4702 Clouds 12 1022 68 10000 1.59 219 21:40 31.03.2021
4703 Clouds 12 1022 65 10000 0.89 213 21:19 31.03.2021
4704 Clouds 13 1022 54 10000 1.03 180 20:41 31.03.2021
4705 Clear 14 1022 47 10000 1.03 300 20:22 31.03.2021
4706 Clear 17 1022 27 10000 1.54 290 19:42 31.03.2021
4707 Clear 19 1022 26 10000 3.09 290 19:21 31.03.2021
4708 Clear 20 1022 24 10000 2.57 270 18:57 31.03.2021
4709 Clear 21 1022 24 10000 2.57 270 18:38 31.03.2021
4710 Clear 21 1022 26 10000 3.09 240 17:44 31.03.2021
4711 Clear 21 1022 26 10000 3.09 240 17:44 31.03.2021
4712 Clear 22 1023 24 10000 1.54 0 17:25 31.03.2021
4713 Clear 22 1023 28 10000 1.03 0 16:55 31.03.2021
4714 Clear 22 1023 28 10000 2.57 260 16:36 31.03.2021
4715 Clear 22 1023 28 10000 1.03 0 15:59 31.03.2021
4716 Clear 22 1023 28 10000 1.03 0 15:41 31.03.2021
4717 Clouds 23 1023 32 10000 0.45 34 15:19 31.03.2021
4718 Clouds 22 1024 30 10000 1.34 236 14:42 31.03.2021
4719 Clouds 22 1024 31 10000 0.89 279 14:19 31.03.2021
4720 Clouds 21 1024 32 10000 0.89 266 13:35 31.03.2021
4721 Clouds 19 1029 36 10000 3.13 292 12:41 31.03.2021
4722 Clouds 19 1023 35 10000 1.34 224 12:20 31.03.2021
4723 Clouds 18 1025 36 10000 0.45 227 11:41 31.03.2021
4724 Clouds 17 1026 41 10000 0.45 224 11:20 31.03.2021
4725 Clouds 15 1026 42 10000 0.45 284 10:46 31.03.2021
4726 Clouds 14 1026 51 10000 0.96 209 10:24 31.03.2021
4727 Clouds 12 1026 65 10000 0.96 209 09:38 31.03.2021
4728 Clear 6 1026 87 10000 1.03 220 08:54 31.03.2021
4729 Clear 3 1026 87 10000 1.03 170 08:33 31.03.2021
4730 Clear 2 1026 93 10000 3.09 220 07:49 31.03.2021
4731 Clouds 2 1026 86 10000 1.03 160 06:38 31.03.2021
4732 Clouds 3 1027 81 10000 1.54 180 03:51 31.03.2021
4733 Clouds 6 1028 81 10000 1.12 141 01:38 31.03.2021
4734 Clouds 6 1028 78 10000 1.34 139 00:48 31.03.2021
4735 Clouds 7 1028 75 10000 1.57 131 00:19 31.03.2021
4736 Clouds 8 1028 76 10000 1.58 131 23:33 30.03.2021
4737 Clouds 9 1029 72 10000 1.65 117 22:59 30.03.2021
4738 Clouds 10 1029 71 10000 1.66 117 22:40 30.03.2021
4739 Clouds 10 1029 70 10000 1.69 101 22:21 30.03.2021
4740 Clouds 11 1029 64 10000 1.69 101 21:48 30.03.2021
4741 Clouds 12 1029 54 10000 1.89 91 21:20 30.03.2021
4742 Clear 12 1029 41 10000 2.57 70 20:52 30.03.2021
4743 Clear 13 1029 38 10000 3.09 30 20:28 30.03.2021
4744 Clear 16 1029 34 10000 3.09 20 19:51 30.03.2021
4745 Clear 18 1029 32 10000 4.12 10 19:27 30.03.2021
4746 Clear 20 1029 26 10000 4.63 30 18:40 30.03.2021
4747 Clear 19 1029 26 10000 4.63 10 17:58 30.03.2021
4748 Clear 19 1029 26 10000 4.63 10 17:39 30.03.2021
4749 Clear 21 1030 24 10000 4.63 30 17:20 30.03.2021
4750 Clear 20 1030 24 10000 4.63 30 16:45 30.03.2021
4751 Clear 20 1030 23 10000 3.6 30 16:23 30.03.2021
4752 Clear 21 1031 24 10000 2.57 50 15:21 30.03.2021
4753 Clear 21 1031 24 10000 2.57 0 14:57 30.03.2021
4754 Clouds 20 1031 32 10000 1.79 58 14:22 30.03.2021
4755 Clouds 20 1032 31 10000 1.34 45 13:59 30.03.2021
4756 Clouds 20 1032 32 10000 0.89 30 13:38 30.03.2021
4757 Clouds 19 1032 36 10000 0.45 70 12:49 30.03.2021
4758 Clear 17 1033 36 10000 2.57 10 12:29 30.03.2021
4759 Clouds 17 1033 38 10000 1.34 67 11:59 30.03.2021
4760 Clouds 15 1033 47 10000 1.75 80 11:24 30.03.2021
4761 Clouds 15 1033 39 10000 1.75 80 10:59 30.03.2021
4762 Clouds 14 1033 44 10000 1.75 80 10:37 30.03.2021
4763 Clouds 13 1033 50 10000 1.19 99 10:18 30.03.2021
4764 Clouds 11 1033 64 10000 1.19 99 09:38 30.03.2021
4765 Clouds 9 1033 67 10000 0.86 137 09:20 30.03.2021
4766 Clear 4 1033 81 10000 1.54 220 08:39 30.03.2021
4767 Clear 4 1032 80 10000 2.06 200 07:53 30.03.2021
4768 Clear 1 1032 80 10000 2.57 210 07:23 30.03.2021
4769 Clouds 1 1032 80 10000 2.57 220 06:19 30.03.2021
4770 Clouds 4 1032 76 10000 1.19 173 05:24 30.03.2021
4771 Clouds 6 1033 72 10000 1.63 200 01:29 30.03.2021
4772 Clouds 7 1033 70 10000 1.59 198 23:51 29.03.2021
4773 Clouds 8 1033 69 10000 1.53 205 22:55 29.03.2021
4774 Clouds 8 1033 69 10000 1.55 188 22:35 29.03.2021
4775 Clouds 9 1033 65 10000 0.94 188 21:55 29.03.2021
4776 Clouds 9 1033 61 10000 0.94 188 21:33 29.03.2021
4777 Clouds 10 1032 53 10000 1.54 160 20:50 29.03.2021
4778 Clouds 12 1032 46 10000 1.03 0 20:29 29.03.2021
4779 Clear 16 1032 29 10000 2.06 290 19:52 29.03.2021
4780 Clear 18 1032 25 10000 3.09 280 19:27 29.03.2021
4781 Clear 18 1032 24 10000 2.57 270 18:51 29.03.2021
4782 Clear 18 1032 22 10000 3.6 280 18:27 29.03.2021
4783 Clear 18 1032 22 10000 3.09 250 17:55 29.03.2021
4784 Clouds 19 1032 25 10000 0.89 258 17:35 29.03.2021
4785 Clouds 19 1032 25 10000 1.34 279 16:52 29.03.2021
4786 Clouds 19 1036 22 10000 1.34 254 16:25 29.03.2021
4787 Clouds 19 1032 28 10000 1.34 284 15:41 29.03.2021
4788 Clouds 19 1032 28 10000 0.89 281 15:22 29.03.2021
4789 Clouds 18 1033 26 10000 1.34 241 14:48 29.03.2021
4790 Clouds 18 1033 30 10000 0.89 244 13:58 29.03.2021
4791 Clouds 17 1036 30 10000 3.58 293 13:38 29.03.2021
4792 Clouds 17 1033 34 10000 0.89 194 13:18 29.03.2021
4793 Clouds 17 1033 32 10000 1.34 273 12:49 29.03.2021
4794 Clouds 15 1033 37 10000 2.24 204 11:48 29.03.2021
4795 Clouds 14 1036 39 10000 2.68 279 11:28 29.03.2021
4796 Clouds 13 1033 43 10000 0.45 306 10:49 29.03.2021
4797 Clouds 11 1033 46 10000 0.45 290 10:31 29.03.2021
4798 Clouds 9 1033 58 10000 2.11 235 09:33 29.03.2021
4799 Clear 5 1033 81 10000 1.54 180 08:43 29.03.2021
4800 Clouds 4 1033 79 10000 2.03 223 08:25 29.03.2021
4801 Clear 2 1032 86 10000 2.57 220 07:22 29.03.2021
4802 Clouds 2 1032 80 10000 0.51 0 06:26 29.03.2021
4803 Clouds 3 1035 77 10000 2.37 232 03:35 29.03.2021
4804 Clouds 6 1031 74 10000 2.58 229 00:55 29.03.2021
4805 Clouds 6 1031 74 10000 2.67 222 00:20 29.03.2021
4806 Clouds 6 1031 75 10000 2.68 222 23:36 28.03.2021
4807 Clouds 6 1031 74 10000 2.5 221 23:18 28.03.2021
4808 Clouds 6 1031 74 10000 2.5 221 22:39 28.03.2021
4809 Clouds 7 1030 71 10000 2.2 221 22:20 28.03.2021
4810 Clouds 8 1030 68 10000 2.2 221 21:40 28.03.2021
4811 Clouds 8 1030 66 10000 1.62 242 21:22 28.03.2021
4812 Clouds 8 1030 63 10000 1.62 242 20:47 28.03.2021
4813 Clouds 9 1030 60 10000 1.58 281 20:29 28.03.2021
4814 Clouds 12 1029 37 10000 2.06 260 19:43 28.03.2021
4815 Clouds 12 1029 37 10000 3.09 240 19:22 28.03.2021
4816 Clouds 13 1029 33 10000 3.09 230 18:58 28.03.2021
4817 Clouds 14 1029 39 10000 0.45 261 18:26 28.03.2021
4818 Clouds 14 1029 39 10000 0.89 294 17:47 28.03.2021
4819 Clouds 14 1029 37 10000 0.89 213 17:27 28.03.2021
4820 Clouds 14 1029 37 10000 0.89 227 16:46 28.03.2021
4821 Clouds 15 1029 39 10000 0.89 250 16:23 28.03.2021
4822 Clouds 14 1030 38 10000 0.45 232 15:27 28.03.2021
4823 Clouds 14 1030 41 10000 0.89 82 14:57 28.03.2021
4824 Clouds 13 1030 42 10000 0.45 225 14:31 28.03.2021
4825 Clouds 12 1031 43 10000 0.89 235 13:48 28.03.2021
4826 Clouds 12 1031 44 10000 1.52 257 13:22 28.03.2021
4827 Clouds 12 1031 47 10000 0.45 252 12:50 28.03.2021
4828 Clouds 11 1031 46 10000 0.89 192 12:32 28.03.2021
4829 Clouds 11 1031 49 10000 0.89 216 11:46 28.03.2021
4830 Clouds 10 1031 50 10000 0.89 277 11:26 28.03.2021
4831 Clouds 9 1032 55 10000 1.54 232 10:45 28.03.2021
4832 Clouds 8 1032 57 10000 0.45 159 10:26 28.03.2021
4833 Clouds 7 1032 64 10000 1.74 219 09:47 28.03.2021
4834 Clouds 6 1032 75 10000 1.62 233 09:25 28.03.2021
4835 Clouds 4 1031 83 10000 1.62 233 08:46 28.03.2021
4836 Clouds 2 1031 87 10000 1.62 227 07:51 28.03.2021
4837 Clouds 1 1030 86 10000 1.72 228 07:19 28.03.2021
4838 Clouds 4 1030 76 10000 1.99 222 04:54 28.03.2021
4839 Clouds 4 1030 70 10000 3.09 220 01:26 28.03.2021
4840 Clouds 5 1063 62 10000 1.79 96 00:22 28.03.2021
4841 Clouds 6 1030 75 10000 4.12 220 23:44 27.03.2021
4842 Clouds 5 1062 61 10000 1.34 97 23:21 27.03.2021
4843 Clouds 5 1063 61 10000 1.79 110 22:38 27.03.2021
4844 Clouds 5 1062 61 10000 0.89 92 21:59 27.03.2021
4845 Clouds 6 1029 61 10000 0.45 232 21:40 27.03.2021
4846 Clouds 6 1029 60 10000 3.3 250 21:19 27.03.2021
4847 Clouds 6 1029 57 10000 3.3 250 20:50 27.03.2021
4848 Clouds 7 1028 55 10000 3.3 250 20:31 27.03.2021
4849 Clouds 7 1058 59 10000 1.34 99 19:45 27.03.2021
4850 Clouds 8 1028 52 10000 0.89 237 19:23 27.03.2021
4851 Clouds 8 1027 56 10000 0.45 263 18:56 27.03.2021
4852 Clouds 8 1059 53 10000 0.45 133 18:37 27.03.2021
4853 Clouds 9 1026 56 10000 0.89 284 18:18 27.03.2021
4854 Clouds 9 1026 57 10000 1.79 227 17:28 27.03.2021
4855 Clouds 10 1025 53 10000 3.13 220 16:53 27.03.2021
4856 Clouds 10 1025 53 10000 2.68 227 16:31 27.03.2021
4857 Clouds 10 1025 52 10000 2.68 192 15:58 27.03.2021
4858 Clouds 10 1025 55 10000 2.24 291 15:36 27.03.2021
4859 Clouds 10 1025 62 10000 2.24 161 14:55 27.03.2021
4860 Clouds 9 1025 64 10000 1.79 298 14:22 27.03.2021
4861 Clouds 8 1025 74 10000 1.34 259 13:36 27.03.2021
4862 Clouds 8 1025 75 10000 1.34 227 13:18 27.03.2021
4863 Clouds 7 1025 81 10000 1.34 242 12:35 27.03.2021
4864 Clouds 8 1025 68 10000 2.68 273 11:47 27.03.2021
4865 Clouds 8 1024 77 10000 0.89 271 11:28 27.03.2021
4866 Rain 7 1024 84 10000 1.34 298 10:48 27.03.2021
4867 Rain 6 1024 86 10000 0.89 188 10:28 27.03.2021
4868 Rain 5 1024 85 10000 2.68 241 09:42 27.03.2021
4869 Rain 6 1024 82 10000 2.24 257 09:18 27.03.2021
4870 Rain 7 1022 82 10000 6.49 282 08:36 27.03.2021
4871 Rain 8 1020 77 10000 1.79 259 07:42 27.03.2021
4872 Clouds 8 1020 78 10000 0.45 248 06:58 27.03.2021
4873 Rain 7 1019 78 10000 0.89 243 06:37 27.03.2021
4874 Clouds 7 1018 72 10000 5.04 258 04:41 27.03.2021
4875 Clouds 6 1017 75 10000 2.33 205 01:28 27.03.2021
4876 Clouds 7 1018 75 10000 2.41 199 00:32 27.03.2021
4877 Clouds 7 1018 77 10000 2.32 208 23:59 26.03.2021
4878 Clouds 6 1018 79 10000 2.21 223 23:24 26.03.2021
4879 Clouds 6 1018 79 10000 2.21 223 22:39 26.03.2021
4880 Clouds 7 1018 75 10000 1.7 229 21:42 26.03.2021
4881 Clouds 8 1018 73 10000 1.6 228 21:22 26.03.2021
4882 Clouds 9 1018 67 10000 1.62 227 20:54 26.03.2021
4883 Clouds 9 1018 65 10000 1.6 228 20:31 26.03.2021
4884 Clouds 11 1018 56 10000 1.35 199 19:51 26.03.2021
4885 Clouds 12 1018 53 10000 1.28 184 19:32 26.03.2021
4886 Clear 14 1018 38 10000 1.54 300 18:50 26.03.2021
4887 Clear 15 1018 35 10000 2.06 260 18:30 26.03.2021
4888 Clear 16 1018 31 10000 3.09 250 17:50 26.03.2021
4889 Clouds 17 1017 35 10000 0.89 269 17:28 26.03.2021
4890 Clouds 18 1017 33 10000 0.45 267 16:36 26.03.2021
4891 Clear 17 1017 31 10000 2.68 278 15:59 26.03.2021
4892 Clear 17 1017 30 10000 1.34 252 15:35 26.03.2021
4893 Clear 17 1017 29 10000 1.34 323 14:45 26.03.2021
4894 Clear 17 1019 38 10000 0.45 167 13:52 26.03.2021
4895 Clear 17 1019 40 10000 0.89 196 13:23 26.03.2021
4896 Clear 16 1020 42 10000 0.45 53 12:40 26.03.2021
4897 Clear 15 1020 47 10000 0.5 115 11:49 26.03.2021
4898 Clear 15 1021 48 10000 0.45 26 11:31 26.03.2021
4899 Clear 15 1021 48 10000 0.45 26 11:31 26.03.2021
4900 Clear 14 1021 51 10000 0.45 36 10:44 26.03.2021
4901 Clear 13 1021 51 10000 0.95 168 10:23 26.03.2021
4902 Clear 11 1021 54 10000 0.95 168 09:41 26.03.2021
4903 Clear 9 1022 65 10000 1.26 186 08:49 26.03.2021
4904 Clear 8 1022 73 10000 1.26 186 08:31 26.03.2021
4905 Clear 5 1022 80 10000 1.34 208 07:57 26.03.2021
4906 Clear 3 1022 86 10000 1.63 215 07:22 26.03.2021
4907 Clear 2 1022 87 10000 1.63 215 06:57 26.03.2021
4908 Clear 2 1022 83 10000 1.83 222 05:32 26.03.2021
4909 Clouds 2 1022 85 10000 2.09 230 04:43 26.03.2021
4910 Clouds 4 1022 79 10000 2.36 240 01:18 26.03.2021
4911 Clouds 5 1022 78 10000 2.52 247 00:23 26.03.2021
4912 Clouds 5 1022 76 10000 2.52 247 23:42 25.03.2021
4913 Clouds 6 1021 68 10000 2.55 247 22:50 25.03.2021
4914 Clouds 6 1021 68 10000 2.55 247 22:50 25.03.2021
4915 Clouds 7 1021 71 10000 2.51 239 22:27 25.03.2021
4916 Clouds 6 1021 73 10000 2.52 240 21:49 25.03.2021
4917 Clouds 7 1021 70 10000 2.53 233 21:31 25.03.2021
4918 Clouds 7 1021 69 10000 2.54 233 20:42 25.03.2021
4919 Clouds 8 1021 66 10000 2.34 238 20:24 25.03.2021
4920 Clear 8 1020 65 10000 3.09 210 19:43 25.03.2021
4921 Clouds 10 1020 55 10000 1.9 258 19:25 25.03.2021
4922 Clear 12 1020 50 10000 1.54 250 18:46 25.03.2021
4923 Clear 14 1020 33 10000 3.09 270 18:26 25.03.2021
4924 Clear 14 1020 33 10000 3.09 270 18:26 25.03.2021
4925 Clear 14 1020 33 10000 3.09 270 18:26 25.03.2021
4926 Clear 15 1019 33 10000 3.09 280 17:45 25.03.2021
4927 Clear 15 1019 31 10000 3.09 270 17:27 25.03.2021
4928 Clear 15 1019 31 10000 3.09 270 16:50 25.03.2021
4929 Clouds 16 1024 31 10000 1.79 293 16:29 25.03.2021
4930 Clear 16 1020 29 10000 2.57 230 15:43 25.03.2021
4931 Clouds 16 1024 33 10000 2.24 286 15:20 25.03.2021
4932 Clear 16 1020 31 10000 4.63 250 14:46 25.03.2021
4933 Clouds 16 1020 36 10000 0.89 215 13:52 25.03.2021
4934 Clouds 16 1025 35 10000 1.34 295 13:24 25.03.2021
4935 Clouds 16 1021 38 10000 0.89 317 12:45 25.03.2021
4936 Clouds 15 1020 37 10000 1.79 247 12:21 25.03.2021
4937 Clouds 14 1021 38 10000 2.24 290 11:52 25.03.2021
4938 Clouds 13 1070 53 10000 0.89 155 11:30 25.03.2021
4939 Clouds 13 1021 43 10000 0.89 325 10:55 25.03.2021
4940 Clouds 11 1021 45 10000 1.34 204 10:27 25.03.2021
4941 Clouds 11 1021 46 10000 0.89 220 09:57 25.03.2021
4942 Clouds 10 1026 45 10000 1.77 256 09:38 25.03.2021
4943 Clouds 8 1022 57 10000 1.77 246 08:58 25.03.2021
4944 Clouds 7 1026 58 10000 0.89 173 08:29 25.03.2021
4945 Clouds 2 1021 84 10000 1.99 220 07:26 25.03.2021
4946 Clouds 1 1021 85 10000 2.11 219 06:27 25.03.2021
4947 Clouds 1 1021 85 10000 2.11 219 05:49 25.03.2021
4948 Clouds 1 1021 87 10000 2.1 220 04:33 25.03.2021
4949 Clear 2 1022 84 10000 2.21 215 00:46 25.03.2021
4950 Clear 2 1022 82 10000 2.21 216 00:18 25.03.2021
4951 Clear 3 1023 81 10000 2.21 217 23:36 24.03.2021
4952 Clear 3 1023 80 10000 2.25 217 22:58 24.03.2021
4953 Clear 3 1023 80 10000 2.25 217 22:38 24.03.2021
4954 Clear 4 1023 78 10000 2.15 217 21:50 24.03.2021
4955 Clouds 4 1023 79 10000 1.96 213 21:31 24.03.2021
4956 Clouds 5 1023 75 10000 1.96 213 20:56 24.03.2021
4957 Clear 4 1022 86 10000 1.54 160 20:38 24.03.2021
4958 Clouds 6 1022 71 10000 1.55 210 20:18 24.03.2021
4959 Clear 6 1022 57 10000 1.53 210 19:31 24.03.2021
4960 Clear 9 1022 40 10000 1.54 300 18:53 24.03.2021
4961 Clear 11 1022 37 10000 2.57 250 18:24 24.03.2021
4962 Clear 12 1022 35 10000 2.06 240 17:53 24.03.2021
4963 Clear 12 1022 35 10000 2.57 250 17:32 24.03.2021
4964 Clear 13 1022 38 10000 2.57 230 16:56 24.03.2021
4965 Clear 13 1022 38 10000 2.57 230 16:38 24.03.2021
4966 Clear 13 1022 38 10000 3.6 230 16:18 24.03.2021
4967 Clear 12 1023 40 10000 3.09 270 15:37 24.03.2021
4968 Clear 13 1023 40 10000 3.09 270 15:18 24.03.2021
4969 Clear 13 1027 39 10000 0.89 293 14:29 24.03.2021
4970 Clear 12 1027 41 10000 1.34 295 13:58 24.03.2021
4971 Clear 11 1027 40 10000 0.89 287 13:28 24.03.2021
4972 Clear 11 1024 54 10000 0.89 315 12:50 24.03.2021
4973 Clear 11 1024 53 10000 0.45 186 12:30 24.03.2021
4974 Clear 10 1024 56 10000 0.45 46 11:57 24.03.2021
4975 Clear 10 1024 57 10000 0.45 220 11:39 24.03.2021
4976 Clear 8 1025 63 10000 0.45 46 10:49 24.03.2021
4977 Clear 8 1025 64 10000 0.46 140 10:31 24.03.2021
4978 Clear 6 1025 70 10000 0.7 200 09:55 24.03.2021
4979 Clear 7 1025 68 10000 0.7 200 09:55 24.03.2021
4980 Clear 5 1026 70 10000 0.89 140 09:31 24.03.2021
4981 Clear 4 1025 83 10000 1.16 213 08:58 24.03.2021
4982 Clear 3 1025 88 10000 1.16 213 08:39 24.03.2021
4983 Clear 0 1025 95 10000 1.29 212 07:49 24.03.2021
4984 Clouds -1 1025 94 10000 1.45 206 07:19 24.03.2021
4985 Clouds -2 1025 94 10000 1.4 205 06:45 24.03.2021
4986 Clouds -1 1025 92 10000 1.59 222 02:29 24.03.2021
4987 Clouds 0 1025 90 10000 1.42 222 00:42 24.03.2021
4988 Clouds 0 1025 90 10000 1.21 218 23:52 23.03.2021
4989 Clouds 0 1025 89 10000 0.93 229 23:20 23.03.2021
4990 Clouds 1 1026 90 10000 0.93 229 22:50 23.03.2021
4991 Clouds 1 1026 89 10000 0.93 235 22:25 23.03.2021
4992 Clouds 0 1026 89 10000 0.93 236 21:46 23.03.2021
4993 Clouds 0 1025 89 10000 0.78 244 21:27 23.03.2021
4994 Clouds 1 1025 87 10000 0.77 244 20:47 23.03.2021
4995 Clouds 1 1025 84 10000 0.85 286 20:25 23.03.2021
4996 Clouds 3 1025 79 10000 0.87 287 19:48 23.03.2021
4997 Clouds 4 1025 75 10000 0.82 340 19:26 23.03.2021
4998 Clouds 4 1024 72 10000 0.82 340 18:47 23.03.2021
4999 Clouds 5 1024 68 10000 0.45 271 18:23 23.03.2021
5000 Clouds 6 1024 65 10000 0.45 223 17:49 23.03.2021
5001 Clouds 6 1024 66 10000 1.72 349 17:23 23.03.2021
5002 Clouds 6 1024 68 10000 0.45 265 16:58 23.03.2021
5003 Clouds 6 1024 68 10000 0.45 190 16:25 23.03.2021
5004 Clouds 6 1024 70 10000 0.45 257 15:47 23.03.2021
5005 Clouds 6 1024 69 10000 0.45 51 15:21 23.03.2021
5006 Clouds 6 1024 63 10000 0.45 247 14:44 23.03.2021
5007 Clouds 7 1024 62 10000 0.45 109 14:19 23.03.2021
5008 Clouds 6 1024 62 10000 0.45 284 13:45 23.03.2021
5009 Clouds 6 1024 61 10000 0.89 263 13:23 23.03.2021
5010 Clouds 6 1024 65 10000 0.89 264 12:44 23.03.2021
5011 Clouds 6 1025 65 10000 0.45 242 12:23 23.03.2021
5012 Clouds 6 1025 62 10000 0.89 254 11:48 23.03.2021
5013 Clouds 6 1025 66 10000 0.45 295 11:18 23.03.2021
5014 Clouds 6 1025 66 10000 0.89 279 10:42 23.03.2021
5015 Clouds 5 1025 72 10000 0.45 225 10:20 23.03.2021
5016 Clouds 5 1025 76 10000 0.89 277 09:49 23.03.2021
5017 Clouds 4 1028 74 10000 2.24 321 09:22 23.03.2021
5018 Clouds 3 1025 83 10000 0.89 211 08:54 23.03.2021
5019 Clouds 2 1024 88 10000 1.85 260 08:36 23.03.2021
5020 Clouds 2 1025 90 10000 2.03 249 08:18 23.03.2021
5021 Clouds -1 1024 93 10000 2.06 210 07:26 23.03.2021
5022 Clouds -1 1024 93 10000 1.54 220 06:52 23.03.2021
5023 Clouds 0 1023 86 10000 2.57 240 03:24 23.03.2021
5024 Clouds 0 1024 86 10000 2.57 230 02:29 23.03.2021
5025 Clouds 2 1024 84 10000 1.94 255 23:47 22.03.2021
5026 Clouds 2 1023 84 10000 0.45 209 23:18 22.03.2021
5027 Clouds 2 1023 83 10000 0.45 252 22:42 22.03.2021
5028 Clouds 2 1023 83 10000 0.45 227 22:20 22.03.2021
5029 Clouds 2 1023 82 10000 0.45 277 21:47 22.03.2021
5030 Clouds 2 1023 82 10000 0.45 248 21:26 22.03.2021
5031 Clouds 2 1023 81 10000 2.09 268 20:44 22.03.2021
5032 Clouds 2 1023 80 10000 2.09 275 20:25 22.03.2021
5033 Clouds 2 1023 80 10000 0.45 275 19:58 22.03.2021
5034 Clouds 2 1022 79 10000 0.45 279 19:38 22.03.2021
5035 Clouds 2 1022 79 10000 0.89 296 19:20 22.03.2021
5036 Clouds 3 1022 77 10000 0.89 265 18:41 22.03.2021
5037 Clouds 3 1021 76 10000 1.34 227 18:22 22.03.2021
5038 Clouds 3 1021 75 10000 0.89 252 17:49 22.03.2021
5039 Clouds 4 1020 73 10000 1.34 236 17:22 22.03.2021
5040 Clouds 3 1021 73 10000 1.34 254 16:55 22.03.2021
5041 Clouds 3 1020 74 10000 0.45 231 16:36 22.03.2021
5042 Clouds 3 1020 75 10000 1.34 254 15:43 22.03.2021
5043 Clouds 3 1020 77 9021 0.89 303 15:23 22.03.2021
5044 Clouds 3 1020 78 9021 0.89 255 14:58 22.03.2021
5045 Clouds 3 1020 78 8947 0.45 244 14:34 22.03.2021
5046 Clouds 3 1020 78 8507 0.89 261 13:52 22.03.2021
5047 Clouds 3 1020 78 8508 0.89 267 13:33 22.03.2021
5048 Clouds 3 1020 76 8846 0.89 101 12:59 22.03.2021
5049 Clouds 3 1020 75 8923 0.89 203 12:38 22.03.2021
5050 Clouds 3 1020 80 8187 0.89 271 12:18 22.03.2021
5051 Clouds 3 1020 77 8186 1.34 238 11:40 22.03.2021
5052 Clouds 3 1020 80 7160 0.45 271 11:20 22.03.2021
5053 Clouds 3 1020 79 7160 0.45 252 10:42 22.03.2021
5054 Clouds 3 1019 80 6789 0.45 209 10:20 22.03.2021
5055 Rain 2 1019 83 6789 0.45 243 09:37 22.03.2021
5056 Snow 2 1019 89 8929 3.06 300 08:59 22.03.2021
5057 Snow 2 1019 88 9063 3.07 299 08:41 22.03.2021
5058 Snow 2 1019 85 4197 0.45 240 08:23 22.03.2021
5059 Clouds 1 1018 87 4198 0.45 30 07:43 22.03.2021
5060 Snow 1 1018 89 8627 0.45 276 06:52 22.03.2021
5061 Snow 1 1017 89 5468 0.45 248 05:24 22.03.2021
5062 Clouds 1 1017 89 10000 2.34 270 01:58 22.03.2021
5063 Snow 1 1018 87 10000 0.45 266 00:27 22.03.2021
5064 Snow 1 1017 86 10000 0.45 275 23:53 21.03.2021
5065 Snow 1 1017 84 10000 0.89 254 23:19 21.03.2021
5066 Snow 1 1017 84 10000 0.89 269 22:55 21.03.2021
5067 Snow 1 1017 84 2504 0.89 225 21:59 21.03.2021
5068 Snow 1 1017 83 2460 0.89 273 21:40 21.03.2021
5069 Snow 1 1017 83 76 0.89 244 21:22 21.03.2021
5070 Snow 1 1017 83 76 0.89 238 20:42 21.03.2021
5071 Snow 1 1017 83 4141 0.89 241 20:24 21.03.2021
5072 Snow 1 1017 82 4139 0.89 246 19:52 21.03.2021
5073 Snow 1 1017 81 10000 0.89 267 19:21 21.03.2021
5074 Clouds 1 1017 82 10000 0.89 299 18:48 21.03.2021
5075 Snow 1 1017 83 10000 0.89 284 18:27 21.03.2021
5076 Clouds 1 1017 86 10000 1.34 210 17:48 21.03.2021
5077 Snow 1 1017 86 1503 0.89 288 17:21 21.03.2021
5078 Clouds 1 1017 83 1503 0.89 247 16:59 21.03.2021
5079 Clouds 1 1017 82 1503 1.34 182 16:40 21.03.2021
5080 Clouds 1 1017 79 4864 1.79 219 16:21 21.03.2021
5081 Clouds 1 1017 78 4862 1.79 273 15:41 21.03.2021
5082 Clouds 1 1017 69 10000 7.2 250 15:20 21.03.2021
5083 Clouds 1 1017 69 10000 7.2 250 14:46 21.03.2021
5084 Rain 1 1018 64 10000 6.69 250 14:27 21.03.2021
5085 Snow 1 1018 64 10000 6.17 240 13:54 21.03.2021
5086 Clouds 1 1018 69 10000 7.72 250 13:25 21.03.2021
5087 Snow 1 1018 64 10000 7.2 240 12:42 21.03.2021
5088 Snow 1 1018 71 10000 1.34 285 12:24 21.03.2021
5089 Snow 1 1019 59 10000 6.69 240 11:41 21.03.2021
5090 Snow 0 1019 71 10000 0.89 211 11:20 21.03.2021
5091 Snow 0 1019 70 10000 0.89 230 11:20 21.03.2021
5092 Rain 0 1019 71 10000 0.89 214 10:43 21.03.2021
5093 Clouds 0 1019 72 10000 0.89 220 10:25 21.03.2021
5094 Clouds 0 1019 72 10000 0.89 207 09:47 21.03.2021
5095 Clouds 0 1019 74 10000 0.89 269 09:29 21.03.2021
5096 Clouds 0 1020 75 10000 0.89 230 08:47 21.03.2021
5097 Clouds -1 1020 76 10000 0.89 207 08:26 21.03.2021
5098 Clouds -1 1020 78 10000 0.89 207 07:39 21.03.2021
5099 Clouds -2 1020 79 10000 0.45 241 07:19 21.03.2021
5100 Clouds -3 1020 81 10000 0.45 230 05:59 21.03.2021
5101 Clouds -3 1022 83 10000 0.45 244 02:46 21.03.2021
5102 Clouds -3 1023 84 10000 0.45 232 00:55 21.03.2021
5103 Clouds -3 1023 84 10000 0.45 229 00:36 21.03.2021
5104 Clear -3 1023 85 10000 0.45 202 00:18 21.03.2021
5105 Clear -4 1023 86 10000 0.45 216 23:37 20.03.2021
5106 Clear -4 1024 86 10000 2.64 225 22:57 20.03.2021
5107 Clear -4 1024 82 10000 2.3 223 22:24 20.03.2021
5108 Clear -4 1024 80 10000 2.29 223 21:48 20.03.2021
5109 Clear -4 1024 80 10000 1.84 223 21:25 20.03.2021
5110 Clear -3 1024 76 10000 1.84 223 20:49 20.03.2021
5111 Clouds -3 1024 74 10000 1.27 216 20:24 20.03.2021
5112 Clouds -2 1024 71 10000 1.26 215 19:52 20.03.2021
5113 Clouds -2 1024 69 10000 0.37 284 19:29 20.03.2021
5114 Clouds -1 1024 65 10000 0.53 326 18:52 20.03.2021
5115 Clouds -1 1024 64 10000 1.43 349 18:29 20.03.2021
5116 Clouds -1 1024 72 10000 1.43 349 17:58 20.03.2021
5117 Clouds -1 1023 73 10000 1.43 349 17:40 20.03.2021
5118 Clouds 0 1023 73 10000 0.45 33 17:21 20.03.2021
5119 Clouds 0 1024 66 10000 0.45 221 16:40 20.03.2021
5120 Clouds -1 1024 71 10000 0.45 265 16:19 20.03.2021
5121 Clouds 0 1024 70 10000 2.63 354 15:44 20.03.2021
5122 Clouds -1 1024 73 10000 0.45 218 15:25 20.03.2021
5123 Clouds -1 1024 79 10000 0.89 76 14:40 20.03.2021
5124 Clouds -1 1024 75 10000 0.89 27 14:19 20.03.2021
5125 Clouds -1 1024 75 10000 0.45 67 13:31 20.03.2021
5126 Clouds -1 1024 80 10000 2.71 359 12:41 20.03.2021
5127 Clouds -1 1024 82 10000 0.45 45 12:23 20.03.2021
5128 Clouds -1 1024 82 10000 0.45 45 12:23 20.03.2021
5129 Clouds -1 1024 76 10000 0.45 94 11:43 20.03.2021
5130 Clouds -1 1024 80 10000 0.89 74 11:22 20.03.2021
5131 Clouds -1 1024 76 10000 0.45 122 10:47 20.03.2021
5132 Clouds -1 1024 75 10000 0.45 329 10:25 20.03.2021
5133 Clouds -1 1023 81 10000 0.45 257 09:53 20.03.2021
5134 Clouds -2 1023 82 10000 0.45 231 09:26 20.03.2021
5135 Clouds -2 1023 84 10000 0.45 157 08:55 20.03.2021
5136 Snow -3 1023 87 10000 0.45 217 08:28 20.03.2021
5137 Snow -3 1022 90 10000 0.45 233 07:50 20.03.2021
5138 Snow -3 1022 91 10000 0.45 188 07:30 20.03.2021
5139 Snow -3 1022 92 10000 3.39 23 06:46 20.03.2021
5140 Snow -2 1021 91 264 2.51 18 05:30 20.03.2021
5141 Clouds -3 1021 91 570 1.97 11 03:46 20.03.2021
5142 Clouds -3 1021 91 570 1.97 11 03:46 20.03.2021
5143 Clouds -2 1021 90 8978 1.75 4 02:42 20.03.2021
5144 Clouds -1 1020 90 10000 2.25 357 23:56 19.03.2021
5145 Clouds -1 1020 91 10000 2.42 4 23:22 19.03.2021
5146 Clouds -1 1020 91 10000 2.41 4 22:46 19.03.2021
5147 Snow -1 1020 91 10000 2.28 12 22:26 19.03.2021
5148 Clouds -1 1020 92 10000 0.45 176 21:53 19.03.2021
5149 Snow -1 1019 92 10000 2.46 30 21:21 19.03.2021
5150 Snow -1 1019 92 10000 2.46 30 20:57 19.03.2021
5151 Snow -1 1019 93 10000 0.45 80 20:39 19.03.2021
5152 Clouds 0 1019 93 10000 0.45 334 20:21 19.03.2021
5153 Snow 0 1018 92 10000 2.91 40 19:43 19.03.2021
5154 Clouds 0 1018 91 10000 0.45 79 19:19 19.03.2021
5155 Snow 0 1018 91 10000 0.45 76 18:40 19.03.2021
5156 Snow 1 1017 91 10000 0.45 73 18:18 19.03.2021
5157 Snow 1 1017 91 10000 0.45 73 18:18 19.03.2021
5158 Snow 0 1017 92 10000 4.01 8 17:51 19.03.2021
5159 Snow 1 1017 91 10000 0.89 70 17:27 19.03.2021
5160 Clouds 1 1016 91 10000 1.79 101 16:52 19.03.2021
5161 Clouds 2 1016 80 10000 3.6 80 16:27 19.03.2021
5162 Clouds 3 1016 91 10000 3.1 344 15:47 19.03.2021
5163 Clouds 3 1016 89 10000 0.45 151 15:22 19.03.2021
5164 Rain 3 1016 86 10000 0.45 72 14:46 19.03.2021
5165 Clouds 3 1016 83 10000 0.89 34 14:26 19.03.2021
5166 Clouds 4 1016 77 10000 1.34 304 13:40 19.03.2021
5167 Clouds 3 1016 86 10000 0.45 258 12:51 19.03.2021
5168 Clouds 3 1016 86 10000 0.45 255 12:33 19.03.2021
5169 Clouds 2 1016 90 10000 0.89 240 11:44 19.03.2021
5170 Rain 0 1016 91 7172 0.45 262 10:54 19.03.2021
5171 Clouds 1 1016 91 9783 1.6 268 10:31 19.03.2021
5172 Clouds 1 1016 91 9775 1.61 268 09:58 19.03.2021
5173 Snow 0 1016 91 9783 1.6 268 09:39 19.03.2021
5174 Snow 0 1016 92 10000 1.59 255 09:19 19.03.2021
5175 Clouds 0 1015 93 10000 1.59 255 08:40 19.03.2021
5176 Snow -1 1015 94 10000 1.53 249 08:21 19.03.2021
5177 Clouds -1 1015 94 10000 1.53 249 07:39 19.03.2021
5178 Clouds -1 1015 94 10000 1 268 06:56 19.03.2021
5179 Clouds -1 1015 95 10000 1.57 240 03:57 19.03.2021
5180 Clouds 0 1016 94 9979 1.83 258 00:58 19.03.2021
5181 Clouds -1 1016 93 10000 1.74 255 23:50 18.03.2021
5182 Clouds -1 1016 93 10000 1.57 252 23:26 18.03.2021
5183 Clouds -1 1016 93 10000 1.56 252 22:44 18.03.2021
5184 Clouds 0 1017 92 10000 1.32 268 22:25 18.03.2021
5185 Clouds -1 1017 93 10000 0.45 217 21:40 18.03.2021
5186 Snow 0 1017 93 10000 1.2 297 21:20 18.03.2021
5187 Snow 0 1017 93 10000 1.18 297 20:39 18.03.2021
5188 Clouds 0 1017 93 10000 1.31 314 20:20 18.03.2021
5189 Clouds 0 1017 93 10000 1.33 314 19:42 18.03.2021
5190 Clouds 0 1017 92 10000 1.8 328 19:22 18.03.2021
5191 Clouds 0 1017 91 10000 1.66 336 18:41 18.03.2021
5192 Clouds 1 1018 89 10000 0.45 279 17:54 18.03.2021
5193 Snow 2 1018 90 10000 0.45 238 17:26 18.03.2021
5194 Clouds 2 1018 91 10000 0.45 274 16:54 18.03.2021
5195 Clouds 4 1063 58 10000 0.89 281 16:35 18.03.2021
5196 Rain 4 1022 75 10000 0.89 355 15:59 18.03.2021
5197 Rain 3 1018 84 10000 2.71 340 15:41 18.03.2021
5198 Rain 4 1018 77 10000 0.45 184 15:19 18.03.2021
5199 Rain 4 1018 73 10000 0.89 87 15:19 18.03.2021
5200 Clouds 4 1019 73 10000 2.67 339 14:45 18.03.2021
5201 Clouds 4 1019 65 10000 0.89 264 14:19 18.03.2021
5202 Clouds 4 1019 72 10000 1.34 277 13:37 18.03.2021
5203 Clouds 4 1019 80 10000 0.89 215 13:19 18.03.2021
5204 Clouds 4 1020 74 10000 0.89 227 12:38 18.03.2021
5205 Clouds 3 1020 81 10000 0.45 229 12:19 18.03.2021
5206 Clouds 2 1020 85 10000 0.89 192 11:45 18.03.2021
5207 Snow 2 1021 86 10000 0.45 257 11:22 18.03.2021
5208 Clouds 1 1021 89 10000 2.15 324 10:42 18.03.2021
5209 Clouds 1 1021 89 10000 1.69 318 10:23 18.03.2021
5210 Clouds 1 1021 91 10000 1.69 318 09:53 18.03.2021
5211 Clouds 0 1021 92 10000 1.47 316 09:27 18.03.2021
5212 Clouds 0 1021 93 10000 1.47 316 08:46 18.03.2021
5213 Clouds -1 1021 93 10000 1.4 313 08:26 18.03.2021
5214 Snow -1 1021 93 10000 1.39 313 07:48 18.03.2021
5215 Snow -1 1021 91 10000 1.25 318 06:50 18.03.2021
5216 Snow -1 1021 91 10000 1.15 285 06:26 18.03.2021
5217 Clouds -1 1021 90 10000 1.15 285 05:40 18.03.2021
5218 Clouds 0 1021 91 10000 1.16 298 00:51 18.03.2021
5219 Clouds 0 1021 91 10000 1.01 308 23:58 17.03.2021
5220 Snow 0 1021 88 10000 0.96 315 22:44 17.03.2021
5221 Snow 0 1021 86 10000 1.09 331 22:24 17.03.2021
5222 Snow 1 1021 86 10000 1.09 331 21:53 17.03.2021
5223 Snow 1 1021 83 10000 1.09 331 21:33 17.03.2021
5224 Snow 1 1021 83 10000 1.09 331 21:33 17.03.2021
5225 Snow 1 1021 81 10000 1.31 348 20:58 17.03.2021
5226 Snow 1 1020 80 10000 1.31 348 20:40 17.03.2021
5227 Clouds 1 1020 80 10000 1.44 349 20:21 17.03.2021
5228 Clouds 1 1020 78 10000 1.45 349 19:43 17.03.2021
5229 Clouds 2 1020 78 10000 1.56 348 19:21 17.03.2021
5230 Clouds 2 1020 79 10000 1.72 350 18:52 17.03.2021
5231 Clouds 2 1020 79 10000 1.74 350 18:33 17.03.2021
5232 Clouds 2 1020 79 10000 2.36 337 17:46 17.03.2021
5233 Clouds 3 1020 78 10000 3.4 338 17:23 17.03.2021
5234 Clouds 2 1019 85 10000 3.39 338 16:45 17.03.2021
5235 Clouds 4 1020 69 10000 2.68 350 16:24 17.03.2021
5236 Rain 3 1019 76 10000 0.89 119 15:53 17.03.2021
5237 Clouds 3 1019 74 10000 0.89 275 15:35 17.03.2021
5238 Clouds 3 1019 72 10000 0.45 214 14:45 17.03.2021
5239 Clouds 3 1019 71 10000 0.89 232 14:27 17.03.2021
5240 Clouds 3 1019 80 10000 6.69 360 13:55 17.03.2021
5241 Clouds 3 1019 86 10000 1.34 238 13:30 17.03.2021
5242 Clouds 3 1019 81 5721 1.34 266 12:51 17.03.2021
5243 Clouds 3 1019 78 2277 0.45 259 12:33 17.03.2021
5244 Clouds 3 1019 91 2285 0.89 265 11:51 17.03.2021
5245 Clouds 3 1019 89 4557 0.45 98 11:23 17.03.2021
5246 Rain 2 1020 88 4557 0.89 273 10:55 17.03.2021
5247 Rain 2 1020 87 6297 0.45 260 10:28 17.03.2021
5248 Clouds 2 1020 94 6293 0.45 252 09:49 17.03.2021
5249 Snow 1 1020 96 3391 2.66 321 09:28 17.03.2021
5250 Snow 1 1020 96 3393 2.66 321 08:59 17.03.2021
5251 Snow 1 1020 97 3391 2.66 321 08:39 17.03.2021
5252 Snow 1 1019 97 10000 2.65 316 07:55 17.03.2021
5253 Snow 0 1019 97 10000 2.65 316 07:35 17.03.2021
5254 Clouds 0 1019 97 7210 2.26 313 06:47 17.03.2021
5255 Snow 1 1018 96 8926 2.66 299 04:26 17.03.2021
5256 Snow 1 1019 96 8913 3.29 297 03:25 17.03.2021
5257 Snow 1 1020 95 67 0.45 275 00:41 17.03.2021
5258 Snow 1 1020 95 60 4.25 271 23:40 16.03.2021
5259 Snow 1 1020 95 142 4.74 261 23:18 16.03.2021
5260 Snow 1 1021 94 138 0.45 236 22:43 16.03.2021
5261 Snow 1 1021 94 148 0.89 232 22:25 16.03.2021
5262 Snow 1 1021 92 148 0.45 226 21:42 16.03.2021
5263 Snow 1 1021 92 3193 0.45 187 21:24 16.03.2021
5264 Snow 1 1021 93 3198 0.89 266 20:47 16.03.2021
5265 Snow 1 1021 92 10000 0.45 215 20:19 16.03.2021
5266 Snow 1 1021 92 10000 0.45 215 20:19 16.03.2021
5267 Snow 1 1021 91 10000 0.45 200 19:46 16.03.2021
5268 Clouds 2 1021 91 10000 3.33 295 19:27 16.03.2021
5269 Clouds 2 1021 90 10000 3.27 300 18:53 16.03.2021
5270 Clouds 2 1021 88 10000 0.45 195 18:35 16.03.2021
5271 Clouds 3 1020 80 10000 0.89 298 17:52 16.03.2021
5272 Rain 3 1020 82 9096 0.45 273 17:33 16.03.2021
5273 Clouds 3 1020 86 9140 0.45 284 16:58 16.03.2021
5274 Rain 4 1021 77 9140 2.68 311 16:38 16.03.2021
5275 Clouds 4 1020 70 4771 0.89 258 16:19 16.03.2021
5276 Clouds 5 1020 72 4769 1.34 281 15:40 16.03.2021
5277 Clouds 4 1020 71 10000 1.79 273 15:19 16.03.2021
5278 Clouds 4 1020 71 10000 2.68 285 14:56 16.03.2021
5279 Clouds 4 1020 76 10000 2.24 273 14:37 16.03.2021
5280 Clouds 4 1020 76 10000 1.79 296 14:18 16.03.2021
5281 Clouds 4 1020 75 10000 2.24 155 13:41 16.03.2021
5282 Clouds 4 1020 73 10000 2.24 254 13:19 16.03.2021
5283 Clouds 4 1020 78 10000 1.79 277 12:40 16.03.2021
5284 Clouds 4 1020 86 8152 1.34 230 12:19 16.03.2021
5285 Clouds 3 1020 88 8048 2.24 279 11:36 16.03.2021
5286 Clouds 3 1020 90 4090 1.79 197 10:53 16.03.2021
5287 Clouds 3 1020 90 4090 1.79 197 10:53 16.03.2021
5288 Clouds 2 1020 92 2202 1.79 275 10:22 16.03.2021
5289 Clouds 2 1020 94 2204 1.79 243 09:47 16.03.2021
5290 Snow 1 1019 94 2139 1.79 279 09:24 16.03.2021
5291 Clouds 1 1019 95 2140 0.89 276 08:57 16.03.2021
5292 Clouds 1 1019 94 2139 1.34 236 08:39 16.03.2021
5293 Snow 1 1018 93 8316 0.89 252 07:57 16.03.2021
5294 Snow 1 1018 93 8515 1.34 249 07:33 16.03.2021
5295 Snow 1 1017 93 72 1.34 275 06:39 16.03.2021
5296 Snow 1 1017 94 89 1.34 213 05:37 16.03.2021
5297 Snow 1 1017 94 915 0.89 265 05:18 16.03.2021
5298 Clouds 1 1016 95 5288 1.34 304 02:45 16.03.2021
5299 Snow 1 1015 95 3660 1.34 229 02:23 16.03.2021
5300 Snow 1 1014 94 67 0.89 269 23:56 15.03.2021
5301 Snow 2 1014 93 34 1.34 255 23:28 15.03.2021
5302 Rain 2 1014 94 34 0.89 270 22:51 15.03.2021
5303 Rain 2 1014 94 34 0.89 228 22:33 15.03.2021
5304 Snow 2 1014 93 69 0.89 223 21:55 15.03.2021
5305 Clouds 2 1014 93 69 0.89 281 21:34 15.03.2021
5306 Clouds 2 1014 93 5420 0.89 184 20:58 15.03.2021
5307 Clouds 2 1014 93 5544 0.89 275 20:40 15.03.2021
5308 Clouds 2 1013 94 10000 0.89 220 20:21 15.03.2021
5309 Clouds 2 1013 94 10000 0.45 236 19:51 15.03.2021
5310 Clouds 2 1013 94 10000 0.45 211 19:32 15.03.2021
5311 Clouds 2 1013 93 10000 0.45 223 18:57 15.03.2021
5312 Clouds 3 1012 93 10000 0.45 263 18:32 15.03.2021
5313 Clouds 3 1012 93 10000 0.45 279 17:56 15.03.2021
5314 Clouds 3 1011 94 10000 1.34 243 17:32 15.03.2021
5315 Clouds 3 1011 94 7264 1.34 271 16:56 15.03.2021
5316 Clouds 3 1011 93 6989 2.24 281 16:35 15.03.2021
5317 Clouds 3 1010 93 358 1.79 225 15:47 15.03.2021
5318 Rain 3 1009 92 1117 1.79 232 15:27 15.03.2021
5319 Clouds 4 1009 93 1060 1.79 300 14:45 15.03.2021
5320 Clouds 4 1009 93 10000 1.79 253 14:27 15.03.2021
5321 Clouds 3 1009 94 10000 1.34 277 13:55 15.03.2021
5322 Rain 4 1009 93 10000 1.34 175 13:34 15.03.2021
5323 Rain 3 1010 93 8872 1.79 303 12:51 15.03.2021
5324 Rain 4 1010 90 3449 1.79 281 12:20 15.03.2021
5325 Clouds 4 1010 91 3451 1.34 200 11:57 15.03.2021
5326 Clouds 4 1010 90 3451 0.89 223 11:38 15.03.2021
5327 Clouds 3 1010 89 1951 1.34 217 11:18 15.03.2021
5328 Clouds 4 1010 90 1951 1.79 192 10:34 15.03.2021
5329 Clouds 3 1011 92 6926 0.89 249 09:59 15.03.2021
5330 Clouds 3 1011 91 6932 0.89 198 09:40 15.03.2021
5331 Clouds 3 1011 90 10000 0.89 227 09:20 15.03.2021
5332 Clouds 2 1011 90 10000 0.45 186 08:42 15.03.2021
5333 Clouds 2 1011 91 8720 0.89 184 08:21 15.03.2021
5334 Snow 1 1011 93 8725 0.89 229 07:33 15.03.2021
5335 Clouds 1 1012 94 10000 0.89 207 06:48 15.03.2021
5336 Clouds 1 1012 94 10000 0.89 215 05:36 15.03.2021
5337 Snow 1 1013 94 10000 0.45 204 03:20 15.03.2021
5338 Clouds 2 1013 94 10000 0.45 236 00:27 15.03.2021
5339 Clouds 1 1014 95 10000 4.5 262 23:24 14.03.2021
5340 Clouds 1 1014 95 10000 0.45 281 22:49 14.03.2021
5341 Clouds 1 1014 95 10000 0.45 215 22:28 14.03.2021
5342 Clouds 1 1014 95 10000 0.89 220 21:53 14.03.2021
5343 Snow 1 1014 95 6993 0.45 229 21:24 14.03.2021
5344 Clouds 1 1014 95 7206 0.89 247 20:59 14.03.2021
5345 Clouds 1 1013 94 7207 5.36 285 20:40 14.03.2021
5346 Snow 1 1013 94 4344 5.77 286 20:22 14.03.2021
5347 Snow 1 1013 92 4396 5.77 286 19:41 14.03.2021
5348 Snow 1 1013 91 8570 0.45 282 19:19 14.03.2021
5349 Clouds 2 1013 88 1268 0.89 227 18:37 14.03.2021
5350 Clouds 4 1012 74 10000 1.34 232 17:56 14.03.2021
5351 Clouds 4 1011 79 10000 0.45 260 17:37 14.03.2021
5352 Clouds 4 1011 78 10000 0.45 295 17:19 14.03.2021
5353 Clouds 5 1011 78 10000 1.34 241 16:40 14.03.2021
5354 Clouds 5 1011 81 10000 1.34 271 16:21 14.03.2021
5355 Clouds 5 1011 81 10000 1.34 271 16:21 14.03.2021
5356 Clouds 6 1059 62 10000 1.79 137 15:48 14.03.2021
5357 Clouds 5 1012 77 10000 0.89 242 14:59 14.03.2021
5358 Clouds 5 1011 80 10000 1.79 178 14:40 14.03.2021
5359 Clouds 4 1012 92 3877 0.89 254 14:20 14.03.2021
5360 Clouds 4 1016 80 3877 2.68 302 13:43 14.03.2021
5361 Rain 4 1011 89 10000 1.34 225 13:24 14.03.2021
5362 Clouds 4 1011 79 7885 2.24 207 12:42 14.03.2021
5363 Clouds 3 1012 83 8389 2.24 242 12:23 14.03.2021
5364 Clouds 3 1012 87 8389 2.24 245 11:41 14.03.2021
5365 Clouds 2 1011 89 845 2.68 296 11:22 14.03.2021
5366 Clouds 2 1011 94 875 2.24 247 10:38 14.03.2021
5367 Snow 2 1011 95 1542 1.79 261 10:20 14.03.2021
5368 Clouds 1 1011 94 1542 1.34 263 09:59 14.03.2021
5369 Clouds 1 1011 94 1540 0.89 230 09:40 14.03.2021
5370 Snow 1 1011 94 5080 2.24 284 09:20 14.03.2021
5371 Snow 1 1010 94 5238 1.34 286 08:39 14.03.2021
5372 Snow 1 1009 94 4259 1.79 230 07:58 14.03.2021
5373 Snow 1 1009 94 10000 1.79 126 07:28 14.03.2021
5374 Rain 2 1006 92 6897 1.79 231 05:38 14.03.2021
5375 Rain 4 1006 79 10000 4.02 250 01:29 14.03.2021
5376 Clouds 5 1005 80 10000 2.24 244 00:42 14.03.2021
5377 Clouds 5 1005 81 10000 2.68 180 00:18 14.03.2021
5378 Clouds 4 1005 81 10000 1.79 182 23:40 13.03.2021
5379 Clouds 4 1006 81 10000 2.24 227 23:19 13.03.2021
5380 Clouds 4 1006 85 10000 2.68 190 22:46 13.03.2021
5381 Rain 4 1006 87 9325 2.68 204 22:23 13.03.2021
5382 Rain 4 1006 89 9323 1.79 209 21:36 13.03.2021
5383 Rain 4 1007 89 6901 1.34 227 21:18 13.03.2021
5384 Rain 5 1007 88 6921 2.24 298 20:46 13.03.2021
5385 Rain 5 1006 87 10000 2.24 294 20:25 13.03.2021
5386 Rain 5 1006 84 10000 3.58 295 19:44 13.03.2021
5387 Rain 5 1005 81 10000 3.13 261 19:24 13.03.2021
5388 Clouds 6 1005 79 10000 3.13 262 18:43 13.03.2021
5389 Rain 8 1004 60 10000 5.36 244 18:20 13.03.2021
5390 Rain 9 1004 55 10000 4.92 260 17:51 13.03.2021
5391 Rain 10 1004 51 10000 4.92 277 17:32 13.03.2021
5392 Rain 11 1003 46 10000 3.13 210 16:55 13.03.2021
5393 Clouds 11 1003 45 10000 2.24 153 16:37 13.03.2021
5394 Clouds 11 1004 42 10000 2.24 243 15:57 13.03.2021
5395 Clouds 12 1004 44 10000 1.34 286 15:21 13.03.2021
5396 Clouds 12 1004 43 10000 0.89 201 14:42 13.03.2021
5397 Clouds 12 1004 44 10000 1.34 292 14:23 13.03.2021
5398 Clouds 12 1004 42 10000 1.34 228 14:23 13.03.2021
5399 Clouds 12 1010 39 10000 4.02 300 13:30 13.03.2021
5400 Clouds 12 1005 44 10000 1.79 183 12:56 13.03.2021
5401 Clouds 11 1006 47 10000 2.24 188 12:38 13.03.2021
5402 Clouds 10 1006 47 10000 2.24 240 11:58 13.03.2021
5403 Clouds 10 1007 48 10000 1.34 197 11:39 13.03.2021
5404 Clouds 10 1007 52 10000 0.45 227 11:21 13.03.2021
5405 Clouds 8 1007 55 10000 0.89 233 10:46 13.03.2021
5406 Clouds 8 1008 56 10000 0.45 227 10:24 13.03.2021
5407 Clouds 7 1009 59 10000 0.45 238 09:34 13.03.2021
5408 Clouds 7 1009 60 10000 0.45 290 08:58 13.03.2021
5409 Clouds 7 1008 58 10000 1.34 200 08:38 13.03.2021
5410 Clouds 7 1009 60 10000 1.34 190 08:18 13.03.2021
5411 Clouds 6 1013 55 10000 3.58 274 07:39 13.03.2021
5412 Clouds 6 1009 63 10000 2.24 211 05:45 13.03.2021
5413 Clouds 6 1011 55 10000 1.79 207 02:42 13.03.2021
5414 Clouds 5 1039 61 10000 1.79 59 00:44 13.03.2021
5415 Clouds 5 1043 62 10000 2.24 124 23:51 12.03.2021
5416 Clouds 5 1043 64 10000 1.34 141 23:32 12.03.2021
5417 Clouds 5 1012 61 10000 0.45 223 22:42 12.03.2021
5418 Clouds 6 1012 62 10000 0.45 230 22:23 12.03.2021
5419 Clouds 5 1012 64 10000 0.89 223 21:43 12.03.2021
5420 Clouds 5 1011 66 10000 0.45 232 21:24 12.03.2021
5421 Clouds 6 1011 64 10000 0.89 275 20:55 12.03.2021
5422 Clouds 6 1011 65 10000 0.89 229 20:32 12.03.2021
5423 Clear 6 1012 63 10000 0.89 213 19:56 12.03.2021
5424 Clear 6 1012 61 10000 0.45 228 19:38 12.03.2021
5425 Clouds 7 1012 57 10000 0.89 281 18:59 12.03.2021
5426 Clouds 7 1011 57 10000 0.45 221 18:35 12.03.2021
5427 Clouds 8 1011 52 10000 1.79 242 17:49 12.03.2021
5428 Clouds 9 1011 51 10000 1.79 244 17:30 12.03.2021
5429 Clouds 9 1012 49 10000 2.68 261 16:59 12.03.2021
5430 Clouds 9 1012 49 10000 3.13 267 16:36 12.03.2021
5431 Clouds 9 1012 50 10000 1.79 254 15:52 12.03.2021
5432 Clouds 10 1012 46 10000 3.13 253 15:31 12.03.2021
5433 Clouds 10 1011 43 10000 4.47 267 14:48 12.03.2021
5434 Clouds 9 1012 50 10000 2.24 253 14:21 12.03.2021
5435 Clouds 9 1013 54 10000 1.79 182 13:44 12.03.2021
5436 Clouds 9 1013 52 10000 2.68 278 13:23 12.03.2021
5437 Clouds 9 1013 57 10000 2.24 269 12:57 12.03.2021
5438 Clouds 9 1014 53 10000 2.68 265 12:38 12.03.2021
5439 Clouds 9 1014 53 10000 2.68 259 12:19 12.03.2021
5440 Clouds 9 1014 57 10000 3.58 236 11:49 12.03.2021
5441 Clear 8 1019 55 10000 5.81 264 11:22 12.03.2021
5442 Clear 8 1014 60 10000 2.68 280 10:50 12.03.2021
5443 Clear 7 1014 67 10000 3.58 265 10:25 12.03.2021
5444 Clear 6 1015 76 10000 1.34 210 09:52 12.03.2021
5445 Clear 5 1015 79 10000 1.79 271 09:20 12.03.2021
5446 Clear 4 1015 84 10000 2.68 305 08:44 12.03.2021
5447 Clear 4 1014 90 10000 0.89 275 07:57 12.03.2021
5448 Rain 4 1013 90 10000 0.45 244 07:32 12.03.2021
5449 Rain 4 1013 89 10000 0.45 238 06:49 12.03.2021
5450 Clouds 4 1013 88 10000 1.79 258 06:26 12.03.2021
5451 Rain 4 1011 92 10000 1.34 215 02:21 12.03.2021
5452 Clouds 7 1010 86 10000 1.79 257 00:19 12.03.2021
5453 Rain 8 1009 86 10000 2.24 315 23:25 11.03.2021
5454 Clouds 7 1009 86 10000 2.24 261 22:43 11.03.2021
5455 Clouds 8 1008 85 10000 3.58 240 22:24 11.03.2021
5456 Rain 8 1007 91 10000 3.13 275 21:47 11.03.2021
5457 Rain 8 1007 92 8684 2.24 261 21:27 11.03.2021
5458 Rain 8 1007 90 8684 2.24 236 20:53 11.03.2021
5459 Rain 9 1007 90 9754 2.24 249 20:35 11.03.2021
5460 Rain 9 1007 87 9755 2.24 242 19:59 11.03.2021
5461 Rain 10 1007 77 9754 3.13 233 19:41 11.03.2021
5462 Clouds 11 1006 71 10000 3.13 254 19:19 11.03.2021
5463 Rain 13 1005 58 10000 10.8 250 18:43 11.03.2021
5464 Rain 13 1005 65 10000 3.13 283 18:24 11.03.2021
5465 Clouds 14 1005 54 10000 9.26 240 17:42 11.03.2021
5466 Clouds 14 1005 57 10000 3.13 290 16:47 11.03.2021
5467 Clouds 14 1006 57 10000 2.68 183 16:27 11.03.2021
5468 Rain 14 1006 55 10000 4.47 311 15:48 11.03.2021
5469 Clouds 15 1006 53 10000 4.02 266 15:21 11.03.2021
5470 Clouds 15 1007 53 10000 3.58 250 15:21 11.03.2021
5471 Clouds 15 1007 53 10000 3.58 250 15:21 11.03.2021
5472 Clouds 15 1007 54 10000 2.68 215 14:46 11.03.2021
5473 Clouds 14 1007 56 10000 3.13 241 14:19 11.03.2021
5474 Clouds 15 1008 56 10000 4.92 194 13:46 11.03.2021
5475 Clouds 15 1008 51 10000 11.32 240 13:28 11.03.2021
5476 Clouds 15 1008 55 10000 2.24 202 12:57 11.03.2021
5477 Clouds 14 1008 52 10000 3.58 182 12:37 11.03.2021
5478 Clouds 13 1008 56 10000 3.58 299 12:19 11.03.2021
5479 Clouds 12 1009 59 10000 2.68 195 11:42 11.03.2021
5480 Clouds 10 1009 61 10000 0.89 255 11:20 11.03.2021
5481 Clouds 10 1010 62 10000 1.34 244 10:39 11.03.2021
5482 Clouds 6 1010 53 10000 8.23 230 10:19 11.03.2021
5483 Clouds 6 1010 57 10000 7.72 230 09:39 11.03.2021
5484 Clouds 5 1010 57 10000 6.17 230 09:21 11.03.2021
5485 Rain 5 1011 74 10000 2.34 206 08:46 11.03.2021
5486 Clouds 4 1011 75 10000 0.45 186 08:18 11.03.2021
5487 Clouds 4 1011 70 10000 2.62 206 07:29 11.03.2021
5488 Clouds 4 1011 68 10000 0.45 177 06:50 11.03.2021
5489 Clouds 4 1011 66 10000 0.45 171 06:25 11.03.2021
5490 Clouds 0 1014 86 10000 2.57 188 02:50 11.03.2021
5491 Clouds 0 1015 89 10000 0.45 185 00:59 11.03.2021
5492 Clouds 1 1016 90 10000 0.45 171 23:32 10.03.2021
5493 Clouds 1 1016 91 10000 0.45 184 22:57 10.03.2021
5494 Clouds 1 1017 91 10000 2.33 169 22:33 10.03.2021
5495 Clouds 1 1017 91 10000 0.45 168 21:47 10.03.2021
5496 Clouds 1 1017 90 10000 2.3 171 21:26 10.03.2021
5497 Clouds 1 1017 88 10000 2.27 169 20:51 10.03.2021
5498 Clouds 2 1018 88 10000 2.27 169 20:33 10.03.2021
5499 Clouds 2 1018 88 10000 1.87 172 19:54 10.03.2021
5500 Clouds 3 1018 85 10000 0.91 180 19:33 10.03.2021
5501 Clouds 4 1018 82 10000 0.92 180 18:56 10.03.2021
5502 Clouds 4 1018 65 10000 2.06 260 18:37 10.03.2021
5503 Clouds 5 1018 74 10000 0.6 293 18:18 10.03.2021
5504 Clouds 6 1018 56 10000 3.6 260 17:41 10.03.2021
5505 Clouds 6 1018 72 10000 1.76 303 17:19 10.03.2021
5506 Clouds 6 1018 70 10000 0.45 298 16:48 10.03.2021
5507 Clouds 6 1018 69 10000 0.45 279 16:25 10.03.2021
5508 Clouds 6 1018 69 10000 1.34 260 15:54 10.03.2021
5509 Clouds 6 1018 70 10000 0.89 228 15:36 10.03.2021
5510 Clouds 6 1019 70 10000 1.34 254 15:18 10.03.2021
5511 Clouds 6 1019 73 10000 0.89 263 14:23 10.03.2021
5512 Clouds 6 1019 79 10000 0.89 243 13:58 10.03.2021
5513 Rain 4 1023 71 10000 1.79 292 13:34 10.03.2021
5514 Clouds 5 1019 86 10000 0.89 221 12:53 10.03.2021
5515 Clouds 4 1019 88 762 0.45 234 12:32 10.03.2021
5516 Clouds 4 1020 90 726 0.45 227 11:58 10.03.2021
5517 Clouds 4 1020 93 764 0.45 241 11:30 10.03.2021
5518 Clouds 3 1020 94 3644 0.45 273 10:56 10.03.2021
5519 Clouds 3 1020 94 3644 0.45 223 10:34 10.03.2021
5520 Rain 3 1020 94 6024 0.45 199 09:58 10.03.2021
5521 Rain 3 1020 94 6174 0.45 284 09:40 10.03.2021
5522 Clouds 2 1019 94 119 0.45 279 09:20 10.03.2021
5523 Clouds 2 1019 95 119 0.89 238 08:46 10.03.2021
5524 Snow 2 1019 95 51 0.45 243 08:28 10.03.2021
5525 Snow 1 1018 95 50 0.45 230 07:48 10.03.2021
5526 Snow 1 1018 95 68 0.45 292 07:29 10.03.2021
5527 Snow 1 1018 95 141 0.45 294 07:29 10.03.2021
5528 Snow 1 1018 95 141 0.45 275 06:53 10.03.2021
5529 Snow 1 1018 95 1600 3.57 257 05:59 10.03.2021
5530 Snow 1 1017 94 241 2.05 239 00:48 10.03.2021
5531 Clouds 1 1018 93 134 1.76 243 23:49 09.03.2021
5532 Snow 2 1018 91 299 1.05 250 22:59 09.03.2021
5533 Snow 2 1018 90 287 1.08 250 22:38 09.03.2021
5534 Snow 2 1018 89 2890 0.46 323 22:18 09.03.2021
5535 Clouds 2 1018 88 2784 0.46 319 21:45 09.03.2021
5536 Clouds 2 1017 86 10000 1.26 352 21:24 09.03.2021
5537 Clouds 2 1018 82 10000 1.26 352 20:56 09.03.2021
5538 Rain 3 1017 80 10000 1.26 352 20:38 09.03.2021
5539 Rain 3 1017 77 10000 0.45 302 20:19 09.03.2021
5540 Clouds 3 1017 74 10000 1.89 2 19:46 09.03.2021
5541 Clouds 4 1017 72 10000 0.45 9 19:25 09.03.2021
5542 Clouds 4 1016 62 10000 1.71 22 18:43 09.03.2021
5543 Clouds 4 1016 61 10000 1.93 8 18:25 09.03.2021
5544 Clouds 5 1015 59 10000 0.45 57 17:50 09.03.2021
5545 Clouds 5 1015 57 10000 1.96 358 17:28 09.03.2021
5546 Clouds 5 1015 56 10000 1.96 359 16:44 09.03.2021
5547 Clouds 6 1015 55 10000 2.08 353 16:26 09.03.2021
5548 Clouds 6 1015 53 10000 0.45 74 15:59 09.03.2021
5549 Clouds 6 1015 54 10000 0.89 29 15:36 09.03.2021
5550 Clouds 6 1015 55 10000 0.45 103 15:18 09.03.2021
5551 Clouds 6 1015 57 10000 0.45 61 14:28 09.03.2021
5552 Clouds 6 1015 57 10000 0.45 61 14:28 09.03.2021
5553 Clouds 6 1015 58 10000 0.45 94 13:57 09.03.2021
5554 Clouds 6 1016 54 10000 0.45 252 13:36 09.03.2021
5555 Clouds 6 1016 54 10000 0.45 159 13:18 09.03.2021
5556 Clouds 6 1016 59 10000 0.45 247 12:39 09.03.2021
5557 Clouds 5 1016 63 10000 0.45 65 12:18 09.03.2021
5558 Clouds 4 1016 68 10000 0.45 207 11:41 09.03.2021
5559 Clouds 5 1016 65 10000 0.45 48 11:20 09.03.2021
5560 Clouds 4 1016 69 10000 1.79 48 10:54 09.03.2021
5561 Clouds 3 1016 77 10000 1.79 48 10:36 09.03.2021
5562 Clouds 2 1016 80 10000 1.62 55 10:18 09.03.2021
5563 Clouds 2 1016 84 10000 1.63 55 09:41 09.03.2021
5564 Clouds 0 1016 91 10000 1.27 65 09:22 09.03.2021
5565 Clouds -2 1016 93 10000 1.28 66 08:36 09.03.2021
5566 Clouds -2 1016 93 10000 1.04 71 08:18 09.03.2021
5567 Mist -5 1016 93 5000 1.04 71 07:37 09.03.2021
5568 Mist -5 1016 93 5000 0.76 79 07:19 09.03.2021
5569 Clouds -4 1016 93 10000 1.02 96 05:55 09.03.2021
5570 Clear -5 1016 100 8000 1.2 87 05:35 09.03.2021
5571 Clouds -2 1018 90 10000 1.61 89 00:29 09.03.2021
5572 Clouds -1 1018 88 10000 1.61 89 23:43 08.03.2021
5573 Clouds -1 1019 89 10000 1.66 78 23:25 08.03.2021
5574 Clouds 0 1019 86 10000 1.65 78 22:48 08.03.2021
5575 Clouds 0 1019 84 10000 1.8 68 22:29 08.03.2021
5576 Clouds 1 1019 82 10000 0.45 35 21:56 08.03.2021
5577 Clouds 2 1019 81 10000 0.45 47 21:35 08.03.2021
5578 Clouds 2 1019 77 10000 0.89 42 20:48 08.03.2021
5579 Clouds 2 1019 76 10000 0.89 41 20:27 08.03.2021
5580 Clouds 2 1019 71 10000 1.79 59 19:59 08.03.2021
5581 Clouds 2 1019 69 10000 0.45 34 19:36 08.03.2021
5582 Clouds 4 1018 61 10000 2.29 51 18:42 08.03.2021
5583 Clouds 4 1018 59 10000 2.18 46 18:23 08.03.2021
5584 Clouds 5 1018 57 10000 0.45 51 17:56 08.03.2021
5585 Clouds 5 1018 54 10000 0.45 40 17:38 08.03.2021
5586 Clouds 6 1018 52 10000 0.45 76 16:56 08.03.2021
5587 Clouds 6 1018 51 10000 0.45 48 16:33 08.03.2021
5588 Clouds 6 1018 56 10000 0.45 53 15:57 08.03.2021
5589 Clear 6 1018 58 10000 2.36 18 15:31 08.03.2021
5590 Clear 6 1018 57 10000 0.45 118 14:59 08.03.2021
5591 Clear 6 1018 59 10000 0.89 65 14:21 08.03.2021
5592 Clear 6 1019 58 10000 0.45 36 13:47 08.03.2021
5593 Clear 6 1019 64 10000 0.45 32 13:23 08.03.2021
5594 Clear 5 1019 63 10000 0.45 33 12:55 08.03.2021
5595 Clear 5 1019 67 10000 0.89 196 12:29 08.03.2021
5596 Clear 4 1019 67 10000 0.45 49 11:45 08.03.2021
5597 Clouds 3 1019 71 10000 1.24 29 11:20 08.03.2021
5598 Clouds 3 1019 73 10000 1.24 29 10:47 08.03.2021
5599 Clouds 2 1019 77 10000 1.09 23 10:28 08.03.2021
5600 Clouds 2 1019 83 10000 1.09 23 09:50 08.03.2021
5601 Clouds 1 1019 87 10000 0.79 4 09:25 08.03.2021
5602 Clouds -1 1019 92 10000 0.51 326 08:32 08.03.2021
5603 Clouds -1 1019 94 10000 0.51 326 07:51 08.03.2021
5604 Clouds -1 1018 96 10000 0.45 136 07:21 08.03.2021
5605 Clear -1 1017 95 10000 1.37 305 05:20 08.03.2021
5606 Clouds 1 1018 96 10000 1.58 283 02:19 08.03.2021
5607 Clouds 1 1018 95 10000 1.52 281 00:42 08.03.2021
5608 Clouds 2 1018 94 10000 1.17 293 23:53 07.03.2021
5609 Clouds 2 1018 94 10000 1.33 273 23:21 07.03.2021
5610 Clouds 2 1018 94 10000 1.33 273 22:47 07.03.2021
5611 Clouds 2 1018 93 10000 1.36 268 22:28 07.03.2021
5612 Clouds 3 1018 92 10000 1.36 268 21:53 07.03.2021
5613 Rain 3 1018 91 10000 1.36 268 21:33 07.03.2021
5614 Rain 3 1018 88 10000 1.06 275 20:59 07.03.2021
5615 Rain 4 1019 80 10000 1.34 321 20:40 07.03.2021
5616 Rain 4 1018 75 10000 2.57 310 20:19 07.03.2021
5617 Rain 4 1018 75 10000 2.57 310 20:19 07.03.2021
5618 Clouds 4 1018 75 10000 1.54 360 19:41 07.03.2021
5619 Clouds 4 1018 70 10000 1.54 350 19:22 07.03.2021
5620 Clouds 4 1017 70 10000 1.54 330 18:56 07.03.2021
5621 Clouds 5 1017 70 10000 1.54 330 18:38 07.03.2021
5622 Clouds 6 1017 70 10000 1.03 0 18:18 07.03.2021
5623 Clouds 8 1017 72 10000 2.53 336 17:39 07.03.2021
5624 Clouds 7 1018 71 10000 0.45 268 17:20 07.03.2021
5625 Clouds 8 1018 69 10000 0.45 290 16:43 07.03.2021
5626 Clouds 8 1018 68 10000 0.89 271 16:21 07.03.2021
5627 Clouds 9 1018 68 10000 0.45 253 15:56 07.03.2021
5628 Clouds 9 1018 64 10000 0.89 74 15:38 07.03.2021
5629 Clouds 9 1018 66 10000 0.45 270 15:19 07.03.2021
5630 Clouds 9 1019 64 10000 0.45 253 14:29 07.03.2021
5631 Clouds 8 1019 66 10000 0.89 270 13:57 07.03.2021
5632 Clear 8 1020 65 10000 0.89 280 13:38 07.03.2021
5633 Clear 8 1020 64 10000 0.45 250 13:18 07.03.2021
5634 Clear 8 1021 65 10000 2.52 290 12:40 07.03.2021
5635 Clear 8 1021 62 10000 0.45 231 12:21 07.03.2021
5636 Clear 6 1021 69 10000 1.42 257 11:24 07.03.2021
5637 Clear 5 1022 73 10000 0.45 86 10:59 07.03.2021
5638 Clear 5 1022 72 10000 1.42 257 10:38 07.03.2021
5639 Clear 3 1022 77 10000 1.31 230 09:59 07.03.2021
5640 Clear 1 1023 84 10000 1.31 230 09:39 07.03.2021
5641 Clear 1 1023 87 10000 1.28 204 09:20 07.03.2021
5642 Clear -2 1023 86 10000 1.03 180 08:45 07.03.2021
5643 Clear -3 1023 92 10000 1.22 169 08:22 07.03.2021
5644 Clouds -7 1023 93 10000 1.54 160 07:23 07.03.2021
5645 Clouds -4 1025 89 10000 0.99 75 02:40 07.03.2021
5646 Clouds -3 1025 92 10000 1.14 85 00:36 07.03.2021
5647 Clouds -3 1026 83 10000 1.45 91 23:41 06.03.2021
5648 Clouds -2 1026 82 10000 1.92 88 23:22 06.03.2021
5649 Clouds -2 1026 78 10000 1.92 88 22:47 06.03.2021
5650 Clear -2 1026 76 10000 2.3 88 22:25 06.03.2021
5651 Clear -1 1026 73 10000 2.29 88 21:54 06.03.2021
5652 Clear -1 1026 74 10000 2.68 91 21:21 06.03.2021
5653 Clear 0 1027 71 10000 2.68 90 20:49 06.03.2021
5654 Clear 0 1027 68 10000 2.98 87 20:26 06.03.2021
5655 Clear 1 1027 64 10000 2.98 87 19:49 06.03.2021
5656 Clear 1 1027 63 10000 2.96 80 19:20 06.03.2021
5657 Clear 2 1027 61 10000 2.97 80 18:54 06.03.2021
5658 Clear 2 1027 59 10000 3.13 80 18:36 06.03.2021
5659 Clear 3 1027 57 10000 0.45 76 18:18 06.03.2021
5660 Clear 3 1027 56 10000 1.34 37 17:42 06.03.2021
5661 Clear 4 1027 55 10000 1.79 53 17:21 06.03.2021
5662 Clear 5 1027 57 10000 1.79 24 16:42 06.03.2021
5663 Clear 5 1027 57 10000 0.89 61 16:24 06.03.2021
5664 Clear 5 1027 58 10000 0.89 203 15:47 06.03.2021
5665 Clear 5 1028 59 10000 0.45 233 15:29 06.03.2021
5666 Clear 5 1028 60 10000 2.24 49 14:53 06.03.2021
5667 Clear 5 1028 59 10000 0.89 98 14:29 06.03.2021
5668 Clear 5 1028 60 10000 0.89 216 14:29 06.03.2021
5669 Clear 4 1028 63 10000 0.89 302 13:42 06.03.2021
5670 Clear 5 1028 64 10000 0.89 261 13:20 06.03.2021
5671 Clear 4 1029 63 10000 0.89 50 12:44 06.03.2021
5672 Clear 3 1029 65 10000 0.89 244 12:20 06.03.2021
5673 Clear 3 1030 67 10000 1.34 42 11:56 06.03.2021
5674 Clear 2 1030 68 10000 1.79 67 11:22 06.03.2021
5675 Clear 2 1030 70 10000 0.45 25 10:49 06.03.2021
5676 Clear 1 1030 73 10000 1.34 202 10:24 06.03.2021
5677 Clear 0 1030 78 10000 1.34 129 09:49 06.03.2021
5678 Clear -1 1030 81 10000 0.45 146 09:21 06.03.2021
5679 Clear -1 1029 85 10000 0.45 315 08:52 06.03.2021
5680 Clear -2 1029 91 10000 0.45 158 08:25 06.03.2021
5681 Clouds -4 1029 92 10000 4.15 87 07:42 06.03.2021
5682 Clear -4 1029 92 10000 3.56 87 07:21 06.03.2021
5683 Clear -3 1029 91 10000 3.72 92 05:40 06.03.2021
5684 Clear -2 1028 85 10000 0.89 111 02:52 06.03.2021
5685 Clouds -2 1029 85 10000 0.45 36 01:28 06.03.2021
5686 Clouds -2 1029 84 10000 0.45 48 00:45 06.03.2021
5687 Clouds -1 1029 82 10000 0.45 52 23:41 05.03.2021
5688 Clouds -1 1029 81 10000 1.34 38 23:19 05.03.2021
5689 Clouds 0 1028 81 10000 1.34 40 22:43 05.03.2021
5690 Clouds 0 1028 82 10000 0.89 48 22:20 05.03.2021
5691 Clouds 0 1028 89 10000 1.79 32 21:43 05.03.2021
5692 Clouds 0 1028 91 10000 0.89 63 21:23 05.03.2021
5693 Clouds 0 1027 92 10000 3.43 59 20:47 05.03.2021
5694 Snow 0 1026 92 10000 4.12 57 20:24 05.03.2021
5695 Snow 0 1026 92 10000 4.12 57 19:45 05.03.2021
5696 Snow 1 1026 92 8614 2.71 46 19:22 05.03.2021
5697 Snow 0 1025 92 6792 0.89 53 18:45 05.03.2021
5698 Snow 1 1025 92 3627 1.79 69 18:26 05.03.2021
5699 Snow 1 1025 92 3703 1.79 69 18:26 05.03.2021
5700 Snow 1 1024 91 3848 1.79 5 17:51 05.03.2021
5701 Rain 2 1024 89 3699 2.24 49 17:33 05.03.2021
5702 Rain 3 1023 86 3887 1.3 32 16:44 05.03.2021
5703 Clouds 3 1023 87 176 1.08 15 16:24 05.03.2021
5704 Clouds 3 1022 86 176 1.08 15 15:55 05.03.2021
5705 Rain 3 1022 85 3359 1.33 5 15:28 05.03.2021
5706 Rain 3 1022 87 3359 1.33 5 14:58 05.03.2021
5707 Rain 3 1022 86 3378 1.34 5 14:38 05.03.2021
5708 Clouds 3 1021 92 8320 0.45 53 13:46 05.03.2021
5709 Rain 2 1021 93 4232 2.1 1 13:21 05.03.2021
5710 Rain 2 1021 94 4232 2.1 1 12:48 05.03.2021
5711 Snow 2 1021 95 333 2.93 356 11:54 05.03.2021
5712 Snow 2 1020 95 356 2.95 356 11:36 05.03.2021
5713 Snow 2 1020 94 699 0.45 105 11:18 05.03.2021
5714 Rain 2 1020 94 699 0.45 318 10:40 05.03.2021
5715 Rain 2 1019 94 5478 0.45 229 10:21 05.03.2021
5716 Rain 2 1019 94 5293 0.45 167 09:47 05.03.2021
5717 Clouds 3 1018 94 10000 0.45 116 09:26 05.03.2021
5718 Rain 4 1018 94 10000 0.45 269 08:40 05.03.2021
5719 Rain 4 1017 94 10000 0.45 274 08:22 05.03.2021
5720 Rain 4 1017 94 10000 0.45 255 07:39 05.03.2021
5721 Rain 4 1017 94 10000 1.34 213 06:56 05.03.2021
5722 Rain 4 1021 89 10000 0.45 291 06:31 05.03.2021
5723 Clouds 5 1016 93 10000 0.89 180 01:52 05.03.2021
5724 Rain 5 1016 92 10000 0.89 269 00:34 05.03.2021
5725 Rain 5 1016 89 10000 1.79 309 23:36 04.03.2021
5726 Rain 7 1016 72 10000 1.79 329 22:40 04.03.2021
5727 Rain 8 1015 59 9619 5.9 259 22:22 04.03.2021
5728 Rain 8 1015 57 9448 0.45 308 21:47 04.03.2021
5729 Clouds 8 1015 57 10000 0.45 222 21:27 04.03.2021
5730 Clouds 9 1015 53 10000 0.45 265 20:41 04.03.2021
5731 Clouds 9 1015 51 10000 0.45 244 20:22 04.03.2021
5732 Clouds 9 1015 50 10000 4.26 257 19:57 04.03.2021
5733 Clouds 10 1016 49 10000 0.45 267 19:38 04.03.2021
5734 Clouds 10 1016 49 10000 3.83 266 19:18 04.03.2021
5735 Clouds 10 1016 47 10000 3.8 266 18:41 04.03.2021
5736 Clouds 11 1016 47 10000 3.95 278 18:23 04.03.2021
5737 Clear 11 1016 40 10000 3.09 250 17:46 04.03.2021
5738 Clouds 12 1016 42 10000 0.45 201 17:27 04.03.2021
5739 Clouds 13 1016 39 10000 0.89 269 16:47 04.03.2021
5740 Clouds 13 1016 38 10000 0.89 295 16:28 04.03.2021
5741 Clouds 13 1016 42 10000 0.89 272 15:50 04.03.2021
5742 Clouds 14 1016 42 10000 1.34 199 15:31 04.03.2021
5743 Clouds 14 1017 41 10000 2.68 269 14:49 04.03.2021
5744 Clouds 14 1017 43 10000 1.34 228 14:26 04.03.2021
5745 Clouds 14 1017 43 10000 1.34 213 13:48 04.03.2021
5746 Clouds 13 1023 39 10000 1.34 298 13:30 04.03.2021
5747 Clouds 13 1018 42 10000 1.79 251 12:53 04.03.2021
5748 Clouds 12 1019 43 10000 1.34 225 12:35 04.03.2021
5749 Clouds 11 1020 46 10000 0.89 227 11:47 04.03.2021
5750 Clouds 10 1020 52 10000 0.45 254 11:25 04.03.2021
5751 Clouds 10 1020 51 10000 3.41 253 10:52 04.03.2021
5752 Clouds 9 1020 52 10000 0.45 217 10:31 04.03.2021
5753 Clouds 8 1021 60 10000 2.83 246 09:44 04.03.2021
5754 Clouds 7 1021 65 10000 2.58 243 09:23 04.03.2021
5755 Clouds 5 1021 73 10000 2.57 234 08:36 04.03.2021
5756 Clouds 4 1021 77 10000 2.58 234 07:54 04.03.2021
5757 Clouds 4 1022 80 10000 2.59 235 07:54 04.03.2021
5758 Clouds 4 1022 82 10000 2.44 229 07:31 04.03.2021
5759 Clouds 3 1022 82 10000 2.42 233 06:25 04.03.2021
5760 Clouds 3 1022 85 10000 2.42 233 05:40 04.03.2021
5761 Clouds 3 1024 84 10000 2.53 233 01:44 04.03.2021
5762 Clouds 3 1025 82 10000 2.18 226 22:56 03.03.2021
5763 Clear 4 1026 80 10000 1.54 190 22:28 03.03.2021
5764 Clear 4 1026 82 10000 2.13 224 21:55 03.03.2021
5765 Clear 4 1026 75 10000 1.54 210 21:37 03.03.2021
5766 Clear 4 1026 75 10000 1.54 210 21:18 03.03.2021
5767 Clear 4 1026 75 10000 1.03 0 20:43 03.03.2021
5768 Clear 6 1026 80 10000 1.43 225 20:24 03.03.2021
5769 Clear 5 1027 78 10000 1.43 225 19:47 03.03.2021
5770 Clear 6 1027 75 10000 0.85 234 19:28 03.03.2021
5771 Clear 7 1027 68 10000 0.46 203 18:53 03.03.2021
5772 Clear 7 1027 67 10000 0.26 299 18:34 03.03.2021
5773 Clear 9 1027 61 10000 0.26 299 17:57 03.03.2021
5774 Clouds 10 1027 51 10000 0.74 331 17:20 03.03.2021
5775 Clouds 11 1027 44 10000 0.74 331 16:51 03.03.2021
5776 Clouds 12 1028 44 10000 1.17 316 16:27 03.03.2021
5777 Clouds 12 1028 42 10000 0.45 268 15:53 03.03.2021
5778 Clouds 13 1028 43 10000 0.45 213 15:32 03.03.2021
5779 Clouds 13 1028 39 10000 0.45 261 14:45 03.03.2021
5780 Clouds 13 1028 44 10000 1.17 301 14:26 03.03.2021
5781 Clear 13 1029 45 10000 1.42 295 13:42 03.03.2021
5782 Clouds 13 1029 47 10000 1.14 284 13:21 03.03.2021
5783 Clouds 12 1030 51 10000 1.15 284 12:43 03.03.2021
5784 Clouds 12 1030 51 10000 1.11 262 12:23 03.03.2021
5785 Clouds 10 1030 56 10000 1.11 262 11:45 03.03.2021
5786 Clouds 10 1030 59 10000 1.33 239 11:27 03.03.2021
5787 Clear 6 1030 75 10000 0.51 0 10:45 03.03.2021
5788 Clouds 6 1030 73 10000 1.48 228 10:22 03.03.2021
5789 Clear 3 1031 93 10000 0.51 0 09:42 03.03.2021
5790 Clear 1 1030 86 10000 2.57 220 08:53 03.03.2021
5791 Clouds 2 1030 86 10000 1.49 233 08:24 03.03.2021
5792 Clear -1 1030 86 10000 2.57 220 07:55 03.03.2021
5793 Clear 0 1030 86 10000 2.57 230 07:28 03.03.2021
5794 Clouds -1 1030 93 10000 1.54 160 06:29 03.03.2021
5795 Clouds -1 1030 80 10000 3.6 210 05:44 03.03.2021
5796 Clouds -3 1030 86 10000 2.06 190 04:48 03.03.2021
5797 Clouds -2 1030 93 10000 1.54 200 04:24 03.03.2021
5798 Clear -1 1031 93 10000 1.03 170 00:34 03.03.2021
5799 Clear 0 1031 93 10000 1.54 180 23:35 02.03.2021
5800 Clear 0 1031 93 10000 1.03 180 22:53 02.03.2021
5801 Clear 1 1031 80 10000 2.06 160 22:23 02.03.2021
5802 Clear 2 1031 88 10000 1.39 194 21:55 02.03.2021
5803 Clear 3 1031 88 10000 1.33 175 21:36 02.03.2021
5804 Clear 4 1031 83 10000 1.33 175 20:58 02.03.2021
5805 Clear 4 1031 84 10000 1.19 150 20:40 02.03.2021
5806 Clear 4 1031 83 10000 1.2 150 20:21 02.03.2021
5807 Clear 5 1031 79 10000 1.19 150 19:47 02.03.2021
5808 Clear 6 1031 78 10000 1.04 113 19:28 02.03.2021
5809 Clear 7 1031 72 10000 1.04 113 18:55 02.03.2021
5810 Clear 8 1031 61 10000 1.03 50 18:36 02.03.2021
5811 Clear 9 1030 53 10000 2.57 30 18:18 02.03.2021
5812 Clear 12 1030 44 10000 2.57 360 17:40 02.03.2021
5813 Clear 13 1030 44 10000 2.57 360 17:20 02.03.2021
5814 Clear 13 1030 44 10000 2.57 10 16:47 02.03.2021
5815 Clear 14 1031 47 10000 0.89 51 15:55 02.03.2021
5816 Clear 14 1030 47 10000 0.45 53 15:29 02.03.2021
5817 Clear 14 1031 48 10000 0.89 61 14:56 02.03.2021
5818 Clear 14 1031 48 10000 0.45 53 14:21 02.03.2021
5819 Clear 13 1031 48 10000 0.45 69 13:48 02.03.2021
5820 Clear 13 1031 50 10000 0.45 116 13:28 02.03.2021
5821 Clear 13 1031 49 10000 0.89 42 12:51 02.03.2021
5822 Clear 12 1032 49 10000 0.45 106 12:26 02.03.2021
5823 Clear 11 1032 55 10000 0.46 68 11:53 02.03.2021
5824 Clear 10 1032 59 10000 0.12 96 11:29 02.03.2021
5825 Clear 8 1032 66 10000 0.12 96 10:55 02.03.2021
5826 Clear 7 1032 72 10000 0.36 218 10:31 02.03.2021
5827 Clear 7 1032 72 10000 0.35 217 10:31 02.03.2021
5828 Clear 4 1031 81 10000 0.35 217 09:44 02.03.2021
5829 Clear 3 1031 87 10000 0.58 200 09:24 02.03.2021
5830 Clear 2 1031 93 10000 1.03 150 08:56 02.03.2021
5831 Clear 1 1031 93 10000 1.03 150 08:35 02.03.2021
5832 Clear -2 1030 93 9000 0.9 190 07:52 02.03.2021
5833 Clear -3 1030 100 10000 2.06 180 06:50 02.03.2021
5834 Clear -3 1030 93 10000 1.54 0 05:54 02.03.2021
5835 Clear -3 1030 93 10000 1.54 0 05:33 02.03.2021
5836 Clear -2 1033 93 10000 0.72 165 04:39 02.03.2021
5837 Clear 0 1030 91 10000 1.49 114 01:43 02.03.2021
5838 Clear 0 1030 91 10000 1.69 104 01:22 02.03.2021
5839 Clear 0 1030 90 10000 1.63 98 23:45 01.03.2021
5840 Clear 1 1030 88 10000 1.63 103 23:20 01.03.2021
5841 Clear 2 1030 88 10000 1.63 103 22:39 01.03.2021
5842 Clear 2 1030 88 10000 2.04 104 22:21 01.03.2021
5843 Clear 2 1030 85 10000 2.04 104 21:43 01.03.2021
5844 Clear 3 1030 84 10000 2.69 95 21:23 01.03.2021
5845 Clear 3 1030 83 10000 2.69 95 21:23 01.03.2021
5846 Clear 3 1030 79 10000 2.73 94 20:46 01.03.2021
5847 Clear 4 1030 76 10000 3.05 87 20:27 01.03.2021
5848 Clear 5 1030 70 10000 1.03 90 19:45 01.03.2021
5849 Clear 7 1029 53 10000 2.06 110 19:27 01.03.2021
5850 Clear 8 1029 53 10000 3.09 90 18:44 01.03.2021
5851 Clear 9 1029 49 10000 3.6 90 18:23 01.03.2021
5852 Clear 10 1029 46 10000 4.12 70 17:49 01.03.2021
5853 Clear 11 1029 43 10000 4.63 70 17:24 01.03.2021
5854 Clear 11 1029 43 10000 4.63 60 16:48 01.03.2021
5855 Clear 12 1029 52 10000 0.89 45 16:30 01.03.2021
5856 Clear 12 1029 51 10000 1.34 16 15:58 01.03.2021
5857 Clear 12 1029 40 10000 5.66 60 15:38 01.03.2021
5858 Clear 12 1029 51 10000 1.34 260 15:18 01.03.2021
5859 Clear 12 1029 48 10000 1.79 38 14:40 01.03.2021
5860 Clear 12 1029 50 10000 0.89 166 14:21 01.03.2021
5861 Clear 11 1030 52 10000 1.34 335 13:38 01.03.2021
5862 Clear 11 1030 52 10000 0.89 238 13:20 01.03.2021
5863 Clear 10 1030 55 10000 0.89 147 12:43 01.03.2021
5864 Clear 10 1030 55 10000 1.79 56 12:25 01.03.2021
5865 Clear 9 1031 57 10000 1.34 323 11:57 01.03.2021
5866 Clear 8 1031 61 10000 0.45 139 11:29 01.03.2021
5867 Clear 6 1031 68 10000 0.45 5 10:42 01.03.2021
5868 Clear 5 1031 74 10000 0.89 0 10:22 01.03.2021
5869 Clear 3 1031 82 10000 0.89 36 09:53 01.03.2021
5870 Clear 2 1031 85 10000 0.45 31 09:34 01.03.2021
5871 Clear 0 1031 86 10000 1.03 0 08:57 01.03.2021
5872 Clear 0 1031 86 10000 1.03 0 08:36 01.03.2021
5873 Clear -4 1030 93 10000 1.03 20 07:33 01.03.2021
5874 Clear -3 1030 93 10000 1.03 60 06:31 01.03.2021
5875 Clear -3 1031 91 10000 1.93 83 02:40 01.03.2021
5876 Clear -2 1031 89 10000 1.95 79 23:54 28.02.2021
5877 Clear -2 1031 88 10000 2.06 81 23:22 28.02.2021
5878 Clear -1 1031 86 10000 2.08 81 22:45 28.02.2021
5879 Clear -1 1031 86 10000 2.28 77 22:21 28.02.2021
5880 Clear 0 1031 82 10000 2.28 77 21:47 28.02.2021
5881 Clear 1 1031 77 10000 2.43 85 21:24 28.02.2021
5882 Clear 2 1031 74 10000 2.43 85 20:49 28.02.2021
5883 Clear 2 1031 76 10000 2.43 85 20:30 28.02.2021
5884 Clear 2 1031 77 10000 2.76 84 19:47 28.02.2021
5885 Clear 4 1031 72 10000 2.88 77 19:28 28.02.2021
5886 Clear 5 1031 68 10000 2.87 77 18:47 28.02.2021
5887 Clear 6 1031 65 10000 0.45 44 18:28 28.02.2021
5888 Clear 6 1030 56 10000 4.63 50 17:59 28.02.2021
5889 Clear 7 1030 56 10000 4.63 50 17:40 28.02.2021
5890 Clear 7 1030 53 10000 4.63 50 17:21 28.02.2021
5891 Clear 8 1030 49 10000 5.66 60 16:48 28.02.2021
5892 Clear 8 1030 46 10000 5.66 60 16:30 28.02.2021
5893 Clear 9 1031 56 10000 2.24 36 15:52 28.02.2021
5894 Clear 9 1031 57 10000 1.79 51 15:29 28.02.2021
5895 Clear 9 1031 59 10000 2.24 24 14:58 28.02.2021
5896 Clear 8 1031 57 10000 2.24 85 14:39 28.02.2021
5897 Clear 8 1031 58 10000 2.24 33 14:20 28.02.2021
5898 Clear 8 1032 52 10000 2.24 355 13:41 28.02.2021
5899 Clear 8 1032 61 10000 0.89 229 13:19 28.02.2021
5900 Clear 8 1032 63 10000 1.34 53 12:54 28.02.2021
5901 Clear 7 1032 66 10000 0.89 41 12:36 28.02.2021
5902 Clear 7 1033 65 10000 0.45 250 12:18 28.02.2021
5903 Clear 6 1033 69 10000 0.45 355 11:42 28.02.2021
5904 Clear 5 1033 72 10000 0.89 171 11:22 28.02.2021
5905 Clear 5 1033 74 10000 0.89 173 10:49 28.02.2021
5906 Clear 3 1033 82 10000 0.89 304 10:26 28.02.2021
5907 Clear 2 1033 88 10000 1.34 59 09:42 28.02.2021
5908 Clear 1 1033 91 10000 0.45 33 09:24 28.02.2021
5909 Clear 0 1033 94 10000 0.45 200 08:49 28.02.2021
5910 Clear -1 1033 94 10000 4.59 93 08:31 28.02.2021
5911 Clear -1 1033 93 10000 4.51 88 07:54 28.02.2021
5912 Clear -1 1033 92 10000 4.48 87 07:36 28.02.2021
5913 Clear -2 1033 92 10000 0.45 36 06:29 28.02.2021
5914 Clear -1 1033 91 10000 3.73 86 05:24 28.02.2021
5915 Clear -1 1034 90 10000 0.45 44 03:40 28.02.2021
5916 Clear -1 1034 88 10000 0.45 58 01:44 28.02.2021
5917 Clear -1 1034 87 10000 0.45 34 00:52 28.02.2021
5918 Clear -1 1034 87 10000 2.82 65 00:34 28.02.2021
5919 Clear 0 1034 82 10000 2.59 63 23:45 27.02.2021
5920 Clear 0 1034 82 10000 2.57 63 23:19 27.02.2021
5921 Clear 0 1035 82 10000 2.57 63 22:49 27.02.2021
5922 Clear 1 1034 80 10000 2.53 68 22:21 27.02.2021
5923 Clear 0 1035 78 10000 2.55 68 21:48 27.02.2021
5924 Clear 1 1035 78 10000 2.34 72 21:29 27.02.2021
5925 Clear 1 1035 77 10000 2.34 72 20:49 27.02.2021
5926 Clear 1 1035 77 10000 2.2 79 20:31 27.02.2021
5927 Clear 2 1035 75 10000 2.2 79 19:47 27.02.2021
5928 Clouds 3 1035 73 10000 2.19 75 19:28 27.02.2021
5929 Clouds 4 1035 71 10000 2.19 75 18:56 27.02.2021
5930 Clouds 5 1035 69 10000 2.21 74 18:36 27.02.2021
5931 Clouds 5 1035 68 10000 2.33 78 18:18 27.02.2021
5932 Clouds 6 1034 66 10000 2.33 78 17:42 27.02.2021
5933 Clouds 6 1034 64 10000 0.89 63 17:19 27.02.2021
5934 Clouds 6 1034 65 10000 0.89 80 16:50 27.02.2021
5935 Clouds 6 1034 65 10000 0.89 60 16:28 27.02.2021
5936 Clouds 7 1035 65 10000 0.89 24 15:46 27.02.2021
5937 Clouds 7 1035 65 10000 0.89 180 15:20 27.02.2021
5938 Clouds 6 1035 69 10000 0.89 36 14:41 27.02.2021
5939 Clouds 6 1035 71 10000 0.89 41 14:22 27.02.2021
5940 Clouds 6 1035 75 10000 0.89 58 13:47 27.02.2021
5941 Clouds 6 1035 76 10000 0.89 64 13:22 27.02.2021
5942 Clouds 6 1035 78 10000 0.45 15 12:49 27.02.2021
5943 Clouds 5 1035 80 10000 0.89 18 12:26 27.02.2021
5944 Clouds 5 1035 81 10000 0.45 53 11:54 27.02.2021
5945 Clouds 5 1035 83 10000 0.89 53 11:31 27.02.2021
5946 Clouds 4 1035 87 10000 0.89 55 10:59 27.02.2021
5947 Clouds 4 1035 87 10000 0.45 43 10:41 27.02.2021
5948 Clouds 4 1035 89 10000 0.45 49 10:18 27.02.2021
5949 Clouds 3 1034 91 10000 0.45 68 09:35 27.02.2021
5950 Clouds 2 1034 92 10000 2.71 45 08:58 27.02.2021
5951 Clouds 2 1034 92 10000 0.45 58 08:39 27.02.2021
5952 Clouds 2 1034 92 10000 2.25 33 08:18 27.02.2021
5953 Clouds 2 1034 91 10000 0.45 150 07:32 27.02.2021
5954 Rain 4 1032 92 10000 0.45 292 02:31 27.02.2021
5955 Rain 6 1031 91 10000 0.45 251 00:33 27.02.2021
5956 Rain 7 1031 89 10000 0.45 169 23:48 26.02.2021
5957 Rain 8 1030 88 9948 0.89 211 23:25 26.02.2021
5958 Rain 9 1030 82 9975 0.45 259 22:42 26.02.2021
5959 Rain 9 1030 80 10000 0.45 355 22:23 26.02.2021
5960 Clouds 10 1029 77 10000 0.89 257 21:37 26.02.2021
5961 Clouds 10 1029 77 10000 0.45 165 21:18 26.02.2021
5962 Clouds 10 1029 74 10000 3.21 325 20:43 26.02.2021
5963 Clouds 11 1028 70 10000 0.45 277 20:20 26.02.2021
5964 Clouds 11 1028 68 10000 0.45 224 19:41 26.02.2021
5965 Clouds 11 1028 70 10000 2.38 324 19:18 26.02.2021
5966 Rain 11 1028 47 10000 1.54 290 18:41 26.02.2021
5967 Clouds 12 1027 44 10000 2.06 300 18:21 26.02.2021
5968 Clear 14 1027 41 10000 2.06 300 17:39 26.02.2021
5969 Clear 14 1027 44 10000 2.06 320 17:21 26.02.2021
5970 Clear 15 1027 38 10000 3.6 310 16:50 26.02.2021
5971 Clouds 15 1027 44 10000 0.45 242 16:31 26.02.2021
5972 Clouds 16 1027 45 10000 0.89 261 15:57 26.02.2021
5973 Clouds 17 1027 41 10000 0.89 294 15:37 26.02.2021
5974 Clouds 17 1027 43 10000 0.45 248 15:19 26.02.2021
5975 Clouds 17 1031 39 10000 1.34 299 14:44 26.02.2021
5976 Clouds 17 1027 40 10000 0.89 264 14:24 26.02.2021
5977 Clouds 17 1031 29 10000 1.34 292 13:39 26.02.2021
5978 Clouds 16 1028 38 10000 0.89 246 13:20 26.02.2021
5979 Clouds 17 1029 39 10000 0.89 260 12:38 26.02.2021
5980 Clear 15 1029 38 10000 3.6 250 11:54 26.02.2021
5981 Clouds 15 1033 39 10000 1.34 275 11:36 26.02.2021
5982 Clouds 14 1029 45 10000 0.45 204 10:48 26.02.2021
5983 Clouds 12 1029 50 10000 2.66 256 09:58 26.02.2021
5984 Clouds 9 1029 60 10000 2.66 256 09:39 26.02.2021
5985 Clouds 8 1029 64 10000 2.89 239 09:20 26.02.2021
5986 Clouds 5 1030 81 10000 2.92 231 08:26 26.02.2021
5987 Clear 5 1033 66 10000 0.45 250 07:49 26.02.2021
5988 Clear 4 1033 70 10000 0.45 220 06:43 26.02.2021
5989 Clear 5 1033 63 10000 0.45 254 05:31 26.02.2021
5990 Clear 2 1029 75 10000 5.14 220 03:49 26.02.2021
5991 Clear 2 1029 81 10000 3.6 220 02:36 26.02.2021
5992 Clear 2 1029 86 10000 2.57 210 00:18 26.02.2021
5993 Clear 2 1029 86 10000 2.57 200 23:28 25.02.2021
5994 Clear 3 1029 81 10000 2.06 230 22:50 25.02.2021
5995 Clear 5 1029 75 10000 1.95 218 22:31 25.02.2021
5996 Clear 7 1029 68 10000 2.21 200 21:47 25.02.2021
5997 Clear 8 1029 66 10000 2.24 195 21:28 25.02.2021
5998 Clear 9 1029 65 10000 2.24 195 20:42 25.02.2021
5999 Clear 9 1029 64 10000 0.45 166 20:23 25.02.2021
6000 Clear 10 1029 62 10000 0.45 169 19:53 25.02.2021
6001 Clear 10 1029 60 10000 1.65 132 19:22 25.02.2021
6002 Clear 11 1029 58 10000 1.66 132 18:59 25.02.2021
6003 Clear 12 1029 55 10000 1.66 132 18:39 25.02.2021
6004 Clear 15 1028 41 10000 1.54 10 17:57 25.02.2021
6005 Clear 17 1029 39 10000 2.06 10 17:30 25.02.2021
6006 Clear 18 1029 34 10000 3.09 20 16:55 25.02.2021
6007 Clear 18 1029 34 10000 3.09 20 16:33 25.02.2021
6008 Clear 18 1029 32 10000 3.6 360 15:39 25.02.2021
6009 Clear 19 1029 32 10000 3.09 30 15:19 25.02.2021
6010 Clear 19 1029 32 10000 3.09 30 15:19 25.02.2021
6011 Clear 19 1028 40 10000 1.08 75 14:32 25.02.2021
6012 Clear 19 1028 29 10000 1.08 75 13:59 25.02.2021
6013 Clear 19 1029 41 10000 1.08 75 13:40 25.02.2021
6014 Clear 18 1029 39 10000 0.76 97 13:20 25.02.2021
6015 Clear 18 1030 35 10000 0.76 97 12:38 25.02.2021
6016 Clear 16 1030 39 10000 0.96 164 12:20 25.02.2021
6017 Clear 17 1030 43 10000 0.96 164 11:42 25.02.2021
6018 Clear 14 1031 51 10000 1.19 195 10:51 25.02.2021
6019 Clear 13 1031 53 10000 1.19 195 10:33 25.02.2021
6020 Clear 10 1031 63 10000 1.22 211 09:45 25.02.2021
6021 Clear 8 1031 70 10000 1.7 209 09:26 25.02.2021
6022 Clear 3 1031 75 10000 0.51 0 08:40 25.02.2021
6023 Clear 4 1031 84 10000 2.03 210 08:21 25.02.2021
6024 Clear 1 1031 80 10000 1.54 170 07:42 25.02.2021
6025 Clear 0 1031 86 10000 2.57 170 06:58 25.02.2021
6026 Clear 2 1031 86 10000 2.06 180 05:29 25.02.2021
6027 Clear 2 1031 87 10000 1.54 230 01:50 25.02.2021
6028 Clear 2 1031 86 10000 1.54 170 00:48 25.02.2021
6029 Clear 3 1031 87 10000 1.54 200 00:20 25.02.2021
6030 Clear 4 1031 93 10000 1.03 0 23:36 24.02.2021
6031 Clear 5 1032 87 10000 1.38 179 22:56 24.02.2021
6032 Clear 6 1032 84 10000 1.45 173 22:30 24.02.2021
6033 Clear 6 1032 81 10000 1.45 172 21:52 24.02.2021
6034 Clear 7 1032 79 10000 1.47 157 21:33 24.02.2021
6035 Clear 8 1032 77 10000 1.47 157 20:50 24.02.2021
6036 Clear 8 1032 79 10000 1.59 142 20:28 24.02.2021
6037 Clear 9 1032 76 10000 1.59 142 19:51 24.02.2021
6038 Clear 10 1032 76 10000 1.64 120 19:24 24.02.2021
6039 Clear 10 1032 70 10000 1.64 120 18:54 24.02.2021
6040 Clear 11 1032 66 10000 1.64 120 18:32 24.02.2021
6041 Clear 16 1032 39 10000 2.06 60 17:45 24.02.2021
6042 Clear 16 1032 39 10000 2.57 60 17:25 24.02.2021
6043 Clear 16 1033 42 10000 3.6 30 16:49 24.02.2021
6044 Clear 18 1032 47 10000 1.92 99 16:22 24.02.2021
6045 Clear 18 1032 45 10000 1.92 99 15:56 24.02.2021
6046 Clear 18 1033 44 10000 1.92 99 15:35 24.02.2021
6047 Clear 18 1033 42 10000 0.89 143 14:52 24.02.2021
6048 Clear 18 1033 42 10000 1.34 57 14:31 24.02.2021
6049 Clear 18 1033 43 10000 1.34 96 13:56 24.02.2021
6050 Clear 18 1033 43 10000 0.89 80 13:37 24.02.2021
6051 Clear 17 1033 35 10000 0.89 264 13:19 24.02.2021
6052 Clear 17 1034 40 10000 1.14 69 12:43 24.02.2021
6053 Clear 16 1034 38 10000 0.45 324 12:23 24.02.2021
6054 Clear 16 1035 44 10000 0.75 81 11:45 24.02.2021
6055 Clear 14 1035 51 10000 0.77 117 10:49 24.02.2021
6056 Clear 11 1035 58 10000 0.72 149 10:29 24.02.2021
6057 Clear 10 1035 68 10000 0.72 149 09:41 24.02.2021
6058 Clear 7 1036 75 10000 1.16 192 09:19 24.02.2021
6059 Clear 4 1036 81 10000 1.03 220 08:34 24.02.2021
6060 Clear 3 1036 81 10000 1.03 0 07:55 24.02.2021
6061 Clear 3 1036 83 10000 2.21 200 07:20 24.02.2021
6062 Clear 3 1036 83 10000 2.26 194 07:20 24.02.2021
6063 Clear 3 1036 84 10000 1.84 197 06:20 24.02.2021
6064 Clear 4 1036 87 10000 1.03 190 03:25 24.02.2021
6065 Clear 2 1036 87 10000 1.54 180 00:20 24.02.2021
6066 Clear 4 1036 87 10000 2.06 170 23:21 23.02.2021
6067 Clear 5 1036 88 10000 2.19 199 22:37 23.02.2021
6068 Clear 5 1036 89 10000 1.76 204 22:19 23.02.2021
6069 Clear 5 1036 88 10000 1.75 204 21:42 23.02.2021
6070 Clear 6 1035 87 10000 1.23 192 21:22 23.02.2021
6071 Clear 6 1035 86 10000 1.23 192 20:48 23.02.2021
6072 Clear 7 1035 87 10000 1.31 159 20:29 23.02.2021
6073 Clear 8 1035 84 10000 1.31 159 19:48 23.02.2021
6074 Clouds 8 1035 80 10000 1.61 146 19:27 23.02.2021
6075 Clouds 9 1035 76 10000 1.61 146 18:55 23.02.2021
6076 Clouds 11 1035 70 10000 1.61 146 18:32 23.02.2021
6077 Clear 12 1034 47 10000 2.57 10 17:54 23.02.2021
6078 Clear 14 1034 44 10000 2.57 360 17:33 23.02.2021
6079 Clear 14 1034 41 10000 2.57 10 16:50 23.02.2021
6080 Clouds 16 1034 52 10000 0.45 50 16:27 23.02.2021
6081 Clear 16 1034 39 10000 3.09 10 15:58 23.02.2021
6082 Clear 16 1034 39 10000 3.09 10 15:38 23.02.2021
6083 Clear 16 1034 36 10000 2.57 30 15:18 23.02.2021
6084 Clear 16 1034 36 10000 2.57 30 14:43 23.02.2021
6085 Clear 15 1034 36 10000 2.06 10 14:25 23.02.2021
6086 Clouds 16 1034 44 10000 0.45 90 13:44 23.02.2021
6087 Clouds 16 1034 43 10000 0.45 38 13:26 23.02.2021
6088 Clouds 15 1034 34 10000 0.45 109 12:51 23.02.2021
6089 Clouds 15 1034 35 10000 0.89 30 12:20 23.02.2021
6090 Clouds 13 1035 44 10000 0.35 120 11:50 23.02.2021
6091 Clouds 13 1035 49 10000 1.05 186 11:22 23.02.2021
6092 Clouds 11 1035 54 10000 1.05 186 10:52 23.02.2021
6093 Clouds 10 1035 56 10000 1.05 186 10:34 23.02.2021
6094 Clear 8 1034 71 10000 1.43 181 09:45 23.02.2021
6095 Clear 6 1034 75 10000 1.03 210 09:25 23.02.2021
6096 Clear 2 1034 80 10000 2.06 210 08:54 23.02.2021
6097 Clear 2 1034 86 10000 1.54 180 08:25 23.02.2021
6098 Clear 1 1033 86 10000 1.54 160 07:58 23.02.2021
6099 Clouds 2 1032 86 10000 1.54 150 05:44 23.02.2021
6100 Clouds 0 1032 86 10000 1.54 150 05:19 23.02.2021
6101 Clouds 3 1030 86 10000 3.09 210 02:36 23.02.2021
6102 Clouds 3 1030 81 10000 2.26 235 00:54 23.02.2021
6103 Clouds 3 1029 86 10000 2.24 247 00:18 23.02.2021
6104 Clouds 1 1029 93 10000 2.06 210 23:24 22.02.2021
6105 Clouds 4 1028 93 10000 1.65 229 22:41 22.02.2021
6106 Clouds 2 1028 93 10000 1.54 180 22:21 22.02.2021
6107 Clouds 4 1031 86 10000 1.54 209 21:46 22.02.2021
6108 Clouds 5 1031 85 10000 1.92 190 21:23 22.02.2021
6109 Clouds 6 1030 83 10000 1.91 190 20:55 22.02.2021
6110 Clouds 6 1027 90 10000 1.91 190 20:31 22.02.2021
6111 Clouds 7 1026 88 10000 1.87 159 19:58 22.02.2021
6112 Clouds 7 1026 90 10000 1.87 159 19:38 22.02.2021
6113 Clear 8 1026 87 10000 1.77 130 19:18 22.02.2021
6114 Clear 9 1025 84 10000 1.78 129 18:44 22.02.2021
6115 Clear 11 1025 74 10000 1.78 99 18:21 22.02.2021
6116 Clear 13 1024 67 10000 1.95 86 17:36 22.02.2021
6117 Clear 13 1024 67 10000 1.95 86 17:18 22.02.2021
6118 Clear 13 1024 67 10000 0.45 49 16:42 22.02.2021
6119 Clear 15 1024 63 10000 0.45 39 15:57 22.02.2021
6120 Clear 16 1024 61 10000 0.45 54 15:31 22.02.2021
6121 Clear 16 1024 62 10000 0.89 49 14:48 22.02.2021
6122 Clear 15 1023 58 10000 3.6 30 14:30 22.02.2021
6123 Clear 14 1023 54 10000 3.09 10 13:50 22.02.2021
6124 Clear 14 1023 58 10000 1.54 360 13:23 22.02.2021
6125 Clear 13 1024 62 10000 0.45 65 12:44 22.02.2021
6126 Clear 11 1024 76 10000 1.54 20 12:22 22.02.2021
6127 Clear 11 1023 81 10000 1.03 0 11:45 22.02.2021
6128 Clear 8 1023 93 10000 0.51 0 11:25 22.02.2021
6129 Clouds 6 1023 100 8000 1.03 0 10:50 22.02.2021
6130 Clouds 3 1023 100 7000 0.51 0 10:31 22.02.2021
6131 Fog 0 1023 93 500 0.51 0 09:50 22.02.2021
6132 Fog 0 1023 93 500 0.51 0 09:32 22.02.2021
6133 Fog -1 1022 93 350 1.03 0 08:58 22.02.2021
6134 Fog -1 1022 100 350 1.03 0 08:39 22.02.2021
6135 Fog 0 1022 100 350 1.03 0 08:19 22.02.2021
6136 Fog 0 1021 100 550 1.33 198 07:28 22.02.2021
6137 Clear 0 1022 97 10000 1.37 217 06:47 22.02.2021
6138 Clouds 0 1021 93 450 1.54 150 06:24 22.02.2021
6139 Clear 1 1020 97 10000 2.11 232 03:49 22.02.2021
6140 Clear 1 1020 97 10000 2.07 225 03:20 22.02.2021
6141 Clear 1 1020 96 10000 2 224 00:53 22.02.2021
6142 Clear 2 1019 96 10000 1.64 215 00:28 22.02.2021
6143 Clear 2 1019 95 10000 1.64 215 23:50 21.02.2021
6144 Clear 2 1019 95 10000 1.1 193 22:59 21.02.2021
6145 Clear 3 1018 94 10000 0.98 145 22:27 21.02.2021
6146 Clear 3 1018 93 10000 0.99 143 21:51 21.02.2021
6147 Clear 3 1018 93 10000 0.99 143 21:32 21.02.2021
6148 Clear 4 1018 92 10000 1.57 113 20:57 21.02.2021
6149 Clear 5 1018 90 10000 2.12 97 20:23 21.02.2021
6150 Clear 5 1018 88 10000 2.1 97 19:59 21.02.2021
6151 Clear 6 1018 86 10000 2.12 97 19:40 21.02.2021
6152 Clear 6 1018 83 10000 2.39 87 19:21 21.02.2021
6153 Clear 8 1018 78 10000 2.71 80 18:29 21.02.2021
6154 Clear 9 1017 71 10000 0.45 36 17:58 21.02.2021
6155 Clear 10 1017 68 10000 0.45 54 17:26 21.02.2021
6156 Clear 11 1017 76 10000 2.24 86 16:53 21.02.2021
6157 Clear 12 1017 53 10000 1.79 58 16:31 21.02.2021
6158 Clear 13 1018 47 10000 1.79 51 15:47 21.02.2021
6159 Clear 14 1018 47 10000 0.89 281 15:19 21.02.2021
6160 Clear 15 1018 46 10000 0.89 52 14:42 21.02.2021
6161 Clear 15 1018 45 10000 0.45 208 14:21 21.02.2021
6162 Clear 15 1019 47 10000 0.89 255 13:45 21.02.2021
6163 Clear 14 1019 47 10000 1.34 43 13:22 21.02.2021
6164 Clear 12 1019 53 10000 0.89 113 12:29 21.02.2021
6165 Clear 12 1020 59 10000 0.89 39 11:44 21.02.2021
6166 Clouds 10 1020 63 10000 1.87 91 10:59 21.02.2021
6167 Clouds 8 1020 70 10000 1.38 87 10:24 21.02.2021
6168 Clouds 7 1020 73 10000 0.45 30 09:55 21.02.2021
6169 Clouds 5 1020 86 10000 0.87 106 09:31 21.02.2021
6170 Clouds 2 1019 86 10000 1.03 150 08:58 21.02.2021
6171 Clear 0 1019 86 10000 1.03 0 08:23 21.02.2021
6172 Clouds 0 1019 93 10000 0.51 170 07:35 21.02.2021
6173 Clouds -1 1019 93 10000 0.51 220 06:59 21.02.2021
6174 Clear 0 1019 93 10000 1.03 0 04:44 21.02.2021
6175 Clear 2 1019 86 10000 2.57 220 02:31 21.02.2021
6176 Clouds 2 1019 86 10000 1.03 180 00:47 21.02.2021
6177 Clouds 2 1019 87 10000 1.03 0 00:20 21.02.2021
6178 Clouds 3 1019 92 10000 0.96 167 23:25 20.02.2021
6179 Clouds 4 1019 92 10000 0.96 167 22:47 20.02.2021
6180 Clouds 4 1019 94 10000 1.52 154 22:27 20.02.2021
6181 Clouds 5 1019 94 10000 1.52 154 21:45 20.02.2021
6182 Clouds 5 1019 92 10000 2.03 144 21:26 20.02.2021
6183 Clouds 6 1019 91 10000 1.89 134 20:49 20.02.2021
6184 Clouds 7 1019 92 10000 1.98 119 20:28 20.02.2021
6185 Clouds 8 1019 87 10000 1.96 119 19:53 20.02.2021
6186 Clouds 8 1019 87 10000 1.96 119 19:53 20.02.2021
6187 Clouds 8 1019 86 10000 1.98 119 19:33 20.02.2021
6188 Clear 9 1018 44 10000 3.09 90 18:46 20.02.2021
6189 Clear 11 1018 44 10000 3.09 90 18:27 20.02.2021
6190 Clear 13 1018 44 10000 3.09 90 17:43 20.02.2021
6191 Clear 14 1018 39 10000 2.57 70 17:25 20.02.2021
6192 Clear 14 1018 36 10000 3.6 100 16:44 20.02.2021
6193 Clear 15 1018 36 10000 4.12 80 16:22 20.02.2021
6194 Clear 16 1018 34 10000 3.6 80 15:38 20.02.2021
6195 Clear 15 1018 39 10000 3.09 20 14:50 20.02.2021
6196 Clouds 16 1018 39 10000 0.89 85 14:25 20.02.2021
6197 Clouds 16 1019 46 10000 0.89 87 13:53 20.02.2021
6198 Clear 15 1019 39 10000 1.03 0 13:28 20.02.2021
6199 Clouds 14 1019 46 10000 0.89 48 12:53 20.02.2021
6200 Clouds 15 1020 48 10000 0.45 161 12:32 20.02.2021
6201 Clouds 13 1020 57 10000 0.45 191 11:49 20.02.2021
6202 Clouds 12 1020 57 10000 1.53 112 11:30 20.02.2021
6203 Clouds 10 1020 65 10000 0.45 122 10:50 20.02.2021
6204 Clouds 9 1020 68 10000 1.22 132 10:21 20.02.2021
6205 Clouds 8 1020 71 10000 0.45 46 09:45 20.02.2021
6206 Clear 4 1019 87 10000 0.51 350 08:53 20.02.2021
6207 Clear 2 1019 93 10000 1.03 110 08:23 20.02.2021
6208 Clouds 4 1020 88 10000 1.79 179 04:56 20.02.2021
6209 Clouds 4 1020 94 10000 1.78 186 02:32 20.02.2021
6210 Clouds 4 1020 94 10000 1.78 186 01:55 20.02.2021
6211 Clouds 4 1020 94 10000 1.78 181 00:59 20.02.2021
6212 Clouds 4 1020 94 10000 1.85 182 00:36 20.02.2021
6213 Clouds 5 1020 94 10000 1.79 186 23:27 19.02.2021
6214 Clouds 5 1020 93 10000 1.79 186 22:47 19.02.2021
6215 Clouds 5 1020 93 10000 1.82 179 22:20 19.02.2021
6216 Clouds 5 1020 93 10000 1.83 178 21:44 19.02.2021
6217 Clouds 5 1020 93 10000 1.69 166 21:23 19.02.2021
6218 Clouds 5 1020 93 10000 1.69 166 20:42 19.02.2021
6219 Clouds 6 1020 93 10000 1.44 150 20:24 19.02.2021
6220 Clouds 6 1020 92 10000 1.44 150 19:49 19.02.2021
6221 Clouds 7 1020 92 10000 1.11 100 19:20 19.02.2021
6222 Clouds 7 1020 90 10000 1.11 100 18:51 19.02.2021
6223 Clouds 8 1020 89 10000 1.08 78 18:28 19.02.2021
6224 Clouds 9 1020 86 10000 1.08 78 17:43 19.02.2021
6225 Clouds 10 1020 79 10000 0.74 103 16:44 19.02.2021
6226 Clouds 10 1020 80 10000 0.61 156 16:22 19.02.2021
6227 Clouds 10 1020 80 10000 0.61 156 15:55 19.02.2021
6228 Clouds 10 1020 81 10000 0.61 156 15:30 19.02.2021
6229 Clouds 10 1020 82 10000 0.72 196 15:30 19.02.2021
6230 Clouds 9 1020 86 10000 0.69 194 14:55 19.02.2021
6231 Clouds 9 1020 88 10000 0.69 194 14:34 19.02.2021
6232 Clouds 9 1020 91 10000 0.71 189 13:56 19.02.2021
6233 Clouds 8 1020 93 10000 0.71 189 13:36 19.02.2021
6234 Rain 7 1020 92 10000 1.15 239 12:58 19.02.2021
6235 Clouds 7 1021 92 10000 1.1 239 12:38 19.02.2021
6236 Rain 7 1020 90 10000 0.98 180 12:20 19.02.2021
6237 Rain 7 1020 90 10000 0.98 182 12:20 19.02.2021
6238 Rain 7 1020 90 10000 0.98 182 12:20 19.02.2021
6239 Rain 6 1021 93 10000 0.98 182 11:44 19.02.2021
6240 Rain 6 1021 93 10000 0.45 59 11:19 19.02.2021
6241 Rain 6 1021 93 10000 0.49 216 10:38 19.02.2021
6242 Clouds 6 1021 93 10000 0.67 255 10:19 19.02.2021
6243 Rain 6 1021 92 10000 0.69 255 09:37 19.02.2021
6244 Rain 6 1021 93 10000 0.67 255 09:37 19.02.2021
6245 Rain 6 1021 92 10000 0.8 262 09:18 19.02.2021
6246 Rain 7 1020 86 10000 0.8 262 08:42 19.02.2021
6247 Rain 7 1020 85 10000 1.38 274 08:21 19.02.2021
6248 Rain 7 1019 82 10000 1.38 274 07:45 19.02.2021
6249 Rain 7 1019 81 10000 2.14 240 07:26 19.02.2021
6250 Rain 8 1018 74 10000 0.45 267 06:47 19.02.2021
6251 Clouds 8 1017 69 10000 3.42 247 04:42 19.02.2021
6252 Clouds 8 1016 70 10000 2.68 241 03:32 19.02.2021
6253 Clouds 9 1015 65 10000 4.01 259 01:46 19.02.2021
6254 Clouds 7 1016 54 10000 0.45 230 00:36 19.02.2021
6255 Clouds 6 1016 58 10000 0.45 249 23:50 18.02.2021
6256 Clouds 6 1015 61 10000 3.24 236 23:32 18.02.2021
6257 Clouds 6 1014 62 10000 2.74 166 22:44 18.02.2021
6258 Clouds 6 1014 62 10000 2.77 164 22:26 18.02.2021
6259 Clouds 6 1014 64 10000 2.77 164 21:45 18.02.2021
6260 Clouds 6 1014 65 10000 0.45 183 21:24 18.02.2021
6261 Clouds 6 1014 71 10000 0.45 165 20:41 18.02.2021
6262 Clouds 7 1015 71 10000 0.45 182 20:23 18.02.2021
6263 Clouds 7 1015 70 10000 0.45 163 19:46 18.02.2021
6264 Clouds 7 1015 68 10000 0.45 169 19:26 18.02.2021
6265 Clouds 8 1015 67 10000 0.45 165 18:53 18.02.2021
6266 Clouds 8 1015 65 10000 2.29 145 18:29 18.02.2021
6267 Clear 9 1015 46 10000 1.54 130 17:52 18.02.2021
6268 Clouds 10 1015 61 10000 2.47 131 17:26 18.02.2021
6269 Clear 10 1015 40 10000 2.57 150 16:55 18.02.2021
6270 Clouds 11 1016 58 10000 0.45 194 16:36 18.02.2021
6271 Clouds 11 1016 56 10000 0.45 179 16:18 18.02.2021
6272 Clouds 12 1016 51 10000 0.45 182 15:38 18.02.2021
6273 Clouds 12 1016 50 10000 0.45 184 15:19 18.02.2021
6274 Clouds 12 1016 50 10000 0.45 128 14:46 18.02.2021
6275 Clouds 12 1016 52 10000 0.45 94 14:27 18.02.2021
6276 Clouds 11 1017 51 10000 0.45 37 13:45 18.02.2021
6277 Clouds 11 1017 53 10000 0.45 174 13:18 18.02.2021
6278 Clouds 10 1017 56 10000 0.45 157 12:44 18.02.2021
6279 Clouds 9 1017 57 10000 0.45 206 12:22 18.02.2021
6280 Clouds 8 1018 59 10000 0.89 230 11:46 18.02.2021
6281 Clouds 8 1018 67 10000 0.45 28 11:26 18.02.2021
6282 Clouds 7 1018 72 10000 1.52 136 10:47 18.02.2021
6283 Clouds 6 1018 78 10000 1.52 130 10:29 18.02.2021
6284 Clouds 4 1018 90 10000 0.45 120 09:49 18.02.2021
6285 Clouds 2 1018 94 10000 1.71 132 09:24 18.02.2021
6286 Clouds 1 1019 95 10000 1.7 133 08:48 18.02.2021
6287 Clouds 0 1019 95 10000 1.88 135 08:25 18.02.2021
6288 Clouds -1 1019 95 10000 1.91 131 07:35 18.02.2021
6289 Clouds 0 1019 95 10000 1.83 130 06:54 18.02.2021
6290 Clouds -1 1020 94 10000 1.49 136 03:31 18.02.2021
6291 Clouds 0 1021 92 10000 0.79 175 23:56 17.02.2021
6292 Clouds 1 1022 92 10000 0.98 184 23:30 17.02.2021
6293 Clouds 1 1022 91 10000 0.97 184 22:56 17.02.2021
6294 Clouds 1 1022 90 10000 1.13 189 22:27 17.02.2021
6295 Clouds 1 1022 89 10000 1.13 189 21:57 17.02.2021
6296 Clouds 4 1022 88 10000 1.15 188 21:23 17.02.2021
6297 Clouds 2 1022 88 10000 1.15 188 20:56 17.02.2021
6298 Clouds 3 1022 89 10000 1.15 188 20:37 17.02.2021
6299 Clouds 4 1022 86 10000 0.85 230 19:55 17.02.2021
6300 Clouds 5 1022 80 10000 0.74 273 19:35 17.02.2021
6301 Clouds 5 1021 81 10000 0.76 274 18:52 17.02.2021
6302 Clouds 6 1021 75 10000 0.76 274 18:33 17.02.2021
6303 Clouds 8 1021 66 10000 3.09 280 17:46 17.02.2021
6304 Clouds 8 1021 69 10000 0.45 227 17:21 17.02.2021
6305 Clouds 9 1021 61 10000 6.17 250 16:51 17.02.2021
6306 Clouds 9 1021 63 10000 1.34 236 16:29 17.02.2021
6307 Clouds 10 1020 61 10000 1.34 202 15:56 17.02.2021
6308 Clouds 10 1021 60 10000 2.24 231 15:37 17.02.2021
6309 Clouds 10 1021 60 10000 1.79 202 15:19 17.02.2021
6310 Clouds 10 1021 66 10000 1.79 251 14:41 17.02.2021
6311 Clouds 10 1021 66 10000 1.79 285 14:23 17.02.2021
6312 Clouds 9 1021 74 10000 0.89 267 13:42 17.02.2021
6313 Clouds 10 1021 73 10000 1.34 228 12:59 17.02.2021
6314 Clouds 9 1021 71 10000 1.79 246 12:26 17.02.2021
6315 Clouds 9 1022 76 10000 1.79 227 11:49 17.02.2021
6316 Clouds 9 1022 77 10000 1.34 233 11:30 17.02.2021
6317 Clouds 8 1022 83 10000 0.89 224 10:58 17.02.2021
6318 Clouds 7 1022 82 10000 1.34 242 10:40 17.02.2021
6319 Clouds 7 1022 85 10000 1.34 240 10:20 17.02.2021
6320 Clouds 7 1021 89 10000 1.34 249 09:40 17.02.2021
6321 Clouds 6 1021 94 10000 0.89 209 08:58 17.02.2021
6322 Clouds 6 1021 94 10000 0.45 209 08:37 17.02.2021
6323 Clouds 5 1021 94 10000 0.45 211 08:19 17.02.2021
6324 Clouds 5 1020 94 10000 0.45 229 07:24 17.02.2021
6325 Rain 6 1018 92 10000 0.89 198 03:55 17.02.2021
6326 Rain 7 1017 79 10000 1.79 260 02:33 17.02.2021
6327 Rain 7 1051 68 10000 0.89 0 01:49 17.02.2021
6328 Clouds 5 1016 74 10000 1.79 217 00:30 17.02.2021
6329 Clouds 4 1016 76 10000 5.14 230 23:53 16.02.2021
6330 Clouds 5 1016 95 10000 2.76 241 23:34 16.02.2021
6331 Clouds 4 1016 94 10000 2.76 241 22:42 16.02.2021
6332 Clouds 4 1015 93 10000 2.54 221 22:23 16.02.2021
6333 Clouds 4 1015 93 10000 2.54 221 21:42 16.02.2021
6334 Clouds 4 1015 93 10000 0.45 150 21:22 16.02.2021
6335 Clouds 5 1015 93 10000 0.45 156 20:59 16.02.2021
6336 Clouds 5 1016 93 10000 0.45 186 20:41 16.02.2021
6337 Clouds 5 1016 93 10000 0.45 188 20:20 16.02.2021
6338 Clouds 6 1017 92 10000 2.29 170 19:42 16.02.2021
6339 Clouds 6 1017 92 10000 2.65 154 19:22 16.02.2021
6340 Clouds 6 1017 85 10000 2.65 154 18:40 16.02.2021
6341 Clouds 7 1017 90 10000 2.49 162 18:22 16.02.2021
6342 Clear 7 1018 81 10000 3.09 130 17:50 16.02.2021
6343 Clear 7 1018 76 10000 3.6 140 17:26 16.02.2021
6344 Clear 8 1019 76 10000 2.06 150 16:51 16.02.2021
6345 Clouds 9 1019 81 10000 1.79 188 16:29 16.02.2021
6346 Clouds 9 1020 71 10000 2.57 210 15:47 16.02.2021
6347 Clouds 9 1020 82 10000 2.14 205 15:29 16.02.2021
6348 Clouds 10 1020 83 10000 2.13 205 14:55 16.02.2021
6349 Clouds 10 1020 84 10000 2.14 205 14:36 16.02.2021
6350 Clouds 8 1020 81 10000 2.06 210 14:18 16.02.2021
6351 Clouds 8 1021 79 10000 0.89 247 13:37 16.02.2021
6352 Clouds 8 1021 92 10000 2.31 234 12:47 16.02.2021
6353 Clouds 7 1022 93 10000 2.59 242 12:26 16.02.2021
6354 Clouds 7 1022 95 10000 2.59 242 11:58 16.02.2021
6355 Clouds 7 1022 95 10000 2.59 242 11:38 16.02.2021
6356 Clouds 6 1023 96 10000 2.89 236 11:19 16.02.2021
6357 Clouds 6 1023 95 10000 2.88 237 10:45 16.02.2021
6358 Clouds 6 1023 96 10000 2.37 237 10:27 16.02.2021
6359 Clouds 5 1023 96 10000 2.37 237 09:52 16.02.2021
6360 Clouds 5 1023 96 10000 2.23 248 09:26 16.02.2021
6361 Clouds 4 1023 97 10000 2.23 248 08:51 16.02.2021
6362 Clouds 4 1023 96 10000 2.28 246 08:28 16.02.2021
6363 Rain 4 1023 96 10000 2.28 246 07:44 16.02.2021
6364 Rain 4 1024 96 10000 0.45 233 06:51 16.02.2021
6365 Clouds 3 1025 96 10000 3.81 262 02:40 16.02.2021
6366 Rain 1 1026 92 10000 2.18 235 23:55 15.02.2021
6367 Snow 1 1025 93 10000 2.14 223 23:29 15.02.2021
6368 Snow 1 1025 94 10000 2.14 223 22:50 15.02.2021
6369 Rain 1 1026 94 10000 0.45 169 22:28 15.02.2021
6370 Snow 1 1027 93 10000 0.89 174 21:47 15.02.2021
6371 Snow 1 1027 91 3363 3.18 208 21:25 15.02.2021
6372 Snow 1 1028 88 3364 3.18 208 20:57 15.02.2021
6373 Snow 1 1028 76 3364 0.45 298 20:39 15.02.2021
6374 Snow 1 1028 71 9256 0.45 171 19:51 15.02.2021
6375 Snow 1 1028 70 10000 1.32 179 19:29 15.02.2021
6376 Snow 1 1028 68 7836 1.46 185 18:58 15.02.2021
6377 Snow 2 1028 66 10000 1.4 141 18:29 15.02.2021
6378 Snow 2 1028 64 10000 1.4 141 17:59 15.02.2021
6379 Rain 2 1028 60 8749 1.83 110 17:40 15.02.2021
6380 Rain 2 1028 57 8749 1.83 110 17:21 15.02.2021
6381 Rain 2 1029 54 8757 1.84 109 16:46 15.02.2021
6382 Rain 3 1029 52 9074 0.41 114 16:22 15.02.2021
6383 Rain 3 1029 51 9090 0.42 114 15:44 15.02.2021
6384 Clouds 3 1029 42 10000 1 122 15:20 15.02.2021
6385 Rain 3 1030 41 10000 1 122 14:49 15.02.2021
6386 Rain 3 1030 42 10000 1.29 126 14:21 15.02.2021
6387 Clouds 3 1030 38 10000 0.45 211 13:50 15.02.2021
6388 Clouds 3 1031 40 10000 0.36 116 13:28 15.02.2021
6389 Clouds 2 1031 45 10000 0.36 116 12:54 15.02.2021
6390 Clouds 2 1031 49 10000 0.45 74 12:36 15.02.2021
6391 Clouds 1 1032 50 10000 0.42 204 11:59 15.02.2021
6392 Clouds 0 1032 51 10000 0.42 204 11:39 15.02.2021
6393 Clouds 0 1032 51 10000 0.45 182 11:18 15.02.2021
6394 Clouds -1 1032 61 10000 0.98 188 10:42 15.02.2021
6395 Clouds -3 1033 68 10000 1.28 173 10:21 15.02.2021
6396 Clouds -5 1033 70 10000 1.28 173 09:52 15.02.2021
6397 Clear -8 1032 73 10000 1.54 210 09:32 15.02.2021
6398 Clear -12 1032 85 10000 1.03 130 08:34 15.02.2021
6399 Clear -13 1032 85 10000 0.51 0 07:34 15.02.2021
6400 Clouds -13 1032 85 10000 1.54 230 06:44 15.02.2021
6401 Clouds -9 1032 79 10000 1.54 80 04:59 15.02.2021
6402 Clouds -7 1034 77 10000 3 115 02:22 15.02.2021
6403 Clouds -6 1035 79 10000 3.2 113 00:33 15.02.2021
6404 Clouds -7 1036 83 10000 3.2 113 23:33 14.02.2021
6405 Clouds -7 1036 81 10000 3.49 112 22:52 14.02.2021
6406 Clouds -7 1036 83 10000 3.49 112 22:34 14.02.2021
6407 Clouds -6 1036 82 10000 3.57 109 21:57 14.02.2021
6408 Clouds -6 1036 83 10000 3.67 109 21:37 14.02.2021
6409 Clouds -6 1036 80 10000 3.68 109 21:18 14.02.2021
6410 Clouds -5 1037 78 10000 3.67 109 20:39 14.02.2021
6411 Clouds -6 1037 77 10000 3.53 106 20:20 14.02.2021
6412 Clouds -5 1037 71 10000 3.53 106 19:40 14.02.2021
6413 Clouds -3 1037 65 10000 3 91 18:49 14.02.2021
6414 Clouds -3 1037 64 10000 0.45 29 18:29 14.02.2021
6415 Clouds -2 1040 60 10000 2.69 82 17:51 14.02.2021
6416 Clouds -1 1036 62 10000 0.89 45 17:32 14.02.2021
6417 Clear -1 1036 34 10000 4.12 70 16:44 14.02.2021
6418 Clouds 0 1037 56 10000 0.89 56 16:25 14.02.2021
6419 Clouds 0 1037 52 10000 0.45 87 15:47 14.02.2021
6420 Clear 1 1037 51 10000 0.45 159 15:29 14.02.2021
6421 Clear 1 1037 50 10000 0.89 200 14:45 14.02.2021
6422 Clear 1 1037 50 10000 0.45 233 14:25 14.02.2021
6423 Clear 1 1037 51 10000 0.45 81 13:42 14.02.2021
6424 Clear 0 1037 52 10000 1.34 67 13:23 14.02.2021
6425 Clear 0 1038 55 10000 0.89 43 12:37 14.02.2021
6426 Clear -1 1038 54 10000 0.89 46 12:18 14.02.2021
6427 Clear -2 1038 57 10000 0.89 86 11:43 14.02.2021
6428 Clear -2 1038 58 10000 0.89 21 11:20 14.02.2021
6429 Clear -5 1038 67 10000 3.52 105 10:31 14.02.2021
6430 Clear -8 1038 83 10000 3.52 105 09:41 14.02.2021
6431 Clear -9 1038 86 10000 3.42 105 09:21 14.02.2021
6432 Clear -9 1038 86 10000 3.42 105 09:21 14.02.2021
6433 Clear -11 1036 78 10000 1.03 0 08:58 14.02.2021
6434 Clear -12 1036 85 10000 0.51 0 08:21 14.02.2021
6435 Clear -12 1036 85 10000 1.03 0 07:47 14.02.2021
6436 Clear -14 1036 85 10000 0.51 0 06:26 14.02.2021
6437 Clear -11 1035 85 10000 1.54 70 04:34 14.02.2021
6438 Clear -10 1037 86 10000 3.39 95 02:30 14.02.2021
6439 Clear -10 1036 85 10000 0.45 54 01:29 14.02.2021
6440 Clear -10 1036 88 10000 3.58 97 00:42 14.02.2021
6441 Clear -10 1036 85 10000 3.67 94 23:57 13.02.2021
6442 Clear -10 1036 85 10000 4.18 94 23:25 13.02.2021
6443 Clear -10 1036 83 10000 4.18 94 22:59 13.02.2021
6444 Clear -9 1036 82 10000 4.35 91 22:26 13.02.2021
6445 Clear -8 1036 81 10000 4.35 91 21:49 13.02.2021
6446 Clear -8 1036 79 10000 4.68 90 21:27 13.02.2021
6447 Clear -8 1036 78 10000 4.68 90 20:45 13.02.2021
6448 Clear -8 1035 75 10000 4.85 86 20:27 13.02.2021
6449 Clear -7 1035 71 10000 4.85 86 19:48 13.02.2021
6450 Clear -6 1035 68 10000 0.45 40 19:24 13.02.2021
6451 Clear -6 1035 65 10000 0.45 42 18:50 13.02.2021
6452 Clear -6 1034 63 10000 0.89 58 18:27 13.02.2021
6453 Clear -5 1034 60 10000 0.89 21 17:44 13.02.2021
6454 Clear -5 1034 60 10000 1.79 28 17:25 13.02.2021
6455 Clear -4 1034 58 10000 2.24 33 16:53 13.02.2021
6456 Clear -4 1033 57 10000 2.68 46 16:35 13.02.2021
6457 Clear -4 1033 55 10000 3.13 61 15:46 13.02.2021
6458 Clear -4 1033 54 10000 2.68 68 15:26 13.02.2021
6459 Clear -4 1033 47 10000 2.24 49 14:41 13.02.2021
6460 Clear -4 1033 47 10000 1.34 191 13:54 13.02.2021
6461 Clear -4 1033 46 10000 1.79 221 13:29 13.02.2021
6462 Clear -4 1033 49 10000 1.34 40 12:57 13.02.2021
6463 Clear -4 1033 52 10000 1.34 65 12:36 13.02.2021
6464 Clear -5 1033 58 10000 0.89 335 12:18 13.02.2021
6465 Clear -5 1033 63 10000 1.34 38 11:40 13.02.2021
6466 Clear -6 1033 64 10000 1.79 207 11:18 13.02.2021
6467 Clear -7 1033 66 10000 1.34 284 10:43 13.02.2021
6468 Clear -8 1033 68 10000 2.68 49 10:23 13.02.2021
6469 Clear -8 1033 71 10000 2.24 26 09:48 13.02.2021
6470 Clear -10 1032 79 10000 0.89 22 09:28 13.02.2021
6471 Clear -10 1032 82 10000 0.45 42 08:50 13.02.2021
6472 Clear -11 1032 84 10000 0.89 49 08:19 13.02.2021
6473 Clear -11 1031 83 10000 1.34 40 07:23 13.02.2021
6474 Clear -11 1031 82 10000 1.34 30 06:25 13.02.2021
6475 Clear -11 1030 82 10000 1.34 46 05:18 13.02.2021
6476 Clear -10 1030 80 10000 1.34 49 02:44 13.02.2021
6477 Clear -9 1029 78 10000 0.89 80 00:57 13.02.2021
6478 Clear -9 1029 78 10000 1.34 87 00:57 13.02.2021
6479 Clear -9 1029 79 10000 1.34 49 00:19 13.02.2021
6480 Clear -9 1029 79 10000 1.79 28 23:45 12.02.2021
6481 Clear -9 1029 78 10000 0.89 40 23:19 12.02.2021
6482 Clear -9 1028 78 10000 0.89 38 22:37 12.02.2021
6483 Clear -9 1028 77 10000 0.89 37 22:18 12.02.2021
6484 Clear -9 1028 77 10000 0.45 21 21:42 12.02.2021
6485 Clear -8 1028 76 10000 0.89 30 21:22 12.02.2021
6486 Clear -8 1028 76 10000 0.89 80 20:45 12.02.2021
6487 Clear -8 1028 76 10000 1.34 60 20:26 12.02.2021
6488 Clear -8 1028 75 10000 0.45 38 19:55 12.02.2021
6489 Clear -7 1027 74 10000 0.89 38 19:29 12.02.2021
6490 Clouds -7 1027 71 10000 1.79 38 18:44 12.02.2021
6491 Clouds -7 1027 70 10000 1.34 42 18:25 12.02.2021
6492 Clouds -6 1027 66 10000 1.34 46 17:41 12.02.2021
6493 Clouds -6 1026 59 10000 2.24 38 16:56 12.02.2021
6494 Clear -5 1026 59 10000 2.68 67 16:21 12.02.2021
6495 Clear -5 1026 60 10000 2.24 101 15:44 12.02.2021
6496 Clear -4 1025 61 10000 1.34 10 15:20 12.02.2021
6497 Clear -4 1025 62 10000 2.24 35 14:39 12.02.2021
6498 Clear -4 1025 62 10000 2.24 38 13:58 12.02.2021
6499 Clear -4 1025 64 10000 1.79 311 13:40 12.02.2021
6500 Clear -5 1025 66 10000 2.24 14 12:55 12.02.2021
6501 Clear -4 1025 66 10000 2.68 32 12:36 12.02.2021
6502 Clear -5 1025 70 10000 0.89 198 11:58 12.02.2021
6503 Clear -5 1025 70 10000 1.79 320 11:37 12.02.2021
6504 Clouds -6 1025 73 10000 0.89 323 11:18 12.02.2021
6505 Clouds -6 1025 75 10000 0.89 325 10:40 12.02.2021
6506 Clouds -8 1026 87 10000 0.89 37 09:48 12.02.2021
6507 Clouds -9 1026 92 10000 0.45 11 09:24 12.02.2021
6508 Clouds -11 1025 91 10000 0.45 32 08:49 12.02.2021
6509 Clouds -11 1029 87 10000 0.45 112 08:27 12.02.2021
6510 Clouds -12 1029 87 10000 4.29 89 07:53 12.02.2021
6511 Clouds -12 1025 90 10000 4.29 89 07:31 12.02.2021
6512 Clear -13 1025 90 10000 3.77 86 06:55 12.02.2021
6513 Clear -13 1025 92 10000 1.54 80 05:43 12.02.2021
6514 Clear -13 1024 85 10000 1.54 90 04:30 12.02.2021
6515 Clear -13 1025 85 10000 4.12 80 01:28 12.02.2021
6516 Clear -13 1026 85 10000 2.57 90 23:41 11.02.2021
6517 Clear -12 1026 85 4200 0.51 0 23:22 11.02.2021
6518 Clear -13 1026 85 8000 1.03 50 22:46 11.02.2021
6519 Clear -11 1026 85 10000 2.22 80 22:24 11.02.2021
6520 Clear -11 1026 86 10000 2.22 80 21:57 11.02.2021
6521 Clear -10 1026 87 10000 2.22 80 21:36 11.02.2021
6522 Clear -10 1026 86 10000 2.03 82 21:18 11.02.2021
6523 Clear -10 1026 84 10000 2.03 82 20:41 11.02.2021
6524 Clear -9 1026 83 10000 2 76 20:21 11.02.2021
6525 Clear -9 1026 81 10000 2 76 19:47 11.02.2021
6526 Clear -8 1026 78 10000 1.99 59 19:28 11.02.2021
6527 Clear -7 1026 76 10000 0.45 38 18:49 11.02.2021
6528 Clear -7 1026 77 10000 1.98 47 18:28 11.02.2021
6529 Clear -7 1025 75 10000 0.45 15 17:52 11.02.2021
6530 Clear -6 1025 72 10000 0.45 32 17:22 11.02.2021
6531 Clear -6 1025 71 10000 2.13 43 16:57 11.02.2021
6532 Clear -6 1025 71 10000 2.27 43 16:39 11.02.2021
6533 Clear -5 1024 70 10000 2.27 43 16:20 11.02.2021
6534 Clear -5 1024 71 10000 2.27 43 15:41 11.02.2021
6535 Clear -5 1024 68 10000 0.45 41 15:23 11.02.2021
6536 Clear -5 1024 66 10000 0.45 40 14:44 11.02.2021
6537 Clear -5 1024 68 10000 2.22 48 14:25 11.02.2021
6538 Clear -6 1024 65 10000 0.45 40 13:41 11.02.2021
6539 Clear -6 1024 65 10000 0.45 49 13:19 11.02.2021
6540 Clear -6 1024 69 10000 1.7 45 12:47 11.02.2021
6541 Clear -6 1024 70 10000 1.11 46 12:23 11.02.2021
6542 Clear -6 1024 72 10000 0.45 263 11:45 11.02.2021
6543 Clear -7 1024 74 10000 0.51 4 11:22 11.02.2021
6544 Clear -7 1024 77 10000 0.45 184 10:44 11.02.2021
6545 Clouds -8 1023 79 10000 0.45 229 10:26 11.02.2021
6546 Clouds -9 1023 81 10000 1 289 09:53 11.02.2021
6547 Clouds -10 1023 86 10000 1.5 278 09:22 11.02.2021
6548 Clouds -10 1023 86 10000 1.5 278 08:53 11.02.2021
6549 Clouds -10 1022 86 10000 1.79 285 08:24 11.02.2021
6550 Clouds -10 1022 87 10000 0.45 121 07:38 11.02.2021
6551 Clouds -10 1020 88 10000 0.45 240 06:41 11.02.2021
6552 Clouds -10 1019 89 6823 0.45 242 05:33 11.02.2021
6553 Snow -8 1016 89 261 0.45 271 02:29 11.02.2021
6554 Snow -8 1015 89 259 0.45 216 01:29 11.02.2021
6555 Snow -8 1013 89 280 0.89 226 00:22 11.02.2021
6556 Snow -7 1012 90 280 0.89 239 23:45 10.02.2021
6557 Snow -7 1011 90 196 0.89 236 22:53 10.02.2021
6558 Snow -7 1011 91 196 0.45 227 22:31 10.02.2021
6559 Snow -6 1010 91 192 0.45 248 21:59 10.02.2021
6560 Snow -6 1010 91 192 0.89 228 21:38 10.02.2021
6561 Snow -5 1010 91 173 0.45 223 21:19 10.02.2021
6562 Snow -5 1008 92 173 0.45 235 20:42 10.02.2021
6563 Snow -5 1008 92 240 0.45 235 20:24 10.02.2021
6564 Snow -4 1007 92 240 3.4 343 19:47 10.02.2021
6565 Snow -4 1007 92 197 0.45 84 19:26 10.02.2021
6566 Snow -4 1006 92 232 3.64 338 18:47 10.02.2021
6567 Snow -3 1005 92 178 0.45 156 18:24 10.02.2021
6568 Snow -3 1005 92 179 3.57 344 17:57 10.02.2021
6569 Snow -3 1005 92 154 0.45 223 17:26 10.02.2021
6570 Snow -2 1004 93 154 3.21 350 16:57 10.02.2021
6571 Snow -2 1003 93 154 3.2 350 16:37 10.02.2021
6572 Snow -2 1003 93 150 3.02 350 16:19 10.02.2021
6573 Snow -1 1002 93 114 2.6 358 15:24 10.02.2021
6574 Snow -1 1002 93 114 0.45 130 14:52 10.02.2021
6575 Clouds -1 1001 93 112 0.45 70 14:34 10.02.2021
6576 Snow 0 1001 94 129 2.46 1 13:54 10.02.2021
6577 Snow 0 1001 94 235 2.46 6 13:30 10.02.2021
6578 Snow 0 1000 94 1951 2.91 6 12:53 10.02.2021
6579 Snow 0 1000 94 10000 0.45 80 12:30 10.02.2021
6580 Snow 0 1000 94 10000 0.89 52 11:58 10.02.2021
6581 Snow 0 1000 94 10000 0.45 32 11:39 10.02.2021
6582 Snow 0 999 94 10000 0.45 54 11:21 10.02.2021
6583 Snow -1 999 94 8687 0.45 60 10:25 10.02.2021
6584 Snow -1 999 94 8688 2.83 63 09:57 10.02.2021
6585 Snow -1 999 94 7624 0.45 32 09:33 10.02.2021
6586 Snow -1 998 93 7622 0.45 53 08:57 10.02.2021
6587 Snow -1 998 93 9570 0.45 42 08:39 10.02.2021
6588 Snow -1 998 93 10000 3.19 61 07:41 10.02.2021
6589 Snow -1 998 93 10000 0.45 59 06:33 10.02.2021
6590 Clouds 0 1000 94 10000 0.45 50 02:26 10.02.2021
6591 Clouds 0 1001 94 10000 2.92 73 00:24 10.02.2021
6592 Clouds 0 1001 94 10000 2.92 73 23:34 09.02.2021
6593 Clouds -1 1001 93 10000 2.74 71 22:54 09.02.2021
6594 Clouds -1 1001 93 10000 0.45 42 22:24 09.02.2021
6595 Clouds -1 1002 93 10000 2.64 70 21:52 09.02.2021
6596 Clouds -1 1002 93 10000 2.64 70 21:32 09.02.2021
6597 Clouds -1 1002 92 10000 2.2 65 20:49 09.02.2021
6598 Clouds -1 1002 92 10000 1.78 58 20:26 09.02.2021
6599 Clouds 0 1002 92 10000 1.77 58 19:58 09.02.2021
6600 Clouds 0 1002 92 10000 1.74 64 19:36 09.02.2021
6601 Clouds 0 1002 91 10000 1.47 50 18:58 09.02.2021
6602 Clouds 0 1002 91 10000 1.46 51 18:58 09.02.2021
6603 Clouds 0 1002 91 10000 1.47 50 18:58 09.02.2021
6604 Clouds 0 1002 91 10000 1.47 50 18:58 09.02.2021
6605 Clouds 0 1002 91 10000 1.19 24 18:36 09.02.2021
6606 Clouds 0 1002 91 10000 1.19 24 17:57 09.02.2021
6607 Clouds 0 1002 91 10000 1.19 24 17:39 09.02.2021
6608 Clouds 0 1002 91 10000 1.36 358 17:20 09.02.2021
6609 Clouds 0 1002 91 10000 1.36 358 16:42 09.02.2021
6610 Clouds 0 1002 91 10000 1.99 351 16:18 09.02.2021
6611 Clouds 0 1002 91 10000 1.99 351 15:50 09.02.2021
6612 Clouds 0 1001 91 10000 2.28 327 15:25 09.02.2021
6613 Clouds 0 1001 91 10000 2.28 327 14:54 09.02.2021
6614 Clouds 0 1001 90 10000 2.42 305 14:28 09.02.2021
6615 Clouds 0 1001 89 10000 0.45 79 13:52 09.02.2021
6616 Clouds 0 1000 89 10000 0.45 42 13:25 09.02.2021
6617 Clouds 0 1000 89 10000 1.92 306 12:54 09.02.2021
6618 Clouds 0 1000 90 10000 0.45 52 12:36 09.02.2021
6619 Clouds 0 1000 90 10000 1.18 350 11:57 09.02.2021
6620 Clouds 0 1000 90 10000 1.18 350 11:38 09.02.2021
6621 Clouds 0 1000 90 10000 1.25 349 11:20 09.02.2021
6622 Clouds 0 1000 91 10000 1.25 349 10:50 09.02.2021
6623 Clouds -1 1000 91 10000 0.9 27 10:19 09.02.2021
6624 Snow -1 999 90 10000 0.9 27 09:43 09.02.2021
6625 Snow -1 999 90 10000 0.93 9 09:25 09.02.2021
6626 Snow -1 999 90 10000 0.93 9 08:47 09.02.2021
6627 Snow -1 998 90 3836 0.98 43 08:26 09.02.2021
6628 Snow -1 998 90 2195 0.45 47 06:49 09.02.2021
6629 Clouds -1 998 90 866 0.78 71 04:52 09.02.2021
6630 Clouds -1 998 89 6092 0.27 124 03:38 09.02.2021
6631 Snow 0 997 88 3753 0.89 284 00:39 09.02.2021
6632 Clouds 0 997 88 6150 1.34 265 23:57 08.02.2021
6633 Clouds 1 996 88 10000 1.79 253 23:21 08.02.2021
6634 Clouds 1 996 89 10000 1.79 252 22:44 08.02.2021
6635 Clouds 1 996 90 3407 1.34 281 22:25 08.02.2021
6636 Clouds 1 996 90 3567 0.45 173 21:57 08.02.2021
6637 Clouds 1 995 90 10000 3.31 276 21:36 08.02.2021
6638 Clouds 0 995 90 10000 3.35 276 21:18 08.02.2021
6639 Clouds 0 994 90 10000 3.35 276 20:42 08.02.2021
6640 Clouds 0 994 89 10000 2.26 248 20:21 08.02.2021
6641 Clouds 1 994 87 10000 2.26 248 19:45 08.02.2021
6642 Clouds 1 994 85 10000 0.65 196 19:26 08.02.2021
6643 Clouds 2 994 82 10000 0.64 194 18:49 08.02.2021
6644 Clouds 3 994 78 10000 0.85 132 18:24 08.02.2021
6645 Clouds 4 994 72 10000 0.85 134 17:47 08.02.2021
6646 Clouds 4 994 70 10000 1.16 130 17:26 08.02.2021
6647 Clouds 5 994 68 10000 0.45 252 16:47 08.02.2021
6648 Clouds 5 994 68 10000 0.45 252 16:23 08.02.2021
6649 Clouds 5 994 71 10000 0.45 215 15:56 08.02.2021
6650 Clouds 5 994 69 10000 0.89 271 15:37 08.02.2021
6651 Clouds 6 994 65 10000 1.34 204 15: